<?xml version='1.0' encoding='UTF-8'?><gpx version="1.1" creator="JPX - https://github.com/jenetics/jpx" xmlns="http://www.topografix.com/GPX/1/1"><trk><trkseg><trkpt lat="43.2472784" lon="10.5295221"><ele>5.0</ele><time>2026-04-04T11:53:43.652Z</time></trkpt><trkpt lat="43.2473066" lon="10.5296061"><ele>5.0</ele><time>2026-04-04T12:00:40.696Z</time></trkpt><trkpt lat="43.2473138" lon="10.5296979"><ele>5.0</ele><time>2026-04-04T12:00:46.705Z</time></trkpt><trkpt lat="43.2472558" lon="10.5296606"><ele>5.0</ele><time>2026-04-04T12:00:59.723Z</time></trkpt><trkpt lat="43.2472522" lon="10.5297483"><ele>5.0</ele><time>2026-04-04T12:19:33.666Z</time></trkpt><trkpt lat="43.2472345" lon="10.5296642"><ele>5.0</ele><time>2026-04-04T12:19:41.69Z</time></trkpt><trkpt lat="43.2471554" lon="10.5295802"><ele>5.0</ele><time>2026-04-04T12:19:42.694Z</time></trkpt><trkpt lat="43.2470794" lon="10.5295278"><ele>5.0</ele><time>2026-04-04T12:19:44.697Z</time></trkpt><trkpt lat="43.2469862" lon="10.5295125"><ele>5.0</ele><time>2026-04-04T12:19:51.685Z</time></trkpt><trkpt lat="43.2469203" lon="10.5295462"><ele>5.0</ele><time>2026-04-04T12:19:52.673Z</time></trkpt><trkpt lat="43.2468624" lon="10.5296027"><ele>5.0</ele><time>2026-04-04T12:19:53.666Z</time></trkpt><trkpt lat="43.2467812" lon="10.5296954"><ele>5.0</ele><time>2026-04-04T12:19:55.676Z</time></trkpt><trkpt lat="43.2467043" lon="10.5297913"><ele>5.0</ele><time>2026-04-04T12:19:57.679Z</time></trkpt><trkpt lat="43.2466504" lon="10.52994"><ele>5.0</ele><time>2026-04-04T12:19:59.682Z</time></trkpt><trkpt lat="43.246621" lon="10.5300243"><ele>5.0</ele><time>2026-04-04T12:20:00.686Z</time></trkpt><trkpt lat="43.2465812" lon="10.5301089"><ele>5.0</ele><time>2026-04-04T12:20:01.681Z</time></trkpt><trkpt lat="43.2465449" lon="10.5301851"><ele>5.0</ele><time>2026-04-04T12:20:02.676Z</time></trkpt><trkpt lat="43.2465069" lon="10.5302802"><ele>5.0</ele><time>2026-04-04T12:20:03.678Z</time></trkpt><trkpt lat="43.2464676" lon="10.5303764"><ele>5.0</ele><time>2026-04-04T12:20:04.668Z</time></trkpt><trkpt lat="43.2464247" lon="10.5304791"><ele>5.0</ele><time>2026-04-04T12:20:05.679Z</time></trkpt><trkpt lat="43.246381" lon="10.5305759"><ele>5.0</ele><time>2026-04-04T12:20:06.671Z</time></trkpt><trkpt lat="43.2463336" lon="10.530667"><ele>5.0</ele><time>2026-04-04T12:20:07.675Z</time></trkpt><trkpt lat="43.2462835" lon="10.5307666"><ele>5.0</ele><time>2026-04-04T12:20:08.676Z</time></trkpt><trkpt lat="43.246238" lon="10.5308619"><ele>5.0</ele><time>2026-04-04T12:20:09.677Z</time></trkpt><trkpt lat="43.2461948" lon="10.5309623"><ele>5.0</ele><time>2026-04-04T12:20:10.691Z</time></trkpt><trkpt lat="43.2461436" lon="10.5310725"><ele>5.0</ele><time>2026-04-04T12:20:11.674Z</time></trkpt><trkpt lat="43.2460905" lon="10.5311764"><ele>5.0</ele><time>2026-04-04T12:20:12.677Z</time></trkpt><trkpt lat="43.2460364" lon="10.5312792"><ele>5.0</ele><time>2026-04-04T12:20:13.683Z</time></trkpt><trkpt lat="43.2459841" lon="10.531382"><ele>5.0</ele><time>2026-04-04T12:20:14.677Z</time></trkpt><trkpt lat="43.2459327" lon="10.5314868"><ele>5.0</ele><time>2026-04-04T12:20:15.682Z</time></trkpt><trkpt lat="43.2458805" lon="10.5315882"><ele>4.6</ele><time>2026-04-04T12:20:16.69Z</time></trkpt><trkpt lat="43.2458338" lon="10.531697"><ele>4.2</ele><time>2026-04-04T12:20:17.67Z</time></trkpt><trkpt lat="43.2457754" lon="10.5318327"><ele>3.8</ele><time>2026-04-04T12:20:18.669Z</time></trkpt><trkpt lat="43.2457377" lon="10.5319648"><ele>3.4</ele><time>2026-04-04T12:20:19.673Z</time></trkpt><trkpt lat="43.2456893" lon="10.5320748"><ele>3.0</ele><time>2026-04-04T12:20:20.679Z</time></trkpt><trkpt lat="43.2456302" lon="10.5321835"><ele>3.2</ele><time>2026-04-04T12:20:21.678Z</time></trkpt><trkpt lat="43.245568" lon="10.5322873"><ele>3.4</ele><time>2026-04-04T12:20:22.682Z</time></trkpt><trkpt lat="43.2455044" lon="10.532398"><ele>3.6000000000000005</ele><time>2026-04-04T12:20:23.687Z</time></trkpt><trkpt lat="43.2454445" lon="10.5325135"><ele>3.8000000000000003</ele><time>2026-04-04T12:20:24.682Z</time></trkpt><trkpt lat="43.2453911" lon="10.5326177"><ele>4.0</ele><time>2026-04-04T12:20:25.683Z</time></trkpt><trkpt lat="43.245337" lon="10.5327139"><ele>3.9999999999999996</ele><time>2026-04-04T12:20:26.68Z</time></trkpt><trkpt lat="43.2452859" lon="10.5328062"><ele>4.0</ele><time>2026-04-04T12:20:27.681Z</time></trkpt><trkpt lat="43.2452416" lon="10.5329002"><ele>4.0</ele><time>2026-04-04T12:20:28.676Z</time></trkpt><trkpt lat="43.2451908" lon="10.5329737"><ele>4.0</ele><time>2026-04-04T12:20:29.678Z</time></trkpt><trkpt lat="43.2451398" lon="10.5330326"><ele>3.9999999999999996</ele><time>2026-04-04T12:20:30.664Z</time></trkpt><trkpt lat="43.2451039" lon="10.5331124"><ele>4.0</ele><time>2026-04-04T12:20:32.66Z</time></trkpt><trkpt lat="43.2451372" lon="10.5332212"><ele>4.6</ele><time>2026-04-04T12:20:36.692Z</time></trkpt><trkpt lat="43.2452139" lon="10.5332864"><ele>5.2</ele><time>2026-04-04T12:20:38.686Z</time></trkpt><trkpt lat="43.2453062" lon="10.5334085"><ele>5.799999999999999</ele><time>2026-04-04T12:20:40.676Z</time></trkpt><trkpt lat="43.2453607" lon="10.5335085"><ele>6.3999999999999995</ele><time>2026-04-04T12:20:41.682Z</time></trkpt><trkpt lat="43.2454194" lon="10.5336231"><ele>7.0</ele><time>2026-04-04T12:20:42.67Z</time></trkpt><trkpt lat="43.2454858" lon="10.5337426"><ele>7.0</ele><time>2026-04-04T12:20:43.669Z</time></trkpt><trkpt lat="43.2455516" lon="10.5338699"><ele>7.0</ele><time>2026-04-04T12:20:44.673Z</time></trkpt><trkpt lat="43.2456207" lon="10.5339948"><ele>7.0</ele><time>2026-04-04T12:20:45.682Z</time></trkpt><trkpt lat="43.2456781" lon="10.5341304"><ele>7.0</ele><time>2026-04-04T12:20:46.669Z</time></trkpt><trkpt lat="43.2457253" lon="10.5342924"><ele>6.75</ele><time>2026-04-04T12:20:47.665Z</time></trkpt><trkpt lat="43.2457639" lon="10.5344669"><ele>6.5</ele><time>2026-04-04T12:20:48.669Z</time></trkpt><trkpt lat="43.2457966" lon="10.534631"><ele>6.25</ele><time>2026-04-04T12:20:49.676Z</time></trkpt><trkpt lat="43.2458332" lon="10.5347927"><ele>6.0</ele><time>2026-04-04T12:20:50.667Z</time></trkpt><trkpt lat="43.2458759" lon="10.5349521"><ele>6.0</ele><time>2026-04-04T12:20:51.674Z</time></trkpt><trkpt lat="43.2459264" lon="10.5351007"><ele>6.0</ele><time>2026-04-04T12:20:52.673Z</time></trkpt><trkpt lat="43.2459711" lon="10.5352423"><ele>6.0</ele><time>2026-04-04T12:20:53.672Z</time></trkpt><trkpt lat="43.2460101" lon="10.5353806"><ele>6.0</ele><time>2026-04-04T12:20:54.666Z</time></trkpt><trkpt lat="43.2460483" lon="10.5355027"><ele>6.0</ele><time>2026-04-04T12:20:55.668Z</time></trkpt><trkpt lat="43.2460825" lon="10.5356151"><ele>5.833333333333333</ele><time>2026-04-04T12:20:56.661Z</time></trkpt><trkpt lat="43.2461187" lon="10.5357164"><ele>5.666666666666667</ele><time>2026-04-04T12:20:57.665Z</time></trkpt><trkpt lat="43.2461417" lon="10.5358081"><ele>5.5</ele><time>2026-04-04T12:20:58.667Z</time></trkpt><trkpt lat="43.2461615" lon="10.5359107"><ele>5.333333333333334</ele><time>2026-04-04T12:20:59.677Z</time></trkpt><trkpt lat="43.2461789" lon="10.5360411"><ele>5.166666666666667</ele><time>2026-04-04T12:21:00.673Z</time></trkpt><trkpt lat="43.2462046" lon="10.5361747"><ele>5.0</ele><time>2026-04-04T12:21:01.68Z</time></trkpt><trkpt lat="43.2462425" lon="10.5363109"><ele>4.833333333333334</ele><time>2026-04-04T12:21:02.68Z</time></trkpt><trkpt lat="43.2462784" lon="10.5364471"><ele>4.666666666666667</ele><time>2026-04-04T12:21:03.696Z</time></trkpt><trkpt lat="43.2463033" lon="10.5365647"><ele>4.5</ele><time>2026-04-04T12:21:04.689Z</time></trkpt><trkpt lat="43.2463314" lon="10.5366826"><ele>4.333333333333333</ele><time>2026-04-04T12:21:05.688Z</time></trkpt><trkpt lat="43.2463561" lon="10.5367905"><ele>4.166666666666666</ele><time>2026-04-04T12:21:06.69Z</time></trkpt><trkpt lat="43.2463779" lon="10.536885"><ele>4.0</ele><time>2026-04-04T12:21:07.695Z</time></trkpt><trkpt lat="43.2464082" lon="10.5369807"><ele>3.9999999999999996</ele><time>2026-04-04T12:21:08.691Z</time></trkpt><trkpt lat="43.2464257" lon="10.5370833"><ele>4.0</ele><time>2026-04-04T12:21:09.69Z</time></trkpt><trkpt lat="43.2464464" lon="10.5371929"><ele>4.0</ele><time>2026-04-04T12:21:10.693Z</time></trkpt><trkpt lat="43.2464759" lon="10.5373101"><ele>4.0</ele><time>2026-04-04T12:21:11.691Z</time></trkpt><trkpt lat="43.246509" lon="10.5374342"><ele>3.9999999999999996</ele><time>2026-04-04T12:21:12.707Z</time></trkpt><trkpt lat="43.2465442" lon="10.5375519"><ele>4.0</ele><time>2026-04-04T12:21:13.704Z</time></trkpt><trkpt lat="43.2465901" lon="10.5376949"><ele>4.0</ele><time>2026-04-04T12:21:14.692Z</time></trkpt><trkpt lat="43.246637" lon="10.5378459"><ele>4.0</ele><time>2026-04-04T12:21:15.698Z</time></trkpt><trkpt lat="43.2466767" lon="10.5380126"><ele>4.0</ele><time>2026-04-04T12:21:16.694Z</time></trkpt><trkpt lat="43.246717" lon="10.5381734"><ele>4.0</ele><time>2026-04-04T12:21:17.69Z</time></trkpt><trkpt lat="43.2467506" lon="10.5383268"><ele>4.0</ele><time>2026-04-04T12:21:18.696Z</time></trkpt><trkpt lat="43.2467832" lon="10.5384831"><ele>4.0</ele><time>2026-04-04T12:21:19.699Z</time></trkpt><trkpt lat="43.2468202" lon="10.538644"><ele>4.0</ele><time>2026-04-04T12:21:20.693Z</time></trkpt><trkpt lat="43.2468558" lon="10.5388099"><ele>4.0</ele><time>2026-04-04T12:21:21.698Z</time></trkpt><trkpt lat="43.2468924" lon="10.5389728"><ele>3.5</ele><time>2026-04-04T12:21:22.694Z</time></trkpt><trkpt lat="43.2469314" lon="10.5391396"><ele>3.0</ele><time>2026-04-04T12:21:23.705Z</time></trkpt><trkpt lat="43.2469795" lon="10.539313"><ele>2.5</ele><time>2026-04-04T12:21:24.696Z</time></trkpt><trkpt lat="43.2470278" lon="10.5394834"><ele>2.0</ele><time>2026-04-04T12:21:25.694Z</time></trkpt><trkpt lat="43.247071" lon="10.5396567"><ele>2.0</ele><time>2026-04-04T12:21:26.701Z</time></trkpt><trkpt lat="43.2471128" lon="10.5398267"><ele>2.0</ele><time>2026-04-04T12:21:27.694Z</time></trkpt><trkpt lat="43.2471545" lon="10.5399868"><ele>2.0</ele><time>2026-04-04T12:21:28.692Z</time></trkpt><trkpt lat="43.247195" lon="10.5401151"><ele>2.0</ele><time>2026-04-04T12:21:29.691Z</time></trkpt><trkpt lat="43.2472203" lon="10.5402344"><ele>2.0</ele><time>2026-04-04T12:21:30.693Z</time></trkpt><trkpt lat="43.2472315" lon="10.540338"><ele>2.1666666666666665</ele><time>2026-04-04T12:21:31.687Z</time></trkpt><trkpt lat="43.2472029" lon="10.5404918"><ele>2.333333333333333</ele><time>2026-04-04T12:21:33.697Z</time></trkpt><trkpt lat="43.2472145" lon="10.5405943"><ele>2.5</ele><time>2026-04-04T12:21:38.694Z</time></trkpt><trkpt lat="43.2472136" lon="10.5407028"><ele>2.6666666666666665</ele><time>2026-04-04T12:22:15.719Z</time></trkpt><trkpt lat="43.2473042" lon="10.5407634"><ele>2.8333333333333335</ele><time>2026-04-04T12:29:55.697Z</time></trkpt><trkpt lat="43.2473702" lon="10.5408087"><ele>3.0</ele><time>2026-04-04T12:29:57.698Z</time></trkpt><trkpt lat="43.247419" lon="10.5408802"><ele>3.0</ele><time>2026-04-04T12:30:00.699Z</time></trkpt><trkpt lat="43.2474639" lon="10.5410529"><ele>3.0</ele><time>2026-04-04T12:30:02.686Z</time></trkpt><trkpt lat="43.2474964" lon="10.5411878"><ele>3.0</ele><time>2026-04-04T12:30:03.689Z</time></trkpt><trkpt lat="43.2475249" lon="10.5413227"><ele>3.0</ele><time>2026-04-04T12:30:04.693Z</time></trkpt><trkpt lat="43.2475531" lon="10.5414601"><ele>3.0</ele><time>2026-04-04T12:30:05.687Z</time></trkpt><trkpt lat="43.2475862" lon="10.5415952"><ele>3.0</ele><time>2026-04-04T12:30:06.695Z</time></trkpt><trkpt lat="43.2476245" lon="10.5417439"><ele>3.0</ele><time>2026-04-04T12:30:07.694Z</time></trkpt><trkpt lat="43.247657" lon="10.5419072"><ele>3.0</ele><time>2026-04-04T12:30:08.682Z</time></trkpt><trkpt lat="43.2477045" lon="10.5420615"><ele>3.0</ele><time>2026-04-04T12:30:09.684Z</time></trkpt><trkpt lat="43.2477436" lon="10.5422281"><ele>3.0</ele><time>2026-04-04T12:30:10.706Z</time></trkpt><trkpt lat="43.2477782" lon="10.5423779"><ele>3.0</ele><time>2026-04-04T12:30:11.695Z</time></trkpt><trkpt lat="43.2478155" lon="10.5425283"><ele>3.0</ele><time>2026-04-04T12:30:12.692Z</time></trkpt><trkpt lat="43.2478512" lon="10.5426811"><ele>3.0</ele><time>2026-04-04T12:30:13.696Z</time></trkpt><trkpt lat="43.2478826" lon="10.5428453"><ele>3.25</ele><time>2026-04-04T12:30:14.692Z</time></trkpt><trkpt lat="43.2479233" lon="10.5430117"><ele>3.5</ele><time>2026-04-04T12:30:15.696Z</time></trkpt><trkpt lat="43.2479649" lon="10.5431703"><ele>3.75</ele><time>2026-04-04T12:30:16.69Z</time></trkpt><trkpt lat="43.2480056" lon="10.5433241"><ele>4.0</ele><time>2026-04-04T12:30:17.693Z</time></trkpt><trkpt lat="43.2480461" lon="10.5434731"><ele>4.0</ele><time>2026-04-04T12:30:18.692Z</time></trkpt><trkpt lat="43.2480943" lon="10.5436109"><ele>4.0</ele><time>2026-04-04T12:30:19.692Z</time></trkpt><trkpt lat="43.2481198" lon="10.5437539"><ele>4.0</ele><time>2026-04-04T12:30:20.694Z</time></trkpt><trkpt lat="43.2481459" lon="10.543881"><ele>4.0</ele><time>2026-04-04T12:30:21.695Z</time></trkpt><trkpt lat="43.2481817" lon="10.5440135"><ele>4.0</ele><time>2026-04-04T12:30:22.696Z</time></trkpt><trkpt lat="43.2481975" lon="10.5441473"><ele>4.0</ele><time>2026-04-04T12:30:23.693Z</time></trkpt><trkpt lat="43.2481922" lon="10.5442697"><ele>4.0</ele><time>2026-04-04T12:30:24.693Z</time></trkpt><trkpt lat="43.2481661" lon="10.5443988"><ele>4.0</ele><time>2026-04-04T12:30:25.697Z</time></trkpt><trkpt lat="43.2481429" lon="10.5445308"><ele>4.0</ele><time>2026-04-04T12:30:26.695Z</time></trkpt><trkpt lat="43.2481454" lon="10.5446495"><ele>4.0</ele><time>2026-04-04T12:30:27.681Z</time></trkpt><trkpt lat="43.248177" lon="10.5447638"><ele>3.75</ele><time>2026-04-04T12:30:28.679Z</time></trkpt><trkpt lat="43.248243" lon="10.5448827"><ele>3.5</ele><time>2026-04-04T12:30:29.693Z</time></trkpt><trkpt lat="43.2483127" lon="10.5450167"><ele>3.25</ele><time>2026-04-04T12:30:30.693Z</time></trkpt><trkpt lat="43.248375" lon="10.5451889"><ele>3.0</ele><time>2026-04-04T12:30:31.688Z</time></trkpt><trkpt lat="43.2484046" lon="10.5453855"><ele>3.666666666666667</ele><time>2026-04-04T12:30:32.696Z</time></trkpt><trkpt lat="43.2484312" lon="10.5455897"><ele>4.333333333333334</ele><time>2026-04-04T12:30:33.694Z</time></trkpt><trkpt lat="43.2484574" lon="10.545806"><ele>5.0</ele><time>2026-04-04T12:30:34.696Z</time></trkpt><trkpt lat="43.248493" lon="10.5460265"><ele>5.333333333333334</ele><time>2026-04-04T12:30:35.695Z</time></trkpt><trkpt lat="43.2485347" lon="10.5462348"><ele>5.666666666666667</ele><time>2026-04-04T12:30:36.697Z</time></trkpt><trkpt lat="43.2485629" lon="10.5464445"><ele>6.0</ele><time>2026-04-04T12:30:37.694Z</time></trkpt><trkpt lat="43.2485843" lon="10.5466351"><ele>6.0</ele><time>2026-04-04T12:30:38.679Z</time></trkpt><trkpt lat="43.2486148" lon="10.5468197"><ele>6.0</ele><time>2026-04-04T12:30:39.68Z</time></trkpt><trkpt lat="43.2486462" lon="10.5469501"><ele>6.0</ele><time>2026-04-04T12:30:40.688Z</time></trkpt><trkpt lat="43.2486705" lon="10.5470766"><ele>6.0</ele><time>2026-04-04T12:30:41.689Z</time></trkpt><trkpt lat="43.2486905" lon="10.5472249"><ele>6.0</ele><time>2026-04-04T12:30:42.681Z</time></trkpt><trkpt lat="43.2487023" lon="10.5474118"><ele>6.0</ele><time>2026-04-04T12:30:43.679Z</time></trkpt><trkpt lat="43.2487324" lon="10.5476108"><ele>6.0</ele><time>2026-04-04T12:30:44.686Z</time></trkpt><trkpt lat="43.2487696" lon="10.5478376"><ele>6.0</ele><time>2026-04-04T12:30:45.69Z</time></trkpt><trkpt lat="43.2487945" lon="10.5480774"><ele>6.0</ele><time>2026-04-04T12:30:46.676Z</time></trkpt><trkpt lat="43.2488306" lon="10.5483347"><ele>6.0</ele><time>2026-04-04T12:30:47.692Z</time></trkpt><trkpt lat="43.2488656" lon="10.5485844"><ele>6.0</ele><time>2026-04-04T12:30:48.696Z</time></trkpt><trkpt lat="43.2489059" lon="10.5488144"><ele>5.75</ele><time>2026-04-04T12:30:49.688Z</time></trkpt><trkpt lat="43.2489342" lon="10.5490234"><ele>5.5</ele><time>2026-04-04T12:30:50.701Z</time></trkpt><trkpt lat="43.2489555" lon="10.5492213"><ele>5.25</ele><time>2026-04-04T12:30:51.702Z</time></trkpt><trkpt lat="43.2489867" lon="10.5494167"><ele>5.0</ele><time>2026-04-04T12:30:52.703Z</time></trkpt><trkpt lat="43.2490151" lon="10.5496226"><ele>5.75</ele><time>2026-04-04T12:30:53.709Z</time></trkpt><trkpt lat="43.2490444" lon="10.5498085"><ele>6.5</ele><time>2026-04-04T12:30:54.702Z</time></trkpt><trkpt lat="43.2490684" lon="10.5499812"><ele>7.25</ele><time>2026-04-04T12:30:55.705Z</time></trkpt><trkpt lat="43.2490764" lon="10.5501393"><ele>8.0</ele><time>2026-04-04T12:30:56.686Z</time></trkpt><trkpt lat="43.2490588" lon="10.5502658"><ele>8.166666666666666</ele><time>2026-04-04T12:30:57.701Z</time></trkpt><trkpt lat="43.2490211" lon="10.5504024"><ele>8.333333333333332</ele><time>2026-04-04T12:30:58.689Z</time></trkpt><trkpt lat="43.2489953" lon="10.5505311"><ele>8.5</ele><time>2026-04-04T12:30:59.688Z</time></trkpt><trkpt lat="43.2489907" lon="10.5506355"><ele>8.666666666666666</ele><time>2026-04-04T12:31:00.711Z</time></trkpt><trkpt lat="43.2490117" lon="10.5507467"><ele>8.833333333333334</ele><time>2026-04-04T12:31:01.679Z</time></trkpt><trkpt lat="43.2490541" lon="10.5508429"><ele>9.0</ele><time>2026-04-04T12:31:02.674Z</time></trkpt><trkpt lat="43.2491637" lon="10.5508973"><ele>9.0</ele><time>2026-04-04T12:31:04.683Z</time></trkpt><trkpt lat="43.2492473" lon="10.5508644"><ele>9.0</ele><time>2026-04-04T12:31:05.679Z</time></trkpt><trkpt lat="43.2493335" lon="10.5507861"><ele>9.0</ele><time>2026-04-04T12:31:06.665Z</time></trkpt><trkpt lat="43.2494262" lon="10.5506884"><ele>9.0</ele><time>2026-04-04T12:31:07.681Z</time></trkpt><trkpt lat="43.249542" lon="10.5505802"><ele>9.0</ele><time>2026-04-04T12:31:08.675Z</time></trkpt><trkpt lat="43.2496792" lon="10.5504924"><ele>9.0</ele><time>2026-04-04T12:31:09.683Z</time></trkpt><trkpt lat="43.2498447" lon="10.5504264"><ele>9.0</ele><time>2026-04-04T12:31:10.673Z</time></trkpt><trkpt lat="43.250073" lon="10.5503586"><ele>9.0</ele><time>2026-04-04T12:31:11.67Z</time></trkpt><trkpt lat="43.2502626" lon="10.550287"><ele>8.666666666666666</ele><time>2026-04-04T12:31:12.676Z</time></trkpt><trkpt lat="43.2504302" lon="10.5502324"><ele>8.333333333333332</ele><time>2026-04-04T12:31:13.669Z</time></trkpt><trkpt lat="43.2505937" lon="10.5501418"><ele>8.0</ele><time>2026-04-04T12:31:14.684Z</time></trkpt><trkpt lat="43.2507687" lon="10.5500783"><ele>8.0</ele><time>2026-04-04T12:31:15.688Z</time></trkpt><trkpt lat="43.2509572" lon="10.5500432"><ele>8.0</ele><time>2026-04-04T12:31:16.694Z</time></trkpt><trkpt lat="43.2511389" lon="10.5499597"><ele>8.0</ele><time>2026-04-04T12:31:17.692Z</time></trkpt><trkpt lat="43.2513318" lon="10.5498857"><ele>7.333333333333333</ele><time>2026-04-04T12:31:18.695Z</time></trkpt><trkpt lat="43.2515387" lon="10.5497926"><ele>6.666666666666666</ele><time>2026-04-04T12:31:19.69Z</time></trkpt><trkpt lat="43.2517331" lon="10.5496986"><ele>6.0</ele><time>2026-04-04T12:31:20.705Z</time></trkpt><trkpt lat="43.2519263" lon="10.5496161"><ele>5.666666666666667</ele><time>2026-04-04T12:31:21.704Z</time></trkpt><trkpt lat="43.2521143" lon="10.5495397"><ele>5.333333333333334</ele><time>2026-04-04T12:31:22.709Z</time></trkpt><trkpt lat="43.2523038" lon="10.5494654"><ele>5.0</ele><time>2026-04-04T12:31:23.71Z</time></trkpt><trkpt lat="43.2524989" lon="10.5493982"><ele>5.0</ele><time>2026-04-04T12:31:24.707Z</time></trkpt><trkpt lat="43.2527003" lon="10.5493301"><ele>5.0</ele><time>2026-04-04T12:31:25.705Z</time></trkpt><trkpt lat="43.2528878" lon="10.5492562"><ele>5.0</ele><time>2026-04-04T12:31:26.702Z</time></trkpt><trkpt lat="43.2530548" lon="10.5491934"><ele>5.333333333333334</ele><time>2026-04-04T12:31:27.702Z</time></trkpt><trkpt lat="43.2532308" lon="10.5491103"><ele>5.666666666666667</ele><time>2026-04-04T12:31:28.707Z</time></trkpt><trkpt lat="43.2534015" lon="10.5490173"><ele>6.0</ele><time>2026-04-04T12:31:29.703Z</time></trkpt><trkpt lat="43.2535859" lon="10.5489469"><ele>6.0</ele><time>2026-04-04T12:31:30.696Z</time></trkpt><trkpt lat="43.2537666" lon="10.5488405"><ele>6.0</ele><time>2026-04-04T12:31:31.721Z</time></trkpt><trkpt lat="43.253936" lon="10.5487408"><ele>6.0</ele><time>2026-04-04T12:31:32.706Z</time></trkpt><trkpt lat="43.2541117" lon="10.5486603"><ele>6.0</ele><time>2026-04-04T12:31:33.707Z</time></trkpt><trkpt lat="43.254276" lon="10.5485742"><ele>6.0</ele><time>2026-04-04T12:31:34.709Z</time></trkpt><trkpt lat="43.2544612" lon="10.5484985"><ele>6.0</ele><time>2026-04-04T12:31:35.71Z</time></trkpt><trkpt lat="43.2546384" lon="10.5484294"><ele>6.333333333333334</ele><time>2026-04-04T12:31:36.703Z</time></trkpt><trkpt lat="43.2548278" lon="10.5483573"><ele>6.666666666666667</ele><time>2026-04-04T12:31:37.699Z</time></trkpt><trkpt lat="43.255019" lon="10.5483068"><ele>7.0</ele><time>2026-04-04T12:31:38.707Z</time></trkpt><trkpt lat="43.2552107" lon="10.5482549"><ele>7.0</ele><time>2026-04-04T12:31:39.701Z</time></trkpt><trkpt lat="43.2553924" lon="10.5481813"><ele>7.0</ele><time>2026-04-04T12:31:40.706Z</time></trkpt><trkpt lat="43.2555878" lon="10.548115"><ele>7.0</ele><time>2026-04-04T12:31:41.706Z</time></trkpt><trkpt lat="43.2557821" lon="10.5480239"><ele>6.333333333333334</ele><time>2026-04-04T12:31:42.702Z</time></trkpt><trkpt lat="43.2559807" lon="10.5479442"><ele>5.666666666666667</ele><time>2026-04-04T12:31:43.709Z</time></trkpt><trkpt lat="43.2561654" lon="10.5478662"><ele>5.0</ele><time>2026-04-04T12:31:44.701Z</time></trkpt><trkpt lat="43.2563754" lon="10.547826"><ele>5.0</ele><time>2026-04-04T12:31:45.708Z</time></trkpt><trkpt lat="43.2565829" lon="10.5478053"><ele>5.0</ele><time>2026-04-04T12:31:46.711Z</time></trkpt><trkpt lat="43.2567954" lon="10.5477828"><ele>5.0</ele><time>2026-04-04T12:31:47.706Z</time></trkpt><trkpt lat="43.2570072" lon="10.547773"><ele>5.0</ele><time>2026-04-04T12:31:48.708Z</time></trkpt><trkpt lat="43.2572055" lon="10.5477574"><ele>5.0</ele><time>2026-04-04T12:31:49.706Z</time></trkpt><trkpt lat="43.2573874" lon="10.5477347"><ele>5.0</ele><time>2026-04-04T12:31:50.706Z</time></trkpt><trkpt lat="43.2575608" lon="10.5476819"><ele>5.333333333333334</ele><time>2026-04-04T12:31:51.696Z</time></trkpt><trkpt lat="43.2577378" lon="10.5476213"><ele>5.666666666666667</ele><time>2026-04-04T12:31:52.697Z</time></trkpt><trkpt lat="43.2579184" lon="10.5475381"><ele>6.0</ele><time>2026-04-04T12:31:53.703Z</time></trkpt><trkpt lat="43.2580996" lon="10.5474308"><ele>6.0</ele><time>2026-04-04T12:31:54.698Z</time></trkpt><trkpt lat="43.2582833" lon="10.5473362"><ele>6.0</ele><time>2026-04-04T12:31:55.701Z</time></trkpt><trkpt lat="43.2584575" lon="10.5472415"><ele>6.0</ele><time>2026-04-04T12:31:56.706Z</time></trkpt><trkpt lat="43.2586359" lon="10.5471425"><ele>6.0</ele><time>2026-04-04T12:31:57.703Z</time></trkpt><trkpt lat="43.2588228" lon="10.5470626"><ele>6.0</ele><time>2026-04-04T12:31:58.7Z</time></trkpt><trkpt lat="43.2590221" lon="10.546969"><ele>6.0</ele><time>2026-04-04T12:31:59.699Z</time></trkpt><trkpt lat="43.2592048" lon="10.5468411"><ele>6.0</ele><time>2026-04-04T12:32:00.691Z</time></trkpt><trkpt lat="43.2593999" lon="10.5467585"><ele>6.0</ele><time>2026-04-04T12:32:01.683Z</time></trkpt><trkpt lat="43.2595621" lon="10.5466877"><ele>6.0</ele><time>2026-04-04T12:32:02.716Z</time></trkpt><trkpt lat="43.2596926" lon="10.5466194"><ele>6.25</ele><time>2026-04-04T12:32:03.691Z</time></trkpt><trkpt lat="43.2598226" lon="10.5465858"><ele>6.5</ele><time>2026-04-04T12:32:04.69Z</time></trkpt><trkpt lat="43.2599666" lon="10.5465439"><ele>6.75</ele><time>2026-04-04T12:32:05.677Z</time></trkpt><trkpt lat="43.2601217" lon="10.5464806"><ele>7.0</ele><time>2026-04-04T12:32:06.69Z</time></trkpt><trkpt lat="43.2602917" lon="10.5464259"><ele>7.0</ele><time>2026-04-04T12:32:07.687Z</time></trkpt><trkpt lat="43.2604578" lon="10.5463924"><ele>7.0</ele><time>2026-04-04T12:32:08.685Z</time></trkpt><trkpt lat="43.2606201" lon="10.5463366"><ele>7.0</ele><time>2026-04-04T12:32:09.694Z</time></trkpt><trkpt lat="43.2607787" lon="10.5463004"><ele>7.0</ele><time>2026-04-04T12:32:10.688Z</time></trkpt><trkpt lat="43.2609518" lon="10.5462714"><ele>7.0</ele><time>2026-04-04T12:32:11.687Z</time></trkpt><trkpt lat="43.2611311" lon="10.5462303"><ele>7.0</ele><time>2026-04-04T12:32:12.696Z</time></trkpt><trkpt lat="43.2613007" lon="10.5462067"><ele>6.666666666666667</ele><time>2026-04-04T12:32:13.685Z</time></trkpt><trkpt lat="43.2614811" lon="10.546175"><ele>6.333333333333334</ele><time>2026-04-04T12:32:14.677Z</time></trkpt><trkpt lat="43.2616654" lon="10.546162"><ele>6.0</ele><time>2026-04-04T12:32:15.68Z</time></trkpt><trkpt lat="43.2618057" lon="10.5461781"><ele>6.0</ele><time>2026-04-04T12:32:16.686Z</time></trkpt><trkpt lat="43.2619521" lon="10.5461871"><ele>6.0</ele><time>2026-04-04T12:32:17.691Z</time></trkpt><trkpt lat="43.2620847" lon="10.5461692"><ele>6.0</ele><time>2026-04-04T12:32:18.694Z</time></trkpt><trkpt lat="43.2622256" lon="10.5461529"><ele>6.0</ele><time>2026-04-04T12:32:19.71Z</time></trkpt><trkpt lat="43.2623584" lon="10.5461349"><ele>6.0</ele><time>2026-04-04T12:32:20.696Z</time></trkpt><trkpt lat="43.2624911" lon="10.5460904"><ele>6.0</ele><time>2026-04-04T12:32:21.702Z</time></trkpt><trkpt lat="43.2626327" lon="10.5460424"><ele>6.0</ele><time>2026-04-04T12:32:22.702Z</time></trkpt><trkpt lat="43.2627504" lon="10.5459832"><ele>6.0</ele><time>2026-04-04T12:32:23.697Z</time></trkpt><trkpt lat="43.2628119" lon="10.5459566"><ele>6.0</ele><time>2026-04-04T12:32:24.695Z</time></trkpt><trkpt lat="43.26289" lon="10.545999"><ele>6.0</ele><time>2026-04-04T12:32:27.7Z</time></trkpt><trkpt lat="43.2628884" lon="10.5460954"><ele>6.0</ele><time>2026-04-04T12:32:29.711Z</time></trkpt><trkpt lat="43.2629176" lon="10.5462435"><ele>6.0</ele><time>2026-04-04T12:32:31.693Z</time></trkpt><trkpt lat="43.2629437" lon="10.5463567"><ele>6.0</ele><time>2026-04-04T12:32:32.701Z</time></trkpt><trkpt lat="43.2629812" lon="10.546491"><ele>6.0</ele><time>2026-04-04T12:32:33.723Z</time></trkpt><trkpt lat="43.2630258" lon="10.5466509"><ele>6.0</ele><time>2026-04-04T12:32:34.693Z</time></trkpt><trkpt lat="43.263071" lon="10.5468312"><ele>6.0</ele><time>2026-04-04T12:32:35.69Z</time></trkpt><trkpt lat="43.2631199" lon="10.5470137"><ele>6.0</ele><time>2026-04-04T12:32:36.702Z</time></trkpt><trkpt lat="43.2631832" lon="10.5471956"><ele>5.75</ele><time>2026-04-04T12:32:37.7Z</time></trkpt><trkpt lat="43.2632479" lon="10.5473784"><ele>5.5</ele><time>2026-04-04T12:32:38.701Z</time></trkpt><trkpt lat="43.2632926" lon="10.5475617"><ele>5.25</ele><time>2026-04-04T12:32:39.706Z</time></trkpt><trkpt lat="43.263338" lon="10.5477452"><ele>5.0</ele><time>2026-04-04T12:32:40.729Z</time></trkpt><trkpt lat="43.2633937" lon="10.5479424"><ele>5.666666666666667</ele><time>2026-04-04T12:32:41.701Z</time></trkpt><trkpt lat="43.2634531" lon="10.5481237"><ele>6.333333333333334</ele><time>2026-04-04T12:32:42.71Z</time></trkpt><trkpt lat="43.2635176" lon="10.5483339"><ele>7.0</ele><time>2026-04-04T12:32:43.701Z</time></trkpt><trkpt lat="43.2635501" lon="10.548532"><ele>7.0</ele><time>2026-04-04T12:32:44.699Z</time></trkpt><trkpt lat="43.2635816" lon="10.5487471"><ele>7.0</ele><time>2026-04-04T12:32:45.697Z</time></trkpt><trkpt lat="43.2636319" lon="10.548936"><ele>7.0</ele><time>2026-04-04T12:32:46.695Z</time></trkpt><trkpt lat="43.2637051" lon="10.549129"><ele>7.0</ele><time>2026-04-04T12:32:47.694Z</time></trkpt><trkpt lat="43.2637336" lon="10.5493027"><ele>7.0</ele><time>2026-04-04T12:32:48.694Z</time></trkpt><trkpt lat="43.2637851" lon="10.5494725"><ele>7.0</ele><time>2026-04-04T12:32:49.698Z</time></trkpt><trkpt lat="43.2638275" lon="10.5496073"><ele>7.0</ele><time>2026-04-04T12:32:50.708Z</time></trkpt><trkpt lat="43.2638658" lon="10.5497424"><ele>7.25</ele><time>2026-04-04T12:32:51.702Z</time></trkpt><trkpt lat="43.2639103" lon="10.5499013"><ele>7.5</ele><time>2026-04-04T12:32:52.709Z</time></trkpt><trkpt lat="43.2639663" lon="10.5500597"><ele>7.75</ele><time>2026-04-04T12:32:53.705Z</time></trkpt><trkpt lat="43.2640108" lon="10.5502244"><ele>8.0</ele><time>2026-04-04T12:32:54.703Z</time></trkpt><trkpt lat="43.2640577" lon="10.550405"><ele>8.25</ele><time>2026-04-04T12:32:55.705Z</time></trkpt><trkpt lat="43.2641043" lon="10.5505856"><ele>8.5</ele><time>2026-04-04T12:32:56.709Z</time></trkpt><trkpt lat="43.2641611" lon="10.5507724"><ele>8.75</ele><time>2026-04-04T12:32:57.71Z</time></trkpt><trkpt lat="43.2642079" lon="10.5509601"><ele>9.0</ele><time>2026-04-04T12:32:58.708Z</time></trkpt><trkpt lat="43.2642431" lon="10.5511593"><ele>9.0</ele><time>2026-04-04T12:32:59.711Z</time></trkpt><trkpt lat="43.2642923" lon="10.5513679"><ele>9.0</ele><time>2026-04-04T12:33:00.724Z</time></trkpt><trkpt lat="43.2643487" lon="10.5515879"><ele>9.0</ele><time>2026-04-04T12:33:01.712Z</time></trkpt><trkpt lat="43.2644087" lon="10.5517952"><ele>9.0</ele><time>2026-04-04T12:33:02.717Z</time></trkpt><trkpt lat="43.2644596" lon="10.5519793"><ele>9.0</ele><time>2026-04-04T12:33:03.714Z</time></trkpt><trkpt lat="43.2645085" lon="10.552167"><ele>9.0</ele><time>2026-04-04T12:33:04.693Z</time></trkpt><trkpt lat="43.2645545" lon="10.5523382"><ele>9.0</ele><time>2026-04-04T12:33:05.709Z</time></trkpt><trkpt lat="43.2646054" lon="10.5525213"><ele>9.0</ele><time>2026-04-04T12:33:06.709Z</time></trkpt><trkpt lat="43.2646563" lon="10.5527119"><ele>9.0</ele><time>2026-04-04T12:33:07.72Z</time></trkpt><trkpt lat="43.2647038" lon="10.5529006"><ele>9.0</ele><time>2026-04-04T12:33:08.706Z</time></trkpt><trkpt lat="43.2647548" lon="10.5530886"><ele>9.0</ele><time>2026-04-04T12:33:09.711Z</time></trkpt><trkpt lat="43.2648091" lon="10.5532679"><ele>9.0</ele><time>2026-04-04T12:33:10.714Z</time></trkpt><trkpt lat="43.26487" lon="10.5534362"><ele>9.0</ele><time>2026-04-04T12:33:11.695Z</time></trkpt><trkpt lat="43.2649142" lon="10.5535932"><ele>9.0</ele><time>2026-04-04T12:33:12.713Z</time></trkpt><trkpt lat="43.2649636" lon="10.5537632"><ele>9.0</ele><time>2026-04-04T12:33:13.7Z</time></trkpt><trkpt lat="43.2650343" lon="10.5539215"><ele>9.0</ele><time>2026-04-04T12:33:14.707Z</time></trkpt><trkpt lat="43.2651232" lon="10.554083"><ele>9.0</ele><time>2026-04-04T12:33:15.713Z</time></trkpt><trkpt lat="43.2652173" lon="10.5542474"><ele>9.0</ele><time>2026-04-04T12:33:16.708Z</time></trkpt><trkpt lat="43.2653053" lon="10.5544256"><ele>9.0</ele><time>2026-04-04T12:33:17.707Z</time></trkpt><trkpt lat="43.2653846" lon="10.5545945"><ele>9.0</ele><time>2026-04-04T12:33:18.708Z</time></trkpt><trkpt lat="43.2654759" lon="10.5547648"><ele>9.0</ele><time>2026-04-04T12:33:19.705Z</time></trkpt><trkpt lat="43.2655716" lon="10.5549111"><ele>9.0</ele><time>2026-04-04T12:33:20.709Z</time></trkpt><trkpt lat="43.2656426" lon="10.5550626"><ele>9.0</ele><time>2026-04-04T12:33:21.706Z</time></trkpt><trkpt lat="43.2657165" lon="10.5552123"><ele>9.0</ele><time>2026-04-04T12:33:22.711Z</time></trkpt><trkpt lat="43.2657763" lon="10.5553387"><ele>9.0</ele><time>2026-04-04T12:33:23.704Z</time></trkpt><trkpt lat="43.2658429" lon="10.5554743"><ele>9.0</ele><time>2026-04-04T12:33:24.707Z</time></trkpt><trkpt lat="43.265904" lon="10.5555859"><ele>9.0</ele><time>2026-04-04T12:33:25.712Z</time></trkpt><trkpt lat="43.2659699" lon="10.5556992"><ele>9.0</ele><time>2026-04-04T12:33:26.713Z</time></trkpt><trkpt lat="43.2660535" lon="10.5558307"><ele>9.0</ele><time>2026-04-04T12:33:27.718Z</time></trkpt><trkpt lat="43.2661068" lon="10.5559746"><ele>9.0</ele><time>2026-04-04T12:33:28.712Z</time></trkpt><trkpt lat="43.2661683" lon="10.5561184"><ele>8.666666666666666</ele><time>2026-04-04T12:33:29.697Z</time></trkpt><trkpt lat="43.2662461" lon="10.5562777"><ele>8.333333333333332</ele><time>2026-04-04T12:33:30.723Z</time></trkpt><trkpt lat="43.2663404" lon="10.5564562"><ele>8.0</ele><time>2026-04-04T12:33:31.7Z</time></trkpt><trkpt lat="43.2664319" lon="10.5566468"><ele>8.666666666666666</ele><time>2026-04-04T12:33:32.706Z</time></trkpt><trkpt lat="43.2665283" lon="10.5568467"><ele>9.333333333333334</ele><time>2026-04-04T12:33:33.706Z</time></trkpt><trkpt lat="43.2666252" lon="10.5570449"><ele>10.0</ele><time>2026-04-04T12:33:34.723Z</time></trkpt><trkpt lat="43.266724" lon="10.5572484"><ele>11.0</ele><time>2026-04-04T12:33:35.71Z</time></trkpt><trkpt lat="43.2668243" lon="10.5574304"><ele>12.0</ele><time>2026-04-04T12:33:36.712Z</time></trkpt><trkpt lat="43.2669254" lon="10.5576161"><ele>13.0</ele><time>2026-04-04T12:33:37.711Z</time></trkpt><trkpt lat="43.2670131" lon="10.5578013"><ele>13.0</ele><time>2026-04-04T12:33:38.707Z</time></trkpt><trkpt lat="43.267104" lon="10.5579928"><ele>13.0</ele><time>2026-04-04T12:33:39.706Z</time></trkpt><trkpt lat="43.2671954" lon="10.5581638"><ele>13.0</ele><time>2026-04-04T12:33:40.723Z</time></trkpt><trkpt lat="43.2672911" lon="10.5583288"><ele>13.0</ele><time>2026-04-04T12:33:41.706Z</time></trkpt><trkpt lat="43.2673741" lon="10.5584927"><ele>13.0</ele><time>2026-04-04T12:33:42.715Z</time></trkpt><trkpt lat="43.267451" lon="10.5586466"><ele>13.0</ele><time>2026-04-04T12:33:43.706Z</time></trkpt><trkpt lat="43.2675283" lon="10.55879"><ele>13.0</ele><time>2026-04-04T12:33:44.708Z</time></trkpt><trkpt lat="43.2675934" lon="10.5589271"><ele>12.999999999999998</ele><time>2026-04-04T12:33:45.696Z</time></trkpt><trkpt lat="43.2676546" lon="10.5590398"><ele>13.0</ele><time>2026-04-04T12:33:46.7Z</time></trkpt><trkpt lat="43.2676861" lon="10.559142"><ele>13.0</ele><time>2026-04-04T12:33:47.704Z</time></trkpt><trkpt lat="43.2677203" lon="10.5592422"><ele>13.0</ele><time>2026-04-04T12:33:48.707Z</time></trkpt><trkpt lat="43.2677245" lon="10.5593619"><ele>12.999999999999998</ele><time>2026-04-04T12:33:49.708Z</time></trkpt><trkpt lat="43.267732" lon="10.559487"><ele>13.0</ele><time>2026-04-04T12:33:50.714Z</time></trkpt><trkpt lat="43.2677588" lon="10.5596209"><ele>13.25</ele><time>2026-04-04T12:33:51.695Z</time></trkpt><trkpt lat="43.2677925" lon="10.559772"><ele>13.5</ele><time>2026-04-04T12:33:52.709Z</time></trkpt><trkpt lat="43.2678382" lon="10.5599415"><ele>13.75</ele><time>2026-04-04T12:33:53.706Z</time></trkpt><trkpt lat="43.2678885" lon="10.5601305"><ele>14.0</ele><time>2026-04-04T12:33:54.705Z</time></trkpt><trkpt lat="43.2679361" lon="10.5603212"><ele>14.0</ele><time>2026-04-04T12:33:55.703Z</time></trkpt><trkpt lat="43.2679893" lon="10.5605139"><ele>14.0</ele><time>2026-04-04T12:33:56.702Z</time></trkpt><trkpt lat="43.2680231" lon="10.5606869"><ele>14.0</ele><time>2026-04-04T12:33:57.714Z</time></trkpt><trkpt lat="43.268071" lon="10.560864"><ele>14.0</ele><time>2026-04-04T12:33:58.695Z</time></trkpt><trkpt lat="43.2681137" lon="10.5610134"><ele>14.0</ele><time>2026-04-04T12:33:59.702Z</time></trkpt><trkpt lat="43.26814" lon="10.5611461"><ele>13.999999999999998</ele><time>2026-04-04T12:34:00.714Z</time></trkpt><trkpt lat="43.2681598" lon="10.5612784"><ele>13.999999999999998</ele><time>2026-04-04T12:34:01.709Z</time></trkpt><trkpt lat="43.2681908" lon="10.5613881"><ele>14.0</ele><time>2026-04-04T12:34:02.715Z</time></trkpt><trkpt lat="43.2682316" lon="10.5615178"><ele>14.0</ele><time>2026-04-04T12:34:03.71Z</time></trkpt><trkpt lat="43.2682764" lon="10.5616514"><ele>14.25</ele><time>2026-04-04T12:34:04.707Z</time></trkpt><trkpt lat="43.2683155" lon="10.5617904"><ele>14.5</ele><time>2026-04-04T12:34:05.723Z</time></trkpt><trkpt lat="43.2683512" lon="10.5619428"><ele>14.75</ele><time>2026-04-04T12:34:06.708Z</time></trkpt><trkpt lat="43.2683931" lon="10.562089"><ele>15.0</ele><time>2026-04-04T12:34:07.71Z</time></trkpt><trkpt lat="43.2684272" lon="10.562234"><ele>15.2</ele><time>2026-04-04T12:34:08.707Z</time></trkpt><trkpt lat="43.2684643" lon="10.5623822"><ele>15.4</ele><time>2026-04-04T12:34:09.708Z</time></trkpt><trkpt lat="43.2684964" lon="10.5625168"><ele>15.600000000000001</ele><time>2026-04-04T12:34:10.708Z</time></trkpt><trkpt lat="43.2685318" lon="10.5626383"><ele>15.8</ele><time>2026-04-04T12:34:11.703Z</time></trkpt><trkpt lat="43.2685719" lon="10.5627451"><ele>16.0</ele><time>2026-04-04T12:34:12.713Z</time></trkpt><trkpt lat="43.2686212" lon="10.5628181"><ele>15.999999999999998</ele><time>2026-04-04T12:34:13.712Z</time></trkpt><trkpt lat="43.2686802" lon="10.5628934"><ele>16.0</ele><time>2026-04-04T12:34:14.707Z</time></trkpt><trkpt lat="43.2687333" lon="10.5629674"><ele>16.0</ele><time>2026-04-04T12:34:15.706Z</time></trkpt><trkpt lat="43.2687708" lon="10.5630651"><ele>16.0</ele><time>2026-04-04T12:34:16.697Z</time></trkpt><trkpt lat="43.2688139" lon="10.5631681"><ele>15.999999999999998</ele><time>2026-04-04T12:34:17.697Z</time></trkpt><trkpt lat="43.2688554" lon="10.5632838"><ele>16.0</ele><time>2026-04-04T12:34:18.696Z</time></trkpt><trkpt lat="43.2688767" lon="10.5634063"><ele>16.0</ele><time>2026-04-04T12:34:19.707Z</time></trkpt><trkpt lat="43.2688929" lon="10.5635275"><ele>16.0</ele><time>2026-04-04T12:34:20.713Z</time></trkpt><trkpt lat="43.2689185" lon="10.5636465"><ele>16.0</ele><time>2026-04-04T12:34:21.699Z</time></trkpt><trkpt lat="43.2689515" lon="10.5637607"><ele>16.0</ele><time>2026-04-04T12:34:22.709Z</time></trkpt><trkpt lat="43.2689768" lon="10.5638838"><ele>16.0</ele><time>2026-04-04T12:34:24.78Z</time></trkpt><trkpt lat="43.2690036" lon="10.564005"><ele>16.2</ele><time>2026-04-04T12:34:25.778Z</time></trkpt><trkpt lat="43.2690336" lon="10.5641256"><ele>16.400000000000002</ele><time>2026-04-04T12:34:26.786Z</time></trkpt><trkpt lat="43.2690656" lon="10.5642466"><ele>16.6</ele><time>2026-04-04T12:34:27.788Z</time></trkpt><trkpt lat="43.2690988" lon="10.5643733"><ele>16.8</ele><time>2026-04-04T12:34:28.788Z</time></trkpt><trkpt lat="43.2691286" lon="10.5644934"><ele>17.0</ele><time>2026-04-04T12:34:29.777Z</time></trkpt><trkpt lat="43.2691508" lon="10.5645993"><ele>17.166666666666668</ele><time>2026-04-04T12:34:30.8Z</time></trkpt><trkpt lat="43.2691624" lon="10.5647059"><ele>17.333333333333336</ele><time>2026-04-04T12:34:31.778Z</time></trkpt><trkpt lat="43.2691913" lon="10.5647854"><ele>17.5</ele><time>2026-04-04T12:34:32.767Z</time></trkpt><trkpt lat="43.2692237" lon="10.5648649"><ele>17.666666666666668</ele><time>2026-04-04T12:34:33.765Z</time></trkpt><trkpt lat="43.2692459" lon="10.5649544"><ele>17.833333333333332</ele><time>2026-04-04T12:34:34.755Z</time></trkpt><trkpt lat="43.2692793" lon="10.5650643"><ele>18.0</ele><time>2026-04-04T12:34:35.758Z</time></trkpt><trkpt lat="43.2693131" lon="10.565192"><ele>18.0</ele><time>2026-04-04T12:34:36.795Z</time></trkpt><trkpt lat="43.2693504" lon="10.565336"><ele>18.0</ele><time>2026-04-04T12:34:37.789Z</time></trkpt><trkpt lat="43.2693864" lon="10.5654732"><ele>18.0</ele><time>2026-04-04T12:34:38.781Z</time></trkpt><trkpt lat="43.2694238" lon="10.5656209"><ele>18.0</ele><time>2026-04-04T12:34:39.784Z</time></trkpt><trkpt lat="43.2694634" lon="10.5657804"><ele>18.2</ele><time>2026-04-04T12:34:40.797Z</time></trkpt><trkpt lat="43.2695002" lon="10.5659348"><ele>18.4</ele><time>2026-04-04T12:34:41.784Z</time></trkpt><trkpt lat="43.2695336" lon="10.5660837"><ele>18.599999999999998</ele><time>2026-04-04T12:34:42.783Z</time></trkpt><trkpt lat="43.2695659" lon="10.5662186"><ele>18.8</ele><time>2026-04-04T12:34:43.786Z</time></trkpt><trkpt lat="43.2695958" lon="10.5663397"><ele>19.0</ele><time>2026-04-04T12:34:44.776Z</time></trkpt><trkpt lat="43.2696197" lon="10.566449"><ele>19.333333333333332</ele><time>2026-04-04T12:34:45.797Z</time></trkpt><trkpt lat="43.2696396" lon="10.5665419"><ele>19.666666666666664</ele><time>2026-04-04T12:34:46.788Z</time></trkpt><trkpt lat="43.2696533" lon="10.5666277"><ele>20.0</ele><time>2026-04-04T12:34:47.785Z</time></trkpt><trkpt lat="43.2696618" lon="10.566721"><ele>20.333333333333332</ele><time>2026-04-04T12:34:48.788Z</time></trkpt><trkpt lat="43.2696593" lon="10.5668186"><ele>20.666666666666668</ele><time>2026-04-04T12:34:49.775Z</time></trkpt><trkpt lat="43.26965" lon="10.5669349"><ele>21.0</ele><time>2026-04-04T12:34:50.778Z</time></trkpt><trkpt lat="43.2696344" lon="10.5670711"><ele>21.333333333333332</ele><time>2026-04-04T12:34:51.766Z</time></trkpt><trkpt lat="43.2696228" lon="10.567201"><ele>21.666666666666668</ele><time>2026-04-04T12:34:52.759Z</time></trkpt><trkpt lat="43.2696212" lon="10.5673194"><ele>22.0</ele><time>2026-04-04T12:34:53.754Z</time></trkpt><trkpt lat="43.269635" lon="10.567424"><ele>22.333333333333336</ele><time>2026-04-04T12:34:54.762Z</time></trkpt><trkpt lat="43.2696603" lon="10.5675314"><ele>22.666666666666668</ele><time>2026-04-04T12:34:55.763Z</time></trkpt><trkpt lat="43.2696971" lon="10.5676374"><ele>23.0</ele><time>2026-04-04T12:34:56.746Z</time></trkpt><trkpt lat="43.2697387" lon="10.5677338"><ele>23.0</ele><time>2026-04-04T12:34:57.746Z</time></trkpt><trkpt lat="43.269774" lon="10.5678201"><ele>23.0</ele><time>2026-04-04T12:34:58.743Z</time></trkpt><trkpt lat="43.2698025" lon="10.5678988"><ele>23.0</ele><time>2026-04-04T12:34:59.746Z</time></trkpt><trkpt lat="43.2698537" lon="10.568022"><ele>23.0</ele><time>2026-04-04T12:35:01.769Z</time></trkpt><trkpt lat="43.2699344" lon="10.5680558"><ele>23.0</ele><time>2026-04-04T12:35:04.781Z</time></trkpt><trkpt lat="43.2700355" lon="10.5680936"><ele>23.0</ele><time>2026-04-04T12:35:06.692Z</time></trkpt><trkpt lat="43.2701799" lon="10.5680515"><ele>22.25</ele><time>2026-04-04T12:35:08.694Z</time></trkpt><trkpt lat="43.2702896" lon="10.5680266"><ele>21.5</ele><time>2026-04-04T12:35:09.687Z</time></trkpt><trkpt lat="43.270412" lon="10.5680075"><ele>20.75</ele><time>2026-04-04T12:35:10.687Z</time></trkpt><trkpt lat="43.2705513" lon="10.5679783"><ele>20.0</ele><time>2026-04-04T12:35:11.685Z</time></trkpt><trkpt lat="43.2706963" lon="10.5679379"><ele>19.5</ele><time>2026-04-04T12:35:12.691Z</time></trkpt><trkpt lat="43.2708427" lon="10.5678973"><ele>19.0</ele><time>2026-04-04T12:35:13.692Z</time></trkpt><trkpt lat="43.270963" lon="10.5678556"><ele>18.5</ele><time>2026-04-04T12:35:14.691Z</time></trkpt><trkpt lat="43.2710811" lon="10.5678195"><ele>18.0</ele><time>2026-04-04T12:35:15.695Z</time></trkpt><trkpt lat="43.2712003" lon="10.5677744"><ele>17.8</ele><time>2026-04-04T12:35:16.688Z</time></trkpt><trkpt lat="43.2713134" lon="10.5677467"><ele>17.6</ele><time>2026-04-04T12:35:17.676Z</time></trkpt><trkpt lat="43.2714367" lon="10.5677452"><ele>17.4</ele><time>2026-04-04T12:35:19.675Z</time></trkpt><trkpt lat="43.2714975" lon="10.5677694"><ele>17.2</ele><time>2026-04-04T12:35:20.674Z</time></trkpt><trkpt lat="43.2715912" lon="10.567775"><ele>17.0</ele><time>2026-04-04T12:35:22.686Z</time></trkpt><trkpt lat="43.2716456" lon="10.5676621"><ele>17.4</ele><time>2026-04-04T12:35:33.688Z</time></trkpt><trkpt lat="43.2717016" lon="10.5675787"><ele>17.799999999999997</ele><time>2026-04-04T12:35:34.684Z</time></trkpt><trkpt lat="43.271765" lon="10.5674926"><ele>18.2</ele><time>2026-04-04T12:35:35.68Z</time></trkpt><trkpt lat="43.271839" lon="10.5673958"><ele>18.599999999999998</ele><time>2026-04-04T12:35:36.691Z</time></trkpt><trkpt lat="43.2719122" lon="10.5672872"><ele>19.0</ele><time>2026-04-04T12:35:37.686Z</time></trkpt><trkpt lat="43.2719857" lon="10.5671837"><ele>19.0</ele><time>2026-04-04T12:35:38.703Z</time></trkpt><trkpt lat="43.2720803" lon="10.5670598"><ele>19.0</ele><time>2026-04-04T12:35:39.687Z</time></trkpt><trkpt lat="43.2721724" lon="10.5669326"><ele>19.0</ele><time>2026-04-04T12:35:40.69Z</time></trkpt><trkpt lat="43.2722681" lon="10.5668045"><ele>19.0</ele><time>2026-04-04T12:35:41.69Z</time></trkpt><trkpt lat="43.2723521" lon="10.5666814"><ele>18.75</ele><time>2026-04-04T12:35:42.695Z</time></trkpt><trkpt lat="43.2724382" lon="10.5665627"><ele>18.5</ele><time>2026-04-04T12:35:43.694Z</time></trkpt><trkpt lat="43.2725218" lon="10.5664412"><ele>18.25</ele><time>2026-04-04T12:35:44.695Z</time></trkpt><trkpt lat="43.2726119" lon="10.5663135"><ele>18.0</ele><time>2026-04-04T12:35:45.699Z</time></trkpt><trkpt lat="43.2727052" lon="10.5661781"><ele>18.0</ele><time>2026-04-04T12:35:46.693Z</time></trkpt><trkpt lat="43.2728009" lon="10.5660413"><ele>18.0</ele><time>2026-04-04T12:35:47.693Z</time></trkpt><trkpt lat="43.272898" lon="10.5659072"><ele>18.0</ele><time>2026-04-04T12:35:48.694Z</time></trkpt><trkpt lat="43.2729922" lon="10.5657725"><ele>18.0</ele><time>2026-04-04T12:35:49.694Z</time></trkpt><trkpt lat="43.2730786" lon="10.565635"><ele>18.0</ele><time>2026-04-04T12:35:50.702Z</time></trkpt><trkpt lat="43.2731874" lon="10.565487"><ele>18.0</ele><time>2026-04-04T12:35:51.697Z</time></trkpt><trkpt lat="43.2732856" lon="10.5653409"><ele>18.0</ele><time>2026-04-04T12:35:52.697Z</time></trkpt><trkpt lat="43.273382" lon="10.5652021"><ele>18.0</ele><time>2026-04-04T12:35:53.697Z</time></trkpt><trkpt lat="43.2734852" lon="10.5650493"><ele>17.666666666666668</ele><time>2026-04-04T12:35:54.695Z</time></trkpt><trkpt lat="43.2735983" lon="10.5648839"><ele>17.333333333333336</ele><time>2026-04-04T12:35:55.695Z</time></trkpt><trkpt lat="43.2737234" lon="10.5647034"><ele>17.0</ele><time>2026-04-04T12:35:56.693Z</time></trkpt><trkpt lat="43.2738542" lon="10.5645296"><ele>17.333333333333336</ele><time>2026-04-04T12:35:57.699Z</time></trkpt><trkpt lat="43.27397" lon="10.5643777"><ele>17.666666666666668</ele><time>2026-04-04T12:35:58.688Z</time></trkpt><trkpt lat="43.2740957" lon="10.564211"><ele>18.0</ele><time>2026-04-04T12:35:59.699Z</time></trkpt><trkpt lat="43.2742211" lon="10.5640299"><ele>18.0</ele><time>2026-04-04T12:36:00.694Z</time></trkpt><trkpt lat="43.2743451" lon="10.5638533"><ele>18.0</ele><time>2026-04-04T12:36:01.693Z</time></trkpt><trkpt lat="43.2744761" lon="10.5636651"><ele>18.0</ele><time>2026-04-04T12:36:02.697Z</time></trkpt><trkpt lat="43.2746062" lon="10.5634812"><ele>17.666666666666668</ele><time>2026-04-04T12:36:03.695Z</time></trkpt><trkpt lat="43.2747435" lon="10.5632827"><ele>17.333333333333336</ele><time>2026-04-04T12:36:04.701Z</time></trkpt><trkpt lat="43.27487" lon="10.563081"><ele>17.0</ele><time>2026-04-04T12:36:05.701Z</time></trkpt><trkpt lat="43.2750089" lon="10.5628827"><ele>17.0</ele><time>2026-04-04T12:36:06.695Z</time></trkpt><trkpt lat="43.2751689" lon="10.5626735"><ele>17.0</ele><time>2026-04-04T12:36:07.698Z</time></trkpt><trkpt lat="43.275315" lon="10.5624726"><ele>17.0</ele><time>2026-04-04T12:36:08.7Z</time></trkpt><trkpt lat="43.27546" lon="10.5622658"><ele>17.0</ele><time>2026-04-04T12:36:09.716Z</time></trkpt><trkpt lat="43.2755963" lon="10.5620543"><ele>17.0</ele><time>2026-04-04T12:36:10.701Z</time></trkpt><trkpt lat="43.2757314" lon="10.5618432"><ele>17.0</ele><time>2026-04-04T12:36:11.7Z</time></trkpt><trkpt lat="43.2758775" lon="10.5616332"><ele>16.666666666666668</ele><time>2026-04-04T12:36:12.7Z</time></trkpt><trkpt lat="43.2760063" lon="10.5614372"><ele>16.333333333333332</ele><time>2026-04-04T12:36:13.699Z</time></trkpt><trkpt lat="43.2761333" lon="10.5612394"><ele>16.0</ele><time>2026-04-04T12:36:14.697Z</time></trkpt><trkpt lat="43.2762612" lon="10.5610417"><ele>16.0</ele><time>2026-04-04T12:36:15.702Z</time></trkpt><trkpt lat="43.2763791" lon="10.5608498"><ele>16.0</ele><time>2026-04-04T12:36:16.693Z</time></trkpt><trkpt lat="43.2765019" lon="10.5606569"><ele>16.0</ele><time>2026-04-04T12:36:17.699Z</time></trkpt><trkpt lat="43.2766243" lon="10.5604718"><ele>16.666666666666664</ele><time>2026-04-04T12:36:18.698Z</time></trkpt><trkpt lat="43.2767361" lon="10.5602942"><ele>17.333333333333332</ele><time>2026-04-04T12:36:19.699Z</time></trkpt><trkpt lat="43.2768624" lon="10.5601143"><ele>18.0</ele><time>2026-04-04T12:36:20.7Z</time></trkpt><trkpt lat="43.2770004" lon="10.5599346"><ele>18.0</ele><time>2026-04-04T12:36:21.701Z</time></trkpt><trkpt lat="43.2771369" lon="10.5597505"><ele>18.0</ele><time>2026-04-04T12:36:22.703Z</time></trkpt><trkpt lat="43.2772629" lon="10.559569"><ele>18.0</ele><time>2026-04-04T12:36:23.696Z</time></trkpt><trkpt lat="43.2773971" lon="10.5593827"><ele>17.666666666666668</ele><time>2026-04-04T12:36:24.698Z</time></trkpt><trkpt lat="43.2775305" lon="10.5592079"><ele>17.333333333333336</ele><time>2026-04-04T12:36:25.701Z</time></trkpt><trkpt lat="43.2776665" lon="10.5590289"><ele>17.0</ele><time>2026-04-04T12:36:26.701Z</time></trkpt><trkpt lat="43.2777934" lon="10.5588584"><ele>17.0</ele><time>2026-04-04T12:36:27.706Z</time></trkpt><trkpt lat="43.2779134" lon="10.5586908"><ele>17.0</ele><time>2026-04-04T12:36:28.702Z</time></trkpt><trkpt lat="43.2780552" lon="10.5585494"><ele>17.0</ele><time>2026-04-04T12:36:29.702Z</time></trkpt><trkpt lat="43.278195" lon="10.5584025"><ele>18.0</ele><time>2026-04-04T12:36:30.703Z</time></trkpt><trkpt lat="43.2783475" lon="10.5582636"><ele>19.0</ele><time>2026-04-04T12:36:31.681Z</time></trkpt><trkpt lat="43.2785186" lon="10.5581451"><ele>20.0</ele><time>2026-04-04T12:36:32.683Z</time></trkpt><trkpt lat="43.2786977" lon="10.5580308"><ele>20.0</ele><time>2026-04-04T12:36:33.677Z</time></trkpt><trkpt lat="43.2788804" lon="10.5579109"><ele>20.0</ele><time>2026-04-04T12:36:34.685Z</time></trkpt><trkpt lat="43.2790972" lon="10.5578286"><ele>20.0</ele><time>2026-04-04T12:36:35.677Z</time></trkpt><trkpt lat="43.2792997" lon="10.5577165"><ele>20.666666666666668</ele><time>2026-04-04T12:36:36.69Z</time></trkpt><trkpt lat="43.2795049" lon="10.5576164"><ele>21.333333333333332</ele><time>2026-04-04T12:36:37.693Z</time></trkpt><trkpt lat="43.2796997" lon="10.5575138"><ele>22.0</ele><time>2026-04-04T12:36:38.694Z</time></trkpt><trkpt lat="43.279906" lon="10.5574279"><ele>22.0</ele><time>2026-04-04T12:36:39.69Z</time></trkpt><trkpt lat="43.2800698" lon="10.5573083"><ele>22.0</ele><time>2026-04-04T12:36:40.708Z</time></trkpt><trkpt lat="43.2802532" lon="10.5572053"><ele>22.0</ele><time>2026-04-04T12:36:41.694Z</time></trkpt><trkpt lat="43.2804153" lon="10.5571168"><ele>21.666666666666664</ele><time>2026-04-04T12:36:42.687Z</time></trkpt><trkpt lat="43.280587" lon="10.5570214"><ele>21.333333333333332</ele><time>2026-04-04T12:36:43.687Z</time></trkpt><trkpt lat="43.2807299" lon="10.5569483"><ele>21.0</ele><time>2026-04-04T12:36:44.687Z</time></trkpt><trkpt lat="43.2808776" lon="10.5568697"><ele>20.666666666666668</ele><time>2026-04-04T12:36:45.703Z</time></trkpt><trkpt lat="43.2810283" lon="10.5567938"><ele>20.333333333333336</ele><time>2026-04-04T12:36:46.692Z</time></trkpt><trkpt lat="43.2811735" lon="10.556733"><ele>20.0</ele><time>2026-04-04T12:36:47.694Z</time></trkpt><trkpt lat="43.2813113" lon="10.5566745"><ele>20.0</ele><time>2026-04-04T12:36:48.689Z</time></trkpt><trkpt lat="43.281439" lon="10.556594"><ele>20.0</ele><time>2026-04-04T12:36:49.689Z</time></trkpt><trkpt lat="43.2815696" lon="10.5565111"><ele>20.0</ele><time>2026-04-04T12:36:50.697Z</time></trkpt><trkpt lat="43.2816791" lon="10.5564506"><ele>20.0</ele><time>2026-04-04T12:36:51.689Z</time></trkpt><trkpt lat="43.2817509" lon="10.5564203"><ele>20.0</ele><time>2026-04-04T12:36:52.68Z</time></trkpt><trkpt lat="43.2818248" lon="10.5564187"><ele>20.0</ele><time>2026-04-04T12:36:53.693Z</time></trkpt><trkpt lat="43.2819235" lon="10.5564136"><ele>20.0</ele><time>2026-04-04T12:36:55.681Z</time></trkpt><trkpt lat="43.2819583" lon="10.5565072"><ele>20.0</ele><time>2026-04-04T12:36:57.694Z</time></trkpt><trkpt lat="43.2819826" lon="10.5566494"><ele>20.0</ele><time>2026-04-04T12:36:59.682Z</time></trkpt><trkpt lat="43.2820036" lon="10.5567429"><ele>20.0</ele><time>2026-04-04T12:37:00.686Z</time></trkpt><trkpt lat="43.2820261" lon="10.556865"><ele>20.0</ele><time>2026-04-04T12:37:01.709Z</time></trkpt><trkpt lat="43.2820505" lon="10.5570112"><ele>20.0</ele><time>2026-04-04T12:37:02.699Z</time></trkpt><trkpt lat="43.2820866" lon="10.557172"><ele>20.0</ele><time>2026-04-04T12:37:03.706Z</time></trkpt><trkpt lat="43.2821261" lon="10.5573253"><ele>20.0</ele><time>2026-04-04T12:37:05.775Z</time></trkpt><trkpt lat="43.2821734" lon="10.5574773"><ele>20.75</ele><time>2026-04-04T12:37:06.78Z</time></trkpt><trkpt lat="43.2822203" lon="10.5576231"><ele>21.5</ele><time>2026-04-04T12:37:07.779Z</time></trkpt><trkpt lat="43.2822652" lon="10.5577661"><ele>22.25</ele><time>2026-04-04T12:37:08.786Z</time></trkpt><trkpt lat="43.2823096" lon="10.5579131"><ele>23.0</ele><time>2026-04-04T12:37:09.781Z</time></trkpt><trkpt lat="43.2823537" lon="10.5580657"><ele>23.5</ele><time>2026-04-04T12:37:10.78Z</time></trkpt><trkpt lat="43.2824032" lon="10.5582198"><ele>24.0</ele><time>2026-04-04T12:37:11.811Z</time></trkpt><trkpt lat="43.2824563" lon="10.5583928"><ele>24.5</ele><time>2026-04-04T12:37:12.78Z</time></trkpt><trkpt lat="43.2825052" lon="10.5585524"><ele>25.0</ele><time>2026-04-04T12:37:13.787Z</time></trkpt><trkpt lat="43.2825488" lon="10.5587116"><ele>25.25</ele><time>2026-04-04T12:37:14.785Z</time></trkpt><trkpt lat="43.2825947" lon="10.5588705"><ele>25.5</ele><time>2026-04-04T12:37:15.787Z</time></trkpt><trkpt lat="43.2826436" lon="10.5590241"><ele>25.75</ele><time>2026-04-04T12:37:16.783Z</time></trkpt><trkpt lat="43.282694" lon="10.559191"><ele>26.0</ele><time>2026-04-04T12:37:17.78Z</time></trkpt><trkpt lat="43.2827424" lon="10.5593587"><ele>26.0</ele><time>2026-04-04T12:37:18.783Z</time></trkpt><trkpt lat="43.282789" lon="10.5595195"><ele>26.0</ele><time>2026-04-04T12:37:19.779Z</time></trkpt><trkpt lat="43.2828332" lon="10.5596756"><ele>26.0</ele><time>2026-04-04T12:37:20.78Z</time></trkpt><trkpt lat="43.2828772" lon="10.5598296"><ele>26.0</ele><time>2026-04-04T12:37:21.779Z</time></trkpt><trkpt lat="43.2829232" lon="10.5599855"><ele>26.5</ele><time>2026-04-04T12:37:22.779Z</time></trkpt><trkpt lat="43.2829702" lon="10.560142"><ele>27.0</ele><time>2026-04-04T12:37:23.78Z</time></trkpt><trkpt lat="43.2830161" lon="10.5602982"><ele>27.5</ele><time>2026-04-04T12:37:24.78Z</time></trkpt><trkpt lat="43.2830622" lon="10.5604545"><ele>28.0</ele><time>2026-04-04T12:37:25.783Z</time></trkpt><trkpt lat="43.2831093" lon="10.5606117"><ele>28.25</ele><time>2026-04-04T12:37:26.772Z</time></trkpt><trkpt lat="43.2831587" lon="10.5607739"><ele>28.5</ele><time>2026-04-04T12:37:27.776Z</time></trkpt><trkpt lat="43.2832072" lon="10.5609403"><ele>28.75</ele><time>2026-04-04T12:37:28.783Z</time></trkpt><trkpt lat="43.2832541" lon="10.5611171"><ele>29.0</ele><time>2026-04-04T12:37:29.785Z</time></trkpt><trkpt lat="43.2833033" lon="10.5613014"><ele>29.333333333333332</ele><time>2026-04-04T12:37:30.786Z</time></trkpt><trkpt lat="43.2833582" lon="10.5614955"><ele>29.666666666666664</ele><time>2026-04-04T12:37:31.783Z</time></trkpt><trkpt lat="43.2834151" lon="10.5616912"><ele>30.0</ele><time>2026-04-04T12:37:32.782Z</time></trkpt><trkpt lat="43.2834698" lon="10.5618878"><ele>30.0</ele><time>2026-04-04T12:37:33.781Z</time></trkpt><trkpt lat="43.283523" lon="10.5620853"><ele>30.0</ele><time>2026-04-04T12:37:34.781Z</time></trkpt><trkpt lat="43.2835796" lon="10.5622834"><ele>30.0</ele><time>2026-04-04T12:37:35.78Z</time></trkpt><trkpt lat="43.2836356" lon="10.5624749"><ele>30.0</ele><time>2026-04-04T12:37:36.783Z</time></trkpt><trkpt lat="43.2836924" lon="10.5626589"><ele>30.0</ele><time>2026-04-04T12:37:37.771Z</time></trkpt><trkpt lat="43.2837404" lon="10.5628087"><ele>30.0</ele><time>2026-04-04T12:37:38.776Z</time></trkpt><trkpt lat="43.2837811" lon="10.5629332"><ele>30.0</ele><time>2026-04-04T12:37:39.778Z</time></trkpt><trkpt lat="43.2838193" lon="10.5630325"><ele>30.0</ele><time>2026-04-04T12:37:40.778Z</time></trkpt><trkpt lat="43.2838917" lon="10.5631071"><ele>31.2</ele><time>2026-04-04T12:37:42.766Z</time></trkpt><trkpt lat="43.2839652" lon="10.5630756"><ele>32.4</ele><time>2026-04-04T12:37:44.776Z</time></trkpt><trkpt lat="43.2840713" lon="10.5630369"><ele>33.6</ele><time>2026-04-04T12:37:46.765Z</time></trkpt><trkpt lat="43.2841718" lon="10.5629787"><ele>34.8</ele><time>2026-04-04T12:37:47.759Z</time></trkpt><trkpt lat="43.284258" lon="10.5629306"><ele>36.0</ele><time>2026-04-04T12:37:48.766Z</time></trkpt><trkpt lat="43.2843603" lon="10.5628676"><ele>36.0</ele><time>2026-04-04T12:37:49.778Z</time></trkpt><trkpt lat="43.2844464" lon="10.5628139"><ele>36.0</ele><time>2026-04-04T12:37:50.769Z</time></trkpt><trkpt lat="43.2845172" lon="10.5627662"><ele>36.0</ele><time>2026-04-04T12:37:51.763Z</time></trkpt><trkpt lat="43.2846917" lon="10.5628026"><ele>36.0</ele><time>2026-04-04T12:37:53.69Z</time></trkpt><trkpt lat="43.2847372" lon="10.5629516"><ele>36.0</ele><time>2026-04-04T12:37:55.688Z</time></trkpt><trkpt lat="43.2847599" lon="10.5630547"><ele>36.0</ele><time>2026-04-04T12:37:56.69Z</time></trkpt><trkpt lat="43.2847937" lon="10.5631662"><ele>36.0</ele><time>2026-04-04T12:37:57.686Z</time></trkpt><trkpt lat="43.2848326" lon="10.5633005"><ele>36.0</ele><time>2026-04-04T12:37:58.682Z</time></trkpt><trkpt lat="43.2848662" lon="10.5634439"><ele>36.0</ele><time>2026-04-04T12:37:59.691Z</time></trkpt><trkpt lat="43.284907" lon="10.5635812"><ele>37.0</ele><time>2026-04-04T12:38:00.692Z</time></trkpt><trkpt lat="43.2849495" lon="10.5637142"><ele>38.0</ele><time>2026-04-04T12:38:01.695Z</time></trkpt><trkpt lat="43.284992" lon="10.5638608"><ele>39.0</ele><time>2026-04-04T12:38:02.694Z</time></trkpt><trkpt lat="43.2850428" lon="10.5640192"><ele>40.0</ele><time>2026-04-04T12:38:03.696Z</time></trkpt><trkpt lat="43.2851056" lon="10.5641859"><ele>40.0</ele><time>2026-04-04T12:38:04.695Z</time></trkpt><trkpt lat="43.2851706" lon="10.5643474"><ele>40.0</ele><time>2026-04-04T12:38:05.69Z</time></trkpt><trkpt lat="43.2852211" lon="10.5644954"><ele>40.0</ele><time>2026-04-04T12:38:06.691Z</time></trkpt><trkpt lat="43.285277" lon="10.5646368"><ele>40.0</ele><time>2026-04-04T12:38:07.692Z</time></trkpt><trkpt lat="43.2853309" lon="10.5647847"><ele>39.8</ele><time>2026-04-04T12:38:08.686Z</time></trkpt><trkpt lat="43.2853745" lon="10.5649178"><ele>39.6</ele><time>2026-04-04T12:38:09.694Z</time></trkpt><trkpt lat="43.2854244" lon="10.5650543"><ele>39.4</ele><time>2026-04-04T12:38:10.691Z</time></trkpt><trkpt lat="43.2854732" lon="10.5651832"><ele>39.2</ele><time>2026-04-04T12:38:11.685Z</time></trkpt><trkpt lat="43.2855231" lon="10.565319"><ele>39.0</ele><time>2026-04-04T12:38:12.71Z</time></trkpt><trkpt lat="43.285561" lon="10.565453"><ele>39.75</ele><time>2026-04-04T12:38:13.695Z</time></trkpt><trkpt lat="43.2856026" lon="10.5655949"><ele>40.5</ele><time>2026-04-04T12:38:14.692Z</time></trkpt><trkpt lat="43.2856454" lon="10.5657458"><ele>41.25</ele><time>2026-04-04T12:38:15.695Z</time></trkpt><trkpt lat="43.2856844" lon="10.5658952"><ele>42.0</ele><time>2026-04-04T12:38:16.686Z</time></trkpt><trkpt lat="43.2857241" lon="10.5660379"><ele>42.0</ele><time>2026-04-04T12:38:17.689Z</time></trkpt><trkpt lat="43.2857643" lon="10.5661749"><ele>42.0</ele><time>2026-04-04T12:38:18.683Z</time></trkpt><trkpt lat="43.2858137" lon="10.5663183"><ele>42.0</ele><time>2026-04-04T12:38:19.682Z</time></trkpt><trkpt lat="43.2858631" lon="10.5664415"><ele>42.0</ele><time>2026-04-04T12:38:20.69Z</time></trkpt><trkpt lat="43.2859015" lon="10.5665496"><ele>42.0</ele><time>2026-04-04T12:38:21.683Z</time></trkpt><trkpt lat="43.2859361" lon="10.5666638"><ele>42.166666666666664</ele><time>2026-04-04T12:38:22.69Z</time></trkpt><trkpt lat="43.285976" lon="10.5667784"><ele>42.333333333333336</ele><time>2026-04-04T12:38:23.683Z</time></trkpt><trkpt lat="43.2860181" lon="10.5668784"><ele>42.5</ele><time>2026-04-04T12:38:24.688Z</time></trkpt><trkpt lat="43.286065" lon="10.5669759"><ele>42.66666666666667</ele><time>2026-04-04T12:38:25.691Z</time></trkpt><trkpt lat="43.286097" lon="10.5670698"><ele>42.833333333333336</ele><time>2026-04-04T12:38:26.683Z</time></trkpt><trkpt lat="43.2861365" lon="10.5671898"><ele>43.0</ele><time>2026-04-04T12:38:27.689Z</time></trkpt><trkpt lat="43.286173" lon="10.5673161"><ele>43.5</ele><time>2026-04-04T12:38:28.691Z</time></trkpt><trkpt lat="43.2862195" lon="10.567473"><ele>44.0</ele><time>2026-04-04T12:38:29.692Z</time></trkpt><trkpt lat="43.2862653" lon="10.5676202"><ele>44.5</ele><time>2026-04-04T12:38:30.701Z</time></trkpt><trkpt lat="43.2863124" lon="10.5677775"><ele>45.0</ele><time>2026-04-04T12:38:31.693Z</time></trkpt><trkpt lat="43.2863646" lon="10.5679353"><ele>45.0</ele><time>2026-04-04T12:38:32.693Z</time></trkpt><trkpt lat="43.2864196" lon="10.5680893"><ele>45.0</ele><time>2026-04-04T12:38:33.691Z</time></trkpt><trkpt lat="43.2864725" lon="10.5682537"><ele>45.0</ele><time>2026-04-04T12:38:34.699Z</time></trkpt><trkpt lat="43.2865307" lon="10.5684264"><ele>45.0</ele><time>2026-04-04T12:38:35.697Z</time></trkpt><trkpt lat="43.2865993" lon="10.5686116"><ele>45.75</ele><time>2026-04-04T12:38:36.7Z</time></trkpt><trkpt lat="43.2866663" lon="10.5687989"><ele>46.5</ele><time>2026-04-04T12:38:37.702Z</time></trkpt><trkpt lat="43.2867297" lon="10.568965"><ele>47.25</ele><time>2026-04-04T12:38:38.698Z</time></trkpt><trkpt lat="43.2867732" lon="10.5691203"><ele>48.0</ele><time>2026-04-04T12:38:39.698Z</time></trkpt><trkpt lat="43.286809" lon="10.5692665"><ele>48.0</ele><time>2026-04-04T12:38:40.7Z</time></trkpt><trkpt lat="43.2868538" lon="10.5694194"><ele>48.0</ele><time>2026-04-04T12:38:41.699Z</time></trkpt><trkpt lat="43.2869101" lon="10.5695899"><ele>48.0</ele><time>2026-04-04T12:38:42.699Z</time></trkpt><trkpt lat="43.2869638" lon="10.5697641"><ele>48.0</ele><time>2026-04-04T12:38:43.709Z</time></trkpt><trkpt lat="43.2870257" lon="10.5699199"><ele>48.5</ele><time>2026-04-04T12:38:44.695Z</time></trkpt><trkpt lat="43.2870746" lon="10.5700807"><ele>49.0</ele><time>2026-04-04T12:38:45.7Z</time></trkpt><trkpt lat="43.2871298" lon="10.570249"><ele>49.5</ele><time>2026-04-04T12:38:46.694Z</time></trkpt><trkpt lat="43.2871873" lon="10.5704147"><ele>50.0</ele><time>2026-04-04T12:38:47.685Z</time></trkpt><trkpt lat="43.2872526" lon="10.5705766"><ele>50.5</ele><time>2026-04-04T12:38:48.699Z</time></trkpt><trkpt lat="43.2873017" lon="10.5707329"><ele>51.0</ele><time>2026-04-04T12:38:49.694Z</time></trkpt><trkpt lat="43.2873554" lon="10.5708636"><ele>51.5</ele><time>2026-04-04T12:38:50.684Z</time></trkpt><trkpt lat="43.2874027" lon="10.5709904"><ele>52.0</ele><time>2026-04-04T12:38:51.694Z</time></trkpt><trkpt lat="43.2874512" lon="10.5711417"><ele>52.75</ele><time>2026-04-04T12:38:52.691Z</time></trkpt><trkpt lat="43.2875037" lon="10.5712982"><ele>53.5</ele><time>2026-04-04T12:38:53.697Z</time></trkpt><trkpt lat="43.2875519" lon="10.5714371"><ele>54.25</ele><time>2026-04-04T12:38:54.693Z</time></trkpt><trkpt lat="43.2875978" lon="10.5715701"><ele>55.0</ele><time>2026-04-04T12:38:55.695Z</time></trkpt><trkpt lat="43.2876455" lon="10.5717014"><ele>55.0</ele><time>2026-04-04T12:38:56.689Z</time></trkpt><trkpt lat="43.2876946" lon="10.5718559"><ele>55.0</ele><time>2026-04-04T12:38:57.697Z</time></trkpt><trkpt lat="43.2877451" lon="10.5720129"><ele>55.0</ele><time>2026-04-04T12:38:58.692Z</time></trkpt><trkpt lat="43.2877967" lon="10.5721586"><ele>55.0</ele><time>2026-04-04T12:38:59.695Z</time></trkpt><trkpt lat="43.2878479" lon="10.5723037"><ele>55.2</ele><time>2026-04-04T12:39:00.698Z</time></trkpt><trkpt lat="43.2878929" lon="10.5724283"><ele>55.4</ele><time>2026-04-04T12:39:01.692Z</time></trkpt><trkpt lat="43.2879372" lon="10.572542"><ele>55.599999999999994</ele><time>2026-04-04T12:39:02.698Z</time></trkpt><trkpt lat="43.2879744" lon="10.5726628"><ele>55.8</ele><time>2026-04-04T12:39:03.691Z</time></trkpt><trkpt lat="43.2880136" lon="10.5727795"><ele>56.0</ele><time>2026-04-04T12:39:04.692Z</time></trkpt><trkpt lat="43.2880528" lon="10.5728917"><ele>56.00000000000001</ele><time>2026-04-04T12:39:05.691Z</time></trkpt><trkpt lat="43.2880873" lon="10.5729971"><ele>56.0</ele><time>2026-04-04T12:39:06.688Z</time></trkpt><trkpt lat="43.2881157" lon="10.5730879"><ele>56.0</ele><time>2026-04-04T12:39:07.689Z</time></trkpt><trkpt lat="43.288141" lon="10.5731675"><ele>56.0</ele><time>2026-04-04T12:39:08.684Z</time></trkpt><trkpt lat="43.2881907" lon="10.573304"><ele>56.00000000000001</ele><time>2026-04-04T12:39:10.679Z</time></trkpt><trkpt lat="43.2882753" lon="10.5733285"><ele>56.0</ele><time>2026-04-04T12:39:12.687Z</time></trkpt><trkpt lat="43.2883367" lon="10.5733016"><ele>56.8</ele><time>2026-04-04T12:39:13.684Z</time></trkpt><trkpt lat="43.28844" lon="10.5732092"><ele>57.599999999999994</ele><time>2026-04-04T12:39:15.698Z</time></trkpt><trkpt lat="43.2885125" lon="10.573159"><ele>58.4</ele><time>2026-04-04T12:39:16.692Z</time></trkpt><trkpt lat="43.2885932" lon="10.5731108"><ele>59.2</ele><time>2026-04-04T12:39:17.689Z</time></trkpt><trkpt lat="43.2886828" lon="10.5730575"><ele>60.0</ele><time>2026-04-04T12:39:18.693Z</time></trkpt><trkpt lat="43.2887798" lon="10.5730015"><ele>60.0</ele><time>2026-04-04T12:39:19.693Z</time></trkpt><trkpt lat="43.2888757" lon="10.5729509"><ele>60.0</ele><time>2026-04-04T12:39:20.69Z</time></trkpt><trkpt lat="43.2889668" lon="10.5728959"><ele>60.0</ele><time>2026-04-04T12:39:21.694Z</time></trkpt><trkpt lat="43.289051" lon="10.5728396"><ele>60.0</ele><time>2026-04-04T12:39:22.676Z</time></trkpt><trkpt lat="43.2891422" lon="10.5727749"><ele>60.0</ele><time>2026-04-04T12:39:23.683Z</time></trkpt><trkpt lat="43.2892194" lon="10.5727202"><ele>59.833333333333336</ele><time>2026-04-04T12:39:24.686Z</time></trkpt><trkpt lat="43.2892811" lon="10.572682"><ele>59.66666666666667</ele><time>2026-04-04T12:39:25.679Z</time></trkpt><trkpt lat="43.2893779" lon="10.5726647"><ele>59.5</ele><time>2026-04-04T12:39:27.677Z</time></trkpt><trkpt lat="43.2894428" lon="10.5726899"><ele>59.333333333333336</ele><time>2026-04-04T12:39:30.701Z</time></trkpt><trkpt lat="43.2894808" lon="10.5727738"><ele>59.16666666666667</ele><time>2026-04-04T12:39:32.696Z</time></trkpt><trkpt lat="43.289512" lon="10.5728539"><ele>59.0</ele><time>2026-04-04T12:39:33.69Z</time></trkpt><trkpt lat="43.2895429" lon="10.5729764"><ele>59.5</ele><time>2026-04-04T12:39:34.681Z</time></trkpt><trkpt lat="43.2895892" lon="10.5731146"><ele>60.0</ele><time>2026-04-04T12:39:35.68Z</time></trkpt><trkpt lat="43.28964" lon="10.5732714"><ele>60.5</ele><time>2026-04-04T12:39:36.678Z</time></trkpt><trkpt lat="43.28969" lon="10.5734293"><ele>61.0</ele><time>2026-04-04T12:39:37.698Z</time></trkpt><trkpt lat="43.2897406" lon="10.573591"><ele>61.5</ele><time>2026-04-04T12:39:39.776Z</time></trkpt><trkpt lat="43.2897884" lon="10.5737534"><ele>62.0</ele><time>2026-04-04T12:39:40.778Z</time></trkpt><trkpt lat="43.2898401" lon="10.5739178"><ele>62.5</ele><time>2026-04-04T12:39:41.783Z</time></trkpt><trkpt lat="43.2898944" lon="10.5740817"><ele>63.0</ele><time>2026-04-04T12:39:42.779Z</time></trkpt><trkpt lat="43.289948" lon="10.5742455"><ele>63.0</ele><time>2026-04-04T12:39:43.777Z</time></trkpt><trkpt lat="43.2900017" lon="10.5744212"><ele>63.0</ele><time>2026-04-04T12:39:44.774Z</time></trkpt><trkpt lat="43.2900578" lon="10.5745803"><ele>63.0</ele><time>2026-04-04T12:39:45.797Z</time></trkpt><trkpt lat="43.2901127" lon="10.574735"><ele>63.0</ele><time>2026-04-04T12:39:46.777Z</time></trkpt><trkpt lat="43.2901653" lon="10.5748908"><ele>63.0</ele><time>2026-04-04T12:39:47.777Z</time></trkpt><trkpt lat="43.29022" lon="10.575054"><ele>63.0</ele><time>2026-04-04T12:39:48.777Z</time></trkpt><trkpt lat="43.2902767" lon="10.5752168"><ele>63.0</ele><time>2026-04-04T12:39:49.774Z</time></trkpt><trkpt lat="43.2903225" lon="10.5753979"><ele>63.0</ele><time>2026-04-04T12:39:50.785Z</time></trkpt><trkpt lat="43.2903867" lon="10.5755843"><ele>63.0</ele><time>2026-04-04T12:39:51.783Z</time></trkpt><trkpt lat="43.2904431" lon="10.5757622"><ele>63.0</ele><time>2026-04-04T12:39:52.782Z</time></trkpt><trkpt lat="43.2904966" lon="10.5759321"><ele>63.0</ele><time>2026-04-04T12:39:53.787Z</time></trkpt><trkpt lat="43.2905523" lon="10.5761014"><ele>63.0</ele><time>2026-04-04T12:39:54.78Z</time></trkpt><trkpt lat="43.2906091" lon="10.5762694"><ele>63.75</ele><time>2026-04-04T12:39:55.789Z</time></trkpt><trkpt lat="43.2906608" lon="10.5764264"><ele>64.5</ele><time>2026-04-04T12:39:56.779Z</time></trkpt><trkpt lat="43.2907152" lon="10.5765709"><ele>65.25</ele><time>2026-04-04T12:39:57.772Z</time></trkpt><trkpt lat="43.2907678" lon="10.5767116"><ele>66.0</ele><time>2026-04-04T12:39:58.769Z</time></trkpt><trkpt lat="43.2908133" lon="10.5768453"><ele>66.0</ele><time>2026-04-04T12:39:59.779Z</time></trkpt><trkpt lat="43.2908565" lon="10.5769697"><ele>66.0</ele><time>2026-04-04T12:40:00.762Z</time></trkpt><trkpt lat="43.2908975" lon="10.5770763"><ele>66.0</ele><time>2026-04-04T12:40:01.761Z</time></trkpt><trkpt lat="43.290935" lon="10.5771637"><ele>66.0</ele><time>2026-04-04T12:40:02.758Z</time></trkpt><trkpt lat="43.2910103" lon="10.5771688"><ele>66.0</ele><time>2026-04-04T12:40:05.765Z</time></trkpt><trkpt lat="43.2911" lon="10.5771463"><ele>66.0</ele><time>2026-04-04T12:40:07.68Z</time></trkpt><trkpt lat="43.2912175" lon="10.5770979"><ele>66.5</ele><time>2026-04-04T12:40:09.668Z</time></trkpt><trkpt lat="43.2912848" lon="10.5770899"><ele>67.0</ele><time>2026-04-04T12:40:10.665Z</time></trkpt><trkpt lat="43.2913546" lon="10.5770839"><ele>67.5</ele><time>2026-04-04T12:40:11.672Z</time></trkpt><trkpt lat="43.291426" lon="10.5770808"><ele>68.0</ele><time>2026-04-04T12:40:12.67Z</time></trkpt><trkpt lat="43.2914904" lon="10.5770769"><ele>68.5</ele><time>2026-04-04T12:40:13.673Z</time></trkpt><trkpt lat="43.2916034" lon="10.5770679"><ele>69.0</ele><time>2026-04-04T12:40:15.681Z</time></trkpt><trkpt lat="43.2917126" lon="10.5770474"><ele>69.33333333333333</ele><time>2026-04-04T12:40:17.669Z</time></trkpt><trkpt lat="43.2918329" lon="10.5770419"><ele>69.66666666666667</ele><time>2026-04-04T12:40:19.678Z</time></trkpt><trkpt lat="43.2918991" lon="10.5770549"><ele>70.0</ele><time>2026-04-04T12:40:20.675Z</time></trkpt><trkpt lat="43.2919709" lon="10.5770658"><ele>70.33333333333334</ele><time>2026-04-04T12:40:21.672Z</time></trkpt><trkpt lat="43.292048" lon="10.577075"><ele>70.66666666666667</ele><time>2026-04-04T12:40:22.671Z</time></trkpt><trkpt lat="43.2921291" lon="10.5770792"><ele>71.0</ele><time>2026-04-04T12:40:23.67Z</time></trkpt><trkpt lat="43.292216" lon="10.5771015"><ele>71.39999999999999</ele><time>2026-04-04T12:40:24.661Z</time></trkpt><trkpt lat="43.2923125" lon="10.5771283"><ele>71.8</ele><time>2026-04-04T12:40:25.665Z</time></trkpt><trkpt lat="43.2924104" lon="10.5771431"><ele>72.19999999999999</ele><time>2026-04-04T12:40:26.663Z</time></trkpt><trkpt lat="43.2925038" lon="10.5771599"><ele>72.6</ele><time>2026-04-04T12:40:27.666Z</time></trkpt><trkpt lat="43.2925889" lon="10.5771709"><ele>73.0</ele><time>2026-04-04T12:40:28.669Z</time></trkpt><trkpt lat="43.2926638" lon="10.5771865"><ele>73.0</ele><time>2026-04-04T12:40:29.675Z</time></trkpt><trkpt lat="43.2927376" lon="10.5772057"><ele>73.0</ele><time>2026-04-04T12:40:30.677Z</time></trkpt><trkpt lat="43.2928083" lon="10.5772278"><ele>73.0</ele><time>2026-04-04T12:40:31.675Z</time></trkpt><trkpt lat="43.2928819" lon="10.5772641"><ele>73.0</ele><time>2026-04-04T12:40:32.675Z</time></trkpt><trkpt lat="43.2929551" lon="10.5773104"><ele>73.0</ele><time>2026-04-04T12:40:33.673Z</time></trkpt><trkpt lat="43.2930078" lon="10.5773824"><ele>73.0</ele><time>2026-04-04T12:40:34.674Z</time></trkpt><trkpt lat="43.2930519" lon="10.5774699"><ele>73.5</ele><time>2026-04-04T12:40:35.672Z</time></trkpt><trkpt lat="43.2931046" lon="10.5775757"><ele>74.0</ele><time>2026-04-04T12:40:36.674Z</time></trkpt><trkpt lat="43.2931707" lon="10.5777146"><ele>74.5</ele><time>2026-04-04T12:40:37.678Z</time></trkpt><trkpt lat="43.2932512" lon="10.5778651"><ele>75.0</ele><time>2026-04-04T12:40:38.672Z</time></trkpt><trkpt lat="43.2933459" lon="10.5780323"><ele>75.33333333333333</ele><time>2026-04-04T12:40:39.684Z</time></trkpt><trkpt lat="43.2934522" lon="10.5782105"><ele>75.66666666666666</ele><time>2026-04-04T12:40:40.681Z</time></trkpt><trkpt lat="43.2935677" lon="10.5784023"><ele>76.0</ele><time>2026-04-04T12:40:41.686Z</time></trkpt><trkpt lat="43.2936679" lon="10.5785871"><ele>76.33333333333333</ele><time>2026-04-04T12:40:42.688Z</time></trkpt><trkpt lat="43.2937779" lon="10.5787524"><ele>76.66666666666667</ele><time>2026-04-04T12:40:43.694Z</time></trkpt><trkpt lat="43.2938783" lon="10.5789297"><ele>77.0</ele><time>2026-04-04T12:40:44.695Z</time></trkpt><trkpt lat="43.2939734" lon="10.5790978"><ele>77.5</ele><time>2026-04-04T12:40:45.699Z</time></trkpt><trkpt lat="43.2940763" lon="10.5792721"><ele>78.0</ele><time>2026-04-04T12:40:46.694Z</time></trkpt><trkpt lat="43.2941621" lon="10.5794378"><ele>78.5</ele><time>2026-04-04T12:40:47.706Z</time></trkpt><trkpt lat="43.2942413" lon="10.579575"><ele>79.0</ele><time>2026-04-04T12:40:48.689Z</time></trkpt><trkpt lat="43.2943104" lon="10.579708"><ele>79.2</ele><time>2026-04-04T12:40:49.697Z</time></trkpt><trkpt lat="43.2943741" lon="10.5798201"><ele>79.4</ele><time>2026-04-04T12:40:50.697Z</time></trkpt><trkpt lat="43.2944659" lon="10.5799188"><ele>79.6</ele><time>2026-04-04T12:40:51.694Z</time></trkpt><trkpt lat="43.2945514" lon="10.5800167"><ele>79.8</ele><time>2026-04-04T12:40:52.69Z</time></trkpt><trkpt lat="43.2946248" lon="10.5801093"><ele>80.0</ele><time>2026-04-04T12:40:53.688Z</time></trkpt><trkpt lat="43.2946957" lon="10.5801975"><ele>80.0</ele><time>2026-04-04T12:40:54.686Z</time></trkpt><trkpt lat="43.2947531" lon="10.5802758"><ele>80.0</ele><time>2026-04-04T12:40:55.687Z</time></trkpt><trkpt lat="43.2948105" lon="10.5803442"><ele>80.0</ele><time>2026-04-04T12:40:56.687Z</time></trkpt><trkpt lat="43.2948557" lon="10.5804129"><ele>80.0</ele><time>2026-04-04T12:40:57.684Z</time></trkpt><trkpt lat="43.2949059" lon="10.5804703"><ele>80.0</ele><time>2026-04-04T12:40:58.679Z</time></trkpt><trkpt lat="43.2949791" lon="10.5806087"><ele>80.0</ele><time>2026-04-04T12:41:00.693Z</time></trkpt><trkpt lat="43.2950233" lon="10.5807135"><ele>80.75</ele><time>2026-04-04T12:41:01.685Z</time></trkpt><trkpt lat="43.2950715" lon="10.5808325"><ele>81.5</ele><time>2026-04-04T12:41:02.679Z</time></trkpt><trkpt lat="43.2951257" lon="10.580968"><ele>82.25</ele><time>2026-04-04T12:41:03.682Z</time></trkpt><trkpt lat="43.2951886" lon="10.5811166"><ele>83.0</ele><time>2026-04-04T12:41:04.69Z</time></trkpt><trkpt lat="43.29526" lon="10.5812823"><ele>83.0</ele><time>2026-04-04T12:41:05.687Z</time></trkpt><trkpt lat="43.2953268" lon="10.5814386"><ele>83.0</ele><time>2026-04-04T12:41:06.687Z</time></trkpt><trkpt lat="43.2953858" lon="10.5815983"><ele>83.0</ele><time>2026-04-04T12:41:07.691Z</time></trkpt><trkpt lat="43.2954595" lon="10.5817641"><ele>83.0</ele><time>2026-04-04T12:41:08.691Z</time></trkpt><trkpt lat="43.2955277" lon="10.5819268"><ele>84.5</ele><time>2026-04-04T12:41:09.693Z</time></trkpt><trkpt lat="43.2956002" lon="10.5820688"><ele>86.0</ele><time>2026-04-04T12:41:10.689Z</time></trkpt><trkpt lat="43.2956766" lon="10.5822162"><ele>87.5</ele><time>2026-04-04T12:41:11.689Z</time></trkpt><trkpt lat="43.2957449" lon="10.5823745"><ele>89.0</ele><time>2026-04-04T12:41:12.695Z</time></trkpt><trkpt lat="43.2958195" lon="10.5825476"><ele>89.0</ele><time>2026-04-04T12:41:13.692Z</time></trkpt><trkpt lat="43.295885" lon="10.5827128"><ele>89.0</ele><time>2026-04-04T12:41:14.688Z</time></trkpt><trkpt lat="43.2959684" lon="10.5829014"><ele>89.0</ele><time>2026-04-04T12:41:15.702Z</time></trkpt><trkpt lat="43.2960477" lon="10.5830839"><ele>90.0</ele><time>2026-04-04T12:41:16.695Z</time></trkpt><trkpt lat="43.2961445" lon="10.5832653"><ele>91.0</ele><time>2026-04-04T12:41:17.689Z</time></trkpt><trkpt lat="43.296226" lon="10.5834564"><ele>92.0</ele><time>2026-04-04T12:41:18.7Z</time></trkpt><trkpt lat="43.2963002" lon="10.5836487"><ele>93.0</ele><time>2026-04-04T12:41:19.687Z</time></trkpt><trkpt lat="43.2963748" lon="10.5838318"><ele>94.0</ele><time>2026-04-04T12:41:20.688Z</time></trkpt><trkpt lat="43.2964458" lon="10.5840164"><ele>95.0</ele><time>2026-04-04T12:41:21.685Z</time></trkpt><trkpt lat="43.2965254" lon="10.5841958"><ele>95.0</ele><time>2026-04-04T12:41:22.691Z</time></trkpt><trkpt lat="43.2965997" lon="10.5843724"><ele>95.0</ele><time>2026-04-04T12:41:23.688Z</time></trkpt><trkpt lat="43.296679" lon="10.5845603"><ele>95.0</ele><time>2026-04-04T12:41:24.689Z</time></trkpt><trkpt lat="43.2967669" lon="10.584733"><ele>96.25</ele><time>2026-04-04T12:41:25.689Z</time></trkpt><trkpt lat="43.2968384" lon="10.5849155"><ele>97.5</ele><time>2026-04-04T12:41:26.693Z</time></trkpt><trkpt lat="43.2969168" lon="10.5850884"><ele>98.75</ele><time>2026-04-04T12:41:27.692Z</time></trkpt><trkpt lat="43.2969923" lon="10.5852537"><ele>100.0</ele><time>2026-04-04T12:41:28.688Z</time></trkpt><trkpt lat="43.2970615" lon="10.5854339"><ele>100.33333333333334</ele><time>2026-04-04T12:41:29.695Z</time></trkpt><trkpt lat="43.2971511" lon="10.5856161"><ele>100.66666666666666</ele><time>2026-04-04T12:41:30.692Z</time></trkpt><trkpt lat="43.2972343" lon="10.5858109"><ele>101.0</ele><time>2026-04-04T12:41:31.686Z</time></trkpt><trkpt lat="43.297319" lon="10.5859951"><ele>101.75</ele><time>2026-04-04T12:41:32.691Z</time></trkpt><trkpt lat="43.2974028" lon="10.5861622"><ele>102.5</ele><time>2026-04-04T12:41:33.687Z</time></trkpt><trkpt lat="43.2974831" lon="10.586323"><ele>103.25</ele><time>2026-04-04T12:41:34.692Z</time></trkpt><trkpt lat="43.2975536" lon="10.5864746"><ele>104.0</ele><time>2026-04-04T12:41:35.69Z</time></trkpt><trkpt lat="43.2976226" lon="10.5866199"><ele>104.0</ele><time>2026-04-04T12:41:36.68Z</time></trkpt><trkpt lat="43.2976857" lon="10.5867535"><ele>104.0</ele><time>2026-04-04T12:41:37.678Z</time></trkpt><trkpt lat="43.2977403" lon="10.5868833"><ele>104.0</ele><time>2026-04-04T12:41:38.681Z</time></trkpt><trkpt lat="43.2977925" lon="10.586998"><ele>104.0</ele><time>2026-04-04T12:41:39.678Z</time></trkpt><trkpt lat="43.2978412" lon="10.5870995"><ele>104.0</ele><time>2026-04-04T12:41:40.681Z</time></trkpt><trkpt lat="43.2978808" lon="10.5871928"><ele>104.0</ele><time>2026-04-04T12:41:41.681Z</time></trkpt><trkpt lat="43.2979252" lon="10.5873016"><ele>104.0</ele><time>2026-04-04T12:41:42.682Z</time></trkpt><trkpt lat="43.2979807" lon="10.5874201"><ele>104.0</ele><time>2026-04-04T12:41:43.689Z</time></trkpt><trkpt lat="43.2980481" lon="10.587547"><ele>104.0</ele><time>2026-04-04T12:41:44.689Z</time></trkpt><trkpt lat="43.2981288" lon="10.5876754"><ele>104.0</ele><time>2026-04-04T12:41:45.694Z</time></trkpt><trkpt lat="43.2982191" lon="10.5878066"><ele>104.25</ele><time>2026-04-04T12:41:46.684Z</time></trkpt><trkpt lat="43.2983136" lon="10.5879465"><ele>104.5</ele><time>2026-04-04T12:41:47.684Z</time></trkpt><trkpt lat="43.2984207" lon="10.5880865"><ele>104.75</ele><time>2026-04-04T12:41:48.687Z</time></trkpt><trkpt lat="43.2985209" lon="10.5882131"><ele>105.0</ele><time>2026-04-04T12:41:49.718Z</time></trkpt><trkpt lat="43.2986206" lon="10.5883272"><ele>105.0</ele><time>2026-04-04T12:41:50.682Z</time></trkpt><trkpt lat="43.2987126" lon="10.5884321"><ele>105.0</ele><time>2026-04-04T12:41:51.687Z</time></trkpt><trkpt lat="43.2988089" lon="10.5885233"><ele>105.0</ele><time>2026-04-04T12:41:52.683Z</time></trkpt><trkpt lat="43.2989079" lon="10.5886178"><ele>105.0</ele><time>2026-04-04T12:41:53.687Z</time></trkpt><trkpt lat="43.2990194" lon="10.5887093"><ele>105.8</ele><time>2026-04-04T12:41:54.682Z</time></trkpt><trkpt lat="43.2991296" lon="10.5887944"><ele>106.6</ele><time>2026-04-04T12:41:55.678Z</time></trkpt><trkpt lat="43.2992314" lon="10.5888699"><ele>107.4</ele><time>2026-04-04T12:41:56.674Z</time></trkpt><trkpt lat="43.2993122" lon="10.5889204"><ele>108.2</ele><time>2026-04-04T12:41:57.671Z</time></trkpt><trkpt lat="43.2993852" lon="10.5889587"><ele>109.0</ele><time>2026-04-04T12:41:58.665Z</time></trkpt><trkpt lat="43.2994817" lon="10.5890065"><ele>109.0</ele><time>2026-04-04T12:42:00.689Z</time></trkpt><trkpt lat="43.2995095" lon="10.5891166"><ele>109.0</ele><time>2026-04-04T12:42:02.71Z</time></trkpt><trkpt lat="43.2995606" lon="10.5892941"><ele>109.0</ele><time>2026-04-04T12:42:04.695Z</time></trkpt><trkpt lat="43.2996007" lon="10.5894125"><ele>109.0</ele><time>2026-04-04T12:42:05.689Z</time></trkpt><trkpt lat="43.2996434" lon="10.5895332"><ele>109.0</ele><time>2026-04-04T12:42:07.778Z</time></trkpt><trkpt lat="43.2996874" lon="10.5896484"><ele>110.0</ele><time>2026-04-04T12:42:08.769Z</time></trkpt><trkpt lat="43.2997336" lon="10.5897693"><ele>111.0</ele><time>2026-04-04T12:42:09.769Z</time></trkpt><trkpt lat="43.2997818" lon="10.5898965"><ele>112.0</ele><time>2026-04-04T12:42:10.778Z</time></trkpt><trkpt lat="43.2998283" lon="10.5900213"><ele>113.0</ele><time>2026-04-04T12:42:11.77Z</time></trkpt><trkpt lat="43.2998715" lon="10.5901457"><ele>114.0</ele><time>2026-04-04T12:42:12.772Z</time></trkpt><trkpt lat="43.2999102" lon="10.5902388"><ele>115.2</ele><time>2026-04-04T12:42:13.771Z</time></trkpt><trkpt lat="43.2999634" lon="10.5903721"><ele>116.4</ele><time>2026-04-04T12:42:15.777Z</time></trkpt><trkpt lat="43.3000175" lon="10.5904426"><ele>117.6</ele><time>2026-04-04T12:42:17.769Z</time></trkpt><trkpt lat="43.3000669" lon="10.5905079"><ele>118.8</ele><time>2026-04-04T12:42:19.787Z</time></trkpt><trkpt lat="43.3001525" lon="10.5905997"><ele>120.0</ele><time>2026-04-04T12:42:21.762Z</time></trkpt><trkpt lat="43.3002368" lon="10.590697"><ele>120.0</ele><time>2026-04-04T12:42:23.77Z</time></trkpt><trkpt lat="43.3002847" lon="10.5907652"><ele>120.0</ele><time>2026-04-04T12:42:24.772Z</time></trkpt><trkpt lat="43.300339" lon="10.5908309"><ele>120.0</ele><time>2026-04-04T12:42:25.773Z</time></trkpt><trkpt lat="43.3003919" lon="10.5908932"><ele>120.0</ele><time>2026-04-04T12:42:26.752Z</time></trkpt><trkpt lat="43.3004465" lon="10.5909537"><ele>120.0</ele><time>2026-04-04T12:42:27.755Z</time></trkpt><trkpt lat="43.3005043" lon="10.5910335"><ele>120.0</ele><time>2026-04-04T12:42:28.75Z</time></trkpt><trkpt lat="43.3005689" lon="10.5911246"><ele>121.2</ele><time>2026-04-04T12:42:29.759Z</time></trkpt><trkpt lat="43.3006359" lon="10.5912243"><ele>122.4</ele><time>2026-04-04T12:42:30.78Z</time></trkpt><trkpt lat="43.3007094" lon="10.5913352"><ele>123.6</ele><time>2026-04-04T12:42:31.776Z</time></trkpt><trkpt lat="43.3007807" lon="10.5914345"><ele>124.8</ele><time>2026-04-04T12:42:32.784Z</time></trkpt><trkpt lat="43.3008526" lon="10.5915601"><ele>126.0</ele><time>2026-04-04T12:42:33.775Z</time></trkpt><trkpt lat="43.3009208" lon="10.5916975"><ele>126.0</ele><time>2026-04-04T12:42:34.777Z</time></trkpt><trkpt lat="43.3009928" lon="10.591836"><ele>126.0</ele><time>2026-04-04T12:42:35.779Z</time></trkpt><trkpt lat="43.3010601" lon="10.5919771"><ele>126.0</ele><time>2026-04-04T12:42:36.78Z</time></trkpt><trkpt lat="43.3011282" lon="10.5921049"><ele>126.0</ele><time>2026-04-04T12:42:37.781Z</time></trkpt><trkpt lat="43.3011992" lon="10.5922291"><ele>126.25</ele><time>2026-04-04T12:42:38.777Z</time></trkpt><trkpt lat="43.3012789" lon="10.5923499"><ele>126.5</ele><time>2026-04-04T12:42:39.777Z</time></trkpt><trkpt lat="43.301365" lon="10.592471"><ele>126.75</ele><time>2026-04-04T12:42:40.757Z</time></trkpt><trkpt lat="43.3014506" lon="10.5925821"><ele>127.0</ele><time>2026-04-04T12:42:41.755Z</time></trkpt><trkpt lat="43.3015336" lon="10.592684"><ele>127.6</ele><time>2026-04-04T12:42:42.75Z</time></trkpt><trkpt lat="43.3016151" lon="10.5927874"><ele>128.2</ele><time>2026-04-04T12:42:43.744Z</time></trkpt><trkpt lat="43.3016933" lon="10.5928866"><ele>128.8</ele><time>2026-04-04T12:42:44.762Z</time></trkpt><trkpt lat="43.3017745" lon="10.5929837"><ele>129.4</ele><time>2026-04-04T12:42:45.775Z</time></trkpt><trkpt lat="43.3018491" lon="10.5930718"><ele>130.0</ele><time>2026-04-04T12:42:46.775Z</time></trkpt><trkpt lat="43.3019234" lon="10.5931544"><ele>130.33333333333334</ele><time>2026-04-04T12:42:47.766Z</time></trkpt><trkpt lat="43.3020007" lon="10.5932377"><ele>130.66666666666669</ele><time>2026-04-04T12:42:48.78Z</time></trkpt><trkpt lat="43.3020737" lon="10.5933201"><ele>131.0</ele><time>2026-04-04T12:42:49.768Z</time></trkpt><trkpt lat="43.3021404" lon="10.5933989"><ele>131.33333333333334</ele><time>2026-04-04T12:42:50.783Z</time></trkpt><trkpt lat="43.3021951" lon="10.593474"><ele>131.66666666666666</ele><time>2026-04-04T12:42:51.764Z</time></trkpt><trkpt lat="43.302242" lon="10.5935546"><ele>132.0</ele><time>2026-04-04T12:42:52.77Z</time></trkpt><trkpt lat="43.3022857" lon="10.5936477"><ele>133.0</ele><time>2026-04-04T12:42:53.748Z</time></trkpt><trkpt lat="43.302318" lon="10.593764"><ele>134.0</ele><time>2026-04-04T12:42:54.748Z</time></trkpt><trkpt lat="43.3023322" lon="10.5938996"><ele>135.0</ele><time>2026-04-04T12:42:55.749Z</time></trkpt><trkpt lat="43.3023364" lon="10.5940414"><ele>136.0</ele><time>2026-04-04T12:42:56.753Z</time></trkpt><trkpt lat="43.3023364" lon="10.5941688"><ele>137.0</ele><time>2026-04-04T12:42:57.77Z</time></trkpt><trkpt lat="43.3023355" lon="10.5942827"><ele>137.0</ele><time>2026-04-04T12:42:58.763Z</time></trkpt><trkpt lat="43.3023308" lon="10.5943892"><ele>137.0</ele><time>2026-04-04T12:42:59.768Z</time></trkpt><trkpt lat="43.3023338" lon="10.5944793"><ele>137.0</ele><time>2026-04-04T12:43:00.765Z</time></trkpt><trkpt lat="43.3023431" lon="10.594621"><ele>137.0</ele><time>2026-04-04T12:43:02.768Z</time></trkpt><trkpt lat="43.3023415" lon="10.5947225"><ele>137.0</ele><time>2026-04-04T12:43:05.778Z</time></trkpt><trkpt lat="43.3022885" lon="10.5946714"><ele>137.0</ele><time>2026-04-04T12:46:55.676Z</time></trkpt><trkpt lat="43.3023041" lon="10.5947745"><ele>137.33333333333331</ele><time>2026-04-04T12:46:58.649Z</time></trkpt><trkpt lat="43.3022911" lon="10.5948625"><ele>137.66666666666666</ele><time>2026-04-04T12:47:03.685Z</time></trkpt><trkpt lat="43.3022858" lon="10.5949791"><ele>138.0</ele><time>2026-04-04T12:47:05.69Z</time></trkpt><trkpt lat="43.3022624" lon="10.5951389"><ele>138.33333333333334</ele><time>2026-04-04T12:47:07.677Z</time></trkpt><trkpt lat="43.302253" lon="10.5952505"><ele>138.66666666666669</ele><time>2026-04-04T12:47:08.677Z</time></trkpt><trkpt lat="43.302239" lon="10.5953661"><ele>139.0</ele><time>2026-04-04T12:47:09.672Z</time></trkpt><trkpt lat="43.3022338" lon="10.5954987"><ele>139.0</ele><time>2026-04-04T12:47:10.679Z</time></trkpt><trkpt lat="43.302231" lon="10.5956455"><ele>139.0</ele><time>2026-04-04T12:47:11.679Z</time></trkpt><trkpt lat="43.3022397" lon="10.5957861"><ele>139.0</ele><time>2026-04-04T12:47:12.677Z</time></trkpt><trkpt lat="43.3022408" lon="10.5959392"><ele>139.0</ele><time>2026-04-04T12:47:13.673Z</time></trkpt><trkpt lat="43.3022444" lon="10.5961164"><ele>141.33333333333334</ele><time>2026-04-04T12:47:14.673Z</time></trkpt><trkpt lat="43.3022644" lon="10.5963163"><ele>143.66666666666666</ele><time>2026-04-04T12:47:15.68Z</time></trkpt><trkpt lat="43.3022935" lon="10.5965179"><ele>146.0</ele><time>2026-04-04T12:47:16.676Z</time></trkpt><trkpt lat="43.3023196" lon="10.5967285"><ele>146.0</ele><time>2026-04-04T12:47:17.676Z</time></trkpt><trkpt lat="43.3023584" lon="10.5969604"><ele>146.0</ele><time>2026-04-04T12:47:18.677Z</time></trkpt><trkpt lat="43.3023897" lon="10.5971979"><ele>146.0</ele><time>2026-04-04T12:47:19.679Z</time></trkpt><trkpt lat="43.3024295" lon="10.5974541"><ele>147.0</ele><time>2026-04-04T12:47:20.674Z</time></trkpt><trkpt lat="43.3024694" lon="10.5976925"><ele>148.0</ele><time>2026-04-04T12:47:21.678Z</time></trkpt><trkpt lat="43.3025108" lon="10.5979271"><ele>149.0</ele><time>2026-04-04T12:47:22.678Z</time></trkpt><trkpt lat="43.3025555" lon="10.5981903"><ele>149.0</ele><time>2026-04-04T12:47:23.676Z</time></trkpt><trkpt lat="43.3025972" lon="10.598465"><ele>149.0</ele><time>2026-04-04T12:47:24.667Z</time></trkpt><trkpt lat="43.3026531" lon="10.5987315"><ele>149.0</ele><time>2026-04-04T12:47:25.665Z</time></trkpt><trkpt lat="43.3026902" lon="10.5989909"><ele>149.0</ele><time>2026-04-04T12:47:26.661Z</time></trkpt><trkpt lat="43.3027321" lon="10.5992601"><ele>149.0</ele><time>2026-04-04T12:47:27.657Z</time></trkpt><trkpt lat="43.302764" lon="10.5995236"><ele>149.0</ele><time>2026-04-04T12:47:28.669Z</time></trkpt><trkpt lat="43.3027822" lon="10.5997897"><ele>145.0</ele><time>2026-04-04T12:47:29.668Z</time></trkpt><trkpt lat="43.3028262" lon="10.6000451"><ele>141.0</ele><time>2026-04-04T12:47:30.662Z</time></trkpt><trkpt lat="43.3028572" lon="10.6002958"><ele>137.0</ele><time>2026-04-04T12:47:31.679Z</time></trkpt><trkpt lat="43.3028933" lon="10.6005296"><ele>136.33333333333331</ele><time>2026-04-04T12:47:32.68Z</time></trkpt><trkpt lat="43.3029101" lon="10.6007779"><ele>135.66666666666666</ele><time>2026-04-04T12:47:33.685Z</time></trkpt><trkpt lat="43.3029198" lon="10.6010274"><ele>135.0</ele><time>2026-04-04T12:47:34.683Z</time></trkpt><trkpt lat="43.3029214" lon="10.6012978"><ele>135.0</ele><time>2026-04-04T12:47:35.675Z</time></trkpt><trkpt lat="43.302916" lon="10.6015697"><ele>135.0</ele><time>2026-04-04T12:47:36.66Z</time></trkpt><trkpt lat="43.3028912" lon="10.6018507"><ele>135.0</ele><time>2026-04-04T12:47:37.672Z</time></trkpt><trkpt lat="43.3028583" lon="10.6021163"><ele>136.66666666666666</ele><time>2026-04-04T12:47:38.668Z</time></trkpt><trkpt lat="43.3028359" lon="10.6023738"><ele>138.33333333333331</ele><time>2026-04-04T12:47:39.662Z</time></trkpt><trkpt lat="43.3028149" lon="10.6026448"><ele>140.0</ele><time>2026-04-04T12:47:40.66Z</time></trkpt><trkpt lat="43.3027964" lon="10.6028925"><ele>142.0</ele><time>2026-04-04T12:47:41.665Z</time></trkpt><trkpt lat="43.3027871" lon="10.6031434"><ele>144.0</ele><time>2026-04-04T12:47:42.654Z</time></trkpt><trkpt lat="43.3027611" lon="10.6033684"><ele>146.0</ele><time>2026-04-04T12:47:43.657Z</time></trkpt><trkpt lat="43.3026646" lon="10.6037449"><ele>147.5</ele><time>2026-04-04T12:47:45.66Z</time></trkpt><trkpt lat="43.3026511" lon="10.6039298"><ele>149.0</ele><time>2026-04-04T12:47:46.649Z</time></trkpt><trkpt lat="43.3026409" lon="10.6041279"><ele>150.5</ele><time>2026-04-04T12:47:47.649Z</time></trkpt><trkpt lat="43.3026337" lon="10.6043354"><ele>152.0</ele><time>2026-04-04T12:47:48.661Z</time></trkpt><trkpt lat="43.3026157" lon="10.6045273"><ele>152.5</ele><time>2026-04-04T12:47:49.669Z</time></trkpt><trkpt lat="43.3025939" lon="10.6047162"><ele>153.0</ele><time>2026-04-04T12:47:50.677Z</time></trkpt><trkpt lat="43.3025515" lon="10.6049094"><ele>153.5</ele><time>2026-04-04T12:47:51.673Z</time></trkpt><trkpt lat="43.3024976" lon="10.6050871"><ele>154.0</ele><time>2026-04-04T12:47:52.673Z</time></trkpt><trkpt lat="43.3024584" lon="10.6052496"><ele>154.25</ele><time>2026-04-04T12:47:53.676Z</time></trkpt><trkpt lat="43.3024111" lon="10.6054074"><ele>154.5</ele><time>2026-04-04T12:47:54.678Z</time></trkpt><trkpt lat="43.302361" lon="10.6055601"><ele>154.75</ele><time>2026-04-04T12:47:55.667Z</time></trkpt><trkpt lat="43.3023282" lon="10.6057156"><ele>155.0</ele><time>2026-04-04T12:47:56.67Z</time></trkpt><trkpt lat="43.3022816" lon="10.6058525"><ele>154.6</ele><time>2026-04-04T12:47:57.66Z</time></trkpt><trkpt lat="43.3022409" lon="10.6059652"><ele>154.2</ele><time>2026-04-04T12:47:58.674Z</time></trkpt><trkpt lat="43.3022017" lon="10.6060684"><ele>153.8</ele><time>2026-04-04T12:47:59.692Z</time></trkpt><trkpt lat="43.302201" lon="10.6061953"><ele>153.4</ele><time>2026-04-04T12:48:01.674Z</time></trkpt><trkpt lat="43.3022639" lon="10.6062685"><ele>153.0</ele><time>2026-04-04T12:48:03.669Z</time></trkpt><trkpt lat="43.3023747" lon="10.6063327"><ele>154.8</ele><time>2026-04-04T12:48:05.676Z</time></trkpt><trkpt lat="43.3024372" lon="10.6063806"><ele>156.60000000000002</ele><time>2026-04-04T12:48:06.67Z</time></trkpt><trkpt lat="43.3025172" lon="10.6064296"><ele>158.39999999999998</ele><time>2026-04-04T12:48:07.672Z</time></trkpt><trkpt lat="43.3026178" lon="10.6064859"><ele>160.2</ele><time>2026-04-04T12:48:08.668Z</time></trkpt><trkpt lat="43.3027125" lon="10.6065584"><ele>162.0</ele><time>2026-04-04T12:48:09.674Z</time></trkpt><trkpt lat="43.3027839" lon="10.6066284"><ele>162.0</ele><time>2026-04-04T12:48:10.668Z</time></trkpt><trkpt lat="43.3028362" lon="10.6066847"><ele>162.0</ele><time>2026-04-04T12:48:11.661Z</time></trkpt><trkpt lat="43.3028803" lon="10.6068209"><ele>162.0</ele><time>2026-04-04T12:48:13.672Z</time></trkpt><trkpt lat="43.3028966" lon="10.6069194"><ele>162.0</ele><time>2026-04-04T12:48:14.669Z</time></trkpt><trkpt lat="43.3029331" lon="10.6070332"><ele>162.0</ele><time>2026-04-04T12:48:15.673Z</time></trkpt><trkpt lat="43.3029886" lon="10.6071432"><ele>162.0</ele><time>2026-04-04T12:48:16.672Z</time></trkpt><trkpt lat="43.3030527" lon="10.6072468"><ele>163.0</ele><time>2026-04-04T12:48:17.677Z</time></trkpt><trkpt lat="43.3031096" lon="10.6073398"><ele>164.0</ele><time>2026-04-04T12:48:18.667Z</time></trkpt><trkpt lat="43.3031435" lon="10.6074326"><ele>165.0</ele><time>2026-04-04T12:48:19.658Z</time></trkpt><trkpt lat="43.3031498" lon="10.6075264"><ele>166.0</ele><time>2026-04-04T12:48:20.657Z</time></trkpt><trkpt lat="43.3031178" lon="10.6076331"><ele>167.0</ele><time>2026-04-04T12:48:21.658Z</time></trkpt><trkpt lat="43.3030647" lon="10.6077434"><ele>168.0</ele><time>2026-04-04T12:48:22.668Z</time></trkpt><trkpt lat="43.3029885" lon="10.6078658"><ele>170.0</ele><time>2026-04-04T12:48:23.682Z</time></trkpt><trkpt lat="43.3029134" lon="10.6080054"><ele>172.0</ele><time>2026-04-04T12:48:24.701Z</time></trkpt><trkpt lat="43.3028471" lon="10.6081579"><ele>174.0</ele><time>2026-04-04T12:48:26.764Z</time></trkpt><trkpt lat="43.30278" lon="10.6083172"><ele>176.0</ele><time>2026-04-04T12:48:27.766Z</time></trkpt><trkpt lat="43.3027163" lon="10.6084796"><ele>176.0</ele><time>2026-04-04T12:48:28.765Z</time></trkpt><trkpt lat="43.3026543" lon="10.6086398"><ele>176.0</ele><time>2026-04-04T12:48:29.768Z</time></trkpt><trkpt lat="43.3025958" lon="10.6087929"><ele>176.0</ele><time>2026-04-04T12:48:30.784Z</time></trkpt><trkpt lat="43.302539" lon="10.6089413"><ele>176.0</ele><time>2026-04-04T12:48:31.77Z</time></trkpt><trkpt lat="43.3024875" lon="10.6090891"><ele>178.0</ele><time>2026-04-04T12:48:32.764Z</time></trkpt><trkpt lat="43.3024345" lon="10.6092319"><ele>180.0</ele><time>2026-04-04T12:48:33.779Z</time></trkpt><trkpt lat="43.3023801" lon="10.6093691"><ele>182.0</ele><time>2026-04-04T12:48:34.767Z</time></trkpt><trkpt lat="43.3023215" lon="10.6095058"><ele>184.0</ele><time>2026-04-04T12:48:35.763Z</time></trkpt><trkpt lat="43.3022541" lon="10.6096282"><ele>184.79999999999998</ele><time>2026-04-04T12:48:36.758Z</time></trkpt><trkpt lat="43.3022064" lon="10.6097653"><ele>185.6</ele><time>2026-04-04T12:48:37.762Z</time></trkpt><trkpt lat="43.3021647" lon="10.6099003"><ele>186.4</ele><time>2026-04-04T12:48:38.741Z</time></trkpt><trkpt lat="43.3021369" lon="10.6100316"><ele>187.2</ele><time>2026-04-04T12:48:39.741Z</time></trkpt><trkpt lat="43.3021239" lon="10.6101606"><ele>188.0</ele><time>2026-04-04T12:48:40.742Z</time></trkpt><trkpt lat="43.3021129" lon="10.6102889"><ele>189.0</ele><time>2026-04-04T12:48:41.745Z</time></trkpt><trkpt lat="43.3021097" lon="10.6104194"><ele>190.0</ele><time>2026-04-04T12:48:42.769Z</time></trkpt><trkpt lat="43.3021065" lon="10.6105572"><ele>191.0</ele><time>2026-04-04T12:48:43.783Z</time></trkpt><trkpt lat="43.3021011" lon="10.6107009"><ele>192.0</ele><time>2026-04-04T12:48:44.779Z</time></trkpt><trkpt lat="43.3020968" lon="10.6108512"><ele>193.0</ele><time>2026-04-04T12:48:45.774Z</time></trkpt><trkpt lat="43.3020889" lon="10.6110052"><ele>195.0</ele><time>2026-04-04T12:48:46.764Z</time></trkpt><trkpt lat="43.3020801" lon="10.6111653"><ele>197.0</ele><time>2026-04-04T12:48:47.764Z</time></trkpt><trkpt lat="43.3020637" lon="10.6113306"><ele>199.0</ele><time>2026-04-04T12:48:48.766Z</time></trkpt><trkpt lat="43.3020435" lon="10.611497"><ele>201.0</ele><time>2026-04-04T12:48:49.761Z</time></trkpt><trkpt lat="43.302027" lon="10.6116559"><ele>201.0</ele><time>2026-04-04T12:48:50.761Z</time></trkpt><trkpt lat="43.3020149" lon="10.6118064"><ele>201.0</ele><time>2026-04-04T12:48:51.758Z</time></trkpt><trkpt lat="43.3020078" lon="10.6119511"><ele>201.0</ele><time>2026-04-04T12:48:52.763Z</time></trkpt><trkpt lat="43.3020065" lon="10.6120967"><ele>201.0</ele><time>2026-04-04T12:48:53.77Z</time></trkpt><trkpt lat="43.3019942" lon="10.6122451"><ele>201.0</ele><time>2026-04-04T12:48:54.755Z</time></trkpt><trkpt lat="43.3019875" lon="10.6124"><ele>202.20000000000002</ele><time>2026-04-04T12:48:55.768Z</time></trkpt><trkpt lat="43.3019692" lon="10.6125532"><ele>203.4</ele><time>2026-04-04T12:48:56.758Z</time></trkpt><trkpt lat="43.3019555" lon="10.6127095"><ele>204.6</ele><time>2026-04-04T12:48:57.761Z</time></trkpt><trkpt lat="43.301935" lon="10.612861"><ele>205.8</ele><time>2026-04-04T12:48:58.751Z</time></trkpt><trkpt lat="43.3019057" lon="10.6129956"><ele>207.0</ele><time>2026-04-04T12:48:59.761Z</time></trkpt><trkpt lat="43.3018832" lon="10.6131089"><ele>208.2</ele><time>2026-04-04T12:49:00.767Z</time></trkpt><trkpt lat="43.3018718" lon="10.6132143"><ele>209.39999999999998</ele><time>2026-04-04T12:49:01.765Z</time></trkpt><trkpt lat="43.3018641" lon="10.6133585"><ele>210.60000000000002</ele><time>2026-04-04T12:49:02.738Z</time></trkpt><trkpt lat="43.301851" lon="10.6135305"><ele>211.8</ele><time>2026-04-04T12:49:03.75Z</time></trkpt><trkpt lat="43.3018289" lon="10.6137095"><ele>213.0</ele><time>2026-04-04T12:49:04.74Z</time></trkpt><trkpt lat="43.301815" lon="10.6138919"><ele>214.0</ele><time>2026-04-04T12:49:05.741Z</time></trkpt><trkpt lat="43.3018018" lon="10.6140569"><ele>215.0</ele><time>2026-04-04T12:49:06.765Z</time></trkpt><trkpt lat="43.301765" lon="10.61417"><ele>216.0</ele><time>2026-04-04T12:49:07.761Z</time></trkpt><trkpt lat="43.3017481" lon="10.6143297"><ele>217.0</ele><time>2026-04-04T12:49:08.766Z</time></trkpt><trkpt lat="43.3017151" lon="10.6145136"><ele>218.75</ele><time>2026-04-04T12:49:09.759Z</time></trkpt><trkpt lat="43.3016947" lon="10.6147004"><ele>220.5</ele><time>2026-04-04T12:49:10.763Z</time></trkpt><trkpt lat="43.3016759" lon="10.6148926"><ele>222.25</ele><time>2026-04-04T12:49:11.768Z</time></trkpt><trkpt lat="43.3016663" lon="10.6150727"><ele>224.0</ele><time>2026-04-04T12:49:12.771Z</time></trkpt><trkpt lat="43.3016592" lon="10.6152352"><ele>224.75</ele><time>2026-04-04T12:49:13.785Z</time></trkpt><trkpt lat="43.3016538" lon="10.6153946"><ele>225.5</ele><time>2026-04-04T12:49:14.777Z</time></trkpt><trkpt lat="43.3016518" lon="10.6155567"><ele>226.25</ele><time>2026-04-04T12:49:15.78Z</time></trkpt><trkpt lat="43.301654" lon="10.615719"><ele>227.0</ele><time>2026-04-04T12:49:16.774Z</time></trkpt><trkpt lat="43.3016604" lon="10.6158827"><ele>227.0</ele><time>2026-04-04T12:49:17.772Z</time></trkpt><trkpt lat="43.3016703" lon="10.6160467"><ele>227.0</ele><time>2026-04-04T12:49:18.765Z</time></trkpt><trkpt lat="43.3016686" lon="10.6162167"><ele>227.0</ele><time>2026-04-04T12:49:19.767Z</time></trkpt><trkpt lat="43.301655" lon="10.6163864"><ele>227.0</ele><time>2026-04-04T12:49:20.745Z</time></trkpt><trkpt lat="43.3016379" lon="10.6165581"><ele>227.5</ele><time>2026-04-04T12:49:21.752Z</time></trkpt><trkpt lat="43.301621" lon="10.6167239"><ele>228.0</ele><time>2026-04-04T12:49:22.746Z</time></trkpt><trkpt lat="43.3016088" lon="10.6168867"><ele>228.5</ele><time>2026-04-04T12:49:23.751Z</time></trkpt><trkpt lat="43.3015955" lon="10.6170508"><ele>229.0</ele><time>2026-04-04T12:49:24.766Z</time></trkpt><trkpt lat="43.3015851" lon="10.617226"><ele>229.25</ele><time>2026-04-04T12:49:25.762Z</time></trkpt><trkpt lat="43.3015749" lon="10.6174076"><ele>229.5</ele><time>2026-04-04T12:49:26.768Z</time></trkpt><trkpt lat="43.3015678" lon="10.6175903"><ele>229.75</ele><time>2026-04-04T12:49:27.77Z</time></trkpt><trkpt lat="43.3015638" lon="10.6177712"><ele>230.0</ele><time>2026-04-04T12:49:28.766Z</time></trkpt><trkpt lat="43.301561" lon="10.617955"><ele>229.75</ele><time>2026-04-04T12:49:29.773Z</time></trkpt><trkpt lat="43.3015631" lon="10.6181389"><ele>229.5</ele><time>2026-04-04T12:49:30.767Z</time></trkpt><trkpt lat="43.3015716" lon="10.6183245"><ele>229.25</ele><time>2026-04-04T12:49:31.776Z</time></trkpt><trkpt lat="43.3015848" lon="10.6185138"><ele>229.0</ele><time>2026-04-04T12:49:32.788Z</time></trkpt><trkpt lat="43.3016019" lon="10.6187118"><ele>229.0</ele><time>2026-04-04T12:49:33.782Z</time></trkpt><trkpt lat="43.3016254" lon="10.6189005"><ele>229.0</ele><time>2026-04-04T12:49:34.772Z</time></trkpt><trkpt lat="43.3016554" lon="10.6190747"><ele>229.0</ele><time>2026-04-04T12:49:35.773Z</time></trkpt><trkpt lat="43.3016929" lon="10.6192398"><ele>229.0</ele><time>2026-04-04T12:49:36.77Z</time></trkpt><trkpt lat="43.3017333" lon="10.6193948"><ele>228.75</ele><time>2026-04-04T12:49:37.77Z</time></trkpt><trkpt lat="43.301785" lon="10.6195481"><ele>228.5</ele><time>2026-04-04T12:49:38.774Z</time></trkpt><trkpt lat="43.3018463" lon="10.6197053"><ele>228.25</ele><time>2026-04-04T12:49:39.764Z</time></trkpt><trkpt lat="43.3019204" lon="10.6198608"><ele>228.0</ele><time>2026-04-04T12:49:40.748Z</time></trkpt><trkpt lat="43.3020032" lon="10.6200234"><ele>228.0</ele><time>2026-04-04T12:49:41.745Z</time></trkpt><trkpt lat="43.302089" lon="10.62019"><ele>228.0</ele><time>2026-04-04T12:49:42.745Z</time></trkpt><trkpt lat="43.3021771" lon="10.620364"><ele>228.0</ele><time>2026-04-04T12:49:43.767Z</time></trkpt><trkpt lat="43.3022617" lon="10.6205431"><ele>227.33333333333331</ele><time>2026-04-04T12:49:44.773Z</time></trkpt><trkpt lat="43.3023452" lon="10.6207287"><ele>226.66666666666666</ele><time>2026-04-04T12:49:45.775Z</time></trkpt><trkpt lat="43.3024297" lon="10.6209104"><ele>226.0</ele><time>2026-04-04T12:49:46.769Z</time></trkpt><trkpt lat="43.3025262" lon="10.6210846"><ele>226.25</ele><time>2026-04-04T12:49:47.764Z</time></trkpt><trkpt lat="43.302627" lon="10.6212387"><ele>226.5</ele><time>2026-04-04T12:49:48.744Z</time></trkpt><trkpt lat="43.3027251" lon="10.6213698"><ele>226.75</ele><time>2026-04-04T12:49:49.745Z</time></trkpt><trkpt lat="43.3028088" lon="10.6214823"><ele>227.0</ele><time>2026-04-04T12:49:50.733Z</time></trkpt><trkpt lat="43.3028747" lon="10.6215914"><ele>227.0</ele><time>2026-04-04T12:49:51.727Z</time></trkpt><trkpt lat="43.3029203" lon="10.6217127"><ele>227.0</ele><time>2026-04-04T12:49:52.751Z</time></trkpt><trkpt lat="43.3029511" lon="10.6218579"><ele>227.0</ele><time>2026-04-04T12:49:53.76Z</time></trkpt><trkpt lat="43.3029773" lon="10.6220208"><ele>227.0</ele><time>2026-04-04T12:49:54.742Z</time></trkpt><trkpt lat="43.3029987" lon="10.6222109"><ele>227.25</ele><time>2026-04-04T12:49:55.742Z</time></trkpt><trkpt lat="43.3030227" lon="10.6224039"><ele>227.5</ele><time>2026-04-04T12:49:56.743Z</time></trkpt><trkpt lat="43.3030517" lon="10.6225912"><ele>227.75</ele><time>2026-04-04T12:49:57.742Z</time></trkpt><trkpt lat="43.3030905" lon="10.6227901"><ele>228.0</ele><time>2026-04-04T12:49:58.767Z</time></trkpt><trkpt lat="43.3031368" lon="10.6229804"><ele>229.25</ele><time>2026-04-04T12:49:59.766Z</time></trkpt><trkpt lat="43.3031744" lon="10.6231655"><ele>230.5</ele><time>2026-04-04T12:50:00.765Z</time></trkpt><trkpt lat="43.3032088" lon="10.623348"><ele>231.75</ele><time>2026-04-04T12:50:01.761Z</time></trkpt><trkpt lat="43.3032424" lon="10.6235159"><ele>233.0</ele><time>2026-04-04T12:50:02.753Z</time></trkpt><trkpt lat="43.303269" lon="10.6236805"><ele>234.0</ele><time>2026-04-04T12:50:03.786Z</time></trkpt><trkpt lat="43.3032926" lon="10.6238415"><ele>235.0</ele><time>2026-04-04T12:50:04.759Z</time></trkpt><trkpt lat="43.3033157" lon="10.6240037"><ele>236.0</ele><time>2026-04-04T12:50:05.749Z</time></trkpt><trkpt lat="43.3033323" lon="10.6241667"><ele>237.0</ele><time>2026-04-04T12:50:06.754Z</time></trkpt><trkpt lat="43.30335" lon="10.6243434"><ele>237.25</ele><time>2026-04-04T12:50:07.752Z</time></trkpt><trkpt lat="43.3033675" lon="10.6245223"><ele>237.5</ele><time>2026-04-04T12:50:08.757Z</time></trkpt><trkpt lat="43.3033972" lon="10.6247109"><ele>237.75</ele><time>2026-04-04T12:50:09.763Z</time></trkpt><trkpt lat="43.3034294" lon="10.6248925"><ele>238.0</ele><time>2026-04-04T12:50:10.761Z</time></trkpt><trkpt lat="43.3034611" lon="10.6250674"><ele>238.0</ele><time>2026-04-04T12:50:11.764Z</time></trkpt><trkpt lat="43.3034912" lon="10.625251"><ele>238.0</ele><time>2026-04-04T12:50:12.761Z</time></trkpt><trkpt lat="43.3035143" lon="10.6254258"><ele>238.0</ele><time>2026-04-04T12:50:13.771Z</time></trkpt><trkpt lat="43.3035249" lon="10.6255832"><ele>238.0</ele><time>2026-04-04T12:50:14.732Z</time></trkpt><trkpt lat="43.303528" lon="10.6257212"><ele>238.0</ele><time>2026-04-04T12:50:15.734Z</time></trkpt><trkpt lat="43.3035269" lon="10.6258717"><ele>238.0</ele><time>2026-04-04T12:50:16.737Z</time></trkpt><trkpt lat="43.3035151" lon="10.625991"><ele>238.0</ele><time>2026-04-04T12:50:17.728Z</time></trkpt><trkpt lat="43.3035004" lon="10.6260981"><ele>238.0</ele><time>2026-04-04T12:50:18.737Z</time></trkpt><trkpt lat="43.3034883" lon="10.6262393"><ele>238.0</ele><time>2026-04-04T12:50:20.754Z</time></trkpt><trkpt lat="43.3035244" lon="10.6263608"><ele>238.66666666666666</ele><time>2026-04-04T12:50:23.78Z</time></trkpt><trkpt lat="43.3036412" lon="10.6266283"><ele>239.33333333333331</ele><time>2026-04-04T12:50:25.654Z</time></trkpt><trkpt lat="43.3036976" lon="10.6267726"><ele>240.0</ele><time>2026-04-04T12:50:26.648Z</time></trkpt><trkpt lat="43.3037553" lon="10.6269131"><ele>241.0</ele><time>2026-04-04T12:50:27.644Z</time></trkpt><trkpt lat="43.3038227" lon="10.6271021"><ele>242.0</ele><time>2026-04-04T12:50:28.659Z</time></trkpt><trkpt lat="43.3038629" lon="10.6272975"><ele>243.0</ele><time>2026-04-04T12:50:29.658Z</time></trkpt><trkpt lat="43.3038917" lon="10.6275042"><ele>242.33333333333331</ele><time>2026-04-04T12:50:30.656Z</time></trkpt><trkpt lat="43.3039541" lon="10.6277104"><ele>241.66666666666666</ele><time>2026-04-04T12:50:31.658Z</time></trkpt><trkpt lat="43.3040369" lon="10.6279296"><ele>241.0</ele><time>2026-04-04T12:50:32.655Z</time></trkpt><trkpt lat="43.3040958" lon="10.6281216"><ele>241.0</ele><time>2026-04-04T12:50:33.656Z</time></trkpt><trkpt lat="43.3041706" lon="10.6283021"><ele>241.0</ele><time>2026-04-04T12:50:34.663Z</time></trkpt><trkpt lat="43.3042632" lon="10.6284893"><ele>241.0</ele><time>2026-04-04T12:50:35.646Z</time></trkpt><trkpt lat="43.3043486" lon="10.6286459"><ele>244.33333333333331</ele><time>2026-04-04T12:50:36.653Z</time></trkpt><trkpt lat="43.3044425" lon="10.6288323"><ele>247.66666666666669</ele><time>2026-04-04T12:50:37.657Z</time></trkpt><trkpt lat="43.3045672" lon="10.6290054"><ele>251.0</ele><time>2026-04-04T12:50:38.666Z</time></trkpt><trkpt lat="43.3047233" lon="10.6291465"><ele>246.33333333333334</ele><time>2026-04-04T12:50:39.668Z</time></trkpt><trkpt lat="43.3048736" lon="10.6292899"><ele>241.66666666666669</ele><time>2026-04-04T12:50:40.665Z</time></trkpt><trkpt lat="43.3050073" lon="10.6294125"><ele>237.0</ele><time>2026-04-04T12:50:41.668Z</time></trkpt><trkpt lat="43.3051355" lon="10.6295208"><ele>237.0</ele><time>2026-04-04T12:50:42.672Z</time></trkpt><trkpt lat="43.3052698" lon="10.6296121"><ele>237.0</ele><time>2026-04-04T12:50:43.668Z</time></trkpt><trkpt lat="43.3054214" lon="10.6297175"><ele>237.0</ele><time>2026-04-04T12:50:44.669Z</time></trkpt><trkpt lat="43.3055729" lon="10.6298012"><ele>234.0</ele><time>2026-04-04T12:50:45.67Z</time></trkpt><trkpt lat="43.3057472" lon="10.62987"><ele>231.0</ele><time>2026-04-04T12:50:46.662Z</time></trkpt><trkpt lat="43.3059509" lon="10.6299494"><ele>228.0</ele><time>2026-04-04T12:50:47.662Z</time></trkpt><trkpt lat="43.3061123" lon="10.6300279"><ele>228.0</ele><time>2026-04-04T12:50:48.665Z</time></trkpt><trkpt lat="43.3062974" lon="10.6301317"><ele>228.0</ele><time>2026-04-04T12:50:49.671Z</time></trkpt><trkpt lat="43.3064697" lon="10.6302342"><ele>228.0</ele><time>2026-04-04T12:50:50.67Z</time></trkpt><trkpt lat="43.3066509" lon="10.6303363"><ele>226.33333333333331</ele><time>2026-04-04T12:50:51.666Z</time></trkpt><trkpt lat="43.3068274" lon="10.6304292"><ele>224.66666666666666</ele><time>2026-04-04T12:50:52.666Z</time></trkpt><trkpt lat="43.3070082" lon="10.6305336"><ele>223.0</ele><time>2026-04-04T12:50:53.665Z</time></trkpt><trkpt lat="43.3071915" lon="10.6306083"><ele>228.66666666666666</ele><time>2026-04-04T12:50:54.668Z</time></trkpt><trkpt lat="43.3073927" lon="10.6306857"><ele>234.33333333333331</ele><time>2026-04-04T12:50:55.679Z</time></trkpt><trkpt lat="43.3075819" lon="10.6307827"><ele>240.0</ele><time>2026-04-04T12:50:56.677Z</time></trkpt><trkpt lat="43.3077502" lon="10.630886"><ele>240.0</ele><time>2026-04-04T12:50:57.669Z</time></trkpt><trkpt lat="43.3078882" lon="10.6309855"><ele>240.0</ele><time>2026-04-04T12:50:58.672Z</time></trkpt><trkpt lat="43.3080286" lon="10.6310758"><ele>240.0</ele><time>2026-04-04T12:50:59.678Z</time></trkpt><trkpt lat="43.3081657" lon="10.6311456"><ele>237.25</ele><time>2026-04-04T12:51:00.669Z</time></trkpt><trkpt lat="43.3082862" lon="10.6311936"><ele>234.5</ele><time>2026-04-04T12:51:01.664Z</time></trkpt><trkpt lat="43.3084274" lon="10.6312052"><ele>231.75</ele><time>2026-04-04T12:51:02.672Z</time></trkpt><trkpt lat="43.3085697" lon="10.6311533"><ele>229.0</ele><time>2026-04-04T12:51:03.668Z</time></trkpt><trkpt lat="43.3086838" lon="10.6310214"><ele>231.66666666666666</ele><time>2026-04-04T12:51:04.68Z</time></trkpt><trkpt lat="43.3088003" lon="10.6308791"><ele>234.33333333333331</ele><time>2026-04-04T12:51:05.69Z</time></trkpt><trkpt lat="43.3089001" lon="10.6307145"><ele>237.0</ele><time>2026-04-04T12:51:06.665Z</time></trkpt><trkpt lat="43.3089998" lon="10.6305513"><ele>237.0</ele><time>2026-04-04T12:51:07.669Z</time></trkpt><trkpt lat="43.3090954" lon="10.6303932"><ele>237.0</ele><time>2026-04-04T12:51:08.661Z</time></trkpt><trkpt lat="43.309203" lon="10.6302305"><ele>237.0</ele><time>2026-04-04T12:51:09.657Z</time></trkpt><trkpt lat="43.3093068" lon="10.6300645"><ele>238.0</ele><time>2026-04-04T12:51:10.665Z</time></trkpt><trkpt lat="43.3094091" lon="10.6299158"><ele>239.0</ele><time>2026-04-04T12:51:11.667Z</time></trkpt><trkpt lat="43.3095186" lon="10.6297631"><ele>240.0</ele><time>2026-04-04T12:51:12.675Z</time></trkpt><trkpt lat="43.3096205" lon="10.6296224"><ele>241.0</ele><time>2026-04-04T12:51:13.672Z</time></trkpt><trkpt lat="43.3097595" lon="10.629532"><ele>242.33333333333331</ele><time>2026-04-04T12:51:14.663Z</time></trkpt><trkpt lat="43.3099124" lon="10.6294461"><ele>243.66666666666669</ele><time>2026-04-04T12:51:15.663Z</time></trkpt><trkpt lat="43.3100789" lon="10.6294089"><ele>245.0</ele><time>2026-04-04T12:51:16.66Z</time></trkpt><trkpt lat="43.3102154" lon="10.6293612"><ele>245.0</ele><time>2026-04-04T12:51:17.659Z</time></trkpt><trkpt lat="43.3103578" lon="10.6293494"><ele>245.0</ele><time>2026-04-04T12:51:18.652Z</time></trkpt><trkpt lat="43.3105323" lon="10.629362"><ele>245.0</ele><time>2026-04-04T12:51:19.648Z</time></trkpt><trkpt lat="43.3106843" lon="10.6293582"><ele>246.8</ele><time>2026-04-04T12:51:20.654Z</time></trkpt><trkpt lat="43.3108198" lon="10.6293615"><ele>248.6</ele><time>2026-04-04T12:51:21.658Z</time></trkpt><trkpt lat="43.3109248" lon="10.6293837"><ele>250.39999999999998</ele><time>2026-04-04T12:51:22.651Z</time></trkpt><trkpt lat="43.3110087" lon="10.6294194"><ele>252.2</ele><time>2026-04-04T12:51:23.654Z</time></trkpt><trkpt lat="43.3110899" lon="10.6294763"><ele>254.0</ele><time>2026-04-04T12:51:24.654Z</time></trkpt><trkpt lat="43.3111153" lon="10.6295976"><ele>254.6</ele><time>2026-04-04T12:51:25.659Z</time></trkpt><trkpt lat="43.3111618" lon="10.6296992"><ele>255.2</ele><time>2026-04-04T12:51:26.66Z</time></trkpt><trkpt lat="43.3111857" lon="10.6298042"><ele>255.79999999999998</ele><time>2026-04-04T12:51:27.66Z</time></trkpt><trkpt lat="43.3111858" lon="10.6299328"><ele>256.4</ele><time>2026-04-04T12:51:28.653Z</time></trkpt><trkpt lat="43.3111651" lon="10.6300851"><ele>257.0</ele><time>2026-04-04T12:51:29.66Z</time></trkpt><trkpt lat="43.3111365" lon="10.6302497"><ele>255.75</ele><time>2026-04-04T12:51:30.663Z</time></trkpt><trkpt lat="43.3111147" lon="10.6304424"><ele>254.5</ele><time>2026-04-04T12:51:31.665Z</time></trkpt><trkpt lat="43.3111041" lon="10.6306396"><ele>253.25</ele><time>2026-04-04T12:51:32.664Z</time></trkpt><trkpt lat="43.3110911" lon="10.6308352"><ele>252.0</ele><time>2026-04-04T12:51:33.665Z</time></trkpt><trkpt lat="43.3110818" lon="10.6310615"><ele>250.33333333333331</ele><time>2026-04-04T12:51:34.662Z</time></trkpt><trkpt lat="43.3110793" lon="10.6312882"><ele>248.66666666666666</ele><time>2026-04-04T12:51:35.683Z</time></trkpt><trkpt lat="43.3110673" lon="10.6315123"><ele>247.0</ele><time>2026-04-04T12:51:36.667Z</time></trkpt><trkpt lat="43.3110673" lon="10.6317587"><ele>246.0</ele><time>2026-04-04T12:51:37.665Z</time></trkpt><trkpt lat="43.311065" lon="10.6320022"><ele>245.0</ele><time>2026-04-04T12:51:38.662Z</time></trkpt><trkpt lat="43.3110727" lon="10.6322483"><ele>244.0</ele><time>2026-04-04T12:51:39.663Z</time></trkpt><trkpt lat="43.3110759" lon="10.6324772"><ele>244.0</ele><time>2026-04-04T12:51:40.655Z</time></trkpt><trkpt lat="43.3110831" lon="10.6327142"><ele>244.0</ele><time>2026-04-04T12:51:41.649Z</time></trkpt><trkpt lat="43.3111019" lon="10.6329564"><ele>244.0</ele><time>2026-04-04T12:51:42.65Z</time></trkpt><trkpt lat="43.3111083" lon="10.6331752"><ele>242.0</ele><time>2026-04-04T12:51:43.648Z</time></trkpt><trkpt lat="43.3111033" lon="10.633419"><ele>240.0</ele><time>2026-04-04T12:51:44.649Z</time></trkpt><trkpt lat="43.311094" lon="10.6336495"><ele>238.0</ele><time>2026-04-04T12:51:45.674Z</time></trkpt><trkpt lat="43.3110752" lon="10.6338864"><ele>236.33333333333331</ele><time>2026-04-04T12:51:46.669Z</time></trkpt><trkpt lat="43.3110512" lon="10.6341272"><ele>234.66666666666669</ele><time>2026-04-04T12:51:47.669Z</time></trkpt><trkpt lat="43.3110407" lon="10.6343709"><ele>233.0</ele><time>2026-04-04T12:51:48.67Z</time></trkpt><trkpt lat="43.3110358" lon="10.634601"><ele>231.75</ele><time>2026-04-04T12:51:49.672Z</time></trkpt><trkpt lat="43.3110238" lon="10.6348067"><ele>230.5</ele><time>2026-04-04T12:51:50.665Z</time></trkpt><trkpt lat="43.3110315" lon="10.6350019"><ele>229.25</ele><time>2026-04-04T12:51:51.659Z</time></trkpt><trkpt lat="43.3110738" lon="10.6351802"><ele>228.0</ele><time>2026-04-04T12:51:52.657Z</time></trkpt><trkpt lat="43.3111438" lon="10.6353478"><ele>228.66666666666669</ele><time>2026-04-04T12:51:53.653Z</time></trkpt><trkpt lat="43.3112555" lon="10.6354905"><ele>229.33333333333334</ele><time>2026-04-04T12:51:54.65Z</time></trkpt><trkpt lat="43.3113747" lon="10.6356582"><ele>230.0</ele><time>2026-04-04T12:51:55.657Z</time></trkpt><trkpt lat="43.3114953" lon="10.6357917"><ele>230.0</ele><time>2026-04-04T12:51:56.658Z</time></trkpt><trkpt lat="43.311625" lon="10.6359236"><ele>230.0</ele><time>2026-04-04T12:51:57.665Z</time></trkpt><trkpt lat="43.3117164" lon="10.6360763"><ele>230.0</ele><time>2026-04-04T12:51:58.663Z</time></trkpt><trkpt lat="43.3117864" lon="10.6362594"><ele>226.33333333333334</ele><time>2026-04-04T12:51:59.667Z</time></trkpt><trkpt lat="43.3118242" lon="10.6364343"><ele>222.66666666666669</ele><time>2026-04-04T12:52:00.653Z</time></trkpt><trkpt lat="43.3118725" lon="10.6366341"><ele>219.0</ele><time>2026-04-04T12:52:01.664Z</time></trkpt><trkpt lat="43.3118964" lon="10.6368604"><ele>215.33333333333331</ele><time>2026-04-04T12:52:02.665Z</time></trkpt><trkpt lat="43.3119176" lon="10.6370849"><ele>211.66666666666666</ele><time>2026-04-04T12:52:03.669Z</time></trkpt><trkpt lat="43.3119348" lon="10.63731"><ele>208.0</ele><time>2026-04-04T12:52:04.673Z</time></trkpt><trkpt lat="43.3119811" lon="10.6375273"><ele>208.0</ele><time>2026-04-04T12:52:05.69Z</time></trkpt><trkpt lat="43.3120111" lon="10.6377427"><ele>208.0</ele><time>2026-04-04T12:52:07.749Z</time></trkpt><trkpt lat="43.3120372" lon="10.637942"><ele>208.0</ele><time>2026-04-04T12:52:08.751Z</time></trkpt><trkpt lat="43.3120907" lon="10.6381012"><ele>208.0</ele><time>2026-04-04T12:52:09.747Z</time></trkpt><trkpt lat="43.3121721" lon="10.6382342"><ele>207.66666666666666</ele><time>2026-04-04T12:52:10.74Z</time></trkpt><trkpt lat="43.3122857" lon="10.6383395"><ele>207.33333333333331</ele><time>2026-04-04T12:52:11.733Z</time></trkpt><trkpt lat="43.3124281" lon="10.6383953"><ele>207.0</ele><time>2026-04-04T12:52:12.726Z</time></trkpt><trkpt lat="43.3127721" lon="10.6384567"><ele>207.0</ele><time>2026-04-04T12:52:13.641Z</time></trkpt><trkpt lat="43.3129589" lon="10.6385157"><ele>207.0</ele><time>2026-04-04T12:52:14.66Z</time></trkpt><trkpt lat="43.3131579" lon="10.6385682"><ele>207.0</ele><time>2026-04-04T12:52:15.661Z</time></trkpt><trkpt lat="43.3133457" lon="10.6385956"><ele>199.66666666666666</ele><time>2026-04-04T12:52:16.654Z</time></trkpt><trkpt lat="43.3135328" lon="10.6386375"><ele>192.33333333333331</ele><time>2026-04-04T12:52:17.66Z</time></trkpt><trkpt lat="43.3137069" lon="10.6386802"><ele>185.0</ele><time>2026-04-04T12:52:18.655Z</time></trkpt><trkpt lat="43.3138617" lon="10.6387181"><ele>184.33333333333331</ele><time>2026-04-04T12:52:19.661Z</time></trkpt><trkpt lat="43.3140159" lon="10.6387419"><ele>183.66666666666666</ele><time>2026-04-04T12:52:20.658Z</time></trkpt><trkpt lat="43.3141594" lon="10.6387011"><ele>183.0</ele><time>2026-04-04T12:52:21.652Z</time></trkpt><trkpt lat="43.3143095" lon="10.6386302"><ele>185.75</ele><time>2026-04-04T12:52:22.673Z</time></trkpt><trkpt lat="43.3144095" lon="10.6385067"><ele>188.5</ele><time>2026-04-04T12:52:23.66Z</time></trkpt><trkpt lat="43.3145197" lon="10.6384022"><ele>191.25</ele><time>2026-04-04T12:52:24.669Z</time></trkpt><trkpt lat="43.3146135" lon="10.6383215"><ele>194.0</ele><time>2026-04-04T12:52:25.667Z</time></trkpt><trkpt lat="43.3147168" lon="10.6382723"><ele>190.0</ele><time>2026-04-04T12:52:26.659Z</time></trkpt><trkpt lat="43.3148354" lon="10.6383058"><ele>186.0</ele><time>2026-04-04T12:52:27.675Z</time></trkpt><trkpt lat="43.3149531" lon="10.6384069"><ele>182.0</ele><time>2026-04-04T12:52:28.672Z</time></trkpt><trkpt lat="43.315036" lon="10.6385245"><ele>178.0</ele><time>2026-04-04T12:52:29.673Z</time></trkpt><trkpt lat="43.3150899" lon="10.6386711"><ele>176.75</ele><time>2026-04-04T12:52:30.673Z</time></trkpt><trkpt lat="43.3150981" lon="10.6388459"><ele>175.5</ele><time>2026-04-04T12:52:31.656Z</time></trkpt><trkpt lat="43.3150807" lon="10.639012"><ele>174.25</ele><time>2026-04-04T12:52:32.653Z</time></trkpt><trkpt lat="43.3150325" lon="10.6391852"><ele>173.0</ele><time>2026-04-04T12:52:33.669Z</time></trkpt><trkpt lat="43.314948" lon="10.6393967"><ele>172.33333333333331</ele><time>2026-04-04T12:52:34.657Z</time></trkpt><trkpt lat="43.3148323" lon="10.6396469"><ele>171.66666666666666</ele><time>2026-04-04T12:52:35.671Z</time></trkpt><trkpt lat="43.3147263" lon="10.639898"><ele>171.0</ele><time>2026-04-04T12:52:36.668Z</time></trkpt><trkpt lat="43.3146437" lon="10.6401325"><ele>167.33333333333334</ele><time>2026-04-04T12:52:37.684Z</time></trkpt><trkpt lat="43.3145622" lon="10.6403513"><ele>163.66666666666669</ele><time>2026-04-04T12:52:38.663Z</time></trkpt><trkpt lat="43.3144956" lon="10.6405353"><ele>160.0</ele><time>2026-04-04T12:52:39.654Z</time></trkpt><trkpt lat="43.3144517" lon="10.6407265"><ele>160.0</ele><time>2026-04-04T12:52:40.654Z</time></trkpt><trkpt lat="43.3144419" lon="10.6409218"><ele>160.0</ele><time>2026-04-04T12:52:41.66Z</time></trkpt><trkpt lat="43.3144686" lon="10.6411017"><ele>160.0</ele><time>2026-04-04T12:52:42.658Z</time></trkpt><trkpt lat="43.3145473" lon="10.6412732"><ele>160.0</ele><time>2026-04-04T12:52:43.662Z</time></trkpt><trkpt lat="43.3146347" lon="10.6414209"><ele>157.66666666666669</ele><time>2026-04-04T12:52:44.66Z</time></trkpt><trkpt lat="43.3147494" lon="10.641542"><ele>155.33333333333334</ele><time>2026-04-04T12:52:45.658Z</time></trkpt><trkpt lat="43.3148939" lon="10.6416488"><ele>153.0</ele><time>2026-04-04T12:52:46.653Z</time></trkpt><trkpt lat="43.315049" lon="10.6417073"><ele>153.0</ele><time>2026-04-04T12:52:47.658Z</time></trkpt><trkpt lat="43.31524" lon="10.641759"><ele>153.0</ele><time>2026-04-04T12:52:48.662Z</time></trkpt><trkpt lat="43.3154255" lon="10.6418286"><ele>153.0</ele><time>2026-04-04T12:52:49.662Z</time></trkpt><trkpt lat="43.3156044" lon="10.6418971"><ele>149.0</ele><time>2026-04-04T12:52:50.666Z</time></trkpt><trkpt lat="43.3157622" lon="10.6419806"><ele>145.0</ele><time>2026-04-04T12:52:51.671Z</time></trkpt><trkpt lat="43.3159089" lon="10.6420462"><ele>141.0</ele><time>2026-04-04T12:52:52.667Z</time></trkpt><trkpt lat="43.3160328" lon="10.6420808"><ele>141.0</ele><time>2026-04-04T12:52:53.669Z</time></trkpt><trkpt lat="43.3161228" lon="10.6421406"><ele>141.0</ele><time>2026-04-04T12:52:54.665Z</time></trkpt><trkpt lat="43.3162018" lon="10.6422328"><ele>141.0</ele><time>2026-04-04T12:52:55.66Z</time></trkpt><trkpt lat="43.3162568" lon="10.6423769"><ele>141.0</ele><time>2026-04-04T12:52:56.665Z</time></trkpt><trkpt lat="43.316289" lon="10.6425476"><ele>141.0</ele><time>2026-04-04T12:52:57.666Z</time></trkpt><trkpt lat="43.316314" lon="10.6427083"><ele>141.0</ele><time>2026-04-04T12:52:58.654Z</time></trkpt><trkpt lat="43.3162991" lon="10.6428735"><ele>141.0</ele><time>2026-04-04T12:52:59.663Z</time></trkpt><trkpt lat="43.3162526" lon="10.6430368"><ele>141.0</ele><time>2026-04-04T12:53:00.68Z</time></trkpt><trkpt lat="43.3161539" lon="10.6431816"><ele>138.0</ele><time>2026-04-04T12:53:01.659Z</time></trkpt><trkpt lat="43.3160152" lon="10.6433068"><ele>135.0</ele><time>2026-04-04T12:53:02.66Z</time></trkpt><trkpt lat="43.3159546" lon="10.6434702"><ele>132.0</ele><time>2026-04-04T12:53:03.66Z</time></trkpt><trkpt lat="43.3159226" lon="10.6436282"><ele>129.0</ele><time>2026-04-04T12:53:04.656Z</time></trkpt><trkpt lat="43.3159291" lon="10.6438157"><ele>126.0</ele><time>2026-04-04T12:53:05.667Z</time></trkpt><trkpt lat="43.3159911" lon="10.6439701"><ele>123.0</ele><time>2026-04-04T12:53:06.656Z</time></trkpt><trkpt lat="43.316072" lon="10.6440964"><ele>120.0</ele><time>2026-04-04T12:53:07.648Z</time></trkpt><trkpt lat="43.3161756" lon="10.644206"><ele>117.0</ele><time>2026-04-04T12:53:08.68Z</time></trkpt><trkpt lat="43.3162993" lon="10.644267"><ele>115.66666666666666</ele><time>2026-04-04T12:53:09.669Z</time></trkpt><trkpt lat="43.3164442" lon="10.6442879"><ele>114.33333333333333</ele><time>2026-04-04T12:53:10.675Z</time></trkpt><trkpt lat="43.3166" lon="10.6442761"><ele>113.0</ele><time>2026-04-04T12:53:11.671Z</time></trkpt><trkpt lat="43.3167623" lon="10.6442623"><ele>113.0</ele><time>2026-04-04T12:53:12.667Z</time></trkpt><trkpt lat="43.3169294" lon="10.6442663"><ele>113.0</ele><time>2026-04-04T12:53:13.667Z</time></trkpt><trkpt lat="43.3170766" lon="10.6442741"><ele>113.0</ele><time>2026-04-04T12:53:14.673Z</time></trkpt><trkpt lat="43.3171979" lon="10.644281"><ele>113.0</ele><time>2026-04-04T12:53:15.676Z</time></trkpt><trkpt lat="43.3172847" lon="10.644316"><ele>111.2</ele><time>2026-04-04T12:53:16.669Z</time></trkpt><trkpt lat="43.3173346" lon="10.6443985"><ele>109.4</ele><time>2026-04-04T12:53:17.659Z</time></trkpt><trkpt lat="43.3173609" lon="10.6445022"><ele>107.60000000000001</ele><time>2026-04-04T12:53:18.656Z</time></trkpt><trkpt lat="43.3173513" lon="10.6446358"><ele>105.80000000000001</ele><time>2026-04-04T12:53:19.671Z</time></trkpt><trkpt lat="43.3172824" lon="10.644743"><ele>104.0</ele><time>2026-04-04T12:53:20.662Z</time></trkpt><trkpt lat="43.3171952" lon="10.6448422"><ele>104.0</ele><time>2026-04-04T12:53:21.657Z</time></trkpt><trkpt lat="43.3171106" lon="10.6449152"><ele>104.0</ele><time>2026-04-04T12:53:22.662Z</time></trkpt><trkpt lat="43.3170385" lon="10.6450127"><ele>104.0</ele><time>2026-04-04T12:53:23.657Z</time></trkpt><trkpt lat="43.3169777" lon="10.6451331"><ele>104.0</ele><time>2026-04-04T12:53:24.668Z</time></trkpt><trkpt lat="43.3169692" lon="10.6452936"><ele>104.0</ele><time>2026-04-04T12:53:25.664Z</time></trkpt><trkpt lat="43.3170039" lon="10.645445"><ele>100.33333333333333</ele><time>2026-04-04T12:53:26.661Z</time></trkpt><trkpt lat="43.3170714" lon="10.6456193"><ele>96.66666666666666</ele><time>2026-04-04T12:53:27.659Z</time></trkpt><trkpt lat="43.3171558" lon="10.6458175"><ele>93.0</ele><time>2026-04-04T12:53:28.664Z</time></trkpt><trkpt lat="43.3172618" lon="10.6460674"><ele>90.66666666666667</ele><time>2026-04-04T12:53:29.659Z</time></trkpt><trkpt lat="43.3173555" lon="10.6463421"><ele>88.33333333333334</ele><time>2026-04-04T12:53:30.666Z</time></trkpt><trkpt lat="43.3174485" lon="10.6465958"><ele>86.0</ele><time>2026-04-04T12:53:31.664Z</time></trkpt><trkpt lat="43.317512" lon="10.6468481"><ele>85.33333333333334</ele><time>2026-04-04T12:53:32.669Z</time></trkpt><trkpt lat="43.3175517" lon="10.647132"><ele>84.66666666666667</ele><time>2026-04-04T12:53:33.676Z</time></trkpt><trkpt lat="43.3175729" lon="10.6474222"><ele>84.0</ele><time>2026-04-04T12:53:34.676Z</time></trkpt><trkpt lat="43.3175622" lon="10.6477132"><ele>82.33333333333333</ele><time>2026-04-04T12:53:35.674Z</time></trkpt><trkpt lat="43.3175382" lon="10.6480038"><ele>80.66666666666666</ele><time>2026-04-04T12:53:36.671Z</time></trkpt><trkpt lat="43.3175221" lon="10.6483155"><ele>79.0</ele><time>2026-04-04T12:53:37.676Z</time></trkpt><trkpt lat="43.3175087" lon="10.6486293"><ele>78.5</ele><time>2026-04-04T12:53:38.677Z</time></trkpt><trkpt lat="43.3175026" lon="10.6489477"><ele>78.0</ele><time>2026-04-04T12:53:39.693Z</time></trkpt><trkpt lat="43.3174926" lon="10.6492657"><ele>77.5</ele><time>2026-04-04T12:53:40.679Z</time></trkpt><trkpt lat="43.3174825" lon="10.6495886"><ele>77.0</ele><time>2026-04-04T12:53:41.68Z</time></trkpt><trkpt lat="43.3174749" lon="10.6499256"><ele>77.0</ele><time>2026-04-04T12:53:42.681Z</time></trkpt><trkpt lat="43.317473" lon="10.6502671"><ele>77.0</ele><time>2026-04-04T12:53:43.678Z</time></trkpt><trkpt lat="43.3174682" lon="10.6506208"><ele>78.0</ele><time>2026-04-04T12:53:44.68Z</time></trkpt><trkpt lat="43.3174555" lon="10.6509664"><ele>79.0</ele><time>2026-04-04T12:53:45.683Z</time></trkpt><trkpt lat="43.3174414" lon="10.6512967"><ele>79.0</ele><time>2026-04-04T12:53:46.68Z</time></trkpt><trkpt lat="43.3174414" lon="10.6516345"><ele>79.0</ele><time>2026-04-04T12:53:47.676Z</time></trkpt><trkpt lat="43.3174412" lon="10.6519661"><ele>78.0</ele><time>2026-04-04T12:53:48.679Z</time></trkpt><trkpt lat="43.3174343" lon="10.652281"><ele>77.0</ele><time>2026-04-04T12:53:49.679Z</time></trkpt><trkpt lat="43.317423" lon="10.6525788"><ele>76.0</ele><time>2026-04-04T12:53:50.675Z</time></trkpt><trkpt lat="43.3174101" lon="10.6528688"><ele>74.66666666666666</ele><time>2026-04-04T12:53:51.68Z</time></trkpt><trkpt lat="43.317394" lon="10.6531759"><ele>73.33333333333333</ele><time>2026-04-04T12:53:52.699Z</time></trkpt><trkpt lat="43.3173792" lon="10.6534452"><ele>72.0</ele><time>2026-04-04T12:53:54.754Z</time></trkpt><trkpt lat="43.317371" lon="10.6536969"><ele>70.66666666666667</ele><time>2026-04-04T12:53:55.756Z</time></trkpt><trkpt lat="43.3173833" lon="10.6539325"><ele>69.33333333333334</ele><time>2026-04-04T12:53:56.749Z</time></trkpt><trkpt lat="43.317422" lon="10.6541641"><ele>68.0</ele><time>2026-04-04T12:53:57.736Z</time></trkpt><trkpt lat="43.3174867" lon="10.6543847"><ele>67.33333333333334</ele><time>2026-04-04T12:53:58.736Z</time></trkpt><trkpt lat="43.3175757" lon="10.65459"><ele>66.66666666666667</ele><time>2026-04-04T12:53:59.741Z</time></trkpt><trkpt lat="43.3176903" lon="10.6547885"><ele>66.0</ele><time>2026-04-04T12:54:00.735Z</time></trkpt><trkpt lat="43.3178314" lon="10.6549576"><ele>63.5</ele><time>2026-04-04T12:54:01.75Z</time></trkpt><trkpt lat="43.3181122" lon="10.6552875"><ele>61.0</ele><time>2026-04-04T12:54:02.672Z</time></trkpt><trkpt lat="43.3182558" lon="10.6554803"><ele>61.0</ele><time>2026-04-04T12:54:03.663Z</time></trkpt><trkpt lat="43.3183733" lon="10.6556868"><ele>61.0</ele><time>2026-04-04T12:54:04.663Z</time></trkpt><trkpt lat="43.3184654" lon="10.6559184"><ele>61.0</ele><time>2026-04-04T12:54:05.666Z</time></trkpt><trkpt lat="43.3185574" lon="10.656193"><ele>59.0</ele><time>2026-04-04T12:54:06.668Z</time></trkpt><trkpt lat="43.3186523" lon="10.656493"><ele>57.0</ele><time>2026-04-04T12:54:07.666Z</time></trkpt><trkpt lat="43.3187378" lon="10.6567985"><ele>55.5</ele><time>2026-04-04T12:54:08.673Z</time></trkpt><trkpt lat="43.3188303" lon="10.6571172"><ele>54.0</ele><time>2026-04-04T12:54:09.674Z</time></trkpt><trkpt lat="43.3189446" lon="10.6574418"><ele>51.0</ele><time>2026-04-04T12:54:10.691Z</time></trkpt><trkpt lat="43.3190404" lon="10.657764"><ele>48.0</ele><time>2026-04-04T12:54:11.679Z</time></trkpt><trkpt lat="43.3191452" lon="10.6580846"><ele>46.5</ele><time>2026-04-04T12:54:12.682Z</time></trkpt><trkpt lat="43.3192448" lon="10.6583952"><ele>45.0</ele><time>2026-04-04T12:54:13.679Z</time></trkpt><trkpt lat="43.3193397" lon="10.6587058"><ele>43.0</ele><time>2026-04-04T12:54:14.678Z</time></trkpt><trkpt lat="43.319427" lon="10.6590173"><ele>41.0</ele><time>2026-04-04T12:54:15.683Z</time></trkpt><trkpt lat="43.3195297" lon="10.6593391"><ele>40.5</ele><time>2026-04-04T12:54:16.678Z</time></trkpt><trkpt lat="43.3196227" lon="10.6596518"><ele>40.0</ele><time>2026-04-04T12:54:17.684Z</time></trkpt><trkpt lat="43.3197195" lon="10.659952"><ele>39.0</ele><time>2026-04-04T12:54:18.673Z</time></trkpt><trkpt lat="43.3198089" lon="10.6602309"><ele>38.0</ele><time>2026-04-04T12:54:19.67Z</time></trkpt><trkpt lat="43.3198805" lon="10.6605208"><ele>37.0</ele><time>2026-04-04T12:54:20.672Z</time></trkpt><trkpt lat="43.3199219" lon="10.6607947"><ele>36.66666666666667</ele><time>2026-04-04T12:54:21.677Z</time></trkpt><trkpt lat="43.319945" lon="10.6610826"><ele>36.333333333333336</ele><time>2026-04-04T12:54:22.673Z</time></trkpt><trkpt lat="43.3199484" lon="10.6613901"><ele>36.0</ele><time>2026-04-04T12:54:23.67Z</time></trkpt><trkpt lat="43.3199321" lon="10.6617142"><ele>35.0</ele><time>2026-04-04T12:54:24.67Z</time></trkpt><trkpt lat="43.319912" lon="10.6620503"><ele>34.0</ele><time>2026-04-04T12:54:25.681Z</time></trkpt><trkpt lat="43.3199005" lon="10.6623928"><ele>34.0</ele><time>2026-04-04T12:54:26.679Z</time></trkpt><trkpt lat="43.3198948" lon="10.6627284"><ele>34.0</ele><time>2026-04-04T12:54:27.678Z</time></trkpt><trkpt lat="43.3198878" lon="10.6630721"><ele>33.5</ele><time>2026-04-04T12:54:28.678Z</time></trkpt><trkpt lat="43.3198549" lon="10.6634071"><ele>33.0</ele><time>2026-04-04T12:54:29.683Z</time></trkpt><trkpt lat="43.3198458" lon="10.6637501"><ele>33.0</ele><time>2026-04-04T12:54:30.68Z</time></trkpt><trkpt lat="43.3198353" lon="10.6640883"><ele>33.0</ele><time>2026-04-04T12:54:31.675Z</time></trkpt><trkpt lat="43.3198343" lon="10.664415"><ele>34.5</ele><time>2026-04-04T12:54:32.68Z</time></trkpt><trkpt lat="43.3198369" lon="10.6647592"><ele>36.0</ele><time>2026-04-04T12:54:33.674Z</time></trkpt><trkpt lat="43.3198332" lon="10.6650948"><ele>36.0</ele><time>2026-04-04T12:54:34.671Z</time></trkpt><trkpt lat="43.3198216" lon="10.6654339"><ele>36.0</ele><time>2026-04-04T12:54:35.674Z</time></trkpt><trkpt lat="43.319853" lon="10.6657675"><ele>36.0</ele><time>2026-04-04T12:54:36.674Z</time></trkpt><trkpt lat="43.3198509" lon="10.6661027"><ele>36.0</ele><time>2026-04-04T12:54:37.671Z</time></trkpt><trkpt lat="43.3198398" lon="10.6664122"><ele>36.0</ele><time>2026-04-04T12:54:38.661Z</time></trkpt><trkpt lat="43.3198406" lon="10.6667126"><ele>36.0</ele><time>2026-04-04T12:54:39.668Z</time></trkpt><trkpt lat="43.3198337" lon="10.6670293"><ele>36.0</ele><time>2026-04-04T12:54:40.668Z</time></trkpt><trkpt lat="43.3198752" lon="10.6673568"><ele>36.0</ele><time>2026-04-04T12:54:41.684Z</time></trkpt><trkpt lat="43.3199279" lon="10.6676641"><ele>36.0</ele><time>2026-04-04T12:54:42.661Z</time></trkpt><trkpt lat="43.3199676" lon="10.66801"><ele>35.666666666666664</ele><time>2026-04-04T12:54:43.669Z</time></trkpt><trkpt lat="43.3200021" lon="10.668289"><ele>35.33333333333333</ele><time>2026-04-04T12:54:44.659Z</time></trkpt><trkpt lat="43.3200405" lon="10.6685585"><ele>35.0</ele><time>2026-04-04T12:54:45.67Z</time></trkpt><trkpt lat="43.3200594" lon="10.668832"><ele>34.666666666666664</ele><time>2026-04-04T12:54:46.672Z</time></trkpt><trkpt lat="43.320078" lon="10.6690843"><ele>34.333333333333336</ele><time>2026-04-04T12:54:47.676Z</time></trkpt><trkpt lat="43.3200901" lon="10.6692794"><ele>34.0</ele><time>2026-04-04T12:54:48.678Z</time></trkpt><trkpt lat="43.3201047" lon="10.6694594"><ele>34.6</ele><time>2026-04-04T12:54:49.663Z</time></trkpt><trkpt lat="43.3201376" lon="10.6696143"><ele>35.2</ele><time>2026-04-04T12:54:50.671Z</time></trkpt><trkpt lat="43.3201482" lon="10.6697175"><ele>35.800000000000004</ele><time>2026-04-04T12:54:51.656Z</time></trkpt><trkpt lat="43.3201597" lon="10.6698749"><ele>36.4</ele><time>2026-04-04T12:54:53.666Z</time></trkpt><trkpt lat="43.3202107" lon="10.6699668"><ele>37.0</ele><time>2026-04-04T12:54:56.683Z</time></trkpt><trkpt lat="43.3202876" lon="10.6700123"><ele>37.0</ele><time>2026-04-04T12:54:58.676Z</time></trkpt><trkpt lat="43.3204079" lon="10.6699857"><ele>37.0</ele><time>2026-04-04T12:55:00.673Z</time></trkpt><trkpt lat="43.3204908" lon="10.6699623"><ele>37.0</ele><time>2026-04-04T12:55:01.67Z</time></trkpt><trkpt lat="43.3205874" lon="10.6699419"><ele>37.0</ele><time>2026-04-04T12:55:02.671Z</time></trkpt><trkpt lat="43.3207053" lon="10.6699322"><ele>37.0</ele><time>2026-04-04T12:55:03.675Z</time></trkpt><trkpt lat="43.3208299" lon="10.6699189"><ele>37.0</ele><time>2026-04-04T12:55:04.673Z</time></trkpt><trkpt lat="43.3209644" lon="10.6699078"><ele>37.0</ele><time>2026-04-04T12:55:05.677Z</time></trkpt><trkpt lat="43.321109" lon="10.6698978"><ele>37.0</ele><time>2026-04-04T12:55:06.674Z</time></trkpt><trkpt lat="43.3212631" lon="10.6698933"><ele>37.0</ele><time>2026-04-04T12:55:07.677Z</time></trkpt><trkpt lat="43.3214345" lon="10.6698764"><ele>37.0</ele><time>2026-04-04T12:55:08.68Z</time></trkpt><trkpt lat="43.3215914" lon="10.6698592"><ele>37.0</ele><time>2026-04-04T12:55:09.678Z</time></trkpt><trkpt lat="43.3217454" lon="10.6698715"><ele>37.0</ele><time>2026-04-04T12:55:10.684Z</time></trkpt><trkpt lat="43.3219029" lon="10.6698768"><ele>37.0</ele><time>2026-04-04T12:55:11.683Z</time></trkpt><trkpt lat="43.3220717" lon="10.6698829"><ele>37.0</ele><time>2026-04-04T12:55:12.698Z</time></trkpt><trkpt lat="43.3222121" lon="10.6698847"><ele>37.0</ele><time>2026-04-04T12:55:13.682Z</time></trkpt><trkpt lat="43.3223599" lon="10.6698712"><ele>37.25</ele><time>2026-04-04T12:55:14.682Z</time></trkpt><trkpt lat="43.3225129" lon="10.6698663"><ele>37.5</ele><time>2026-04-04T12:55:15.684Z</time></trkpt><trkpt lat="43.3226493" lon="10.6698684"><ele>37.75</ele><time>2026-04-04T12:55:16.677Z</time></trkpt><trkpt lat="43.3227835" lon="10.6698638"><ele>38.0</ele><time>2026-04-04T12:55:17.678Z</time></trkpt><trkpt lat="43.3229207" lon="10.6698598"><ele>36.666666666666664</ele><time>2026-04-04T12:55:18.679Z</time></trkpt><trkpt lat="43.3230665" lon="10.6698567"><ele>35.333333333333336</ele><time>2026-04-04T12:55:19.681Z</time></trkpt><trkpt lat="43.3232202" lon="10.6698537"><ele>34.0</ele><time>2026-04-04T12:55:20.687Z</time></trkpt><trkpt lat="43.3233739" lon="10.6698418"><ele>34.0</ele><time>2026-04-04T12:55:21.681Z</time></trkpt><trkpt lat="43.3235417" lon="10.669826"><ele>34.0</ele><time>2026-04-04T12:55:22.682Z</time></trkpt><trkpt lat="43.3237056" lon="10.6698282"><ele>34.0</ele><time>2026-04-04T12:55:23.681Z</time></trkpt><trkpt lat="43.3238611" lon="10.6698355"><ele>34.66666666666667</ele><time>2026-04-04T12:55:24.682Z</time></trkpt><trkpt lat="43.3240121" lon="10.6698422"><ele>35.333333333333336</ele><time>2026-04-04T12:55:25.684Z</time></trkpt><trkpt lat="43.3241613" lon="10.669837"><ele>36.0</ele><time>2026-04-04T12:55:26.682Z</time></trkpt><trkpt lat="43.3243208" lon="10.6698298"><ele>36.0</ele><time>2026-04-04T12:55:27.686Z</time></trkpt><trkpt lat="43.3244985" lon="10.6698394"><ele>36.0</ele><time>2026-04-04T12:55:28.68Z</time></trkpt><trkpt lat="43.3246806" lon="10.669878"><ele>36.0</ele><time>2026-04-04T12:55:29.684Z</time></trkpt><trkpt lat="43.324882" lon="10.669914"><ele>36.0</ele><time>2026-04-04T12:55:30.68Z</time></trkpt><trkpt lat="43.3250793" lon="10.6699584"><ele>36.0</ele><time>2026-04-04T12:55:31.684Z</time></trkpt><trkpt lat="43.3252726" lon="10.6699994"><ele>36.0</ele><time>2026-04-04T12:55:32.684Z</time></trkpt><trkpt lat="43.3254645" lon="10.6700398"><ele>36.0</ele><time>2026-04-04T12:55:33.68Z</time></trkpt><trkpt lat="43.325655" lon="10.6700685"><ele>36.0</ele><time>2026-04-04T12:55:34.68Z</time></trkpt><trkpt lat="43.3258465" lon="10.6701172"><ele>36.0</ele><time>2026-04-04T12:55:35.682Z</time></trkpt><trkpt lat="43.3260478" lon="10.6701536"><ele>36.0</ele><time>2026-04-04T12:55:36.67Z</time></trkpt><trkpt lat="43.3262359" lon="10.6701905"><ele>36.0</ele><time>2026-04-04T12:55:37.676Z</time></trkpt><trkpt lat="43.3264095" lon="10.6702209"><ele>36.0</ele><time>2026-04-04T12:55:38.678Z</time></trkpt><trkpt lat="43.3266061" lon="10.6702537"><ele>36.666666666666664</ele><time>2026-04-04T12:55:39.677Z</time></trkpt><trkpt lat="43.3267927" lon="10.6702791"><ele>37.33333333333333</ele><time>2026-04-04T12:55:40.675Z</time></trkpt><trkpt lat="43.3269707" lon="10.6703144"><ele>38.0</ele><time>2026-04-04T12:55:41.676Z</time></trkpt><trkpt lat="43.3271385" lon="10.670349"><ele>37.666666666666664</ele><time>2026-04-04T12:55:42.672Z</time></trkpt><trkpt lat="43.3273054" lon="10.6703824"><ele>37.333333333333336</ele><time>2026-04-04T12:55:43.705Z</time></trkpt><trkpt lat="43.3274623" lon="10.6704042"><ele>37.0</ele><time>2026-04-04T12:55:44.681Z</time></trkpt><trkpt lat="43.3276013" lon="10.670428"><ele>37.0</ele><time>2026-04-04T12:55:45.685Z</time></trkpt><trkpt lat="43.3277331" lon="10.6704853"><ele>37.0</ele><time>2026-04-04T12:55:46.675Z</time></trkpt><trkpt lat="43.3278516" lon="10.6705241"><ele>37.0</ele><time>2026-04-04T12:55:47.675Z</time></trkpt><trkpt lat="43.3279755" lon="10.6705343"><ele>37.0</ele><time>2026-04-04T12:55:48.671Z</time></trkpt><trkpt lat="43.3280993" lon="10.6705441"><ele>36.75</ele><time>2026-04-04T12:55:49.683Z</time></trkpt><trkpt lat="43.3282226" lon="10.6705627"><ele>36.5</ele><time>2026-04-04T12:55:50.68Z</time></trkpt><trkpt lat="43.3283325" lon="10.6705821"><ele>36.25</ele><time>2026-04-04T12:55:51.679Z</time></trkpt><trkpt lat="43.3284422" lon="10.6706008"><ele>36.0</ele><time>2026-04-04T12:55:52.679Z</time></trkpt><trkpt lat="43.3285587" lon="10.670597"><ele>36.0</ele><time>2026-04-04T12:55:53.675Z</time></trkpt><trkpt lat="43.3286623" lon="10.6705909"><ele>36.0</ele><time>2026-04-04T12:55:54.681Z</time></trkpt><trkpt lat="43.3287712" lon="10.6705715"><ele>36.0</ele><time>2026-04-04T12:55:55.681Z</time></trkpt><trkpt lat="43.3288743" lon="10.6705352"><ele>36.0</ele><time>2026-04-04T12:55:56.668Z</time></trkpt><trkpt lat="43.328977" lon="10.6705057"><ele>36.0</ele><time>2026-04-04T12:55:57.677Z</time></trkpt><trkpt lat="43.3290594" lon="10.670506"><ele>36.2</ele><time>2026-04-04T12:55:58.668Z</time></trkpt><trkpt lat="43.3291378" lon="10.6705159"><ele>36.400000000000006</ele><time>2026-04-04T12:55:59.68Z</time></trkpt><trkpt lat="43.3292099" lon="10.6705439"><ele>36.6</ele><time>2026-04-04T12:56:00.666Z</time></trkpt><trkpt lat="43.3292845" lon="10.6705652"><ele>36.800000000000004</ele><time>2026-04-04T12:56:01.667Z</time></trkpt><trkpt lat="43.32939" lon="10.6705151"><ele>37.0</ele><time>2026-04-04T12:56:03.667Z</time></trkpt><trkpt lat="43.3294156" lon="10.6703446"><ele>36.6</ele><time>2026-04-04T12:56:05.668Z</time></trkpt><trkpt lat="43.3293942" lon="10.6702457"><ele>36.2</ele><time>2026-04-04T12:56:06.657Z</time></trkpt><trkpt lat="43.3293554" lon="10.6701278"><ele>35.8</ele><time>2026-04-04T12:56:07.649Z</time></trkpt><trkpt lat="43.3293224" lon="10.6700239"><ele>35.4</ele><time>2026-04-04T12:56:08.654Z</time></trkpt><trkpt lat="43.329287" lon="10.66988"><ele>35.0</ele><time>2026-04-04T12:56:09.647Z</time></trkpt><trkpt lat="43.3292376" lon="10.6697107"><ele>35.0</ele><time>2026-04-04T12:56:10.658Z</time></trkpt><trkpt lat="43.3291915" lon="10.669531"><ele>35.0</ele><time>2026-04-04T12:56:11.667Z</time></trkpt><trkpt lat="43.3291541" lon="10.6693514"><ele>35.0</ele><time>2026-04-04T12:56:12.675Z</time></trkpt><trkpt lat="43.3291289" lon="10.669183"><ele>35.0</ele><time>2026-04-04T12:56:13.709Z</time></trkpt><trkpt lat="43.3291062" lon="10.6690281"><ele>34.8</ele><time>2026-04-04T12:56:15.754Z</time></trkpt><trkpt lat="43.3290874" lon="10.6689022"><ele>34.6</ele><time>2026-04-04T12:56:16.752Z</time></trkpt><trkpt lat="43.3290792" lon="10.6687996"><ele>34.4</ele><time>2026-04-04T12:56:17.743Z</time></trkpt><trkpt lat="43.3290916" lon="10.6686525"><ele>34.2</ele><time>2026-04-04T12:56:19.738Z</time></trkpt><trkpt lat="43.3291092" lon="10.6685063"><ele>34.0</ele><time>2026-04-04T12:56:21.745Z</time></trkpt><trkpt lat="43.3291052" lon="10.6683753"><ele>34.4</ele><time>2026-04-04T12:56:23.763Z</time></trkpt><trkpt lat="43.329086" lon="10.668239"><ele>34.8</ele><time>2026-04-04T12:56:25.764Z</time></trkpt><trkpt lat="43.3290546" lon="10.6680923"><ele>35.2</ele><time>2026-04-04T12:56:27.758Z</time></trkpt><trkpt lat="43.3290286" lon="10.6679557"><ele>35.6</ele><time>2026-04-04T12:56:29.747Z</time></trkpt><trkpt lat="43.3289321" lon="10.6678559"><ele>36.0</ele><time>2026-04-04T12:56:32.761Z</time></trkpt><trkpt lat="43.3288872" lon="10.6679182"><ele>36.0</ele><time>2026-04-04T12:57:34.769Z</time></trkpt><trkpt lat="43.3288837" lon="10.6681555"><ele>36.0</ele><time>2026-04-04T12:57:37.682Z</time></trkpt><trkpt lat="43.3289073" lon="10.6682665"><ele>36.0</ele><time>2026-04-04T12:57:38.681Z</time></trkpt><trkpt lat="43.3289335" lon="10.6683994"><ele>36.0</ele><time>2026-04-04T12:57:39.683Z</time></trkpt><trkpt lat="43.3289603" lon="10.66853"><ele>35.5</ele><time>2026-04-04T12:57:40.684Z</time></trkpt><trkpt lat="43.3289808" lon="10.6686664"><ele>35.0</ele><time>2026-04-04T12:57:41.687Z</time></trkpt><trkpt lat="43.3290163" lon="10.6688082"><ele>34.5</ele><time>2026-04-04T12:57:42.689Z</time></trkpt><trkpt lat="43.3290543" lon="10.6689523"><ele>34.0</ele><time>2026-04-04T12:57:43.684Z</time></trkpt><trkpt lat="43.3290863" lon="10.6691319"><ele>34.0</ele><time>2026-04-04T12:57:44.675Z</time></trkpt><trkpt lat="43.3291307" lon="10.669331"><ele>34.0</ele><time>2026-04-04T12:57:45.69Z</time></trkpt><trkpt lat="43.3291685" lon="10.6695497"><ele>34.0</ele><time>2026-04-04T12:57:46.699Z</time></trkpt><trkpt lat="43.3291809" lon="10.6697692"><ele>34.2</ele><time>2026-04-04T12:57:47.684Z</time></trkpt><trkpt lat="43.3291888" lon="10.6699517"><ele>34.4</ele><time>2026-04-04T12:57:48.678Z</time></trkpt><trkpt lat="43.3291783" lon="10.6700992"><ele>34.6</ele><time>2026-04-04T12:57:49.675Z</time></trkpt><trkpt lat="43.329127" lon="10.6702312"><ele>34.8</ele><time>2026-04-04T12:57:50.678Z</time></trkpt><trkpt lat="43.3290979" lon="10.6703478"><ele>35.0</ele><time>2026-04-04T12:57:51.677Z</time></trkpt><trkpt lat="43.3290959" lon="10.6704739"><ele>35.33333333333333</ele><time>2026-04-04T12:57:52.682Z</time></trkpt><trkpt lat="43.3291331" lon="10.670605"><ele>35.666666666666664</ele><time>2026-04-04T12:57:53.673Z</time></trkpt><trkpt lat="43.3291657" lon="10.6707102"><ele>36.0</ele><time>2026-04-04T12:57:54.687Z</time></trkpt><trkpt lat="43.3292203" lon="10.6707925"><ele>36.333333333333336</ele><time>2026-04-04T12:57:55.674Z</time></trkpt><trkpt lat="43.3292805" lon="10.6708619"><ele>36.66666666666667</ele><time>2026-04-04T12:57:56.661Z</time></trkpt><trkpt lat="43.3293352" lon="10.670959"><ele>37.0</ele><time>2026-04-04T12:57:57.664Z</time></trkpt><trkpt lat="43.3293837" lon="10.6710967"><ele>37.25</ele><time>2026-04-04T12:57:58.667Z</time></trkpt><trkpt lat="43.3294221" lon="10.671249"><ele>37.5</ele><time>2026-04-04T12:57:59.671Z</time></trkpt><trkpt lat="43.3294536" lon="10.6714336"><ele>37.75</ele><time>2026-04-04T12:58:00.669Z</time></trkpt><trkpt lat="43.3294828" lon="10.6716318"><ele>38.0</ele><time>2026-04-04T12:58:01.671Z</time></trkpt><trkpt lat="43.3295111" lon="10.671856"><ele>38.0</ele><time>2026-04-04T12:58:02.679Z</time></trkpt><trkpt lat="43.3295417" lon="10.6720982"><ele>38.0</ele><time>2026-04-04T12:58:03.675Z</time></trkpt><trkpt lat="43.3295801" lon="10.672351"><ele>38.0</ele><time>2026-04-04T12:58:04.674Z</time></trkpt><trkpt lat="43.3295853" lon="10.6726131"><ele>37.666666666666664</ele><time>2026-04-04T12:58:05.673Z</time></trkpt><trkpt lat="43.3296178" lon="10.6728573"><ele>37.333333333333336</ele><time>2026-04-04T12:58:06.676Z</time></trkpt><trkpt lat="43.3296504" lon="10.6730939"><ele>37.0</ele><time>2026-04-04T12:58:07.676Z</time></trkpt><trkpt lat="43.3296754" lon="10.6733454"><ele>37.333333333333336</ele><time>2026-04-04T12:58:08.675Z</time></trkpt><trkpt lat="43.3297209" lon="10.6736181"><ele>37.666666666666664</ele><time>2026-04-04T12:58:09.68Z</time></trkpt><trkpt lat="43.329751" lon="10.6738571"><ele>38.0</ele><time>2026-04-04T12:58:10.686Z</time></trkpt><trkpt lat="43.3297625" lon="10.6741153"><ele>38.0</ele><time>2026-04-04T12:58:11.702Z</time></trkpt><trkpt lat="43.3297976" lon="10.6743967"><ele>38.0</ele><time>2026-04-04T12:58:12.696Z</time></trkpt><trkpt lat="43.3298062" lon="10.6746734"><ele>38.0</ele><time>2026-04-04T12:58:13.69Z</time></trkpt><trkpt lat="43.3298114" lon="10.6749581"><ele>38.0</ele><time>2026-04-04T12:58:14.69Z</time></trkpt><trkpt lat="43.3298332" lon="10.6752513"><ele>38.0</ele><time>2026-04-04T12:58:15.688Z</time></trkpt><trkpt lat="43.3298455" lon="10.6755443"><ele>38.0</ele><time>2026-04-04T12:58:16.688Z</time></trkpt><trkpt lat="43.3298415" lon="10.6758224"><ele>37.5</ele><time>2026-04-04T12:58:17.699Z</time></trkpt><trkpt lat="43.3298471" lon="10.6761281"><ele>37.0</ele><time>2026-04-04T12:58:18.69Z</time></trkpt><trkpt lat="43.3298305" lon="10.6764403"><ele>37.0</ele><time>2026-04-04T12:58:19.695Z</time></trkpt><trkpt lat="43.3298304" lon="10.6767337"><ele>37.0</ele><time>2026-04-04T12:58:20.686Z</time></trkpt><trkpt lat="43.3298296" lon="10.6770407"><ele>37.0</ele><time>2026-04-04T12:58:21.691Z</time></trkpt><trkpt lat="43.3298222" lon="10.6773393"><ele>38.333333333333336</ele><time>2026-04-04T12:58:22.689Z</time></trkpt><trkpt lat="43.3298175" lon="10.6776437"><ele>39.666666666666664</ele><time>2026-04-04T12:58:23.686Z</time></trkpt><trkpt lat="43.3298054" lon="10.6779419"><ele>41.0</ele><time>2026-04-04T12:58:24.671Z</time></trkpt><trkpt lat="43.32979" lon="10.6782552"><ele>43.33333333333333</ele><time>2026-04-04T12:58:25.669Z</time></trkpt><trkpt lat="43.3297764" lon="10.678562"><ele>45.666666666666664</ele><time>2026-04-04T12:58:26.678Z</time></trkpt><trkpt lat="43.3297661" lon="10.6788519"><ele>48.0</ele><time>2026-04-04T12:58:27.685Z</time></trkpt><trkpt lat="43.3297304" lon="10.679142"><ele>45.0</ele><time>2026-04-04T12:58:28.687Z</time></trkpt><trkpt lat="43.3296911" lon="10.6794313"><ele>42.0</ele><time>2026-04-04T12:58:29.693Z</time></trkpt><trkpt lat="43.329663" lon="10.6797254"><ele>39.0</ele><time>2026-04-04T12:58:30.683Z</time></trkpt><trkpt lat="43.3296434" lon="10.6800187"><ele>38.666666666666664</ele><time>2026-04-04T12:58:31.686Z</time></trkpt><trkpt lat="43.3295968" lon="10.680287"><ele>38.33333333333333</ele><time>2026-04-04T12:58:32.688Z</time></trkpt><trkpt lat="43.3295686" lon="10.6805783"><ele>38.0</ele><time>2026-04-04T12:58:33.69Z</time></trkpt><trkpt lat="43.3295225" lon="10.6808688"><ele>38.0</ele><time>2026-04-04T12:58:34.691Z</time></trkpt><trkpt lat="43.3294681" lon="10.6811496"><ele>38.0</ele><time>2026-04-04T12:58:35.69Z</time></trkpt><trkpt lat="43.3294065" lon="10.6814247"><ele>38.0</ele><time>2026-04-04T12:58:36.695Z</time></trkpt><trkpt lat="43.3293625" lon="10.6817346"><ele>38.666666666666664</ele><time>2026-04-04T12:58:37.682Z</time></trkpt><trkpt lat="43.329314" lon="10.682046"><ele>39.333333333333336</ele><time>2026-04-04T12:58:38.687Z</time></trkpt><trkpt lat="43.3292599" lon="10.6823224"><ele>40.0</ele><time>2026-04-04T12:58:39.691Z</time></trkpt><trkpt lat="43.3292018" lon="10.6826021"><ele>40.66666666666667</ele><time>2026-04-04T12:58:40.684Z</time></trkpt><trkpt lat="43.3291348" lon="10.6828833"><ele>41.333333333333336</ele><time>2026-04-04T12:58:41.689Z</time></trkpt><trkpt lat="43.3290666" lon="10.6831707"><ele>42.0</ele><time>2026-04-04T12:58:42.685Z</time></trkpt><trkpt lat="43.3290026" lon="10.6834428"><ele>42.0</ele><time>2026-04-04T12:58:43.684Z</time></trkpt><trkpt lat="43.328945" lon="10.6837396"><ele>42.0</ele><time>2026-04-04T12:58:44.68Z</time></trkpt><trkpt lat="43.3289058" lon="10.6840329"><ele>42.0</ele><time>2026-04-04T12:58:45.674Z</time></trkpt><trkpt lat="43.3288624" lon="10.6842893"><ele>42.666666666666664</ele><time>2026-04-04T12:58:46.673Z</time></trkpt><trkpt lat="43.3287722" lon="10.6845444"><ele>43.33333333333333</ele><time>2026-04-04T12:58:47.68Z</time></trkpt><trkpt lat="43.3286837" lon="10.6847938"><ele>44.0</ele><time>2026-04-04T12:58:48.68Z</time></trkpt><trkpt lat="43.3285937" lon="10.6850442"><ele>44.33333333333333</ele><time>2026-04-04T12:58:49.668Z</time></trkpt><trkpt lat="43.3285427" lon="10.6853077"><ele>44.666666666666664</ele><time>2026-04-04T12:58:50.659Z</time></trkpt><trkpt lat="43.328484" lon="10.6855895"><ele>45.0</ele><time>2026-04-04T12:58:51.663Z</time></trkpt><trkpt lat="43.3284303" lon="10.6858724"><ele>45.0</ele><time>2026-04-04T12:58:52.663Z</time></trkpt><trkpt lat="43.3283883" lon="10.6861504"><ele>45.0</ele><time>2026-04-04T12:58:53.669Z</time></trkpt><trkpt lat="43.3283572" lon="10.6864365"><ele>45.0</ele><time>2026-04-04T12:58:54.677Z</time></trkpt><trkpt lat="43.328345" lon="10.6866999"><ele>44.666666666666664</ele><time>2026-04-04T12:58:55.679Z</time></trkpt><trkpt lat="43.3283461" lon="10.686962"><ele>44.33333333333333</ele><time>2026-04-04T12:58:56.682Z</time></trkpt><trkpt lat="43.3283661" lon="10.6872384"><ele>44.0</ele><time>2026-04-04T12:58:57.684Z</time></trkpt><trkpt lat="43.3283942" lon="10.6875298"><ele>43.666666666666664</ele><time>2026-04-04T12:58:58.683Z</time></trkpt><trkpt lat="43.328442" lon="10.687818"><ele>43.333333333333336</ele><time>2026-04-04T12:58:59.685Z</time></trkpt><trkpt lat="43.3284994" lon="10.6880926"><ele>43.0</ele><time>2026-04-04T12:59:00.689Z</time></trkpt><trkpt lat="43.3285673" lon="10.6883792"><ele>42.0</ele><time>2026-04-04T12:59:01.679Z</time></trkpt><trkpt lat="43.3286591" lon="10.6886753"><ele>41.0</ele><time>2026-04-04T12:59:02.673Z</time></trkpt><trkpt lat="43.3287693" lon="10.688967"><ele>41.0</ele><time>2026-04-04T12:59:03.679Z</time></trkpt><trkpt lat="43.3288789" lon="10.6892384"><ele>41.0</ele><time>2026-04-04T12:59:04.69Z</time></trkpt><trkpt lat="43.3289825" lon="10.6894901"><ele>41.0</ele><time>2026-04-04T12:59:05.683Z</time></trkpt><trkpt lat="43.3290943" lon="10.6897566"><ele>41.0</ele><time>2026-04-04T12:59:06.681Z</time></trkpt><trkpt lat="43.3292051" lon="10.6900139"><ele>41.0</ele><time>2026-04-04T12:59:07.683Z</time></trkpt><trkpt lat="43.3293091" lon="10.690267"><ele>41.0</ele><time>2026-04-04T12:59:08.68Z</time></trkpt><trkpt lat="43.3294175" lon="10.6905143"><ele>41.0</ele><time>2026-04-04T12:59:09.676Z</time></trkpt><trkpt lat="43.3295118" lon="10.6907443"><ele>41.0</ele><time>2026-04-04T12:59:10.675Z</time></trkpt><trkpt lat="43.3295907" lon="10.6909518"><ele>41.0</ele><time>2026-04-04T12:59:11.674Z</time></trkpt><trkpt lat="43.3296646" lon="10.6911748"><ele>41.33333333333333</ele><time>2026-04-04T12:59:12.675Z</time></trkpt><trkpt lat="43.3297256" lon="10.6913997"><ele>41.666666666666664</ele><time>2026-04-04T12:59:13.671Z</time></trkpt><trkpt lat="43.3297905" lon="10.6916012"><ele>42.0</ele><time>2026-04-04T12:59:14.672Z</time></trkpt><trkpt lat="43.3298678" lon="10.6917994"><ele>42.8</ele><time>2026-04-04T12:59:15.668Z</time></trkpt><trkpt lat="43.329928" lon="10.6919618"><ele>43.6</ele><time>2026-04-04T12:59:16.67Z</time></trkpt><trkpt lat="43.3299621" lon="10.6921058"><ele>44.4</ele><time>2026-04-04T12:59:17.665Z</time></trkpt><trkpt lat="43.3299898" lon="10.6922423"><ele>45.199999999999996</ele><time>2026-04-04T12:59:18.662Z</time></trkpt><trkpt lat="43.330025" lon="10.6923416"><ele>46.0</ele><time>2026-04-04T12:59:19.674Z</time></trkpt><trkpt lat="43.3300724" lon="10.6924112"><ele>46.0</ele><time>2026-04-04T12:59:20.682Z</time></trkpt><trkpt lat="43.3301581" lon="10.6924533"><ele>46.0</ele><time>2026-04-04T12:59:22.69Z</time></trkpt><trkpt lat="43.3302752" lon="10.692378"><ele>46.0</ele><time>2026-04-04T12:59:24.684Z</time></trkpt><trkpt lat="43.3303468" lon="10.6923236"><ele>46.0</ele><time>2026-04-04T12:59:25.68Z</time></trkpt><trkpt lat="43.3304216" lon="10.6922803"><ele>46.0</ele><time>2026-04-04T12:59:26.675Z</time></trkpt><trkpt lat="43.3305097" lon="10.6922293"><ele>49.5</ele><time>2026-04-04T12:59:27.674Z</time></trkpt><trkpt lat="43.330609" lon="10.6921908"><ele>53.0</ele><time>2026-04-04T12:59:28.674Z</time></trkpt><trkpt lat="43.3307206" lon="10.6921632"><ele>56.5</ele><time>2026-04-04T12:59:29.681Z</time></trkpt><trkpt lat="43.3308414" lon="10.692131"><ele>60.0</ele><time>2026-04-04T12:59:30.687Z</time></trkpt><trkpt lat="43.3309688" lon="10.6920884"><ele>60.0</ele><time>2026-04-04T12:59:31.683Z</time></trkpt><trkpt lat="43.3310909" lon="10.6920342"><ele>60.0</ele><time>2026-04-04T12:59:32.688Z</time></trkpt><trkpt lat="43.3312172" lon="10.6919832"><ele>60.0</ele><time>2026-04-04T12:59:33.683Z</time></trkpt><trkpt lat="43.3313436" lon="10.6919426"><ele>60.0</ele><time>2026-04-04T12:59:34.68Z</time></trkpt><trkpt lat="43.3314616" lon="10.6919279"><ele>61.75</ele><time>2026-04-04T12:59:35.681Z</time></trkpt><trkpt lat="43.3315795" lon="10.6919587"><ele>63.5</ele><time>2026-04-04T12:59:36.668Z</time></trkpt><trkpt lat="43.3317111" lon="10.6920184"><ele>65.25</ele><time>2026-04-04T12:59:37.674Z</time></trkpt><trkpt lat="43.3318526" lon="10.6920882"><ele>67.0</ele><time>2026-04-04T12:59:38.673Z</time></trkpt><trkpt lat="43.3320321" lon="10.6921367"><ele>67.0</ele><time>2026-04-04T12:59:39.678Z</time></trkpt><trkpt lat="43.3322069" lon="10.6921532"><ele>67.0</ele><time>2026-04-04T12:59:40.68Z</time></trkpt><trkpt lat="43.3323962" lon="10.6921686"><ele>67.0</ele><time>2026-04-04T12:59:41.707Z</time></trkpt><trkpt lat="43.3325709" lon="10.6921751"><ele>68.0</ele><time>2026-04-04T12:59:43.755Z</time></trkpt><trkpt lat="43.3327458" lon="10.6921921"><ele>69.0</ele><time>2026-04-04T12:59:44.751Z</time></trkpt><trkpt lat="43.332897" lon="10.6922252"><ele>70.0</ele><time>2026-04-04T12:59:45.756Z</time></trkpt><trkpt lat="43.3330594" lon="10.6922915"><ele>70.0</ele><time>2026-04-04T12:59:46.738Z</time></trkpt><trkpt lat="43.3332092" lon="10.6923765"><ele>70.0</ele><time>2026-04-04T12:59:47.748Z</time></trkpt><trkpt lat="43.3333278" lon="10.6924832"><ele>70.0</ele><time>2026-04-04T12:59:48.742Z</time></trkpt><trkpt lat="43.3334308" lon="10.6926209"><ele>70.0</ele><time>2026-04-04T12:59:49.743Z</time></trkpt><trkpt lat="43.333522" lon="10.6927852"><ele>72.66666666666666</ele><time>2026-04-04T12:59:50.772Z</time></trkpt><trkpt lat="43.3336188" lon="10.6929749"><ele>75.33333333333333</ele><time>2026-04-04T12:59:51.76Z</time></trkpt><trkpt lat="43.333741" lon="10.6932176"><ele>78.0</ele><time>2026-04-04T12:59:52.737Z</time></trkpt><trkpt lat="43.3338274" lon="10.6934145"><ele>78.0</ele><time>2026-04-04T12:59:53.746Z</time></trkpt><trkpt lat="43.3339342" lon="10.6935741"><ele>78.0</ele><time>2026-04-04T12:59:54.74Z</time></trkpt><trkpt lat="43.3340551" lon="10.6936974"><ele>78.0</ele><time>2026-04-04T12:59:55.738Z</time></trkpt><trkpt lat="43.3343241" lon="10.6938732"><ele>78.0</ele><time>2026-04-04T12:59:56.673Z</time></trkpt><trkpt lat="43.3344172" lon="10.6939854"><ele>78.0</ele><time>2026-04-04T12:59:57.635Z</time></trkpt><trkpt lat="43.3344899" lon="10.6941088"><ele>78.0</ele><time>2026-04-04T12:59:58.646Z</time></trkpt><trkpt lat="43.3345372" lon="10.6942697"><ele>78.0</ele><time>2026-04-04T12:59:59.666Z</time></trkpt><trkpt lat="43.3345962" lon="10.694464"><ele>76.0</ele><time>2026-04-04T13:00:00.655Z</time></trkpt><trkpt lat="43.3346625" lon="10.6946663"><ele>74.0</ele><time>2026-04-04T13:00:01.658Z</time></trkpt><trkpt lat="43.3347258" lon="10.6948711"><ele>72.0</ele><time>2026-04-04T13:00:02.665Z</time></trkpt><trkpt lat="43.3348076" lon="10.6950827"><ele>74.33333333333333</ele><time>2026-04-04T13:00:03.661Z</time></trkpt><trkpt lat="43.3348741" lon="10.6952897"><ele>76.66666666666666</ele><time>2026-04-04T13:00:04.66Z</time></trkpt><trkpt lat="43.3349527" lon="10.6954927"><ele>79.0</ele><time>2026-04-04T13:00:05.664Z</time></trkpt><trkpt lat="43.3350151" lon="10.695684"><ele>79.0</ele><time>2026-04-04T13:00:06.664Z</time></trkpt><trkpt lat="43.3350762" lon="10.6958646"><ele>79.0</ele><time>2026-04-04T13:00:07.654Z</time></trkpt><trkpt lat="43.3351205" lon="10.696042"><ele>79.0</ele><time>2026-04-04T13:00:08.661Z</time></trkpt><trkpt lat="43.3351792" lon="10.6961953"><ele>79.0</ele><time>2026-04-04T13:00:09.664Z</time></trkpt><trkpt lat="43.3352439" lon="10.6963133"><ele>79.75</ele><time>2026-04-04T13:00:10.662Z</time></trkpt><trkpt lat="43.335334" lon="10.6964049"><ele>80.5</ele><time>2026-04-04T13:00:11.655Z</time></trkpt><trkpt lat="43.3354628" lon="10.6964844"><ele>81.25</ele><time>2026-04-04T13:00:12.653Z</time></trkpt><trkpt lat="43.335612" lon="10.6965839"><ele>82.0</ele><time>2026-04-04T13:00:13.655Z</time></trkpt><trkpt lat="43.335767" lon="10.6966929"><ele>82.0</ele><time>2026-04-04T13:00:14.657Z</time></trkpt><trkpt lat="43.3359106" lon="10.6968101"><ele>82.0</ele><time>2026-04-04T13:00:15.67Z</time></trkpt><trkpt lat="43.3360549" lon="10.6969448"><ele>82.0</ele><time>2026-04-04T13:00:16.66Z</time></trkpt><trkpt lat="43.3362021" lon="10.6970642"><ele>85.25</ele><time>2026-04-04T13:00:17.677Z</time></trkpt><trkpt lat="43.3363314" lon="10.6971518"><ele>88.5</ele><time>2026-04-04T13:00:18.656Z</time></trkpt><trkpt lat="43.3364524" lon="10.6972163"><ele>91.75</ele><time>2026-04-04T13:00:19.663Z</time></trkpt><trkpt lat="43.3365659" lon="10.697241"><ele>95.0</ele><time>2026-04-04T13:00:20.655Z</time></trkpt><trkpt lat="43.3366857" lon="10.6972061"><ele>95.0</ele><time>2026-04-04T13:00:21.67Z</time></trkpt><trkpt lat="43.3368265" lon="10.6971513"><ele>95.0</ele><time>2026-04-04T13:00:22.655Z</time></trkpt><trkpt lat="43.3369679" lon="10.6971024"><ele>95.0</ele><time>2026-04-04T13:00:23.656Z</time></trkpt><trkpt lat="43.3370797" lon="10.6970827"><ele>95.0</ele><time>2026-04-04T13:00:24.659Z</time></trkpt><trkpt lat="43.3371884" lon="10.6970891"><ele>94.75</ele><time>2026-04-04T13:00:25.656Z</time></trkpt><trkpt lat="43.337303" lon="10.6971288"><ele>94.5</ele><time>2026-04-04T13:00:26.657Z</time></trkpt><trkpt lat="43.3374208" lon="10.6972092"><ele>94.25</ele><time>2026-04-04T13:00:27.653Z</time></trkpt><trkpt lat="43.337551" lon="10.6973062"><ele>94.0</ele><time>2026-04-04T13:00:28.651Z</time></trkpt><trkpt lat="43.3376873" lon="10.6973802"><ele>94.0</ele><time>2026-04-04T13:00:29.647Z</time></trkpt><trkpt lat="43.3378205" lon="10.6973771"><ele>94.0</ele><time>2026-04-04T13:00:30.652Z</time></trkpt><trkpt lat="43.3379668" lon="10.6973653"><ele>94.0</ele><time>2026-04-04T13:00:31.649Z</time></trkpt><trkpt lat="43.3381189" lon="10.6973421"><ele>94.0</ele><time>2026-04-04T13:00:32.661Z</time></trkpt><trkpt lat="43.3382707" lon="10.6973289"><ele>94.33333333333333</ele><time>2026-04-04T13:00:33.652Z</time></trkpt><trkpt lat="43.3384031" lon="10.6973789"><ele>94.66666666666667</ele><time>2026-04-04T13:00:34.656Z</time></trkpt><trkpt lat="43.3385418" lon="10.6974797"><ele>95.0</ele><time>2026-04-04T13:00:35.654Z</time></trkpt><trkpt lat="43.3386998" lon="10.6975479"><ele>95.0</ele><time>2026-04-04T13:00:36.657Z</time></trkpt><trkpt lat="43.3388804" lon="10.6975386"><ele>95.0</ele><time>2026-04-04T13:00:37.655Z</time></trkpt><trkpt lat="43.3390483" lon="10.6975105"><ele>95.0</ele><time>2026-04-04T13:00:38.657Z</time></trkpt><trkpt lat="43.3392362" lon="10.6974809"><ele>95.0</ele><time>2026-04-04T13:00:39.662Z</time></trkpt><trkpt lat="43.3394171" lon="10.6974967"><ele>95.0</ele><time>2026-04-04T13:00:40.66Z</time></trkpt><trkpt lat="43.3395792" lon="10.6975078"><ele>95.0</ele><time>2026-04-04T13:00:41.66Z</time></trkpt><trkpt lat="43.3397473" lon="10.6975607"><ele>95.66666666666667</ele><time>2026-04-04T13:00:42.651Z</time></trkpt><trkpt lat="43.3399158" lon="10.6976354"><ele>96.33333333333334</ele><time>2026-04-04T13:00:43.653Z</time></trkpt><trkpt lat="43.3400789" lon="10.6977487"><ele>97.0</ele><time>2026-04-04T13:00:44.651Z</time></trkpt><trkpt lat="43.3402155" lon="10.6978292"><ele>95.75</ele><time>2026-04-04T13:00:45.645Z</time></trkpt><trkpt lat="43.3403356" lon="10.6979128"><ele>94.5</ele><time>2026-04-04T13:00:46.638Z</time></trkpt><trkpt lat="43.3404563" lon="10.6980028"><ele>93.25</ele><time>2026-04-04T13:00:47.629Z</time></trkpt><trkpt lat="43.3405366" lon="10.698093"><ele>92.0</ele><time>2026-04-04T13:00:48.641Z</time></trkpt><trkpt lat="43.3405736" lon="10.6982201"><ele>92.0</ele><time>2026-04-04T13:00:49.645Z</time></trkpt><trkpt lat="43.3405818" lon="10.6983858"><ele>92.0</ele><time>2026-04-04T13:00:50.638Z</time></trkpt><trkpt lat="43.3405642" lon="10.698576"><ele>92.0</ele><time>2026-04-04T13:00:51.652Z</time></trkpt><trkpt lat="43.340527" lon="10.6987928"><ele>92.0</ele><time>2026-04-04T13:00:52.641Z</time></trkpt><trkpt lat="43.3405254" lon="10.6990137"><ele>103.33333333333334</ele><time>2026-04-04T13:00:53.638Z</time></trkpt><trkpt lat="43.3405294" lon="10.6992544"><ele>114.66666666666667</ele><time>2026-04-04T13:00:54.646Z</time></trkpt><trkpt lat="43.3405218" lon="10.699529"><ele>126.0</ele><time>2026-04-04T13:00:55.636Z</time></trkpt><trkpt lat="43.3405154" lon="10.6998116"><ele>126.66666666666666</ele><time>2026-04-04T13:00:56.644Z</time></trkpt><trkpt lat="43.3404997" lon="10.7000871"><ele>127.33333333333333</ele><time>2026-04-04T13:00:57.646Z</time></trkpt><trkpt lat="43.3404955" lon="10.7003389"><ele>128.0</ele><time>2026-04-04T13:00:58.653Z</time></trkpt><trkpt lat="43.3404723" lon="10.7005666"><ele>126.75</ele><time>2026-04-04T13:00:59.663Z</time></trkpt><trkpt lat="43.3404659" lon="10.7007661"><ele>125.5</ele><time>2026-04-04T13:01:00.652Z</time></trkpt><trkpt lat="43.3404532" lon="10.7009342"><ele>124.25</ele><time>2026-04-04T13:01:01.655Z</time></trkpt><trkpt lat="43.3404884" lon="10.7011171"><ele>123.0</ele><time>2026-04-04T13:01:02.648Z</time></trkpt><trkpt lat="43.3405661" lon="10.7012524"><ele>121.33333333333334</ele><time>2026-04-04T13:01:03.664Z</time></trkpt><trkpt lat="43.3406937" lon="10.7013447"><ele>119.66666666666667</ele><time>2026-04-04T13:01:04.645Z</time></trkpt><trkpt lat="43.340831" lon="10.7014131"><ele>118.0</ele><time>2026-04-04T13:01:05.637Z</time></trkpt><trkpt lat="43.3409946" lon="10.7014655"><ele>118.0</ele><time>2026-04-04T13:01:06.643Z</time></trkpt><trkpt lat="43.3411617" lon="10.7015413"><ele>118.0</ele><time>2026-04-04T13:01:07.658Z</time></trkpt><trkpt lat="43.3413437" lon="10.7015991"><ele>118.0</ele><time>2026-04-04T13:01:08.655Z</time></trkpt><trkpt lat="43.341502" lon="10.70166"><ele>118.25</ele><time>2026-04-04T13:01:09.649Z</time></trkpt><trkpt lat="43.341645" lon="10.7017204"><ele>118.5</ele><time>2026-04-04T13:01:10.645Z</time></trkpt><trkpt lat="43.3417742" lon="10.7017628"><ele>118.75</ele><time>2026-04-04T13:01:11.661Z</time></trkpt><trkpt lat="43.3419152" lon="10.7017435"><ele>119.0</ele><time>2026-04-04T13:01:12.664Z</time></trkpt><trkpt lat="43.342075" lon="10.7017106"><ele>122.33333333333333</ele><time>2026-04-04T13:01:13.666Z</time></trkpt><trkpt lat="43.3422214" lon="10.7016811"><ele>125.66666666666666</ele><time>2026-04-04T13:01:14.666Z</time></trkpt><trkpt lat="43.3423926" lon="10.7016458"><ele>129.0</ele><time>2026-04-04T13:01:15.671Z</time></trkpt><trkpt lat="43.3425496" lon="10.7016249"><ele>129.0</ele><time>2026-04-04T13:01:16.664Z</time></trkpt><trkpt lat="43.3427346" lon="10.7015877"><ele>129.0</ele><time>2026-04-04T13:01:17.666Z</time></trkpt><trkpt lat="43.3429071" lon="10.7015626"><ele>129.0</ele><time>2026-04-04T13:01:18.656Z</time></trkpt><trkpt lat="43.343054" lon="10.7014998"><ele>132.0</ele><time>2026-04-04T13:01:19.657Z</time></trkpt><trkpt lat="43.3431984" lon="10.7014296"><ele>135.0</ele><time>2026-04-04T13:01:20.657Z</time></trkpt><trkpt lat="43.3433526" lon="10.7013285"><ele>138.0</ele><time>2026-04-04T13:01:21.665Z</time></trkpt><trkpt lat="43.3435" lon="10.7012168"><ele>138.0</ele><time>2026-04-04T13:01:22.676Z</time></trkpt><trkpt lat="43.3436615" lon="10.7010871"><ele>138.0</ele><time>2026-04-04T13:01:23.668Z</time></trkpt><trkpt lat="43.3438155" lon="10.7009848"><ele>138.0</ele><time>2026-04-04T13:01:24.663Z</time></trkpt><trkpt lat="43.3439508" lon="10.7008864"><ele>137.0</ele><time>2026-04-04T13:01:25.666Z</time></trkpt><trkpt lat="43.3440701" lon="10.7008038"><ele>136.0</ele><time>2026-04-04T13:01:26.657Z</time></trkpt><trkpt lat="43.3442114" lon="10.7007432"><ele>135.0</ele><time>2026-04-04T13:01:27.656Z</time></trkpt><trkpt lat="43.3443863" lon="10.7007541"><ele>135.0</ele><time>2026-04-04T13:01:28.658Z</time></trkpt><trkpt lat="43.3445738" lon="10.7007336"><ele>135.0</ele><time>2026-04-04T13:01:29.661Z</time></trkpt><trkpt lat="43.3447806" lon="10.7006972"><ele>135.0</ele><time>2026-04-04T13:01:30.664Z</time></trkpt><trkpt lat="43.3449893" lon="10.7006687"><ele>137.33333333333334</ele><time>2026-04-04T13:01:31.662Z</time></trkpt><trkpt lat="43.3451972" lon="10.7006336"><ele>139.66666666666669</ele><time>2026-04-04T13:01:32.669Z</time></trkpt><trkpt lat="43.3453915" lon="10.7006094"><ele>142.0</ele><time>2026-04-04T13:01:33.662Z</time></trkpt><trkpt lat="43.345571" lon="10.7005741"><ele>142.75</ele><time>2026-04-04T13:01:34.662Z</time></trkpt><trkpt lat="43.3456976" lon="10.7005788"><ele>143.5</ele><time>2026-04-04T13:01:35.658Z</time></trkpt><trkpt lat="43.3458181" lon="10.7005983"><ele>144.25</ele><time>2026-04-04T13:01:36.666Z</time></trkpt><trkpt lat="43.345916" lon="10.7006603"><ele>145.0</ele><time>2026-04-04T13:01:37.659Z</time></trkpt><trkpt lat="43.3460121" lon="10.7007665"><ele>145.0</ele><time>2026-04-04T13:01:38.655Z</time></trkpt><trkpt lat="43.3461084" lon="10.7008912"><ele>145.0</ele><time>2026-04-04T13:01:39.656Z</time></trkpt><trkpt lat="43.3462225" lon="10.7010365"><ele>145.0</ele><time>2026-04-04T13:01:40.656Z</time></trkpt><trkpt lat="43.3463641" lon="10.701193"><ele>147.0</ele><time>2026-04-04T13:01:41.672Z</time></trkpt><trkpt lat="43.3465168" lon="10.7013397"><ele>149.0</ele><time>2026-04-04T13:01:42.678Z</time></trkpt><trkpt lat="43.3466644" lon="10.7014824"><ele>151.0</ele><time>2026-04-04T13:01:43.676Z</time></trkpt><trkpt lat="43.3467748" lon="10.7016503"><ele>151.0</ele><time>2026-04-04T13:01:45.753Z</time></trkpt><trkpt lat="43.3468749" lon="10.7018305"><ele>151.0</ele><time>2026-04-04T13:01:46.754Z</time></trkpt><trkpt lat="43.3469858" lon="10.7020567"><ele>151.0</ele><time>2026-04-04T13:01:47.736Z</time></trkpt><trkpt lat="43.3470737" lon="10.7022361"><ele>153.25</ele><time>2026-04-04T13:01:48.737Z</time></trkpt><trkpt lat="43.3471388" lon="10.7023992"><ele>155.5</ele><time>2026-04-04T13:01:49.735Z</time></trkpt><trkpt lat="43.3471703" lon="10.7025655"><ele>157.75</ele><time>2026-04-04T13:01:50.738Z</time></trkpt><trkpt lat="43.3471712" lon="10.702717"><ele>160.0</ele><time>2026-04-04T13:01:51.742Z</time></trkpt><trkpt lat="43.3471457" lon="10.7028683"><ele>160.75</ele><time>2026-04-04T13:01:52.745Z</time></trkpt><trkpt lat="43.3470892" lon="10.703049"><ele>161.5</ele><time>2026-04-04T13:01:53.734Z</time></trkpt><trkpt lat="43.347015" lon="10.7032014"><ele>162.25</ele><time>2026-04-04T13:01:54.718Z</time></trkpt><trkpt lat="43.3469676" lon="10.7033363"><ele>163.0</ele><time>2026-04-04T13:01:55.726Z</time></trkpt><trkpt lat="43.3468033" lon="10.7038966"><ele>163.0</ele><time>2026-04-04T13:01:56.646Z</time></trkpt><trkpt lat="43.3467422" lon="10.7041425"><ele>163.0</ele><time>2026-04-04T13:01:57.664Z</time></trkpt><trkpt lat="43.3466613" lon="10.7043723"><ele>163.0</ele><time>2026-04-04T13:01:58.657Z</time></trkpt><trkpt lat="43.3465645" lon="10.7045838"><ele>162.0</ele><time>2026-04-04T13:01:59.675Z</time></trkpt><trkpt lat="43.3465311" lon="10.7047596"><ele>161.0</ele><time>2026-04-04T13:02:00.672Z</time></trkpt><trkpt lat="43.3465288" lon="10.704921"><ele>160.0</ele><time>2026-04-04T13:02:01.654Z</time></trkpt><trkpt lat="43.3465435" lon="10.7050754"><ele>159.0</ele><time>2026-04-04T13:02:02.654Z</time></trkpt><trkpt lat="43.3466112" lon="10.7052123"><ele>159.5</ele><time>2026-04-04T13:02:03.659Z</time></trkpt><trkpt lat="43.3466806" lon="10.7053426"><ele>160.0</ele><time>2026-04-04T13:02:04.649Z</time></trkpt><trkpt lat="43.3467867" lon="10.705454"><ele>160.5</ele><time>2026-04-04T13:02:05.657Z</time></trkpt><trkpt lat="43.3468996" lon="10.7056058"><ele>161.0</ele><time>2026-04-04T13:02:06.647Z</time></trkpt><trkpt lat="43.3470135" lon="10.7057634"><ele>161.0</ele><time>2026-04-04T13:02:07.641Z</time></trkpt><trkpt lat="43.3471409" lon="10.7059313"><ele>161.0</ele><time>2026-04-04T13:02:08.655Z</time></trkpt><trkpt lat="43.3472999" lon="10.7061344"><ele>161.0</ele><time>2026-04-04T13:02:09.655Z</time></trkpt><trkpt lat="43.3474784" lon="10.7063219"><ele>163.0</ele><time>2026-04-04T13:02:10.651Z</time></trkpt><trkpt lat="43.3476155" lon="10.7065157"><ele>165.0</ele><time>2026-04-04T13:02:11.647Z</time></trkpt><trkpt lat="43.347766" lon="10.7066742"><ele>167.0</ele><time>2026-04-04T13:02:12.647Z</time></trkpt><trkpt lat="43.347895" lon="10.7068106"><ele>169.0</ele><time>2026-04-04T13:02:13.663Z</time></trkpt><trkpt lat="43.3480379" lon="10.7069309"><ele>171.0</ele><time>2026-04-04T13:02:14.658Z</time></trkpt><trkpt lat="43.3481965" lon="10.7069828"><ele>173.0</ele><time>2026-04-04T13:02:15.664Z</time></trkpt><trkpt lat="43.3483649" lon="10.7070091"><ele>175.0</ele><time>2026-04-04T13:02:16.66Z</time></trkpt><trkpt lat="43.3484831" lon="10.7070449"><ele>177.0</ele><time>2026-04-04T13:02:17.666Z</time></trkpt><trkpt lat="43.3486156" lon="10.7070878"><ele>179.0</ele><time>2026-04-04T13:02:18.659Z</time></trkpt><trkpt lat="43.3487378" lon="10.7071712"><ele>181.0</ele><time>2026-04-04T13:02:19.657Z</time></trkpt><trkpt lat="43.3488687" lon="10.7072648"><ele>182.0</ele><time>2026-04-04T13:02:20.662Z</time></trkpt><trkpt lat="43.3490253" lon="10.7073465"><ele>183.0</ele><time>2026-04-04T13:02:21.668Z</time></trkpt><trkpt lat="43.349179" lon="10.7074559"><ele>184.0</ele><time>2026-04-04T13:02:22.666Z</time></trkpt><trkpt lat="43.3493332" lon="10.7075737"><ele>184.0</ele><time>2026-04-04T13:02:23.674Z</time></trkpt><trkpt lat="43.3494518" lon="10.7076927"><ele>184.0</ele><time>2026-04-04T13:02:24.682Z</time></trkpt><trkpt lat="43.3495361" lon="10.7078054"><ele>184.0</ele><time>2026-04-04T13:02:25.666Z</time></trkpt><trkpt lat="43.3496026" lon="10.7079722"><ele>184.0</ele><time>2026-04-04T13:02:26.669Z</time></trkpt><trkpt lat="43.349668" lon="10.7081812"><ele>184.33333333333334</ele><time>2026-04-04T13:02:27.664Z</time></trkpt><trkpt lat="43.3497255" lon="10.7084196"><ele>184.66666666666666</ele><time>2026-04-04T13:02:28.666Z</time></trkpt><trkpt lat="43.3497641" lon="10.7086795"><ele>185.0</ele><time>2026-04-04T13:02:29.668Z</time></trkpt><trkpt lat="43.3497849" lon="10.7089042"><ele>186.5</ele><time>2026-04-04T13:02:30.663Z</time></trkpt><trkpt lat="43.34982" lon="10.7091108"><ele>188.0</ele><time>2026-04-04T13:02:31.659Z</time></trkpt><trkpt lat="43.3498246" lon="10.7093032"><ele>189.5</ele><time>2026-04-04T13:02:32.657Z</time></trkpt><trkpt lat="43.3497997" lon="10.7094874"><ele>191.0</ele><time>2026-04-04T13:02:33.665Z</time></trkpt><trkpt lat="43.3497638" lon="10.7096748"><ele>192.0</ele><time>2026-04-04T13:02:34.66Z</time></trkpt><trkpt lat="43.3497552" lon="10.7098775"><ele>193.0</ele><time>2026-04-04T13:02:35.654Z</time></trkpt><trkpt lat="43.3497358" lon="10.7100422"><ele>194.0</ele><time>2026-04-04T13:02:36.643Z</time></trkpt><trkpt lat="43.3497268" lon="10.7101904"><ele>195.0</ele><time>2026-04-04T13:02:37.639Z</time></trkpt><trkpt lat="43.3497607" lon="10.710318"><ele>197.8</ele><time>2026-04-04T13:02:38.641Z</time></trkpt><trkpt lat="43.3498043" lon="10.7104454"><ele>200.6</ele><time>2026-04-04T13:02:39.637Z</time></trkpt><trkpt lat="43.3498891" lon="10.7105152"><ele>203.39999999999998</ele><time>2026-04-04T13:02:40.629Z</time></trkpt><trkpt lat="43.349978" lon="10.7105966"><ele>206.2</ele><time>2026-04-04T13:02:41.646Z</time></trkpt><trkpt lat="43.3500947" lon="10.7106511"><ele>209.0</ele><time>2026-04-04T13:02:42.629Z</time></trkpt><trkpt lat="43.35023" lon="10.7107357"><ele>209.0</ele><time>2026-04-04T13:02:43.633Z</time></trkpt><trkpt lat="43.3503519" lon="10.7108276"><ele>209.0</ele><time>2026-04-04T13:02:44.64Z</time></trkpt><trkpt lat="43.350443" lon="10.7109815"><ele>209.0</ele><time>2026-04-04T13:02:45.648Z</time></trkpt><trkpt lat="43.3505289" lon="10.7112016"><ele>207.0</ele><time>2026-04-04T13:02:46.636Z</time></trkpt><trkpt lat="43.3506392" lon="10.7114135"><ele>205.0</ele><time>2026-04-04T13:02:47.638Z</time></trkpt><trkpt lat="43.3507352" lon="10.7115483"><ele>203.0</ele><time>2026-04-04T13:02:48.628Z</time></trkpt><trkpt lat="43.3508007" lon="10.7117182"><ele>204.66666666666669</ele><time>2026-04-04T13:02:49.638Z</time></trkpt><trkpt lat="43.3508297" lon="10.7119376"><ele>206.33333333333331</ele><time>2026-04-04T13:02:50.646Z</time></trkpt><trkpt lat="43.3508302" lon="10.712201"><ele>208.0</ele><time>2026-04-04T13:02:51.645Z</time></trkpt><trkpt lat="43.3508191" lon="10.7124872"><ele>208.66666666666666</ele><time>2026-04-04T13:02:52.657Z</time></trkpt><trkpt lat="43.3508245" lon="10.7127894"><ele>209.33333333333331</ele><time>2026-04-04T13:02:53.654Z</time></trkpt><trkpt lat="43.350861" lon="10.713081"><ele>210.0</ele><time>2026-04-04T13:02:54.649Z</time></trkpt><trkpt lat="43.3508879" lon="10.7133233"><ele>210.0</ele><time>2026-04-04T13:02:55.652Z</time></trkpt><trkpt lat="43.3509115" lon="10.7135506"><ele>210.0</ele><time>2026-04-04T13:02:56.643Z</time></trkpt><trkpt lat="43.3509279" lon="10.7137279"><ele>210.0</ele><time>2026-04-04T13:02:57.643Z</time></trkpt><trkpt lat="43.3509666" lon="10.7138919"><ele>210.0</ele><time>2026-04-04T13:02:58.646Z</time></trkpt><trkpt lat="43.3510262" lon="10.7140119"><ele>210.0</ele><time>2026-04-04T13:02:59.649Z</time></trkpt><trkpt lat="43.3511204" lon="10.7141022"><ele>210.0</ele><time>2026-04-04T13:03:00.647Z</time></trkpt><trkpt lat="43.3512753" lon="10.7141716"><ele>210.0</ele><time>2026-04-04T13:03:01.654Z</time></trkpt><trkpt lat="43.3514518" lon="10.7142103"><ele>208.66666666666669</ele><time>2026-04-04T13:03:02.647Z</time></trkpt><trkpt lat="43.3516122" lon="10.7141915"><ele>207.33333333333334</ele><time>2026-04-04T13:03:03.648Z</time></trkpt><trkpt lat="43.3517716" lon="10.7142017"><ele>206.0</ele><time>2026-04-04T13:03:04.651Z</time></trkpt><trkpt lat="43.3519065" lon="10.7142468"><ele>206.0</ele><time>2026-04-04T13:03:05.649Z</time></trkpt><trkpt lat="43.3520819" lon="10.714335"><ele>206.0</ele><time>2026-04-04T13:03:06.645Z</time></trkpt><trkpt lat="43.3522517" lon="10.714457"><ele>206.0</ele><time>2026-04-04T13:03:07.656Z</time></trkpt><trkpt lat="43.3524311" lon="10.714547"><ele>205.66666666666669</ele><time>2026-04-04T13:03:08.651Z</time></trkpt><trkpt lat="43.3526091" lon="10.7146201"><ele>205.33333333333331</ele><time>2026-04-04T13:03:09.655Z</time></trkpt><trkpt lat="43.3527886" lon="10.7147115"><ele>205.0</ele><time>2026-04-04T13:03:10.65Z</time></trkpt><trkpt lat="43.3529662" lon="10.7148123"><ele>206.33333333333331</ele><time>2026-04-04T13:03:11.651Z</time></trkpt><trkpt lat="43.3531413" lon="10.7149109"><ele>207.66666666666669</ele><time>2026-04-04T13:03:12.647Z</time></trkpt><trkpt lat="43.3533388" lon="10.7149725"><ele>209.0</ele><time>2026-04-04T13:03:13.653Z</time></trkpt><trkpt lat="43.3535335" lon="10.7150442"><ele>209.0</ele><time>2026-04-04T13:03:14.649Z</time></trkpt><trkpt lat="43.3537439" lon="10.7151004"><ele>209.0</ele><time>2026-04-04T13:03:15.652Z</time></trkpt><trkpt lat="43.3539329" lon="10.7151477"><ele>209.0</ele><time>2026-04-04T13:03:16.647Z</time></trkpt><trkpt lat="43.3541272" lon="10.7152108"><ele>210.66666666666669</ele><time>2026-04-04T13:03:17.65Z</time></trkpt><trkpt lat="43.354322" lon="10.7152799"><ele>212.33333333333331</ele><time>2026-04-04T13:03:18.651Z</time></trkpt><trkpt lat="43.3545212" lon="10.715357"><ele>214.0</ele><time>2026-04-04T13:03:19.645Z</time></trkpt><trkpt lat="43.3546626" lon="10.7154448"><ele>217.66666666666666</ele><time>2026-04-04T13:03:20.646Z</time></trkpt><trkpt lat="43.3547979" lon="10.7155378"><ele>221.33333333333331</ele><time>2026-04-04T13:03:21.655Z</time></trkpt><trkpt lat="43.3549508" lon="10.7155801"><ele>225.0</ele><time>2026-04-04T13:03:22.654Z</time></trkpt><trkpt lat="43.3551267" lon="10.7155499"><ele>225.0</ele><time>2026-04-04T13:03:23.648Z</time></trkpt><trkpt lat="43.3552658" lon="10.7155372"><ele>225.0</ele><time>2026-04-04T13:03:24.648Z</time></trkpt><trkpt lat="43.3553844" lon="10.7155386"><ele>225.0</ele><time>2026-04-04T13:03:25.66Z</time></trkpt><trkpt lat="43.3554778" lon="10.715612"><ele>225.0</ele><time>2026-04-04T13:03:26.643Z</time></trkpt><trkpt lat="43.3555553" lon="10.7156982"><ele>225.5</ele><time>2026-04-04T13:03:27.662Z</time></trkpt><trkpt lat="43.3555942" lon="10.715878"><ele>226.0</ele><time>2026-04-04T13:03:28.656Z</time></trkpt><trkpt lat="43.3556634" lon="10.7160375"><ele>226.5</ele><time>2026-04-04T13:03:29.646Z</time></trkpt><trkpt lat="43.3557794" lon="10.7161652"><ele>227.0</ele><time>2026-04-04T13:03:30.651Z</time></trkpt><trkpt lat="43.3559109" lon="10.7162362"><ele>230.0</ele><time>2026-04-04T13:03:31.644Z</time></trkpt><trkpt lat="43.3560441" lon="10.7162355"><ele>233.0</ele><time>2026-04-04T13:03:32.652Z</time></trkpt><trkpt lat="43.3561602" lon="10.7162631"><ele>236.0</ele><time>2026-04-04T13:03:33.64Z</time></trkpt><trkpt lat="43.3562437" lon="10.7163702"><ele>239.0</ele><time>2026-04-04T13:03:34.636Z</time></trkpt><trkpt lat="43.3563163" lon="10.7164936"><ele>239.0</ele><time>2026-04-04T13:03:35.641Z</time></trkpt><trkpt lat="43.3563461" lon="10.7166697"><ele>239.0</ele><time>2026-04-04T13:03:36.645Z</time></trkpt><trkpt lat="43.3563353" lon="10.7168744"><ele>239.0</ele><time>2026-04-04T13:03:37.645Z</time></trkpt><trkpt lat="43.3563185" lon="10.7170827"><ele>239.0</ele><time>2026-04-04T13:03:38.65Z</time></trkpt><trkpt lat="43.3563208" lon="10.7173023"><ele>238.66666666666669</ele><time>2026-04-04T13:03:39.647Z</time></trkpt><trkpt lat="43.3563954" lon="10.71751"><ele>238.33333333333331</ele><time>2026-04-04T13:03:40.648Z</time></trkpt><trkpt lat="43.3565098" lon="10.7176935"><ele>238.0</ele><time>2026-04-04T13:03:41.641Z</time></trkpt><trkpt lat="43.3565877" lon="10.717879"><ele>240.0</ele><time>2026-04-04T13:03:42.642Z</time></trkpt><trkpt lat="43.3566162" lon="10.7180808"><ele>242.0</ele><time>2026-04-04T13:03:43.638Z</time></trkpt><trkpt lat="43.3566422" lon="10.7183074"><ele>244.0</ele><time>2026-04-04T13:03:44.648Z</time></trkpt><trkpt lat="43.3566362" lon="10.7185609"><ele>245.33333333333331</ele><time>2026-04-04T13:03:45.655Z</time></trkpt><trkpt lat="43.3566318" lon="10.7188258"><ele>246.66666666666669</ele><time>2026-04-04T13:03:46.646Z</time></trkpt><trkpt lat="43.3566503" lon="10.719075"><ele>248.0</ele><time>2026-04-04T13:03:47.65Z</time></trkpt><trkpt lat="43.3566603" lon="10.7192777"><ele>247.75</ele><time>2026-04-04T13:03:48.647Z</time></trkpt><trkpt lat="43.3566356" lon="10.719463"><ele>247.5</ele><time>2026-04-04T13:03:49.65Z</time></trkpt><trkpt lat="43.3566307" lon="10.7196087"><ele>247.25</ele><time>2026-04-04T13:03:50.636Z</time></trkpt><trkpt lat="43.3566697" lon="10.7197382"><ele>247.0</ele><time>2026-04-04T13:03:51.643Z</time></trkpt><trkpt lat="43.3567604" lon="10.7198641"><ele>247.0</ele><time>2026-04-04T13:03:52.639Z</time></trkpt><trkpt lat="43.3568463" lon="10.7200091"><ele>247.0</ele><time>2026-04-04T13:03:53.638Z</time></trkpt><trkpt lat="43.3569407" lon="10.7201454"><ele>247.0</ele><time>2026-04-04T13:03:54.656Z</time></trkpt><trkpt lat="43.3570405" lon="10.7202835"><ele>247.0</ele><time>2026-04-04T13:03:55.647Z</time></trkpt><trkpt lat="43.3570941" lon="10.7204359"><ele>246.75</ele><time>2026-04-04T13:03:56.65Z</time></trkpt><trkpt lat="43.3571149" lon="10.7206011"><ele>246.5</ele><time>2026-04-04T13:03:57.644Z</time></trkpt><trkpt lat="43.357114" lon="10.7207858"><ele>246.25</ele><time>2026-04-04T13:03:58.646Z</time></trkpt><trkpt lat="43.35709" lon="10.7209939"><ele>246.0</ele><time>2026-04-04T13:03:59.643Z</time></trkpt><trkpt lat="43.3570838" lon="10.7211998"><ele>246.5</ele><time>2026-04-04T13:04:00.641Z</time></trkpt><trkpt lat="43.3570769" lon="10.7214389"><ele>247.0</ele><time>2026-04-04T13:04:01.66Z</time></trkpt><trkpt lat="43.3570736" lon="10.7216414"><ele>247.5</ele><time>2026-04-04T13:04:02.642Z</time></trkpt><trkpt lat="43.357076" lon="10.7218004"><ele>248.0</ele><time>2026-04-04T13:04:03.651Z</time></trkpt><trkpt lat="43.3571343" lon="10.7219349"><ele>253.0</ele><time>2026-04-04T13:04:04.65Z</time></trkpt><trkpt lat="43.3572175" lon="10.7220996"><ele>258.0</ele><time>2026-04-04T13:04:05.654Z</time></trkpt><trkpt lat="43.3573032" lon="10.7222935"><ele>263.0</ele><time>2026-04-04T13:04:06.65Z</time></trkpt><trkpt lat="43.3573899" lon="10.7225231"><ele>261.6666666666667</ele><time>2026-04-04T13:04:07.644Z</time></trkpt><trkpt lat="43.3574998" lon="10.722748"><ele>260.3333333333333</ele><time>2026-04-04T13:04:08.652Z</time></trkpt><trkpt lat="43.3576028" lon="10.7229768"><ele>259.0</ele><time>2026-04-04T13:04:09.653Z</time></trkpt><trkpt lat="43.3576886" lon="10.7231926"><ele>259.0</ele><time>2026-04-04T13:04:10.658Z</time></trkpt><trkpt lat="43.3577536" lon="10.7233631"><ele>259.0</ele><time>2026-04-04T13:04:11.654Z</time></trkpt><trkpt lat="43.3578443" lon="10.7234955"><ele>259.0</ele><time>2026-04-04T13:04:12.658Z</time></trkpt><trkpt lat="43.3579622" lon="10.7235475"><ele>259.0</ele><time>2026-04-04T13:04:13.646Z</time></trkpt><trkpt lat="43.3580932" lon="10.7235518"><ele>260.25</ele><time>2026-04-04T13:04:14.642Z</time></trkpt><trkpt lat="43.3582173" lon="10.7234904"><ele>261.5</ele><time>2026-04-04T13:04:15.661Z</time></trkpt><trkpt lat="43.3582866" lon="10.7233878"><ele>262.75</ele><time>2026-04-04T13:04:16.65Z</time></trkpt><trkpt lat="43.3583376" lon="10.7232293"><ele>264.0</ele><time>2026-04-04T13:04:17.64Z</time></trkpt><trkpt lat="43.3584015" lon="10.7230938"><ele>264.0</ele><time>2026-04-04T13:04:18.646Z</time></trkpt><trkpt lat="43.3584441" lon="10.7229191"><ele>264.0</ele><time>2026-04-04T13:04:19.642Z</time></trkpt><trkpt lat="43.3585393" lon="10.7228501"><ele>264.0</ele><time>2026-04-04T13:04:20.639Z</time></trkpt><trkpt lat="43.3586488" lon="10.7228461"><ele>264.0</ele><time>2026-04-04T13:04:21.645Z</time></trkpt><trkpt lat="43.3587557" lon="10.7228773"><ele>265.6666666666667</ele><time>2026-04-04T13:04:22.645Z</time></trkpt><trkpt lat="43.3588686" lon="10.7229624"><ele>267.33333333333337</ele><time>2026-04-04T13:04:23.644Z</time></trkpt><trkpt lat="43.3590054" lon="10.7230643"><ele>269.0</ele><time>2026-04-04T13:04:24.636Z</time></trkpt><trkpt lat="43.3591694" lon="10.7231622"><ele>269.0</ele><time>2026-04-04T13:04:25.646Z</time></trkpt><trkpt lat="43.3594138" lon="10.7233544"><ele>269.0</ele><time>2026-04-04T13:04:26.645Z</time></trkpt><trkpt lat="43.359606" lon="10.723498"><ele>270.0</ele><time>2026-04-04T13:04:27.651Z</time></trkpt><trkpt lat="43.3597518" lon="10.7236526"><ele>271.0</ele><time>2026-04-04T13:04:28.647Z</time></trkpt><trkpt lat="43.3598593" lon="10.7238244"><ele>272.0</ele><time>2026-04-04T13:04:29.651Z</time></trkpt><trkpt lat="43.3599519" lon="10.7240462"><ele>272.0</ele><time>2026-04-04T13:04:30.65Z</time></trkpt><trkpt lat="43.3600086" lon="10.724304"><ele>272.0</ele><time>2026-04-04T13:04:31.639Z</time></trkpt><trkpt lat="43.3600524" lon="10.7245845"><ele>272.0</ele><time>2026-04-04T13:04:32.641Z</time></trkpt><trkpt lat="43.3601624" lon="10.7248729"><ele>271.6666666666667</ele><time>2026-04-04T13:04:33.645Z</time></trkpt><trkpt lat="43.3602383" lon="10.7251029"><ele>271.3333333333333</ele><time>2026-04-04T13:04:34.643Z</time></trkpt><trkpt lat="43.3602953" lon="10.7252989"><ele>271.0</ele><time>2026-04-04T13:04:35.652Z</time></trkpt><trkpt lat="43.360302" lon="10.7254985"><ele>270.75</ele><time>2026-04-04T13:04:36.641Z</time></trkpt><trkpt lat="43.3602974" lon="10.7256924"><ele>270.5</ele><time>2026-04-04T13:04:37.652Z</time></trkpt><trkpt lat="43.3603216" lon="10.7258737"><ele>270.25</ele><time>2026-04-04T13:04:38.645Z</time></trkpt><trkpt lat="43.3604027" lon="10.7260694"><ele>270.0</ele><time>2026-04-04T13:04:39.645Z</time></trkpt><trkpt lat="43.3605025" lon="10.7262706"><ele>275.3333333333333</ele><time>2026-04-04T13:04:40.648Z</time></trkpt><trkpt lat="43.360619" lon="10.7264636"><ele>280.66666666666663</ele><time>2026-04-04T13:04:41.649Z</time></trkpt><trkpt lat="43.3606838" lon="10.7266868"><ele>286.0</ele><time>2026-04-04T13:04:42.651Z</time></trkpt><trkpt lat="43.3607212" lon="10.7269564"><ele>286.0</ele><time>2026-04-04T13:04:43.648Z</time></trkpt><trkpt lat="43.36075" lon="10.7272154"><ele>286.0</ele><time>2026-04-04T13:04:44.647Z</time></trkpt><trkpt lat="43.3607808" lon="10.7274561"><ele>286.0</ele><time>2026-04-04T13:04:45.657Z</time></trkpt><trkpt lat="43.3608019" lon="10.727626"><ele>285.0</ele><time>2026-04-04T13:04:46.652Z</time></trkpt><trkpt lat="43.3608413" lon="10.7277673"><ele>284.0</ele><time>2026-04-04T13:04:47.652Z</time></trkpt><trkpt lat="43.3609061" lon="10.7279003"><ele>283.0</ele><time>2026-04-04T13:04:48.656Z</time></trkpt><trkpt lat="43.361013" lon="10.7280007"><ele>282.0</ele><time>2026-04-04T13:04:49.644Z</time></trkpt><trkpt lat="43.361116" lon="10.7281018"><ele>282.0</ele><time>2026-04-04T13:04:50.647Z</time></trkpt><trkpt lat="43.3612066" lon="10.7281858"><ele>282.0</ele><time>2026-04-04T13:04:51.638Z</time></trkpt><trkpt lat="43.3612942" lon="10.7283101"><ele>282.0</ele><time>2026-04-04T13:04:52.645Z</time></trkpt><trkpt lat="43.3613687" lon="10.7284759"><ele>282.0</ele><time>2026-04-04T13:04:53.653Z</time></trkpt><trkpt lat="43.3614165" lon="10.7286343"><ele>283.75</ele><time>2026-04-04T13:04:54.644Z</time></trkpt><trkpt lat="43.3614833" lon="10.7287895"><ele>285.5</ele><time>2026-04-04T13:04:55.65Z</time></trkpt><trkpt lat="43.3615674" lon="10.7289466"><ele>287.25</ele><time>2026-04-04T13:04:56.645Z</time></trkpt><trkpt lat="43.36168" lon="10.7290795"><ele>289.0</ele><time>2026-04-04T13:04:57.646Z</time></trkpt><trkpt lat="43.3617883" lon="10.7292139"><ele>289.0</ele><time>2026-04-04T13:04:58.645Z</time></trkpt><trkpt lat="43.3618746" lon="10.7293624"><ele>289.0</ele><time>2026-04-04T13:04:59.642Z</time></trkpt><trkpt lat="43.3619547" lon="10.7294495"><ele>289.0</ele><time>2026-04-04T13:05:00.648Z</time></trkpt><trkpt lat="43.3620547" lon="10.7295659"><ele>289.0</ele><time>2026-04-04T13:05:01.644Z</time></trkpt><trkpt lat="43.3621589" lon="10.7296452"><ele>290.25</ele><time>2026-04-04T13:05:02.639Z</time></trkpt><trkpt lat="43.3622825" lon="10.7297003"><ele>291.5</ele><time>2026-04-04T13:05:03.645Z</time></trkpt><trkpt lat="43.3624169" lon="10.7297893"><ele>292.75</ele><time>2026-04-04T13:05:04.643Z</time></trkpt><trkpt lat="43.3625179" lon="10.7298947"><ele>294.0</ele><time>2026-04-04T13:05:05.646Z</time></trkpt><trkpt lat="43.3626067" lon="10.7299777"><ele>294.0</ele><time>2026-04-04T13:05:06.642Z</time></trkpt><trkpt lat="43.3626929" lon="10.7300613"><ele>294.0</ele><time>2026-04-04T13:05:07.641Z</time></trkpt><trkpt lat="43.3627915" lon="10.7301308"><ele>294.0</ele><time>2026-04-04T13:05:08.643Z</time></trkpt><trkpt lat="43.3629002" lon="10.7301662"><ele>294.0</ele><time>2026-04-04T13:05:09.637Z</time></trkpt><trkpt lat="43.3630187" lon="10.7301707"><ele>294.0</ele><time>2026-04-04T13:05:10.65Z</time></trkpt><trkpt lat="43.363126" lon="10.7301391"><ele>294.0</ele><time>2026-04-04T13:05:11.644Z</time></trkpt><trkpt lat="43.3632337" lon="10.730056"><ele>294.0</ele><time>2026-04-04T13:05:12.647Z</time></trkpt><trkpt lat="43.3633415" lon="10.7299399"><ele>294.0</ele><time>2026-04-04T13:05:13.656Z</time></trkpt><trkpt lat="43.3634409" lon="10.7297986"><ele>294.0</ele><time>2026-04-04T13:05:14.649Z</time></trkpt><trkpt lat="43.3635152" lon="10.7296457"><ele>294.0</ele><time>2026-04-04T13:05:15.656Z</time></trkpt><trkpt lat="43.3635661" lon="10.7294764"><ele>294.0</ele><time>2026-04-04T13:05:16.649Z</time></trkpt><trkpt lat="43.3636076" lon="10.7292875"><ele>294.0</ele><time>2026-04-04T13:05:17.654Z</time></trkpt><trkpt lat="43.3636484" lon="10.7291056"><ele>294.0</ele><time>2026-04-04T13:05:18.652Z</time></trkpt><trkpt lat="43.3636864" lon="10.7289246"><ele>296.5</ele><time>2026-04-04T13:05:19.651Z</time></trkpt><trkpt lat="43.3637311" lon="10.7287582"><ele>299.0</ele><time>2026-04-04T13:05:20.651Z</time></trkpt><trkpt lat="43.3637848" lon="10.7285629"><ele>301.5</ele><time>2026-04-04T13:05:21.647Z</time></trkpt><trkpt lat="43.3638484" lon="10.7284171"><ele>304.0</ele><time>2026-04-04T13:05:22.64Z</time></trkpt><trkpt lat="43.3638595" lon="10.7282298"><ele>303.75</ele><time>2026-04-04T13:05:23.641Z</time></trkpt><trkpt lat="43.3639125" lon="10.7280521"><ele>303.5</ele><time>2026-04-04T13:05:24.65Z</time></trkpt><trkpt lat="43.3639439" lon="10.7278734"><ele>303.25</ele><time>2026-04-04T13:05:25.648Z</time></trkpt><trkpt lat="43.3639557" lon="10.7276926"><ele>303.0</ele><time>2026-04-04T13:05:26.647Z</time></trkpt><trkpt lat="43.3639519" lon="10.7274951"><ele>303.0</ele><time>2026-04-04T13:05:27.649Z</time></trkpt><trkpt lat="43.3639242" lon="10.7272571"><ele>303.0</ele><time>2026-04-04T13:05:28.649Z</time></trkpt><trkpt lat="43.3639334" lon="10.7270415"><ele>303.0</ele><time>2026-04-04T13:05:29.651Z</time></trkpt><trkpt lat="43.363946" lon="10.7268156"><ele>303.75</ele><time>2026-04-04T13:05:30.662Z</time></trkpt><trkpt lat="43.3639755" lon="10.7266298"><ele>304.5</ele><time>2026-04-04T13:05:31.65Z</time></trkpt><trkpt lat="43.3640156" lon="10.7264549"><ele>305.25</ele><time>2026-04-04T13:05:32.652Z</time></trkpt><trkpt lat="43.3640651" lon="10.7263459"><ele>306.0</ele><time>2026-04-04T13:05:33.649Z</time></trkpt><trkpt lat="43.3641634" lon="10.7262581"><ele>306.0</ele><time>2026-04-04T13:05:34.645Z</time></trkpt><trkpt lat="43.3643234" lon="10.7261766"><ele>306.0</ele><time>2026-04-04T13:05:35.647Z</time></trkpt><trkpt lat="43.3644841" lon="10.7261077"><ele>306.0</ele><time>2026-04-04T13:05:36.646Z</time></trkpt><trkpt lat="43.364658" lon="10.7260624"><ele>307.0</ele><time>2026-04-04T13:05:37.648Z</time></trkpt><trkpt lat="43.3648319" lon="10.7259991"><ele>308.0</ele><time>2026-04-04T13:05:38.644Z</time></trkpt><trkpt lat="43.3650066" lon="10.7259356"><ele>309.0</ele><time>2026-04-04T13:05:39.652Z</time></trkpt><trkpt lat="43.3651583" lon="10.7258562"><ele>309.0</ele><time>2026-04-04T13:05:40.656Z</time></trkpt><trkpt lat="43.3653186" lon="10.7257876"><ele>309.0</ele><time>2026-04-04T13:05:41.652Z</time></trkpt><trkpt lat="43.36546" lon="10.7257007"><ele>309.0</ele><time>2026-04-04T13:05:42.648Z</time></trkpt><trkpt lat="43.3655952" lon="10.7256751"><ele>310.0</ele><time>2026-04-04T13:05:43.649Z</time></trkpt><trkpt lat="43.3657291" lon="10.7256647"><ele>311.0</ele><time>2026-04-04T13:05:44.65Z</time></trkpt><trkpt lat="43.3658535" lon="10.7256838"><ele>312.0</ele><time>2026-04-04T13:05:45.649Z</time></trkpt><trkpt lat="43.3659867" lon="10.7257725"><ele>313.0</ele><time>2026-04-04T13:05:46.638Z</time></trkpt><trkpt lat="43.3661114" lon="10.7258945"><ele>313.0</ele><time>2026-04-04T13:05:47.648Z</time></trkpt><trkpt lat="43.3662445" lon="10.725997"><ele>313.0</ele><time>2026-04-04T13:05:48.645Z</time></trkpt><trkpt lat="43.3664024" lon="10.726066"><ele>313.0</ele><time>2026-04-04T13:05:49.651Z</time></trkpt><trkpt lat="43.3665149" lon="10.7261594"><ele>311.75</ele><time>2026-04-04T13:05:50.656Z</time></trkpt><trkpt lat="43.3666284" lon="10.7262302"><ele>310.5</ele><time>2026-04-04T13:05:51.647Z</time></trkpt><trkpt lat="43.3667546" lon="10.7263098"><ele>309.25</ele><time>2026-04-04T13:05:52.646Z</time></trkpt><trkpt lat="43.3669074" lon="10.7263485"><ele>308.0</ele><time>2026-04-04T13:05:53.645Z</time></trkpt><trkpt lat="43.3670706" lon="10.7263518"><ele>308.0</ele><time>2026-04-04T13:05:54.641Z</time></trkpt><trkpt lat="43.3672016" lon="10.7263711"><ele>308.0</ele><time>2026-04-04T13:05:55.645Z</time></trkpt><trkpt lat="43.3672981" lon="10.7263629"><ele>308.0</ele><time>2026-04-04T13:05:56.648Z</time></trkpt><trkpt lat="43.3674008" lon="10.7262982"><ele>308.0</ele><time>2026-04-04T13:05:57.643Z</time></trkpt><trkpt lat="43.3674886" lon="10.7261669"><ele>312.75</ele><time>2026-04-04T13:05:58.647Z</time></trkpt><trkpt lat="43.3675851" lon="10.7260424"><ele>317.5</ele><time>2026-04-04T13:05:59.645Z</time></trkpt><trkpt lat="43.3677126" lon="10.7259442"><ele>322.25</ele><time>2026-04-04T13:06:00.641Z</time></trkpt><trkpt lat="43.3677893" lon="10.7257987"><ele>327.0</ele><time>2026-04-04T13:06:01.645Z</time></trkpt><trkpt lat="43.3678495" lon="10.7256297"><ele>327.0</ele><time>2026-04-04T13:06:02.631Z</time></trkpt><trkpt lat="43.3679224" lon="10.7254431"><ele>327.0</ele><time>2026-04-04T13:06:03.647Z</time></trkpt><trkpt lat="43.3680137" lon="10.725268"><ele>327.0</ele><time>2026-04-04T13:06:04.636Z</time></trkpt><trkpt lat="43.3680885" lon="10.7250829"><ele>327.25</ele><time>2026-04-04T13:06:05.636Z</time></trkpt><trkpt lat="43.3681876" lon="10.7249345"><ele>327.5</ele><time>2026-04-04T13:06:06.641Z</time></trkpt><trkpt lat="43.36829" lon="10.7248188"><ele>327.75</ele><time>2026-04-04T13:06:07.638Z</time></trkpt><trkpt lat="43.3683448" lon="10.7246775"><ele>328.0</ele><time>2026-04-04T13:06:08.643Z</time></trkpt><trkpt lat="43.3683552" lon="10.7244917"><ele>330.75</ele><time>2026-04-04T13:06:09.648Z</time></trkpt><trkpt lat="43.3683848" lon="10.7242927"><ele>333.5</ele><time>2026-04-04T13:06:10.645Z</time></trkpt><trkpt lat="43.3683548" lon="10.7240987"><ele>336.25</ele><time>2026-04-04T13:06:11.653Z</time></trkpt><trkpt lat="43.3683587" lon="10.723972"><ele>339.0</ele><time>2026-04-04T13:06:12.643Z</time></trkpt><trkpt lat="43.3683814" lon="10.7238584"><ele>339.0</ele><time>2026-04-04T13:06:13.643Z</time></trkpt><trkpt lat="43.3684747" lon="10.7237959"><ele>339.0</ele><time>2026-04-04T13:06:14.64Z</time></trkpt><trkpt lat="43.3685942" lon="10.7237489"><ele>339.0</ele><time>2026-04-04T13:06:15.647Z</time></trkpt><trkpt lat="43.3687378" lon="10.7236971"><ele>339.0</ele><time>2026-04-04T13:06:16.638Z</time></trkpt><trkpt lat="43.3689276" lon="10.7236349"><ele>341.6666666666667</ele><time>2026-04-04T13:06:17.631Z</time></trkpt><trkpt lat="43.3691389" lon="10.7235688"><ele>344.33333333333337</ele><time>2026-04-04T13:06:18.639Z</time></trkpt><trkpt lat="43.3693286" lon="10.7235109"><ele>347.0</ele><time>2026-04-04T13:06:19.646Z</time></trkpt><trkpt lat="43.3695024" lon="10.7234628"><ele>347.0</ele><time>2026-04-04T13:06:20.638Z</time></trkpt><trkpt lat="43.3696592" lon="10.7234028"><ele>347.0</ele><time>2026-04-04T13:06:21.648Z</time></trkpt><trkpt lat="43.3697609" lon="10.7233942"><ele>347.0</ele><time>2026-04-04T13:06:22.644Z</time></trkpt><trkpt lat="43.3698342" lon="10.7233368"><ele>347.0</ele><time>2026-04-04T13:06:23.647Z</time></trkpt><trkpt lat="43.3699199" lon="10.7232596"><ele>344.0</ele><time>2026-04-04T13:06:24.645Z</time></trkpt><trkpt lat="43.3700039" lon="10.7231032"><ele>341.0</ele><time>2026-04-04T13:06:25.648Z</time></trkpt><trkpt lat="43.3700689" lon="10.7229121"><ele>338.0</ele><time>2026-04-04T13:06:26.646Z</time></trkpt><trkpt lat="43.3701562" lon="10.7227201"><ele>344.33333333333337</ele><time>2026-04-04T13:06:27.643Z</time></trkpt><trkpt lat="43.3702432" lon="10.7225089"><ele>350.6666666666667</ele><time>2026-04-04T13:06:28.648Z</time></trkpt><trkpt lat="43.3703183" lon="10.7222776"><ele>357.0</ele><time>2026-04-04T13:06:29.647Z</time></trkpt><trkpt lat="43.3704177" lon="10.722116"><ele>357.0</ele><time>2026-04-04T13:06:30.638Z</time></trkpt><trkpt lat="43.3704757" lon="10.7219767"><ele>357.0</ele><time>2026-04-04T13:06:31.635Z</time></trkpt><trkpt lat="43.3705694" lon="10.7218415"><ele>357.0</ele><time>2026-04-04T13:06:32.638Z</time></trkpt><trkpt lat="43.370683" lon="10.7218088"><ele>357.0</ele><time>2026-04-04T13:06:33.634Z</time></trkpt><trkpt lat="43.3708262" lon="10.7217658"><ele>358.3333333333333</ele><time>2026-04-04T13:06:34.621Z</time></trkpt><trkpt lat="43.3709808" lon="10.7217269"><ele>359.66666666666663</ele><time>2026-04-04T13:06:35.633Z</time></trkpt><trkpt lat="43.371171" lon="10.7217128"><ele>361.0</ele><time>2026-04-04T13:06:36.631Z</time></trkpt><trkpt lat="43.3713181" lon="10.7216746"><ele>359.75</ele><time>2026-04-04T13:06:37.632Z</time></trkpt><trkpt lat="43.3714482" lon="10.721615"><ele>358.5</ele><time>2026-04-04T13:06:38.639Z</time></trkpt><trkpt lat="43.3715546" lon="10.7215337"><ele>357.25</ele><time>2026-04-04T13:06:39.632Z</time></trkpt><trkpt lat="43.3716056" lon="10.7213868"><ele>356.0</ele><time>2026-04-04T13:06:40.636Z</time></trkpt><trkpt lat="43.3716267" lon="10.7212668"><ele>356.0</ele><time>2026-04-04T13:06:41.639Z</time></trkpt><trkpt lat="43.3716548" lon="10.7211151"><ele>356.0</ele><time>2026-04-04T13:06:42.631Z</time></trkpt><trkpt lat="43.3716578" lon="10.7209375"><ele>356.0</ele><time>2026-04-04T13:06:43.646Z</time></trkpt><trkpt lat="43.3716461" lon="10.7207212"><ele>356.0</ele><time>2026-04-04T13:06:44.645Z</time></trkpt><trkpt lat="43.3716234" lon="10.7205105"><ele>357.6</ele><time>2026-04-04T13:06:45.649Z</time></trkpt><trkpt lat="43.3716469" lon="10.7203504"><ele>359.20000000000005</ele><time>2026-04-04T13:06:46.642Z</time></trkpt><trkpt lat="43.3716773" lon="10.7201976"><ele>360.79999999999995</ele><time>2026-04-04T13:06:47.641Z</time></trkpt><trkpt lat="43.371757" lon="10.720089"><ele>362.4</ele><time>2026-04-04T13:06:48.634Z</time></trkpt><trkpt lat="43.3718471" lon="10.7200418"><ele>364.0</ele><time>2026-04-04T13:06:49.637Z</time></trkpt><trkpt lat="43.3719524" lon="10.7200642"><ele>364.25</ele><time>2026-04-04T13:06:50.629Z</time></trkpt><trkpt lat="43.3720515" lon="10.7201075"><ele>364.5</ele><time>2026-04-04T13:06:51.647Z</time></trkpt><trkpt lat="43.3721418" lon="10.7201866"><ele>364.75</ele><time>2026-04-04T13:06:52.647Z</time></trkpt><trkpt lat="43.3722408" lon="10.7202826"><ele>365.0</ele><time>2026-04-04T13:06:53.641Z</time></trkpt><trkpt lat="43.3723569" lon="10.7203995"><ele>365.0</ele><time>2026-04-04T13:06:54.635Z</time></trkpt><trkpt lat="43.3724778" lon="10.7205294"><ele>365.0</ele><time>2026-04-04T13:06:55.633Z</time></trkpt><trkpt lat="43.3726463" lon="10.7206779"><ele>365.0</ele><time>2026-04-04T13:06:56.641Z</time></trkpt><trkpt lat="43.3727927" lon="10.7208194"><ele>365.0</ele><time>2026-04-04T13:06:57.638Z</time></trkpt><trkpt lat="43.3729399" lon="10.7209317"><ele>365.0</ele><time>2026-04-04T13:06:58.639Z</time></trkpt><trkpt lat="43.3730616" lon="10.7209905"><ele>365.0</ele><time>2026-04-04T13:06:59.643Z</time></trkpt><trkpt lat="43.3732044" lon="10.7210162"><ele>365.0</ele><time>2026-04-04T13:07:00.644Z</time></trkpt><trkpt lat="43.3733281" lon="10.720951"><ele>366.33333333333337</ele><time>2026-04-04T13:07:01.639Z</time></trkpt><trkpt lat="43.3734413" lon="10.7208729"><ele>367.6666666666667</ele><time>2026-04-04T13:07:02.653Z</time></trkpt><trkpt lat="43.3735703" lon="10.7207503"><ele>369.0</ele><time>2026-04-04T13:07:03.656Z</time></trkpt><trkpt lat="43.3737354" lon="10.7205944"><ele>368.3333333333333</ele><time>2026-04-04T13:07:04.649Z</time></trkpt><trkpt lat="43.3738951" lon="10.7204821"><ele>367.66666666666663</ele><time>2026-04-04T13:07:05.65Z</time></trkpt><trkpt lat="43.3740679" lon="10.7203838"><ele>367.0</ele><time>2026-04-04T13:07:06.657Z</time></trkpt><trkpt lat="43.374246" lon="10.7202778"><ele>367.3333333333333</ele><time>2026-04-04T13:07:07.667Z</time></trkpt><trkpt lat="43.3744235" lon="10.7201802"><ele>367.6666666666667</ele><time>2026-04-04T13:07:08.663Z</time></trkpt><trkpt lat="43.3745984" lon="10.7201102"><ele>368.0</ele><time>2026-04-04T13:07:09.658Z</time></trkpt><trkpt lat="43.3747427" lon="10.7200085"><ele>369.75</ele><time>2026-04-04T13:07:10.666Z</time></trkpt><trkpt lat="43.3748905" lon="10.719938"><ele>371.5</ele><time>2026-04-04T13:07:11.66Z</time></trkpt><trkpt lat="43.3750263" lon="10.7198759"><ele>373.25</ele><time>2026-04-04T13:07:12.661Z</time></trkpt><trkpt lat="43.3751669" lon="10.7198403"><ele>375.0</ele><time>2026-04-04T13:07:13.659Z</time></trkpt><trkpt lat="43.3753098" lon="10.7197947"><ele>375.0</ele><time>2026-04-04T13:07:14.659Z</time></trkpt><trkpt lat="43.3754517" lon="10.7197806"><ele>375.0</ele><time>2026-04-04T13:07:15.667Z</time></trkpt><trkpt lat="43.3756121" lon="10.7197534"><ele>375.0</ele><time>2026-04-04T13:07:16.654Z</time></trkpt><trkpt lat="43.375763" lon="10.7197574"><ele>376.0</ele><time>2026-04-04T13:07:17.658Z</time></trkpt><trkpt lat="43.3759134" lon="10.7197878"><ele>377.0</ele><time>2026-04-04T13:07:18.659Z</time></trkpt><trkpt lat="43.3760633" lon="10.7198136"><ele>378.0</ele><time>2026-04-04T13:07:19.665Z</time></trkpt><trkpt lat="43.3762298" lon="10.719865"><ele>379.6666666666667</ele><time>2026-04-04T13:07:21.735Z</time></trkpt><trkpt lat="43.3764029" lon="10.7199203"><ele>381.33333333333337</ele><time>2026-04-04T13:07:22.737Z</time></trkpt><trkpt lat="43.3765841" lon="10.7199751"><ele>383.0</ele><time>2026-04-04T13:07:23.738Z</time></trkpt><trkpt lat="43.3767737" lon="10.7200285"><ele>383.0</ele><time>2026-04-04T13:07:24.744Z</time></trkpt><trkpt lat="43.3769634" lon="10.7200783"><ele>383.0</ele><time>2026-04-04T13:07:25.733Z</time></trkpt><trkpt lat="43.377141" lon="10.7201253"><ele>383.0</ele><time>2026-04-04T13:07:26.727Z</time></trkpt><trkpt lat="43.3773028" lon="10.7201784"><ele>384.25</ele><time>2026-04-04T13:07:27.723Z</time></trkpt><trkpt lat="43.3774268" lon="10.7202567"><ele>385.5</ele><time>2026-04-04T13:07:28.714Z</time></trkpt><trkpt lat="43.3775346" lon="10.7203698"><ele>386.75</ele><time>2026-04-04T13:07:29.703Z</time></trkpt><trkpt lat="43.3776457" lon="10.7204994"><ele>388.0</ele><time>2026-04-04T13:07:30.705Z</time></trkpt><trkpt lat="43.3777549" lon="10.72062"><ele>388.0</ele><time>2026-04-04T13:07:31.707Z</time></trkpt><trkpt lat="43.3778311" lon="10.7207293"><ele>388.0</ele><time>2026-04-04T13:07:32.7Z</time></trkpt><trkpt lat="43.3779093" lon="10.7208454"><ele>388.0</ele><time>2026-04-04T13:07:33.714Z</time></trkpt><trkpt lat="43.3779924" lon="10.720973"><ele>388.0</ele><time>2026-04-04T13:07:34.71Z</time></trkpt><trkpt lat="43.3780682" lon="10.7211127"><ele>388.79999999999995</ele><time>2026-04-04T13:07:35.704Z</time></trkpt><trkpt lat="43.378131" lon="10.7212359"><ele>389.6</ele><time>2026-04-04T13:07:36.706Z</time></trkpt><trkpt lat="43.3781948" lon="10.721342"><ele>390.4</ele><time>2026-04-04T13:07:37.705Z</time></trkpt><trkpt lat="43.3782634" lon="10.7214189"><ele>391.20000000000005</ele><time>2026-04-04T13:07:38.709Z</time></trkpt><trkpt lat="43.3783438" lon="10.7214567"><ele>392.0</ele><time>2026-04-04T13:07:39.718Z</time></trkpt><trkpt lat="43.3784566" lon="10.7214913"><ele>392.0</ele><time>2026-04-04T13:07:40.714Z</time></trkpt><trkpt lat="43.3785555" lon="10.7214596"><ele>392.0</ele><time>2026-04-04T13:07:41.715Z</time></trkpt><trkpt lat="43.3786836" lon="10.7212937"><ele>392.0</ele><time>2026-04-04T13:07:42.632Z</time></trkpt><trkpt lat="43.3787348" lon="10.7212126"><ele>392.0</ele><time>2026-04-04T13:07:43.631Z</time></trkpt><trkpt lat="43.3788054" lon="10.7211938"><ele>392.0</ele><time>2026-04-04T13:07:44.629Z</time></trkpt><trkpt lat="43.3788885" lon="10.7212273"><ele>392.6</ele><time>2026-04-04T13:07:45.645Z</time></trkpt><trkpt lat="43.3789667" lon="10.7212771"><ele>393.20000000000005</ele><time>2026-04-04T13:07:46.638Z</time></trkpt><trkpt lat="43.3790519" lon="10.7213387"><ele>393.8</ele><time>2026-04-04T13:07:47.633Z</time></trkpt><trkpt lat="43.3791693" lon="10.7213939"><ele>394.4</ele><time>2026-04-04T13:07:48.634Z</time></trkpt><trkpt lat="43.3792986" lon="10.7214417"><ele>395.0</ele><time>2026-04-04T13:07:49.631Z</time></trkpt><trkpt lat="43.3794276" lon="10.7214981"><ele>395.0</ele><time>2026-04-04T13:07:50.635Z</time></trkpt><trkpt lat="43.3795584" lon="10.7215766"><ele>395.0</ele><time>2026-04-04T13:07:51.637Z</time></trkpt><trkpt lat="43.3796886" lon="10.7216567"><ele>395.0</ele><time>2026-04-04T13:07:52.635Z</time></trkpt><trkpt lat="43.3798432" lon="10.7217312"><ele>395.0</ele><time>2026-04-04T13:07:53.64Z</time></trkpt><trkpt lat="43.3799543" lon="10.7217702"><ele>396.5</ele><time>2026-04-04T13:07:54.629Z</time></trkpt><trkpt lat="43.3800902" lon="10.7217897"><ele>398.0</ele><time>2026-04-04T13:07:55.63Z</time></trkpt><trkpt lat="43.380216" lon="10.7217529"><ele>399.5</ele><time>2026-04-04T13:07:56.64Z</time></trkpt><trkpt lat="43.3803485" lon="10.7217155"><ele>401.0</ele><time>2026-04-04T13:07:57.645Z</time></trkpt><trkpt lat="43.3804668" lon="10.7217269"><ele>400.75</ele><time>2026-04-04T13:07:58.649Z</time></trkpt><trkpt lat="43.3806051" lon="10.7216998"><ele>400.5</ele><time>2026-04-04T13:07:59.649Z</time></trkpt><trkpt lat="43.3807547" lon="10.7216797"><ele>400.25</ele><time>2026-04-04T13:08:00.649Z</time></trkpt><trkpt lat="43.380905" lon="10.7216509"><ele>400.0</ele><time>2026-04-04T13:08:01.64Z</time></trkpt><trkpt lat="43.3810515" lon="10.7216192"><ele>400.0</ele><time>2026-04-04T13:08:02.644Z</time></trkpt><trkpt lat="43.3811879" lon="10.7215428"><ele>400.0</ele><time>2026-04-04T13:08:03.638Z</time></trkpt><trkpt lat="43.3812916" lon="10.7214701"><ele>400.0</ele><time>2026-04-04T13:08:04.643Z</time></trkpt><trkpt lat="43.3813909" lon="10.7214145"><ele>400.0</ele><time>2026-04-04T13:08:05.648Z</time></trkpt><trkpt lat="43.3814837" lon="10.7214029"><ele>398.4</ele><time>2026-04-04T13:08:06.645Z</time></trkpt><trkpt lat="43.3815576" lon="10.7213931"><ele>396.8</ele><time>2026-04-04T13:08:07.647Z</time></trkpt><trkpt lat="43.3816543" lon="10.7214399"><ele>395.20000000000005</ele><time>2026-04-04T13:08:08.646Z</time></trkpt><trkpt lat="43.3817436" lon="10.7214724"><ele>393.6</ele><time>2026-04-04T13:08:09.647Z</time></trkpt><trkpt lat="43.381851" lon="10.7215086"><ele>392.0</ele><time>2026-04-04T13:08:10.65Z</time></trkpt><trkpt lat="43.3819426" lon="10.7215166"><ele>392.0</ele><time>2026-04-04T13:08:11.655Z</time></trkpt><trkpt lat="43.3820564" lon="10.7215489"><ele>392.0</ele><time>2026-04-04T13:08:12.646Z</time></trkpt><trkpt lat="43.3821609" lon="10.7215901"><ele>392.0</ele><time>2026-04-04T13:08:13.655Z</time></trkpt><trkpt lat="43.3822651" lon="10.7216477"><ele>392.0</ele><time>2026-04-04T13:08:14.649Z</time></trkpt><trkpt lat="43.3823523" lon="10.7217192"><ele>392.0</ele><time>2026-04-04T13:08:15.654Z</time></trkpt><trkpt lat="43.382429" lon="10.72181"><ele>391.25</ele><time>2026-04-04T13:08:16.643Z</time></trkpt><trkpt lat="43.3824965" lon="10.7219253"><ele>390.5</ele><time>2026-04-04T13:08:17.656Z</time></trkpt><trkpt lat="43.3825502" lon="10.7220657"><ele>389.75</ele><time>2026-04-04T13:08:18.652Z</time></trkpt><trkpt lat="43.3825924" lon="10.7222112"><ele>389.0</ele><time>2026-04-04T13:08:19.653Z</time></trkpt><trkpt lat="43.3826397" lon="10.7223526"><ele>389.0</ele><time>2026-04-04T13:08:20.65Z</time></trkpt><trkpt lat="43.3826944" lon="10.7224887"><ele>389.0</ele><time>2026-04-04T13:08:21.647Z</time></trkpt><trkpt lat="43.3827643" lon="10.7225992"><ele>389.0</ele><time>2026-04-04T13:08:22.65Z</time></trkpt><trkpt lat="43.3828537" lon="10.7226826"><ele>389.0</ele><time>2026-04-04T13:08:23.647Z</time></trkpt><trkpt lat="43.3829628" lon="10.7227365"><ele>389.0</ele><time>2026-04-04T13:08:24.642Z</time></trkpt><trkpt lat="43.3830772" lon="10.7227622"><ele>388.75</ele><time>2026-04-04T13:08:25.653Z</time></trkpt><trkpt lat="43.3832105" lon="10.7227819"><ele>388.5</ele><time>2026-04-04T13:08:26.644Z</time></trkpt><trkpt lat="43.383357" lon="10.7228227"><ele>388.25</ele><time>2026-04-04T13:08:27.647Z</time></trkpt><trkpt lat="43.3834872" lon="10.7228944"><ele>388.0</ele><time>2026-04-04T13:08:28.65Z</time></trkpt><trkpt lat="43.3836057" lon="10.7229826"><ele>388.0</ele><time>2026-04-04T13:08:29.649Z</time></trkpt><trkpt lat="43.3837252" lon="10.7230686"><ele>388.0</ele><time>2026-04-04T13:08:30.656Z</time></trkpt><trkpt lat="43.3838118" lon="10.7231315"><ele>388.0</ele><time>2026-04-04T13:08:31.646Z</time></trkpt><trkpt lat="43.3838973" lon="10.7231778"><ele>388.0</ele><time>2026-04-04T13:08:32.655Z</time></trkpt><trkpt lat="43.3839865" lon="10.7232034"><ele>388.0</ele><time>2026-04-04T13:08:33.649Z</time></trkpt><trkpt lat="43.3841009" lon="10.7232184"><ele>388.50000000000006</ele><time>2026-04-04T13:08:34.655Z</time></trkpt><trkpt lat="43.3842003" lon="10.7232328"><ele>389.0</ele><time>2026-04-04T13:08:35.65Z</time></trkpt><trkpt lat="43.3842792" lon="10.7232762"><ele>389.5</ele><time>2026-04-04T13:08:36.657Z</time></trkpt><trkpt lat="43.3843495" lon="10.7233192"><ele>390.0</ele><time>2026-04-04T13:08:37.648Z</time></trkpt><trkpt lat="43.3844135" lon="10.7233817"><ele>390.50000000000006</ele><time>2026-04-04T13:08:38.655Z</time></trkpt><trkpt lat="43.3844555" lon="10.7234757"><ele>391.0</ele><time>2026-04-04T13:08:39.647Z</time></trkpt><trkpt lat="43.3844891" lon="10.7235871"><ele>391.0</ele><time>2026-04-04T13:08:40.649Z</time></trkpt><trkpt lat="43.3845202" lon="10.7237139"><ele>391.0</ele><time>2026-04-04T13:08:41.65Z</time></trkpt><trkpt lat="43.3845291" lon="10.7238614"><ele>391.0</ele><time>2026-04-04T13:08:42.649Z</time></trkpt><trkpt lat="43.3845341" lon="10.7240005"><ele>391.0</ele><time>2026-04-04T13:08:43.651Z</time></trkpt><trkpt lat="43.3845501" lon="10.7241185"><ele>391.0</ele><time>2026-04-04T13:08:44.653Z</time></trkpt><trkpt lat="43.3845831" lon="10.7242186"><ele>391.0</ele><time>2026-04-04T13:08:45.658Z</time></trkpt><trkpt lat="43.3846312" lon="10.7243129"><ele>391.0</ele><time>2026-04-04T13:08:46.658Z</time></trkpt><trkpt lat="43.3846891" lon="10.7244112"><ele>391.0</ele><time>2026-04-04T13:08:47.651Z</time></trkpt><trkpt lat="43.3847631" lon="10.7245146"><ele>391.0</ele><time>2026-04-04T13:08:48.655Z</time></trkpt><trkpt lat="43.384846" lon="10.7246151"><ele>391.0</ele><time>2026-04-04T13:08:49.649Z</time></trkpt><trkpt lat="43.3849322" lon="10.7247083"><ele>391.6</ele><time>2026-04-04T13:08:50.654Z</time></trkpt><trkpt lat="43.3850021" lon="10.7248155"><ele>392.20000000000005</ele><time>2026-04-04T13:08:51.64Z</time></trkpt><trkpt lat="43.3850475" lon="10.7249621"><ele>392.79999999999995</ele><time>2026-04-04T13:08:52.644Z</time></trkpt><trkpt lat="43.3850743" lon="10.7251145"><ele>393.4</ele><time>2026-04-04T13:08:53.641Z</time></trkpt><trkpt lat="43.385084" lon="10.7252448"><ele>394.0</ele><time>2026-04-04T13:08:54.643Z</time></trkpt><trkpt lat="43.3850951" lon="10.725344"><ele>394.0</ele><time>2026-04-04T13:08:55.646Z</time></trkpt><trkpt lat="43.3851664" lon="10.7254588"><ele>394.0</ele><time>2026-04-04T13:08:57.644Z</time></trkpt><trkpt lat="43.3852341" lon="10.7255083"><ele>394.0</ele><time>2026-04-04T13:08:58.65Z</time></trkpt><trkpt lat="43.3853135" lon="10.7255576"><ele>394.0</ele><time>2026-04-04T13:08:59.65Z</time></trkpt><trkpt lat="43.3854163" lon="10.7256222"><ele>394.0</ele><time>2026-04-04T13:09:00.653Z</time></trkpt><trkpt lat="43.3855199" lon="10.7256844"><ele>396.1666666666667</ele><time>2026-04-04T13:09:01.653Z</time></trkpt><trkpt lat="43.3856138" lon="10.7257414"><ele>398.33333333333337</ele><time>2026-04-04T13:09:02.649Z</time></trkpt><trkpt lat="43.3856982" lon="10.7257921"><ele>400.5</ele><time>2026-04-04T13:09:03.66Z</time></trkpt><trkpt lat="43.3857713" lon="10.7258367"><ele>402.66666666666663</ele><time>2026-04-04T13:09:04.65Z</time></trkpt><trkpt lat="43.3858344" lon="10.7258805"><ele>404.8333333333333</ele><time>2026-04-04T13:09:05.655Z</time></trkpt><trkpt lat="43.3858897" lon="10.7259359"><ele>407.0</ele><time>2026-04-04T13:09:06.652Z</time></trkpt><trkpt lat="43.3859389" lon="10.7260103"><ele>407.3333333333333</ele><time>2026-04-04T13:09:07.658Z</time></trkpt><trkpt lat="43.3859646" lon="10.7260932"><ele>407.66666666666663</ele><time>2026-04-04T13:09:08.65Z</time></trkpt><trkpt lat="43.3859612" lon="10.7261858"><ele>408.0</ele><time>2026-04-04T13:09:09.646Z</time></trkpt><trkpt lat="43.3859409" lon="10.7262947"><ele>408.33333333333337</ele><time>2026-04-04T13:09:10.649Z</time></trkpt><trkpt lat="43.3858734" lon="10.7264007"><ele>408.6666666666667</ele><time>2026-04-04T13:09:11.646Z</time></trkpt><trkpt lat="43.3857875" lon="10.7265005"><ele>409.0</ele><time>2026-04-04T13:09:12.651Z</time></trkpt><trkpt lat="43.3857038" lon="10.726577"><ele>409.0</ele><time>2026-04-04T13:09:13.638Z</time></trkpt><trkpt lat="43.3856447" lon="10.7266688"><ele>409.0</ele><time>2026-04-04T13:09:14.633Z</time></trkpt><trkpt lat="43.3856128" lon="10.7267929"><ele>409.0</ele><time>2026-04-04T13:09:15.645Z</time></trkpt><trkpt lat="43.3856017" lon="10.7269513"><ele>409.0</ele><time>2026-04-04T13:09:16.631Z</time></trkpt><trkpt lat="43.3855935" lon="10.7271311"><ele>409.0</ele><time>2026-04-04T13:09:17.64Z</time></trkpt><trkpt lat="43.3855947" lon="10.7273239"><ele>411.0</ele><time>2026-04-04T13:09:18.642Z</time></trkpt><trkpt lat="43.3855836" lon="10.7275136"><ele>413.0</ele><time>2026-04-04T13:09:19.642Z</time></trkpt><trkpt lat="43.3855417" lon="10.7276931"><ele>415.0</ele><time>2026-04-04T13:09:20.643Z</time></trkpt><trkpt lat="43.385493" lon="10.7278526"><ele>417.0</ele><time>2026-04-04T13:09:21.643Z</time></trkpt><trkpt lat="43.3854372" lon="10.7280026"><ele>413.25</ele><time>2026-04-04T13:09:22.647Z</time></trkpt><trkpt lat="43.3853896" lon="10.7281547"><ele>409.5</ele><time>2026-04-04T13:09:23.646Z</time></trkpt><trkpt lat="43.385348" lon="10.7283082"><ele>405.75</ele><time>2026-04-04T13:09:24.642Z</time></trkpt><trkpt lat="43.3853377" lon="10.7284523"><ele>402.0</ele><time>2026-04-04T13:09:25.651Z</time></trkpt><trkpt lat="43.3853493" lon="10.7285965"><ele>402.0</ele><time>2026-04-04T13:09:26.651Z</time></trkpt><trkpt lat="43.3853879" lon="10.7287412"><ele>402.0</ele><time>2026-04-04T13:09:27.647Z</time></trkpt><trkpt lat="43.3854562" lon="10.7288825"><ele>402.0</ele><time>2026-04-04T13:09:28.647Z</time></trkpt><trkpt lat="43.3855335" lon="10.7290166"><ele>402.0</ele><time>2026-04-04T13:09:29.645Z</time></trkpt><trkpt lat="43.3856036" lon="10.729139"><ele>402.40000000000003</ele><time>2026-04-04T13:09:30.648Z</time></trkpt><trkpt lat="43.385641" lon="10.7292599"><ele>402.8</ele><time>2026-04-04T13:09:31.645Z</time></trkpt><trkpt lat="43.3856473" lon="10.7293917"><ele>403.2</ele><time>2026-04-04T13:09:32.638Z</time></trkpt><trkpt lat="43.3856097" lon="10.7295328"><ele>403.6</ele><time>2026-04-04T13:09:33.645Z</time></trkpt><trkpt lat="43.3855452" lon="10.7296626"><ele>404.0</ele><time>2026-04-04T13:09:34.644Z</time></trkpt><trkpt lat="43.3854891" lon="10.7297832"><ele>404.0</ele><time>2026-04-04T13:09:35.654Z</time></trkpt><trkpt lat="43.3854478" lon="10.7299158"><ele>404.0</ele><time>2026-04-04T13:09:36.646Z</time></trkpt><trkpt lat="43.3854222" lon="10.7300581"><ele>404.0</ele><time>2026-04-04T13:09:37.642Z</time></trkpt><trkpt lat="43.3854242" lon="10.7301901"><ele>404.0</ele><time>2026-04-04T13:09:38.644Z</time></trkpt><trkpt lat="43.3854535" lon="10.7303379"><ele>404.0</ele><time>2026-04-04T13:09:39.645Z</time></trkpt><trkpt lat="43.3854977" lon="10.7305042"><ele>408.66666666666663</ele><time>2026-04-04T13:09:40.649Z</time></trkpt><trkpt lat="43.3855344" lon="10.7306921"><ele>413.33333333333337</ele><time>2026-04-04T13:09:41.649Z</time></trkpt><trkpt lat="43.3855708" lon="10.7309144"><ele>418.0</ele><time>2026-04-04T13:09:42.649Z</time></trkpt><trkpt lat="43.3856165" lon="10.7311187"><ele>418.0</ele><time>2026-04-04T13:09:43.636Z</time></trkpt><trkpt lat="43.3856496" lon="10.7313068"><ele>418.0</ele><time>2026-04-04T13:09:44.634Z</time></trkpt><trkpt lat="43.3857095" lon="10.7314945"><ele>418.0</ele><time>2026-04-04T13:09:45.647Z</time></trkpt><trkpt lat="43.3858137" lon="10.731704"><ele>418.0</ele><time>2026-04-04T13:09:46.643Z</time></trkpt><trkpt lat="43.385908" lon="10.7318981"><ele>418.0</ele><time>2026-04-04T13:09:47.634Z</time></trkpt><trkpt lat="43.3859648" lon="10.7321014"><ele>418.0</ele><time>2026-04-04T13:09:48.634Z</time></trkpt><trkpt lat="43.3859955" lon="10.7323064"><ele>418.0</ele><time>2026-04-04T13:09:49.636Z</time></trkpt><trkpt lat="43.3860239" lon="10.7324994"><ele>418.0</ele><time>2026-04-04T13:09:50.636Z</time></trkpt><trkpt lat="43.386045" lon="10.732654"><ele>418.0</ele><time>2026-04-04T13:09:51.637Z</time></trkpt><trkpt lat="43.3860598" lon="10.7328211"><ele>418.0</ele><time>2026-04-04T13:09:52.626Z</time></trkpt><trkpt lat="43.3860458" lon="10.73299"><ele>418.5</ele><time>2026-04-04T13:09:53.629Z</time></trkpt><trkpt lat="43.3860181" lon="10.7331925"><ele>419.0</ele><time>2026-04-04T13:09:54.624Z</time></trkpt><trkpt lat="43.3860005" lon="10.7334016"><ele>419.5</ele><time>2026-04-04T13:09:55.622Z</time></trkpt><trkpt lat="43.3859972" lon="10.7335999"><ele>420.0</ele><time>2026-04-04T13:09:56.625Z</time></trkpt><trkpt lat="43.3860146" lon="10.7337963"><ele>420.75</ele><time>2026-04-04T13:09:57.63Z</time></trkpt><trkpt lat="43.3860568" lon="10.7339288"><ele>421.5</ele><time>2026-04-04T13:09:58.627Z</time></trkpt><trkpt lat="43.3861062" lon="10.7340989"><ele>422.25</ele><time>2026-04-04T13:09:59.63Z</time></trkpt><trkpt lat="43.3860918" lon="10.7342626"><ele>423.0</ele><time>2026-04-04T13:10:00.627Z</time></trkpt><trkpt lat="43.3860509" lon="10.7344348"><ele>427.0</ele><time>2026-04-04T13:10:01.618Z</time></trkpt><trkpt lat="43.3859925" lon="10.7346016"><ele>431.0</ele><time>2026-04-04T13:10:02.627Z</time></trkpt><trkpt lat="43.3858818" lon="10.7347632"><ele>435.0</ele><time>2026-04-04T13:10:03.632Z</time></trkpt><trkpt lat="43.3857748" lon="10.7349587"><ele>435.0</ele><time>2026-04-04T13:10:04.642Z</time></trkpt><trkpt lat="43.3856474" lon="10.7351264"><ele>435.0</ele><time>2026-04-04T13:10:05.631Z</time></trkpt><trkpt lat="43.3855033" lon="10.7352669"><ele>435.0</ele><time>2026-04-04T13:10:06.639Z</time></trkpt><trkpt lat="43.3853639" lon="10.7353971"><ele>433.5</ele><time>2026-04-04T13:10:07.64Z</time></trkpt><trkpt lat="43.3852653" lon="10.7355017"><ele>432.0</ele><time>2026-04-04T13:10:08.635Z</time></trkpt><trkpt lat="43.385205" lon="10.7356269"><ele>430.5</ele><time>2026-04-04T13:10:09.633Z</time></trkpt><trkpt lat="43.3851014" lon="10.7357382"><ele>429.0</ele><time>2026-04-04T13:10:10.635Z</time></trkpt><trkpt lat="43.3850574" lon="10.7358883"><ele>432.0</ele><time>2026-04-04T13:10:11.637Z</time></trkpt><trkpt lat="43.3849931" lon="10.7360549"><ele>435.0</ele><time>2026-04-04T13:10:12.637Z</time></trkpt><trkpt lat="43.3849567" lon="10.7362085"><ele>438.0</ele><time>2026-04-04T13:10:13.639Z</time></trkpt><trkpt lat="43.3849023" lon="10.7364022"><ele>441.0</ele><time>2026-04-04T13:10:14.636Z</time></trkpt><trkpt lat="43.3848592" lon="10.7365471"><ele>441.0</ele><time>2026-04-04T13:10:15.649Z</time></trkpt><trkpt lat="43.3848248" lon="10.7366904"><ele>441.0</ele><time>2026-04-04T13:10:16.633Z</time></trkpt><trkpt lat="43.3847951" lon="10.7368202"><ele>441.0</ele><time>2026-04-04T13:10:17.644Z</time></trkpt><trkpt lat="43.3847756" lon="10.736934"><ele>441.0</ele><time>2026-04-04T13:10:18.641Z</time></trkpt><trkpt lat="43.3847657" lon="10.7370385"><ele>441.0</ele><time>2026-04-04T13:10:19.649Z</time></trkpt><trkpt lat="43.3847683" lon="10.737145"><ele>441.0</ele><time>2026-04-04T13:10:20.647Z</time></trkpt><trkpt lat="43.3847778" lon="10.7372577"><ele>441.0</ele><time>2026-04-04T13:10:21.646Z</time></trkpt><trkpt lat="43.3847801" lon="10.7373708"><ele>441.0</ele><time>2026-04-04T13:10:22.65Z</time></trkpt><trkpt lat="43.3847762" lon="10.7374951"><ele>441.0</ele><time>2026-04-04T13:10:23.651Z</time></trkpt><trkpt lat="43.384782" lon="10.7376163"><ele>441.0</ele><time>2026-04-04T13:10:25.728Z</time></trkpt><trkpt lat="43.3847978" lon="10.7377505"><ele>441.0</ele><time>2026-04-04T13:10:26.728Z</time></trkpt><trkpt lat="43.384821" lon="10.7379017"><ele>441.0</ele><time>2026-04-04T13:10:27.725Z</time></trkpt><trkpt lat="43.3848482" lon="10.7380606"><ele>441.0</ele><time>2026-04-04T13:10:28.728Z</time></trkpt><trkpt lat="43.3848799" lon="10.7382192"><ele>441.0</ele><time>2026-04-04T13:10:29.717Z</time></trkpt><trkpt lat="43.3849139" lon="10.73839"><ele>441.0</ele><time>2026-04-04T13:10:30.725Z</time></trkpt><trkpt lat="43.3849453" lon="10.7385311"><ele>440.0</ele><time>2026-04-04T13:10:31.717Z</time></trkpt><trkpt lat="43.3850138" lon="10.738635"><ele>439.0</ele><time>2026-04-04T13:10:32.722Z</time></trkpt><trkpt lat="43.3850487" lon="10.7387299"><ele>438.0</ele><time>2026-04-04T13:10:33.715Z</time></trkpt><trkpt lat="43.3851403" lon="10.7388019"><ele>437.0</ele><time>2026-04-04T13:10:35.712Z</time></trkpt><trkpt lat="43.3852207" lon="10.7388131"><ele>436.0</ele><time>2026-04-04T13:10:37.703Z</time></trkpt><trkpt lat="43.3853269" lon="10.7387983"><ele>436.0</ele><time>2026-04-04T13:10:39.722Z</time></trkpt><trkpt lat="43.3854436" lon="10.7387225"><ele>436.0</ele><time>2026-04-04T13:10:40.716Z</time></trkpt><trkpt lat="43.3855442" lon="10.7386028"><ele>436.0</ele><time>2026-04-04T13:10:42.718Z</time></trkpt><trkpt lat="43.3856188" lon="10.7385032"><ele>436.0</ele><time>2026-04-04T13:10:43.711Z</time></trkpt><trkpt lat="43.3856758" lon="10.7384163"><ele>437.50000000000006</ele><time>2026-04-04T13:10:44.721Z</time></trkpt><trkpt lat="43.3857347" lon="10.7383495"><ele>439.0</ele><time>2026-04-04T13:10:45.725Z</time></trkpt><trkpt lat="43.3858233" lon="10.73826"><ele>440.5</ele><time>2026-04-04T13:10:46.716Z</time></trkpt><trkpt lat="43.385897" lon="10.738193"><ele>442.0</ele><time>2026-04-04T13:10:47.708Z</time></trkpt><trkpt lat="43.3859666" lon="10.7381402"><ele>443.50000000000006</ele><time>2026-04-04T13:10:48.712Z</time></trkpt><trkpt lat="43.3860358" lon="10.7381058"><ele>445.0</ele><time>2026-04-04T13:10:49.71Z</time></trkpt><trkpt lat="43.3861003" lon="10.738076"><ele>445.0</ele><time>2026-04-04T13:10:50.711Z</time></trkpt><trkpt lat="43.3861763" lon="10.7380369"><ele>445.0</ele><time>2026-04-04T13:10:51.731Z</time></trkpt><trkpt lat="43.3862495" lon="10.7379904"><ele>445.0</ele><time>2026-04-04T13:10:52.726Z</time></trkpt><trkpt lat="43.3863495" lon="10.7379263"><ele>445.0</ele><time>2026-04-04T13:10:53.734Z</time></trkpt><trkpt lat="43.3864479" lon="10.7378558"><ele>445.0</ele><time>2026-04-04T13:10:54.735Z</time></trkpt><trkpt lat="43.3865363" lon="10.7377768"><ele>447.0</ele><time>2026-04-04T13:10:55.734Z</time></trkpt><trkpt lat="43.3866328" lon="10.7376953"><ele>449.0</ele><time>2026-04-04T13:10:56.731Z</time></trkpt><trkpt lat="43.3867301" lon="10.7376073"><ele>451.0</ele><time>2026-04-04T13:10:57.734Z</time></trkpt><trkpt lat="43.3868353" lon="10.7375367"><ele>453.0</ele><time>2026-04-04T13:10:58.734Z</time></trkpt><trkpt lat="43.3869452" lon="10.73748"><ele>453.0</ele><time>2026-04-04T13:10:59.719Z</time></trkpt><trkpt lat="43.3870604" lon="10.7374212"><ele>453.0</ele><time>2026-04-04T13:11:00.715Z</time></trkpt><trkpt lat="43.3871781" lon="10.7373578"><ele>453.0</ele><time>2026-04-04T13:11:01.719Z</time></trkpt><trkpt lat="43.3872923" lon="10.7373012"><ele>453.0</ele><time>2026-04-04T13:11:02.712Z</time></trkpt><trkpt lat="43.3874035" lon="10.7372559"><ele>451.0</ele><time>2026-04-04T13:11:03.732Z</time></trkpt><trkpt lat="43.3875056" lon="10.7372345"><ele>448.99999999999994</ele><time>2026-04-04T13:11:04.732Z</time></trkpt><trkpt lat="43.3876114" lon="10.7372174"><ele>446.99999999999994</ele><time>2026-04-04T13:11:05.707Z</time></trkpt><trkpt lat="43.3877036" lon="10.737233"><ele>445.0</ele><time>2026-04-04T13:11:06.708Z</time></trkpt><trkpt lat="43.3877669" lon="10.7372831"><ele>443.0</ele><time>2026-04-04T13:11:07.712Z</time></trkpt><trkpt lat="43.3878373" lon="10.7373523"><ele>443.0</ele><time>2026-04-04T13:11:08.716Z</time></trkpt><trkpt lat="43.3879143" lon="10.7374412"><ele>443.0</ele><time>2026-04-04T13:11:09.732Z</time></trkpt><trkpt lat="43.3879992" lon="10.7375486"><ele>443.0</ele><time>2026-04-04T13:11:10.739Z</time></trkpt><trkpt lat="43.3880887" lon="10.7376667"><ele>443.0</ele><time>2026-04-04T13:11:11.732Z</time></trkpt><trkpt lat="43.3881834" lon="10.7377826"><ele>441.0</ele><time>2026-04-04T13:11:12.737Z</time></trkpt><trkpt lat="43.3882817" lon="10.7378942"><ele>439.0</ele><time>2026-04-04T13:11:13.729Z</time></trkpt><trkpt lat="43.3883792" lon="10.7380026"><ele>437.0</ele><time>2026-04-04T13:11:14.724Z</time></trkpt><trkpt lat="43.3884629" lon="10.7380968"><ele>435.0</ele><time>2026-04-04T13:11:15.731Z</time></trkpt><trkpt lat="43.3885316" lon="10.7381745"><ele>435.0</ele><time>2026-04-04T13:11:16.724Z</time></trkpt><trkpt lat="43.3885893" lon="10.7382302"><ele>435.0</ele><time>2026-04-04T13:11:17.726Z</time></trkpt><trkpt lat="43.3886773" lon="10.7382649"><ele>435.0</ele><time>2026-04-04T13:11:19.741Z</time></trkpt><trkpt lat="43.388743" lon="10.7382341"><ele>435.0</ele><time>2026-04-04T13:11:22.741Z</time></trkpt><trkpt lat="43.3888167" lon="10.7381967"><ele>435.0</ele><time>2026-04-04T13:12:01.743Z</time></trkpt><trkpt lat="43.3889064" lon="10.7382181"><ele>435.0</ele><time>2026-04-04T13:12:03.741Z</time></trkpt><trkpt lat="43.3889593" lon="10.7382919"><ele>437.6</ele><time>2026-04-04T13:12:05.715Z</time></trkpt><trkpt lat="43.3890803" lon="10.7383267"><ele>440.2</ele><time>2026-04-04T13:12:07.718Z</time></trkpt><trkpt lat="43.3891659" lon="10.7383585"><ele>442.79999999999995</ele><time>2026-04-04T13:12:08.73Z</time></trkpt><trkpt lat="43.3892526" lon="10.7383767"><ele>445.4</ele><time>2026-04-04T13:12:09.721Z</time></trkpt><trkpt lat="43.3893325" lon="10.7383775"><ele>448.0</ele><time>2026-04-04T13:12:10.718Z</time></trkpt><trkpt lat="43.3894137" lon="10.7383771"><ele>448.0</ele><time>2026-04-04T13:12:11.704Z</time></trkpt><trkpt lat="43.389496" lon="10.7383667"><ele>448.0</ele><time>2026-04-04T13:12:12.703Z</time></trkpt><trkpt lat="43.3895704" lon="10.7383402"><ele>448.0</ele><time>2026-04-04T13:12:13.704Z</time></trkpt><trkpt lat="43.3896442" lon="10.738315"><ele>448.0</ele><time>2026-04-04T13:12:14.705Z</time></trkpt><trkpt lat="43.3897179" lon="10.7382897"><ele>448.0</ele><time>2026-04-04T13:12:15.721Z</time></trkpt><trkpt lat="43.3897826" lon="10.7382706"><ele>448.0</ele><time>2026-04-04T13:12:16.721Z</time></trkpt><trkpt lat="43.3898522" lon="10.7382487"><ele>448.0</ele><time>2026-04-04T13:12:17.703Z</time></trkpt><trkpt lat="43.389922" lon="10.7382189"><ele>449.0</ele><time>2026-04-04T13:12:18.708Z</time></trkpt><trkpt lat="43.389994" lon="10.7381948"><ele>449.99999999999994</ele><time>2026-04-04T13:12:19.711Z</time></trkpt><trkpt lat="43.3900681" lon="10.7381814"><ele>450.99999999999994</ele><time>2026-04-04T13:12:20.705Z</time></trkpt><trkpt lat="43.3901792" lon="10.7381757"><ele>452.0</ele><time>2026-04-04T13:12:22.714Z</time></trkpt><trkpt lat="43.3902818" lon="10.738174"><ele>453.0</ele><time>2026-04-04T13:12:24.643Z</time></trkpt><trkpt lat="43.390302" lon="10.7382927"><ele>453.0</ele><time>2026-04-04T13:12:33.638Z</time></trkpt><trkpt lat="43.3903471" lon="10.7384288"><ele>452.99999999999994</ele><time>2026-04-04T13:12:35.629Z</time></trkpt><trkpt lat="43.3904084" lon="10.7384959"><ele>452.99999999999994</ele><time>2026-04-04T13:12:36.635Z</time></trkpt><trkpt lat="43.3904949" lon="10.7385085"><ele>453.0</ele><time>2026-04-04T13:12:37.629Z</time></trkpt><trkpt lat="43.3905842" lon="10.7385148"><ele>453.0</ele><time>2026-04-04T13:12:38.629Z</time></trkpt><trkpt lat="43.3906807" lon="10.738623"><ele>452.79999999999995</ele><time>2026-04-04T13:12:40.633Z</time></trkpt><trkpt lat="43.3907048" lon="10.7387265"><ele>452.59999999999997</ele><time>2026-04-04T13:12:41.638Z</time></trkpt><trkpt lat="43.3907307" lon="10.7388492"><ele>452.40000000000003</ele><time>2026-04-04T13:12:42.628Z</time></trkpt><trkpt lat="43.3907625" lon="10.7389814"><ele>452.20000000000005</ele><time>2026-04-04T13:12:43.643Z</time></trkpt><trkpt lat="43.3908064" lon="10.7391253"><ele>452.0</ele><time>2026-04-04T13:12:44.627Z</time></trkpt><trkpt lat="43.390852" lon="10.7392794"><ele>451.5</ele><time>2026-04-04T13:12:45.645Z</time></trkpt><trkpt lat="43.3909053" lon="10.7394426"><ele>451.0</ele><time>2026-04-04T13:12:46.637Z</time></trkpt><trkpt lat="43.3909533" lon="10.7396097"><ele>450.5</ele><time>2026-04-04T13:12:47.641Z</time></trkpt><trkpt lat="43.3910113" lon="10.7397666"><ele>450.0</ele><time>2026-04-04T13:12:48.643Z</time></trkpt><trkpt lat="43.3910637" lon="10.7399077"><ele>450.0</ele><time>2026-04-04T13:12:49.646Z</time></trkpt><trkpt lat="43.391112" lon="10.7400376"><ele>450.0</ele><time>2026-04-04T13:12:50.64Z</time></trkpt><trkpt lat="43.3911553" lon="10.7401646"><ele>450.0</ele><time>2026-04-04T13:12:51.648Z</time></trkpt><trkpt lat="43.3911925" lon="10.7402887"><ele>450.0</ele><time>2026-04-04T13:12:52.643Z</time></trkpt><trkpt lat="43.3912328" lon="10.7404265"><ele>450.0</ele><time>2026-04-04T13:12:53.634Z</time></trkpt><trkpt lat="43.391263" lon="10.7405627"><ele>449.6666666666667</ele><time>2026-04-04T13:12:54.637Z</time></trkpt><trkpt lat="43.3913034" lon="10.7406745"><ele>449.33333333333337</ele><time>2026-04-04T13:12:55.642Z</time></trkpt><trkpt lat="43.3913529" lon="10.7407434"><ele>449.0</ele><time>2026-04-04T13:12:56.631Z</time></trkpt><trkpt lat="43.3914421" lon="10.7408307"><ele>448.6666666666667</ele><time>2026-04-04T13:12:58.628Z</time></trkpt><trkpt lat="43.3915217" lon="10.7408151"><ele>448.33333333333337</ele><time>2026-04-04T13:13:00.642Z</time></trkpt><trkpt lat="43.3915482" lon="10.7407218"><ele>448.0</ele><time>2026-04-04T13:13:03.639Z</time></trkpt><trkpt lat="43.3914949" lon="10.740616"><ele>448.33333333333337</ele><time>2026-04-04T13:13:05.636Z</time></trkpt><trkpt lat="43.3914626" lon="10.7405329"><ele>448.6666666666667</ele><time>2026-04-04T13:13:06.626Z</time></trkpt><trkpt lat="43.391446" lon="10.7404354"><ele>449.0</ele><time>2026-04-04T13:13:07.63Z</time></trkpt><trkpt lat="43.3914047" lon="10.740297"><ele>449.33333333333337</ele><time>2026-04-04T13:13:08.639Z</time></trkpt><trkpt lat="43.3913656" lon="10.7401727"><ele>449.6666666666667</ele><time>2026-04-04T13:13:09.633Z</time></trkpt><trkpt lat="43.3913256" lon="10.7400645"><ele>450.0</ele><time>2026-04-04T13:13:10.641Z</time></trkpt><trkpt lat="43.391279" lon="10.739943"><ele>450.0</ele><time>2026-04-04T13:13:11.632Z</time></trkpt><trkpt lat="43.3912431" lon="10.7398206"><ele>450.0</ele><time>2026-04-04T13:13:12.634Z</time></trkpt><trkpt lat="43.3912101" lon="10.7397354"><ele>450.0</ele><time>2026-04-04T13:13:13.627Z</time></trkpt><trkpt lat="43.3911984" lon="10.7395982"><ele>450.0</ele><time>2026-04-04T13:13:15.624Z</time></trkpt><trkpt lat="43.3912903" lon="10.7395521"><ele>450.0</ele><time>2026-04-04T13:13:18.617Z</time></trkpt><trkpt lat="43.3913576" lon="10.7395467"><ele>450.0</ele><time>2026-04-04T13:13:19.621Z</time></trkpt><trkpt lat="43.3914263" lon="10.7395241"><ele>452.4</ele><time>2026-04-04T13:13:20.627Z</time></trkpt><trkpt lat="43.391478" lon="10.7394671"><ele>454.8</ele><time>2026-04-04T13:13:21.626Z</time></trkpt><trkpt lat="43.3915486" lon="10.7393774"><ele>457.20000000000005</ele><time>2026-04-04T13:13:22.619Z</time></trkpt><trkpt lat="43.3915963" lon="10.7392518"><ele>459.6</ele><time>2026-04-04T13:13:23.619Z</time></trkpt><trkpt lat="43.3916308" lon="10.7391132"><ele>462.0</ele><time>2026-04-04T13:13:24.62Z</time></trkpt><trkpt lat="43.3916462" lon="10.7389674"><ele>462.5</ele><time>2026-04-04T13:13:25.626Z</time></trkpt><trkpt lat="43.3916653" lon="10.7388036"><ele>463.0</ele><time>2026-04-04T13:13:26.626Z</time></trkpt><trkpt lat="43.3916843" lon="10.7386556"><ele>463.5</ele><time>2026-04-04T13:13:27.626Z</time></trkpt><trkpt lat="43.391684" lon="10.7385073"><ele>464.0</ele><time>2026-04-04T13:13:28.624Z</time></trkpt><trkpt lat="43.3916735" lon="10.7383446"><ele>464.79999999999995</ele><time>2026-04-04T13:13:29.624Z</time></trkpt><trkpt lat="43.3916517" lon="10.738187"><ele>465.59999999999997</ele><time>2026-04-04T13:13:30.625Z</time></trkpt><trkpt lat="43.391628" lon="10.7380449"><ele>466.4</ele><time>2026-04-04T13:13:31.625Z</time></trkpt><trkpt lat="43.3916105" lon="10.7379087"><ele>467.2</ele><time>2026-04-04T13:13:32.625Z</time></trkpt><trkpt lat="43.3916198" lon="10.7377605"><ele>468.0</ele><time>2026-04-04T13:13:33.622Z</time></trkpt><trkpt lat="43.3916442" lon="10.7375969"><ele>470.25</ele><time>2026-04-04T13:13:34.62Z</time></trkpt><trkpt lat="43.3916904" lon="10.737431"><ele>472.5</ele><time>2026-04-04T13:13:35.619Z</time></trkpt><trkpt lat="43.391747" lon="10.737263"><ele>474.75</ele><time>2026-04-04T13:13:36.621Z</time></trkpt><trkpt lat="43.3917859" lon="10.7371073"><ele>477.0</ele><time>2026-04-04T13:13:37.617Z</time></trkpt><trkpt lat="43.3918087" lon="10.7369578"><ele>478.8</ele><time>2026-04-04T13:13:38.621Z</time></trkpt><trkpt lat="43.3918212" lon="10.736815"><ele>480.6</ele><time>2026-04-04T13:13:39.619Z</time></trkpt><trkpt lat="43.3918045" lon="10.7366655"><ele>482.40000000000003</ele><time>2026-04-04T13:13:40.625Z</time></trkpt><trkpt lat="43.3917762" lon="10.7365301"><ele>484.20000000000005</ele><time>2026-04-04T13:13:41.616Z</time></trkpt><trkpt lat="43.3917343" lon="10.7364168"><ele>486.0</ele><time>2026-04-04T13:13:42.626Z</time></trkpt><trkpt lat="43.3916691" lon="10.7363436"><ele>486.0</ele><time>2026-04-04T13:13:43.626Z</time></trkpt><trkpt lat="43.391589" lon="10.7363099"><ele>486.0</ele><time>2026-04-04T13:13:44.627Z</time></trkpt><trkpt lat="43.3914947" lon="10.7362886"><ele>486.0</ele><time>2026-04-04T13:13:45.635Z</time></trkpt><trkpt lat="43.3913722" lon="10.7362759"><ele>486.0</ele><time>2026-04-04T13:13:46.636Z</time></trkpt><trkpt lat="43.3912366" lon="10.7362682"><ele>486.0</ele><time>2026-04-04T13:13:47.639Z</time></trkpt><trkpt lat="43.3911109" lon="10.7362658"><ele>484.8</ele><time>2026-04-04T13:13:48.632Z</time></trkpt><trkpt lat="43.3909937" lon="10.7362712"><ele>483.6</ele><time>2026-04-04T13:13:49.638Z</time></trkpt><trkpt lat="43.3908919" lon="10.7362466"><ele>482.4</ele><time>2026-04-04T13:13:50.634Z</time></trkpt><trkpt lat="43.3908033" lon="10.7361944"><ele>481.2</ele><time>2026-04-04T13:13:51.635Z</time></trkpt><trkpt lat="43.3907318" lon="10.7361335"><ele>480.0</ele><time>2026-04-04T13:13:52.633Z</time></trkpt><trkpt lat="43.3906557" lon="10.7361063"><ele>480.0</ele><time>2026-04-04T13:13:53.644Z</time></trkpt><trkpt lat="43.3905707" lon="10.7361451"><ele>480.0</ele><time>2026-04-04T13:13:54.628Z</time></trkpt><trkpt lat="43.3904988" lon="10.7362175"><ele>480.0</ele><time>2026-04-04T13:13:55.635Z</time></trkpt><trkpt lat="43.3904207" lon="10.7362781"><ele>480.0</ele><time>2026-04-04T13:13:56.641Z</time></trkpt><trkpt lat="43.3903431" lon="10.7362965"><ele>480.0</ele><time>2026-04-04T13:13:57.646Z</time></trkpt><trkpt lat="43.3902484" lon="10.7362616"><ele>480.0</ele><time>2026-04-04T13:13:58.634Z</time></trkpt><trkpt lat="43.3901577" lon="10.7361819"><ele>479.75</ele><time>2026-04-04T13:13:59.633Z</time></trkpt><trkpt lat="43.3900769" lon="10.7360656"><ele>479.5</ele><time>2026-04-04T13:14:00.632Z</time></trkpt><trkpt lat="43.39" lon="10.7359387"><ele>479.25</ele><time>2026-04-04T13:14:01.631Z</time></trkpt><trkpt lat="43.3899208" lon="10.7358081"><ele>479.0</ele><time>2026-04-04T13:14:02.627Z</time></trkpt><trkpt lat="43.3898535" lon="10.7356829"><ele>481.6</ele><time>2026-04-04T13:14:03.628Z</time></trkpt><trkpt lat="43.3898061" lon="10.7355421"><ele>484.2</ele><time>2026-04-04T13:14:04.618Z</time></trkpt><trkpt lat="43.3897832" lon="10.7354188"><ele>486.80000000000007</ele><time>2026-04-04T13:14:05.626Z</time></trkpt><trkpt lat="43.3897756" lon="10.735307"><ele>489.40000000000003</ele><time>2026-04-04T13:14:06.63Z</time></trkpt><trkpt lat="43.3898056" lon="10.7351299"><ele>492.0</ele><time>2026-04-04T13:14:08.629Z</time></trkpt><trkpt lat="43.3898559" lon="10.7350518"><ele>493.20000000000005</ele><time>2026-04-04T13:14:09.624Z</time></trkpt><trkpt lat="43.3899082" lon="10.7349791"><ele>494.40000000000003</ele><time>2026-04-04T13:14:10.63Z</time></trkpt><trkpt lat="43.3899761" lon="10.7349024"><ele>495.59999999999997</ele><time>2026-04-04T13:14:11.629Z</time></trkpt><trkpt lat="43.3900425" lon="10.7348178"><ele>496.79999999999995</ele><time>2026-04-04T13:14:12.631Z</time></trkpt><trkpt lat="43.3901214" lon="10.7347368"><ele>498.0</ele><time>2026-04-04T13:14:13.637Z</time></trkpt><trkpt lat="43.3902058" lon="10.7346274"><ele>498.0</ele><time>2026-04-04T13:14:14.625Z</time></trkpt><trkpt lat="43.39029" lon="10.7345086"><ele>498.0</ele><time>2026-04-04T13:14:15.63Z</time></trkpt><trkpt lat="43.3903721" lon="10.7343924"><ele>498.0</ele><time>2026-04-04T13:14:16.639Z</time></trkpt><trkpt lat="43.3904443" lon="10.7342775"><ele>498.0</ele><time>2026-04-04T13:14:17.631Z</time></trkpt><trkpt lat="43.3905142" lon="10.7341672"><ele>500.4</ele><time>2026-04-04T13:14:18.638Z</time></trkpt><trkpt lat="43.3905815" lon="10.7340587"><ele>502.79999999999995</ele><time>2026-04-04T13:14:19.63Z</time></trkpt><trkpt lat="43.3906508" lon="10.7339483"><ele>505.2</ele><time>2026-04-04T13:14:20.633Z</time></trkpt><trkpt lat="43.3907224" lon="10.7338335"><ele>507.6</ele><time>2026-04-04T13:14:21.633Z</time></trkpt><trkpt lat="43.3907979" lon="10.7337147"><ele>510.0</ele><time>2026-04-04T13:14:22.631Z</time></trkpt><trkpt lat="43.3908838" lon="10.7335874"><ele>510.0</ele><time>2026-04-04T13:14:23.639Z</time></trkpt><trkpt lat="43.3909724" lon="10.7334623"><ele>510.0</ele><time>2026-04-04T13:14:24.638Z</time></trkpt><trkpt lat="43.3910532" lon="10.7333336"><ele>510.0</ele><time>2026-04-04T13:14:25.638Z</time></trkpt><trkpt lat="43.3911262" lon="10.733208"><ele>510.0</ele><time>2026-04-04T13:14:26.641Z</time></trkpt><trkpt lat="43.391198" lon="10.7330872"><ele>510.0</ele><time>2026-04-04T13:14:27.64Z</time></trkpt><trkpt lat="43.391271" lon="10.7329869"><ele>510.0</ele><time>2026-04-04T13:14:28.668Z</time></trkpt><trkpt lat="43.3913305" lon="10.732896"><ele>510.0</ele><time>2026-04-04T13:14:30.731Z</time></trkpt><trkpt lat="43.3913865" lon="10.7327891"><ele>510.0</ele><time>2026-04-04T13:14:31.725Z</time></trkpt><trkpt lat="43.3914383" lon="10.7326715"><ele>510.0</ele><time>2026-04-04T13:14:32.699Z</time></trkpt><trkpt lat="43.391497" lon="10.7325287"><ele>514.5</ele><time>2026-04-04T13:14:33.715Z</time></trkpt><trkpt lat="43.3915599" lon="10.7323651"><ele>519.0</ele><time>2026-04-04T13:14:34.7Z</time></trkpt><trkpt lat="43.3916233" lon="10.7321757"><ele>523.5</ele><time>2026-04-04T13:14:35.707Z</time></trkpt><trkpt lat="43.3916813" lon="10.7319724"><ele>528.0</ele><time>2026-04-04T13:14:36.726Z</time></trkpt><trkpt lat="43.391736" lon="10.7317654"><ele>528.5</ele><time>2026-04-04T13:14:37.719Z</time></trkpt><trkpt lat="43.3917868" lon="10.7315654"><ele>529.0</ele><time>2026-04-04T13:14:38.711Z</time></trkpt><trkpt lat="43.3918277" lon="10.7313798"><ele>529.5</ele><time>2026-04-04T13:14:39.73Z</time></trkpt><trkpt lat="43.391865" lon="10.7311908"><ele>530.0</ele><time>2026-04-04T13:14:40.731Z</time></trkpt><trkpt lat="43.3918804" lon="10.7309781"><ele>530.8</ele><time>2026-04-04T13:14:41.729Z</time></trkpt><trkpt lat="43.3919181" lon="10.730804"><ele>531.6</ele><time>2026-04-04T13:14:42.727Z</time></trkpt><trkpt lat="43.3919471" lon="10.7306619"><ele>532.4</ele><time>2026-04-04T13:14:43.726Z</time></trkpt><trkpt lat="43.3919674" lon="10.7305312"><ele>533.2</ele><time>2026-04-04T13:14:44.721Z</time></trkpt><trkpt lat="43.3919898" lon="10.7304023"><ele>534.0</ele><time>2026-04-04T13:14:45.739Z</time></trkpt><trkpt lat="43.392014" lon="10.7302643"><ele>534.25</ele><time>2026-04-04T13:14:46.729Z</time></trkpt><trkpt lat="43.3920375" lon="10.7301161"><ele>534.5</ele><time>2026-04-04T13:14:47.726Z</time></trkpt><trkpt lat="43.392061" lon="10.7299426"><ele>534.75</ele><time>2026-04-04T13:14:48.725Z</time></trkpt><trkpt lat="43.3920788" lon="10.7297446"><ele>535.0</ele><time>2026-04-04T13:14:49.722Z</time></trkpt><trkpt lat="43.3920872" lon="10.7295463"><ele>534.25</ele><time>2026-04-04T13:14:50.721Z</time></trkpt><trkpt lat="43.3920938" lon="10.7293509"><ele>533.5</ele><time>2026-04-04T13:14:51.727Z</time></trkpt><trkpt lat="43.3920971" lon="10.7291441"><ele>532.75</ele><time>2026-04-04T13:14:52.73Z</time></trkpt><trkpt lat="43.3920952" lon="10.7289684"><ele>532.0</ele><time>2026-04-04T13:14:53.729Z</time></trkpt><trkpt lat="43.392091" lon="10.7288175"><ele>532.0</ele><time>2026-04-04T13:14:54.73Z</time></trkpt><trkpt lat="43.3920878" lon="10.7286833"><ele>532.0</ele><time>2026-04-04T13:14:55.72Z</time></trkpt><trkpt lat="43.3920951" lon="10.7285606"><ele>532.0</ele><time>2026-04-04T13:14:56.719Z</time></trkpt><trkpt lat="43.3921179" lon="10.7284358"><ele>532.0</ele><time>2026-04-04T13:14:57.726Z</time></trkpt><trkpt lat="43.3921581" lon="10.7283038"><ele>532.0</ele><time>2026-04-04T13:14:58.71Z</time></trkpt><trkpt lat="43.3922148" lon="10.728165"><ele>532.0</ele><time>2026-04-04T13:14:59.712Z</time></trkpt><trkpt lat="43.3922816" lon="10.7280261"><ele>532.0</ele><time>2026-04-04T13:15:00.707Z</time></trkpt><trkpt lat="43.392339" lon="10.7278639"><ele>532.0</ele><time>2026-04-04T13:15:01.708Z</time></trkpt><trkpt lat="43.3923858" lon="10.7276932"><ele>532.0</ele><time>2026-04-04T13:15:02.695Z</time></trkpt><trkpt lat="43.3924197" lon="10.7275212"><ele>530.25</ele><time>2026-04-04T13:15:03.697Z</time></trkpt><trkpt lat="43.3924486" lon="10.7273532"><ele>528.5</ele><time>2026-04-04T13:15:04.702Z</time></trkpt><trkpt lat="43.3924827" lon="10.727184"><ele>526.75</ele><time>2026-04-04T13:15:05.699Z</time></trkpt><trkpt lat="43.3925193" lon="10.7270253"><ele>525.0</ele><time>2026-04-04T13:15:06.702Z</time></trkpt><trkpt lat="43.3925643" lon="10.7268718"><ele>522.75</ele><time>2026-04-04T13:15:07.706Z</time></trkpt><trkpt lat="43.3926164" lon="10.7267273"><ele>520.5</ele><time>2026-04-04T13:15:08.686Z</time></trkpt><trkpt lat="43.3926653" lon="10.7265815"><ele>518.25</ele><time>2026-04-04T13:15:09.692Z</time></trkpt><trkpt lat="43.3927112" lon="10.7264386"><ele>516.0</ele><time>2026-04-04T13:15:10.683Z</time></trkpt><trkpt lat="43.3927642" lon="10.7262993"><ele>516.0</ele><time>2026-04-04T13:15:11.69Z</time></trkpt><trkpt lat="43.3928199" lon="10.7261708"><ele>516.0</ele><time>2026-04-04T13:15:12.706Z</time></trkpt><trkpt lat="43.3928799" lon="10.7260487"><ele>516.0</ele><time>2026-04-04T13:15:13.71Z</time></trkpt><trkpt lat="43.3929407" lon="10.7259305"><ele>516.0</ele><time>2026-04-04T13:15:14.706Z</time></trkpt><trkpt lat="43.3929909" lon="10.7258184"><ele>516.0</ele><time>2026-04-04T13:15:15.712Z</time></trkpt><trkpt lat="43.3930261" lon="10.7257074"><ele>515.2</ele><time>2026-04-04T13:15:16.702Z</time></trkpt><trkpt lat="43.3930417" lon="10.7255931"><ele>514.4000000000001</ele><time>2026-04-04T13:15:17.698Z</time></trkpt><trkpt lat="43.3930351" lon="10.7254695"><ele>513.6</ele><time>2026-04-04T13:15:18.699Z</time></trkpt><trkpt lat="43.3930112" lon="10.7253282"><ele>512.8000000000001</ele><time>2026-04-04T13:15:19.694Z</time></trkpt><trkpt lat="43.3929764" lon="10.725174"><ele>512.0</ele><time>2026-04-04T13:15:20.699Z</time></trkpt><trkpt lat="43.3929292" lon="10.7250112"><ele>511.75</ele><time>2026-04-04T13:15:21.701Z</time></trkpt><trkpt lat="43.3928707" lon="10.7248465"><ele>511.5</ele><time>2026-04-04T13:15:22.704Z</time></trkpt><trkpt lat="43.3927982" lon="10.7246807"><ele>511.25</ele><time>2026-04-04T13:15:23.705Z</time></trkpt><trkpt lat="43.3927099" lon="10.7245044"><ele>511.0</ele><time>2026-04-04T13:15:24.696Z</time></trkpt><trkpt lat="43.3926218" lon="10.7243439"><ele>511.0</ele><time>2026-04-04T13:15:25.695Z</time></trkpt><trkpt lat="43.3925356" lon="10.7241875"><ele>511.0</ele><time>2026-04-04T13:15:26.691Z</time></trkpt><trkpt lat="43.3924539" lon="10.7240263"><ele>511.0</ele><time>2026-04-04T13:15:27.689Z</time></trkpt><trkpt lat="43.3923821" lon="10.7238589"><ele>511.0</ele><time>2026-04-04T13:15:28.707Z</time></trkpt><trkpt lat="43.3923122" lon="10.7236887"><ele>512.5</ele><time>2026-04-04T13:15:29.697Z</time></trkpt><trkpt lat="43.3922424" lon="10.7235074"><ele>514.0</ele><time>2026-04-04T13:15:30.696Z</time></trkpt><trkpt lat="43.3921803" lon="10.7233385"><ele>515.5</ele><time>2026-04-04T13:15:31.7Z</time></trkpt><trkpt lat="43.3921203" lon="10.7231754"><ele>517.0</ele><time>2026-04-04T13:15:32.702Z</time></trkpt><trkpt lat="43.3920732" lon="10.7230208"><ele>517.25</ele><time>2026-04-04T13:15:33.7Z</time></trkpt><trkpt lat="43.3920386" lon="10.7228633"><ele>517.5</ele><time>2026-04-04T13:15:34.697Z</time></trkpt><trkpt lat="43.3920106" lon="10.7226948"><ele>517.75</ele><time>2026-04-04T13:15:35.7Z</time></trkpt><trkpt lat="43.3919833" lon="10.7225082"><ele>518.0</ele><time>2026-04-04T13:15:36.697Z</time></trkpt><trkpt lat="43.391957" lon="10.7223243"><ele>519.5</ele><time>2026-04-04T13:15:37.704Z</time></trkpt><trkpt lat="43.3919307" lon="10.722136"><ele>521.0</ele><time>2026-04-04T13:15:38.699Z</time></trkpt><trkpt lat="43.3918991" lon="10.7219554"><ele>522.5</ele><time>2026-04-04T13:15:39.706Z</time></trkpt><trkpt lat="43.3918734" lon="10.7217917"><ele>524.0</ele><time>2026-04-04T13:15:40.702Z</time></trkpt><trkpt lat="43.3918585" lon="10.7216416"><ele>525.0</ele><time>2026-04-04T13:15:41.709Z</time></trkpt><trkpt lat="43.3918586" lon="10.7215027"><ele>526.0</ele><time>2026-04-04T13:15:42.698Z</time></trkpt><trkpt lat="43.3918718" lon="10.7213558"><ele>527.0</ele><time>2026-04-04T13:15:43.696Z</time></trkpt><trkpt lat="43.3919017" lon="10.7212069"><ele>528.0</ele><time>2026-04-04T13:15:44.689Z</time></trkpt><trkpt lat="43.3919489" lon="10.7210384"><ele>528.3333333333334</ele><time>2026-04-04T13:15:45.698Z</time></trkpt><trkpt lat="43.3920087" lon="10.7208412"><ele>528.6666666666667</ele><time>2026-04-04T13:15:46.704Z</time></trkpt><trkpt lat="43.3920694" lon="10.720634"><ele>529.0</ele><time>2026-04-04T13:15:47.703Z</time></trkpt><trkpt lat="43.3921289" lon="10.7204331"><ele>531.0</ele><time>2026-04-04T13:15:48.712Z</time></trkpt><trkpt lat="43.3921883" lon="10.7202432"><ele>533.0</ele><time>2026-04-04T13:15:49.706Z</time></trkpt><trkpt lat="43.3922488" lon="10.7200644"><ele>535.0</ele><time>2026-04-04T13:15:50.707Z</time></trkpt><trkpt lat="43.3923175" lon="10.7198903"><ele>537.0</ele><time>2026-04-04T13:15:51.706Z</time></trkpt><trkpt lat="43.392398" lon="10.7197356"><ele>538.75</ele><time>2026-04-04T13:15:52.708Z</time></trkpt><trkpt lat="43.3924802" lon="10.7195927"><ele>540.5</ele><time>2026-04-04T13:15:53.696Z</time></trkpt><trkpt lat="43.3925641" lon="10.7194584"><ele>542.25</ele><time>2026-04-04T13:15:54.693Z</time></trkpt><trkpt lat="43.3926429" lon="10.7193246"><ele>544.0</ele><time>2026-04-04T13:15:55.69Z</time></trkpt><trkpt lat="43.392725" lon="10.7191918"><ele>544.25</ele><time>2026-04-04T13:15:56.687Z</time></trkpt><trkpt lat="43.3928043" lon="10.719061"><ele>544.5</ele><time>2026-04-04T13:15:57.701Z</time></trkpt><trkpt lat="43.3928854" lon="10.7189161"><ele>544.75</ele><time>2026-04-04T13:15:58.694Z</time></trkpt><trkpt lat="43.3929557" lon="10.7187583"><ele>545.0</ele><time>2026-04-04T13:15:59.698Z</time></trkpt><trkpt lat="43.3930128" lon="10.7186032"><ele>547.0</ele><time>2026-04-04T13:16:00.695Z</time></trkpt><trkpt lat="43.3930708" lon="10.7184454"><ele>549.0</ele><time>2026-04-04T13:16:01.693Z</time></trkpt><trkpt lat="43.3931229" lon="10.7182957"><ele>551.0</ele><time>2026-04-04T13:16:02.687Z</time></trkpt><trkpt lat="43.3931729" lon="10.7181472"><ele>553.0</ele><time>2026-04-04T13:16:03.691Z</time></trkpt><trkpt lat="43.393221" lon="10.7179885"><ele>553.0</ele><time>2026-04-04T13:16:04.697Z</time></trkpt><trkpt lat="43.393304" lon="10.7177591"><ele>553.0</ele><time>2026-04-04T13:16:05.702Z</time></trkpt><trkpt lat="43.3933898" lon="10.7175691"><ele>553.0</ele><time>2026-04-04T13:16:06.706Z</time></trkpt><trkpt lat="43.3934482" lon="10.7173843"><ele>554.25</ele><time>2026-04-04T13:16:07.709Z</time></trkpt><trkpt lat="43.3934819" lon="10.7171954"><ele>555.5</ele><time>2026-04-04T13:16:08.7Z</time></trkpt><trkpt lat="43.3935051" lon="10.7170023"><ele>556.75</ele><time>2026-04-04T13:16:09.697Z</time></trkpt><trkpt lat="43.3935205" lon="10.716831"><ele>558.0</ele><time>2026-04-04T13:16:10.699Z</time></trkpt><trkpt lat="43.3935298" lon="10.7166459"><ele>558.25</ele><time>2026-04-04T13:16:11.699Z</time></trkpt><trkpt lat="43.3935465" lon="10.7165036"><ele>558.5</ele><time>2026-04-04T13:16:12.703Z</time></trkpt><trkpt lat="43.393574" lon="10.7163289"><ele>558.75</ele><time>2026-04-04T13:16:13.707Z</time></trkpt><trkpt lat="43.3936161" lon="10.7161955"><ele>559.0</ele><time>2026-04-04T13:16:14.694Z</time></trkpt><trkpt lat="43.3936587" lon="10.7160451"><ele>558.5</ele><time>2026-04-04T13:16:15.697Z</time></trkpt><trkpt lat="43.3937207" lon="10.7159091"><ele>558.0</ele><time>2026-04-04T13:16:16.695Z</time></trkpt><trkpt lat="43.3938114" lon="10.715782"><ele>557.5</ele><time>2026-04-04T13:16:17.695Z</time></trkpt><trkpt lat="43.393916" lon="10.7156605"><ele>557.0</ele><time>2026-04-04T13:16:18.707Z</time></trkpt><trkpt lat="43.3940234" lon="10.7155366"><ele>555.75</ele><time>2026-04-04T13:16:19.71Z</time></trkpt><trkpt lat="43.3941405" lon="10.7154192"><ele>554.5</ele><time>2026-04-04T13:16:20.705Z</time></trkpt><trkpt lat="43.3942363" lon="10.7152657"><ele>553.25</ele><time>2026-04-04T13:16:21.71Z</time></trkpt><trkpt lat="43.3943204" lon="10.7151241"><ele>552.0</ele><time>2026-04-04T13:16:22.7Z</time></trkpt><trkpt lat="43.3943953" lon="10.7149849"><ele>551.75</ele><time>2026-04-04T13:16:23.694Z</time></trkpt><trkpt lat="43.39446" lon="10.714831"><ele>551.5</ele><time>2026-04-04T13:16:24.689Z</time></trkpt><trkpt lat="43.3945031" lon="10.7146668"><ele>551.25</ele><time>2026-04-04T13:16:25.686Z</time></trkpt><trkpt lat="43.3945515" lon="10.7145111"><ele>551.0</ele><time>2026-04-04T13:16:26.688Z</time></trkpt><trkpt lat="43.3945969" lon="10.7143711"><ele>551.0</ele><time>2026-04-04T13:16:27.709Z</time></trkpt><trkpt lat="43.3946108" lon="10.7142214"><ele>551.0</ele><time>2026-04-04T13:16:28.713Z</time></trkpt><trkpt lat="43.3946257" lon="10.7140978"><ele>551.0</ele><time>2026-04-04T13:16:29.714Z</time></trkpt><trkpt lat="43.3946329" lon="10.7139837"><ele>551.0</ele><time>2026-04-04T13:16:30.715Z</time></trkpt><trkpt lat="43.3946978" lon="10.7139201"><ele>551.0</ele><time>2026-04-04T13:16:32.706Z</time></trkpt><trkpt lat="43.3947868" lon="10.713956"><ele>551.5</ele><time>2026-04-04T13:16:35.714Z</time></trkpt><trkpt lat="43.3948799" lon="10.7140095"><ele>552.0</ele><time>2026-04-04T13:16:37.705Z</time></trkpt><trkpt lat="43.3949589" lon="10.7140324"><ele>552.5</ele><time>2026-04-04T13:16:39.707Z</time></trkpt><trkpt lat="43.3950424" lon="10.7140809"><ele>553.0</ele><time>2026-04-04T13:16:41.706Z</time></trkpt><trkpt lat="43.3951024" lon="10.7141084"><ele>553.5</ele><time>2026-04-04T13:16:43.715Z</time></trkpt><trkpt lat="43.3951663" lon="10.7141187"><ele>554.0</ele><time>2026-04-04T13:16:50.698Z</time></trkpt><trkpt lat="43.3952357" lon="10.7140993"><ele>554.0</ele><time>2026-04-04T13:16:59.634Z</time></trkpt><trkpt lat="43.3953193" lon="10.7140692"><ele>554.0</ele><time>2026-04-04T13:23:21.623Z</time></trkpt><trkpt lat="43.3953791" lon="10.7140307"><ele>554.0</ele><time>2026-04-04T13:23:27.624Z</time></trkpt><trkpt lat="43.3953255" lon="10.7140819"><ele>554.0</ele><time>2026-04-04T13:23:32.65Z</time></trkpt><trkpt lat="43.3953875" lon="10.7141072"><ele>554.0</ele><time>2026-04-04T13:23:35.642Z</time></trkpt><trkpt lat="43.3954838" lon="10.7141498"><ele>554.0</ele><time>2026-04-04T13:23:37.632Z</time></trkpt><trkpt lat="43.3956093" lon="10.7142043"><ele>554.6</ele><time>2026-04-04T13:23:39.627Z</time></trkpt><trkpt lat="43.3956854" lon="10.7142439"><ele>555.2</ele><time>2026-04-04T13:23:40.627Z</time></trkpt><trkpt lat="43.3957768" lon="10.7142878"><ele>555.8000000000001</ele><time>2026-04-04T13:23:41.628Z</time></trkpt><trkpt lat="43.3958841" lon="10.7143416"><ele>556.4</ele><time>2026-04-04T13:23:42.627Z</time></trkpt><trkpt lat="43.395988" lon="10.7143939"><ele>557.0</ele><time>2026-04-04T13:23:43.629Z</time></trkpt><trkpt lat="43.3960893" lon="10.7144581"><ele>556.5</ele><time>2026-04-04T13:23:44.631Z</time></trkpt><trkpt lat="43.396182" lon="10.7145135"><ele>556.0</ele><time>2026-04-04T13:23:45.637Z</time></trkpt><trkpt lat="43.3962617" lon="10.7145681"><ele>555.5</ele><time>2026-04-04T13:23:46.636Z</time></trkpt><trkpt lat="43.3963391" lon="10.7146201"><ele>555.0</ele><time>2026-04-04T13:23:47.632Z</time></trkpt><trkpt lat="43.3963981" lon="10.7146877"><ele>554.5</ele><time>2026-04-04T13:23:48.635Z</time></trkpt><trkpt lat="43.3964437" lon="10.7147674"><ele>554.0</ele><time>2026-04-04T13:23:49.635Z</time></trkpt><trkpt lat="43.3964989" lon="10.7148521"><ele>554.0</ele><time>2026-04-04T13:23:50.639Z</time></trkpt><trkpt lat="43.3965649" lon="10.7149345"><ele>554.0</ele><time>2026-04-04T13:23:51.637Z</time></trkpt><trkpt lat="43.3966383" lon="10.7150221"><ele>554.0</ele><time>2026-04-04T13:23:52.638Z</time></trkpt><trkpt lat="43.3967182" lon="10.7150972"><ele>554.0</ele><time>2026-04-04T13:23:53.631Z</time></trkpt><trkpt lat="43.3967991" lon="10.7151513"><ele>554.0</ele><time>2026-04-04T13:23:54.635Z</time></trkpt><trkpt lat="43.3968651" lon="10.7151992"><ele>554.0</ele><time>2026-04-04T13:23:55.634Z</time></trkpt><trkpt lat="43.3969412" lon="10.7152379"><ele>554.0</ele><time>2026-04-04T13:23:56.636Z</time></trkpt><trkpt lat="43.3970214" lon="10.7152357"><ele>554.0</ele><time>2026-04-04T13:23:57.654Z</time></trkpt><trkpt lat="43.3971041" lon="10.7152161"><ele>554.0</ele><time>2026-04-04T13:23:58.639Z</time></trkpt><trkpt lat="43.3971906" lon="10.7151738"><ele>554.0</ele><time>2026-04-04T13:23:59.644Z</time></trkpt><trkpt lat="43.3972766" lon="10.7151065"><ele>554.0</ele><time>2026-04-04T13:24:00.649Z</time></trkpt><trkpt lat="43.3973753" lon="10.7150334"><ele>554.0</ele><time>2026-04-04T13:24:01.647Z</time></trkpt><trkpt lat="43.3974803" lon="10.7149777"><ele>554.0</ele><time>2026-04-04T13:24:02.648Z</time></trkpt><trkpt lat="43.3975806" lon="10.7149257"><ele>554.0</ele><time>2026-04-04T13:24:03.645Z</time></trkpt><trkpt lat="43.3976743" lon="10.7148912"><ele>554.0</ele><time>2026-04-04T13:24:04.642Z</time></trkpt><trkpt lat="43.3977642" lon="10.7148722"><ele>554.0</ele><time>2026-04-04T13:24:05.644Z</time></trkpt><trkpt lat="43.3978512" lon="10.7148617"><ele>554.0</ele><time>2026-04-04T13:24:06.639Z</time></trkpt><trkpt lat="43.3979254" lon="10.714823"><ele>554.0</ele><time>2026-04-04T13:24:07.643Z</time></trkpt><trkpt lat="43.3980043" lon="10.7147734"><ele>554.0</ele><time>2026-04-04T13:24:08.635Z</time></trkpt><trkpt lat="43.3980937" lon="10.7147013"><ele>554.0</ele><time>2026-04-04T13:24:09.637Z</time></trkpt><trkpt lat="43.3981802" lon="10.7146212"><ele>554.0</ele><time>2026-04-04T13:24:10.64Z</time></trkpt><trkpt lat="43.3982745" lon="10.7145429"><ele>555.0</ele><time>2026-04-04T13:24:11.639Z</time></trkpt><trkpt lat="43.3983621" lon="10.7144719"><ele>556.0</ele><time>2026-04-04T13:24:12.64Z</time></trkpt><trkpt lat="43.3984577" lon="10.7144046"><ele>557.0</ele><time>2026-04-04T13:24:13.642Z</time></trkpt><trkpt lat="43.3985413" lon="10.7143156"><ele>558.0</ele><time>2026-04-04T13:24:14.638Z</time></trkpt><trkpt lat="43.3986117" lon="10.7142111"><ele>559.0</ele><time>2026-04-04T13:24:15.643Z</time></trkpt><trkpt lat="43.3986695" lon="10.7140898"><ele>559.0</ele><time>2026-04-04T13:24:16.635Z</time></trkpt><trkpt lat="43.3987159" lon="10.7139655"><ele>559.0</ele><time>2026-04-04T13:24:17.64Z</time></trkpt><trkpt lat="43.3987545" lon="10.7138416"><ele>559.0</ele><time>2026-04-04T13:24:18.642Z</time></trkpt><trkpt lat="43.3987985" lon="10.7137299"><ele>559.0</ele><time>2026-04-04T13:24:19.637Z</time></trkpt><trkpt lat="43.3988695" lon="10.7136241"><ele>559.0</ele><time>2026-04-04T13:24:20.635Z</time></trkpt><trkpt lat="43.3989357" lon="10.7135415"><ele>556.8</ele><time>2026-04-04T13:24:21.64Z</time></trkpt><trkpt lat="43.3990303" lon="10.713469"><ele>554.5999999999999</ele><time>2026-04-04T13:24:22.639Z</time></trkpt><trkpt lat="43.3991175" lon="10.7134072"><ele>552.4</ele><time>2026-04-04T13:24:23.633Z</time></trkpt><trkpt lat="43.399202" lon="10.7133562"><ele>550.1999999999999</ele><time>2026-04-04T13:24:24.633Z</time></trkpt><trkpt lat="43.3992799" lon="10.7132993"><ele>548.0</ele><time>2026-04-04T13:24:25.634Z</time></trkpt><trkpt lat="43.3993463" lon="10.7132227"><ele>548.0</ele><time>2026-04-04T13:24:26.641Z</time></trkpt><trkpt lat="43.3994188" lon="10.7131285"><ele>548.0</ele><time>2026-04-04T13:24:27.639Z</time></trkpt><trkpt lat="43.3994598" lon="10.7130132"><ele>548.0</ele><time>2026-04-04T13:24:28.64Z</time></trkpt><trkpt lat="43.3995116" lon="10.7129057"><ele>548.0</ele><time>2026-04-04T13:24:29.638Z</time></trkpt><trkpt lat="43.39955" lon="10.712822"><ele>548.0</ele><time>2026-04-04T13:24:30.64Z</time></trkpt><trkpt lat="43.3996048" lon="10.7127732"><ele>548.0</ele><time>2026-04-04T13:24:31.631Z</time></trkpt><trkpt lat="43.3996838" lon="10.7127515"><ele>546.75</ele><time>2026-04-04T13:24:32.637Z</time></trkpt><trkpt lat="43.3997838" lon="10.712719"><ele>545.5</ele><time>2026-04-04T13:24:33.645Z</time></trkpt><trkpt lat="43.3999039" lon="10.7126768"><ele>544.25</ele><time>2026-04-04T13:24:34.643Z</time></trkpt><trkpt lat="43.4000121" lon="10.7126289"><ele>543.0</ele><time>2026-04-04T13:24:36.716Z</time></trkpt><trkpt lat="43.4001178" lon="10.7125804"><ele>543.0</ele><time>2026-04-04T13:24:37.714Z</time></trkpt><trkpt lat="43.400227" lon="10.7125359"><ele>543.0</ele><time>2026-04-04T13:24:38.716Z</time></trkpt><trkpt lat="43.4003384" lon="10.712487"><ele>543.0</ele><time>2026-04-04T13:24:39.705Z</time></trkpt><trkpt lat="43.4004482" lon="10.712429"><ele>543.0</ele><time>2026-04-04T13:24:40.701Z</time></trkpt><trkpt lat="43.4005527" lon="10.7123817"><ele>543.0</ele><time>2026-04-04T13:24:41.7Z</time></trkpt><trkpt lat="43.4006589" lon="10.7123367"><ele>543.0</ele><time>2026-04-04T13:24:42.701Z</time></trkpt><trkpt lat="43.4007564" lon="10.7123039"><ele>543.0</ele><time>2026-04-04T13:24:43.716Z</time></trkpt><trkpt lat="43.4008386" lon="10.7122666"><ele>543.0</ele><time>2026-04-04T13:24:44.713Z</time></trkpt><trkpt lat="43.4009176" lon="10.7122289"><ele>543.0</ele><time>2026-04-04T13:24:45.726Z</time></trkpt><trkpt lat="43.4010097" lon="10.7121965"><ele>543.0</ele><time>2026-04-04T13:24:46.697Z</time></trkpt><trkpt lat="43.4010906" lon="10.7121685"><ele>543.0</ele><time>2026-04-04T13:24:47.691Z</time></trkpt><trkpt lat="43.4011806" lon="10.7121619"><ele>543.0</ele><time>2026-04-04T13:24:48.701Z</time></trkpt><trkpt lat="43.4012817" lon="10.7121626"><ele>543.0</ele><time>2026-04-04T13:24:49.689Z</time></trkpt><trkpt lat="43.4014315" lon="10.7121835"><ele>543.0</ele><time>2026-04-04T13:24:50.704Z</time></trkpt><trkpt lat="43.4015632" lon="10.7122095"><ele>543.0</ele><time>2026-04-04T13:24:51.71Z</time></trkpt><trkpt lat="43.4016795" lon="10.7122291"><ele>543.0</ele><time>2026-04-04T13:24:52.709Z</time></trkpt><trkpt lat="43.4017768" lon="10.7122373"><ele>543.0</ele><time>2026-04-04T13:24:53.707Z</time></trkpt><trkpt lat="43.4018667" lon="10.7122418"><ele>543.0</ele><time>2026-04-04T13:24:54.71Z</time></trkpt><trkpt lat="43.4019533" lon="10.7122475"><ele>543.0</ele><time>2026-04-04T13:24:55.71Z</time></trkpt><trkpt lat="43.402063" lon="10.7122682"><ele>543.0</ele><time>2026-04-04T13:24:56.707Z</time></trkpt><trkpt lat="43.4021503" lon="10.7122833"><ele>543.0</ele><time>2026-04-04T13:24:57.71Z</time></trkpt><trkpt lat="43.4022366" lon="10.712315"><ele>543.0</ele><time>2026-04-04T13:24:58.702Z</time></trkpt><trkpt lat="43.4023379" lon="10.7123726"><ele>543.0</ele><time>2026-04-04T13:24:59.695Z</time></trkpt><trkpt lat="43.4024175" lon="10.7124452"><ele>543.0</ele><time>2026-04-04T13:25:00.682Z</time></trkpt><trkpt lat="43.4025108" lon="10.7125314"><ele>542.8333333333334</ele><time>2026-04-04T13:25:01.688Z</time></trkpt><trkpt lat="43.4025899" lon="10.7126261"><ele>542.6666666666666</ele><time>2026-04-04T13:25:02.691Z</time></trkpt><trkpt lat="43.4026412" lon="10.7127153"><ele>542.5</ele><time>2026-04-04T13:25:03.697Z</time></trkpt><trkpt lat="43.4026756" lon="10.7128174"><ele>542.3333333333333</ele><time>2026-04-04T13:25:04.701Z</time></trkpt><trkpt lat="43.4027048" lon="10.7129229"><ele>542.1666666666666</ele><time>2026-04-04T13:25:05.694Z</time></trkpt><trkpt lat="43.4027274" lon="10.7130156"><ele>542.0</ele><time>2026-04-04T13:25:06.691Z</time></trkpt><trkpt lat="43.4027559" lon="10.7131042"><ele>538.0</ele><time>2026-04-04T13:25:07.691Z</time></trkpt><trkpt lat="43.402789" lon="10.7131812"><ele>534.0</ele><time>2026-04-04T13:25:08.691Z</time></trkpt><trkpt lat="43.4028305" lon="10.7132843"><ele>530.0</ele><time>2026-04-04T13:25:09.698Z</time></trkpt><trkpt lat="43.4029324" lon="10.7135945"><ele>526.0</ele><time>2026-04-04T13:25:10.702Z</time></trkpt><trkpt lat="43.4029788" lon="10.7137244"><ele>526.2</ele><time>2026-04-04T13:25:11.71Z</time></trkpt><trkpt lat="43.4030291" lon="10.7138284"><ele>526.4000000000001</ele><time>2026-04-04T13:25:12.71Z</time></trkpt><trkpt lat="43.4030729" lon="10.7139482"><ele>526.6</ele><time>2026-04-04T13:25:13.71Z</time></trkpt><trkpt lat="43.4031155" lon="10.7140773"><ele>526.8000000000001</ele><time>2026-04-04T13:25:14.711Z</time></trkpt><trkpt lat="43.4031511" lon="10.7141915"><ele>527.0</ele><time>2026-04-04T13:25:15.717Z</time></trkpt><trkpt lat="43.4032095" lon="10.71442"><ele>525.6666666666666</ele><time>2026-04-04T13:25:17.713Z</time></trkpt><trkpt lat="43.4032339" lon="10.7145709"><ele>524.3333333333333</ele><time>2026-04-04T13:25:18.706Z</time></trkpt><trkpt lat="43.4032456" lon="10.7147057"><ele>523.0</ele><time>2026-04-04T13:25:19.699Z</time></trkpt><trkpt lat="43.4032474" lon="10.7147961"><ele>521.6666666666666</ele><time>2026-04-04T13:25:20.697Z</time></trkpt><trkpt lat="43.4032492" lon="10.7148855"><ele>520.3333333333334</ele><time>2026-04-04T13:25:21.696Z</time></trkpt><trkpt lat="43.4032538" lon="10.7150178"><ele>519.0</ele><time>2026-04-04T13:25:23.71Z</time></trkpt><trkpt lat="43.4032684" lon="10.7151769"><ele>516.6</ele><time>2026-04-04T13:25:24.711Z</time></trkpt><trkpt lat="43.4032788" lon="10.7153003"><ele>514.2</ele><time>2026-04-04T13:25:25.72Z</time></trkpt><trkpt lat="43.4032941" lon="10.7154045"><ele>511.80000000000007</ele><time>2026-04-04T13:25:26.708Z</time></trkpt><trkpt lat="43.4033305" lon="10.7154893"><ele>509.40000000000003</ele><time>2026-04-04T13:25:27.711Z</time></trkpt><trkpt lat="43.4033269" lon="10.7156715"><ele>507.0</ele><time>2026-04-04T13:25:28.713Z</time></trkpt><trkpt lat="43.4033986" lon="10.7157883"><ele>507.0</ele><time>2026-04-04T13:25:30.727Z</time></trkpt><trkpt lat="43.4034416" lon="10.7159023"><ele>507.00000000000006</ele><time>2026-04-04T13:25:31.725Z</time></trkpt><trkpt lat="43.4034395" lon="10.7161272"><ele>507.00000000000006</ele><time>2026-04-04T13:25:32.714Z</time></trkpt><trkpt lat="43.4034728" lon="10.7162285"><ele>507.0</ele><time>2026-04-04T13:25:33.717Z</time></trkpt><trkpt lat="43.4035143" lon="10.7163186"><ele>507.0</ele><time>2026-04-04T13:25:34.699Z</time></trkpt><trkpt lat="43.4035739" lon="10.7163938"><ele>504.0</ele><time>2026-04-04T13:25:35.704Z</time></trkpt><trkpt lat="43.4035842" lon="10.7165525"><ele>501.00000000000006</ele><time>2026-04-04T13:25:36.701Z</time></trkpt><trkpt lat="43.4036138" lon="10.7166809"><ele>498.00000000000006</ele><time>2026-04-04T13:25:37.701Z</time></trkpt><trkpt lat="43.4036488" lon="10.7167916"><ele>495.0</ele><time>2026-04-04T13:25:38.715Z</time></trkpt><trkpt lat="43.4036771" lon="10.7169118"><ele>492.0</ele><time>2026-04-04T13:25:39.719Z</time></trkpt><trkpt lat="43.4037184" lon="10.7169922"><ele>490.0</ele><time>2026-04-04T13:25:40.714Z</time></trkpt><trkpt lat="43.4037689" lon="10.7170593"><ele>488.00000000000006</ele><time>2026-04-04T13:25:41.703Z</time></trkpt><trkpt lat="43.403865" lon="10.7171469"><ele>486.00000000000006</ele><time>2026-04-04T13:25:43.706Z</time></trkpt><trkpt lat="43.4039553" lon="10.7171584"><ele>484.0</ele><time>2026-04-04T13:25:45.725Z</time></trkpt><trkpt lat="43.4040238" lon="10.7172048"><ele>482.0</ele><time>2026-04-04T13:25:47.72Z</time></trkpt><trkpt lat="43.404062" lon="10.7170016"><ele>484.16666666666663</ele><time>2026-04-04T13:25:51.623Z</time></trkpt><trkpt lat="43.4040685" lon="10.7168881"><ele>486.3333333333333</ele><time>2026-04-04T13:25:52.617Z</time></trkpt><trkpt lat="43.4040782" lon="10.7167816"><ele>488.5</ele><time>2026-04-04T13:25:53.615Z</time></trkpt><trkpt lat="43.4040789" lon="10.7166836"><ele>490.66666666666663</ele><time>2026-04-04T13:25:54.619Z</time></trkpt><trkpt lat="43.404109" lon="10.7166036"><ele>492.8333333333333</ele><time>2026-04-04T13:25:55.616Z</time></trkpt><trkpt lat="43.4041634" lon="10.7165314"><ele>495.0</ele><time>2026-04-04T13:25:56.622Z</time></trkpt><trkpt lat="43.4042434" lon="10.7164801"><ele>495.0</ele><time>2026-04-04T13:25:57.618Z</time></trkpt><trkpt lat="43.4043322" lon="10.7164291"><ele>495.0</ele><time>2026-04-04T13:25:58.625Z</time></trkpt><trkpt lat="43.4044283" lon="10.7163992"><ele>495.0</ele><time>2026-04-04T13:25:59.626Z</time></trkpt><trkpt lat="43.4045304" lon="10.7163719"><ele>495.0</ele><time>2026-04-04T13:26:00.625Z</time></trkpt><trkpt lat="43.4046355" lon="10.7163308"><ele>495.0</ele><time>2026-04-04T13:26:01.628Z</time></trkpt><trkpt lat="43.4047496" lon="10.7162736"><ele>492.6</ele><time>2026-04-04T13:26:02.626Z</time></trkpt><trkpt lat="43.4048666" lon="10.7162422"><ele>490.2</ele><time>2026-04-04T13:26:03.628Z</time></trkpt><trkpt lat="43.4049825" lon="10.716202"><ele>487.79999999999995</ele><time>2026-04-04T13:26:04.621Z</time></trkpt><trkpt lat="43.4050833" lon="10.7161569"><ele>485.4</ele><time>2026-04-04T13:26:05.626Z</time></trkpt><trkpt lat="43.4051588" lon="10.7161271"><ele>483.0</ele><time>2026-04-04T13:26:06.622Z</time></trkpt><trkpt lat="43.4052329" lon="10.7161055"><ele>487.2</ele><time>2026-04-04T13:26:07.625Z</time></trkpt><trkpt lat="43.4052984" lon="10.7160596"><ele>491.4</ele><time>2026-04-04T13:26:08.621Z</time></trkpt><trkpt lat="43.4053554" lon="10.715991"><ele>495.59999999999997</ele><time>2026-04-04T13:26:09.621Z</time></trkpt><trkpt lat="43.4053876" lon="10.7158028"><ele>499.79999999999995</ele><time>2026-04-04T13:26:11.62Z</time></trkpt><trkpt lat="43.4053916" lon="10.7156656"><ele>504.0</ele><time>2026-04-04T13:26:12.62Z</time></trkpt><trkpt lat="43.4053914" lon="10.7155264"><ele>504.0</ele><time>2026-04-04T13:26:13.616Z</time></trkpt><trkpt lat="43.405401" lon="10.7153717"><ele>504.0</ele><time>2026-04-04T13:26:14.616Z</time></trkpt><trkpt lat="43.4054265" lon="10.7152226"><ele>504.0</ele><time>2026-04-04T13:26:15.62Z</time></trkpt><trkpt lat="43.4054397" lon="10.7150835"><ele>504.0</ele><time>2026-04-04T13:26:16.629Z</time></trkpt><trkpt lat="43.4054535" lon="10.714952"><ele>504.0</ele><time>2026-04-04T13:26:17.618Z</time></trkpt><trkpt lat="43.4054709" lon="10.7148307"><ele>502.5</ele><time>2026-04-04T13:26:18.62Z</time></trkpt><trkpt lat="43.405474" lon="10.7147083"><ele>501.0</ele><time>2026-04-04T13:26:19.62Z</time></trkpt><trkpt lat="43.4054684" lon="10.7146081"><ele>499.5</ele><time>2026-04-04T13:26:20.621Z</time></trkpt><trkpt lat="43.4054732" lon="10.7144893"><ele>498.0</ele><time>2026-04-04T13:26:21.618Z</time></trkpt><trkpt lat="43.4054727" lon="10.7143514"><ele>496.5</ele><time>2026-04-04T13:26:22.623Z</time></trkpt><trkpt lat="43.4054859" lon="10.71422"><ele>495.0</ele><time>2026-04-04T13:26:23.618Z</time></trkpt><trkpt lat="43.4055097" lon="10.7141071"><ele>495.0</ele><time>2026-04-04T13:26:24.624Z</time></trkpt><trkpt lat="43.4055474" lon="10.7140157"><ele>495.0</ele><time>2026-04-04T13:26:25.624Z</time></trkpt><trkpt lat="43.4055996" lon="10.7139262"><ele>495.0</ele><time>2026-04-04T13:26:26.633Z</time></trkpt><trkpt lat="43.4056343" lon="10.7138328"><ele>495.0</ele><time>2026-04-04T13:26:27.627Z</time></trkpt><trkpt lat="43.4056879" lon="10.713732"><ele>495.0</ele><time>2026-04-04T13:26:28.634Z</time></trkpt><trkpt lat="43.4057396" lon="10.7136099"><ele>495.0</ele><time>2026-04-04T13:26:29.63Z</time></trkpt><trkpt lat="43.4057936" lon="10.7134791"><ele>496.6666666666667</ele><time>2026-04-04T13:26:30.63Z</time></trkpt><trkpt lat="43.4058385" lon="10.7133632"><ele>498.33333333333337</ele><time>2026-04-04T13:26:31.632Z</time></trkpt><trkpt lat="43.4058671" lon="10.7132595"><ele>500.0</ele><time>2026-04-04T13:26:32.633Z</time></trkpt><trkpt lat="43.4058782" lon="10.7131711"><ele>501.6666666666667</ele><time>2026-04-04T13:26:33.63Z</time></trkpt><trkpt lat="43.4058974" lon="10.7130811"><ele>503.33333333333337</ele><time>2026-04-04T13:26:34.63Z</time></trkpt><trkpt lat="43.405942" lon="10.7129733"><ele>505.0</ele><time>2026-04-04T13:26:35.631Z</time></trkpt><trkpt lat="43.4059941" lon="10.7128713"><ele>505.0</ele><time>2026-04-04T13:26:36.631Z</time></trkpt><trkpt lat="43.4060455" lon="10.7127918"><ele>505.0</ele><time>2026-04-04T13:26:37.63Z</time></trkpt><trkpt lat="43.4061028" lon="10.712728"><ele>505.0</ele><time>2026-04-04T13:26:38.633Z</time></trkpt><trkpt lat="43.4061949" lon="10.7126015"><ele>505.0</ele><time>2026-04-04T13:26:40.633Z</time></trkpt><trkpt lat="43.4062361" lon="10.712488"><ele>505.0</ele><time>2026-04-04T13:26:41.626Z</time></trkpt><trkpt lat="43.4062896" lon="10.7123687"><ele>505.6</ele><time>2026-04-04T13:26:42.632Z</time></trkpt><trkpt lat="43.40633" lon="10.7122683"><ele>506.2</ele><time>2026-04-04T13:26:43.635Z</time></trkpt><trkpt lat="43.406354" lon="10.7121712"><ele>506.79999999999995</ele><time>2026-04-04T13:26:44.632Z</time></trkpt><trkpt lat="43.4064247" lon="10.7120199"><ele>507.4</ele><time>2026-04-04T13:26:46.639Z</time></trkpt><trkpt lat="43.4064883" lon="10.7119511"><ele>508.0</ele><time>2026-04-04T13:26:47.637Z</time></trkpt><trkpt lat="43.4065869" lon="10.7118762"><ele>508.00000000000006</ele><time>2026-04-04T13:26:48.636Z</time></trkpt><trkpt lat="43.4066726" lon="10.7118109"><ele>508.0</ele><time>2026-04-04T13:26:49.634Z</time></trkpt><trkpt lat="43.4067472" lon="10.7117509"><ele>508.0</ele><time>2026-04-04T13:26:50.638Z</time></trkpt><trkpt lat="43.4068208" lon="10.7116937"><ele>508.0</ele><time>2026-04-04T13:26:51.638Z</time></trkpt><trkpt lat="43.4068956" lon="10.7116424"><ele>508.00000000000006</ele><time>2026-04-04T13:26:52.643Z</time></trkpt><trkpt lat="43.4069668" lon="10.7115845"><ele>508.0</ele><time>2026-04-04T13:26:53.632Z</time></trkpt><trkpt lat="43.4070332" lon="10.7115197"><ele>508.0</ele><time>2026-04-04T13:26:54.636Z</time></trkpt><trkpt lat="43.4070954" lon="10.7114728"><ele>508.0</ele><time>2026-04-04T13:26:55.632Z</time></trkpt><trkpt lat="43.4071575" lon="10.7114301"><ele>508.0</ele><time>2026-04-04T13:26:56.634Z</time></trkpt><trkpt lat="43.4072201" lon="10.7114142"><ele>508.0</ele><time>2026-04-04T13:26:57.631Z</time></trkpt><trkpt lat="43.4072898" lon="10.7114222"><ele>508.0</ele><time>2026-04-04T13:26:58.629Z</time></trkpt><trkpt lat="43.4073771" lon="10.7114448"><ele>508.0</ele><time>2026-04-04T13:26:59.639Z</time></trkpt><trkpt lat="43.4074511" lon="10.7114531"><ele>508.0</ele><time>2026-04-04T13:27:00.632Z</time></trkpt><trkpt lat="43.4075309" lon="10.7114427"><ele>505.50000000000006</ele><time>2026-04-04T13:27:01.623Z</time></trkpt><trkpt lat="43.4076057" lon="10.7114105"><ele>503.0</ele><time>2026-04-04T13:27:02.635Z</time></trkpt><trkpt lat="43.4076761" lon="10.711357"><ele>500.5</ele><time>2026-04-04T13:27:03.632Z</time></trkpt><trkpt lat="43.4077483" lon="10.7112975"><ele>498.0</ele><time>2026-04-04T13:27:04.633Z</time></trkpt><trkpt lat="43.407828" lon="10.7112556"><ele>495.50000000000006</ele><time>2026-04-04T13:27:05.634Z</time></trkpt><trkpt lat="43.4079154" lon="10.7112203"><ele>493.0</ele><time>2026-04-04T13:27:06.637Z</time></trkpt><trkpt lat="43.4080055" lon="10.711199"><ele>493.6666666666667</ele><time>2026-04-04T13:27:07.636Z</time></trkpt><trkpt lat="43.4080975" lon="10.711157"><ele>494.33333333333337</ele><time>2026-04-04T13:27:08.634Z</time></trkpt><trkpt lat="43.4081803" lon="10.7111103"><ele>495.0</ele><time>2026-04-04T13:27:09.639Z</time></trkpt><trkpt lat="43.4082616" lon="10.7110704"><ele>495.66666666666663</ele><time>2026-04-04T13:27:10.639Z</time></trkpt><trkpt lat="43.4083221" lon="10.7110415"><ele>496.3333333333333</ele><time>2026-04-04T13:27:11.637Z</time></trkpt><trkpt lat="43.4083857" lon="10.7110059"><ele>497.0</ele><time>2026-04-04T13:27:12.642Z</time></trkpt><trkpt lat="43.4084455" lon="10.7109549"><ele>496.99999999999994</ele><time>2026-04-04T13:27:13.638Z</time></trkpt><trkpt lat="43.4085116" lon="10.7109156"><ele>497.0</ele><time>2026-04-04T13:27:14.628Z</time></trkpt><trkpt lat="43.4085943" lon="10.7108905"><ele>497.0</ele><time>2026-04-04T13:27:15.644Z</time></trkpt><trkpt lat="43.4086772" lon="10.710878"><ele>497.0</ele><time>2026-04-04T13:27:16.634Z</time></trkpt><trkpt lat="43.4087427" lon="10.7108585"><ele>496.99999999999994</ele><time>2026-04-04T13:27:17.635Z</time></trkpt><trkpt lat="43.4088084" lon="10.7107993"><ele>497.0</ele><time>2026-04-04T13:27:18.632Z</time></trkpt><trkpt lat="43.4088664" lon="10.7107096"><ele>496.40000000000003</ele><time>2026-04-04T13:27:19.624Z</time></trkpt><trkpt lat="43.4089135" lon="10.7105973"><ele>495.80000000000007</ele><time>2026-04-04T13:27:20.626Z</time></trkpt><trkpt lat="43.4089577" lon="10.7104643"><ele>495.2</ele><time>2026-04-04T13:27:21.619Z</time></trkpt><trkpt lat="43.4089767" lon="10.7103272"><ele>494.6</ele><time>2026-04-04T13:27:22.622Z</time></trkpt><trkpt lat="43.4089958" lon="10.7102061"><ele>494.0</ele><time>2026-04-04T13:27:23.625Z</time></trkpt><trkpt lat="43.409019" lon="10.7101046"><ele>493.99999999999994</ele><time>2026-04-04T13:27:24.627Z</time></trkpt><trkpt lat="43.4090238" lon="10.7099968"><ele>494.0</ele><time>2026-04-04T13:27:25.615Z</time></trkpt><trkpt lat="43.4090554" lon="10.709899"><ele>494.0</ele><time>2026-04-04T13:27:26.626Z</time></trkpt><trkpt lat="43.4090925" lon="10.709804"><ele>494.0</ele><time>2026-04-04T13:27:27.616Z</time></trkpt><trkpt lat="43.4091316" lon="10.7096824"><ele>493.99999999999994</ele><time>2026-04-04T13:27:28.622Z</time></trkpt><trkpt lat="43.4091687" lon="10.7095692"><ele>494.0</ele><time>2026-04-04T13:27:29.62Z</time></trkpt><trkpt lat="43.4092078" lon="10.7094453"><ele>494.57142857142856</ele><time>2026-04-04T13:27:30.62Z</time></trkpt><trkpt lat="43.409231" lon="10.7093331"><ele>495.1428571428571</ele><time>2026-04-04T13:27:31.615Z</time></trkpt><trkpt lat="43.4092517" lon="10.7092311"><ele>495.71428571428567</ele><time>2026-04-04T13:27:32.617Z</time></trkpt><trkpt lat="43.4092523" lon="10.7091441"><ele>496.2857142857143</ele><time>2026-04-04T13:27:33.625Z</time></trkpt><trkpt lat="43.4092403" lon="10.7090572"><ele>496.8571428571428</ele><time>2026-04-04T13:27:34.628Z</time></trkpt><trkpt lat="43.4092102" lon="10.7089675"><ele>497.4285714285714</ele><time>2026-04-04T13:27:35.63Z</time></trkpt><trkpt lat="43.4091764" lon="10.7088602"><ele>498.0</ele><time>2026-04-04T13:27:36.634Z</time></trkpt><trkpt lat="43.4091482" lon="10.7087394"><ele>498.0</ele><time>2026-04-04T13:27:37.634Z</time></trkpt><trkpt lat="43.4091218" lon="10.7086089"><ele>497.99999999999994</ele><time>2026-04-04T13:27:38.632Z</time></trkpt><trkpt lat="43.4090957" lon="10.7084931"><ele>497.99999999999994</ele><time>2026-04-04T13:27:39.635Z</time></trkpt><trkpt lat="43.409078" lon="10.708392"><ele>498.0</ele><time>2026-04-04T13:27:40.623Z</time></trkpt><trkpt lat="43.4090669" lon="10.7082612"><ele>498.0</ele><time>2026-04-04T13:27:42.632Z</time></trkpt><trkpt lat="43.4090566" lon="10.7081307"><ele>498.5</ele><time>2026-04-04T13:27:44.628Z</time></trkpt><trkpt lat="43.4090658" lon="10.7079801"><ele>499.0</ele><time>2026-04-04T13:27:46.627Z</time></trkpt><trkpt lat="43.4090814" lon="10.7078889"><ele>499.5</ele><time>2026-04-04T13:27:47.629Z</time></trkpt><trkpt lat="43.4090965" lon="10.7077823"><ele>500.0</ele><time>2026-04-04T13:27:48.627Z</time></trkpt><trkpt lat="43.4091133" lon="10.7076687"><ele>500.5</ele><time>2026-04-04T13:27:49.629Z</time></trkpt><trkpt lat="43.4091199" lon="10.7075741"><ele>501.0</ele><time>2026-04-04T13:27:50.629Z</time></trkpt><trkpt lat="43.409139" lon="10.7074461"><ele>502.0</ele><time>2026-04-04T13:27:52.629Z</time></trkpt><trkpt lat="43.4092017" lon="10.7072871"><ele>503.0</ele><time>2026-04-04T13:27:54.645Z</time></trkpt><trkpt lat="43.4092592" lon="10.7071345"><ele>504.0</ele><time>2026-04-04T13:27:56.642Z</time></trkpt><trkpt lat="43.4093309" lon="10.7070202"><ele>505.0</ele><time>2026-04-04T13:27:58.642Z</time></trkpt><trkpt lat="43.4093877" lon="10.7069826"><ele>506.0</ele><time>2026-04-04T13:27:59.645Z</time></trkpt><trkpt lat="43.409467" lon="10.70693"><ele>505.49999999999994</ele><time>2026-04-04T13:28:00.642Z</time></trkpt><trkpt lat="43.4095465" lon="10.7068771"><ele>505.0</ele><time>2026-04-04T13:28:01.644Z</time></trkpt><trkpt lat="43.4096017" lon="10.706829"><ele>504.5</ele><time>2026-04-04T13:28:02.642Z</time></trkpt><trkpt lat="43.4096691" lon="10.7067243"><ele>504.0</ele><time>2026-04-04T13:28:04.643Z</time></trkpt><trkpt lat="43.4097185" lon="10.7065937"><ele>503.49999999999994</ele><time>2026-04-04T13:28:06.638Z</time></trkpt><trkpt lat="43.4097691" lon="10.7064958"><ele>503.0</ele><time>2026-04-04T13:28:07.642Z</time></trkpt><trkpt lat="43.4098225" lon="10.7064334"><ele>503.0</ele><time>2026-04-04T13:28:08.636Z</time></trkpt><trkpt lat="43.4098918" lon="10.7063404"><ele>502.99999999999994</ele><time>2026-04-04T13:28:10.648Z</time></trkpt><trkpt lat="43.4099782" lon="10.7063195"><ele>502.99999999999994</ele><time>2026-04-04T13:28:12.651Z</time></trkpt><trkpt lat="43.4101101" lon="10.7063114"><ele>503.0</ele><time>2026-04-04T13:28:14.632Z</time></trkpt><trkpt lat="43.4101951" lon="10.706318"><ele>503.0</ele><time>2026-04-04T13:28:15.638Z</time></trkpt><trkpt lat="43.4102831" lon="10.706338"><ele>503.0</ele><time>2026-04-04T13:28:16.635Z</time></trkpt><trkpt lat="43.4103531" lon="10.7063545"><ele>502.99999999999994</ele><time>2026-04-04T13:28:17.633Z</time></trkpt><trkpt lat="43.4104523" lon="10.7063199"><ele>502.99999999999994</ele><time>2026-04-04T13:28:19.638Z</time></trkpt><trkpt lat="43.4105193" lon="10.706256"><ele>503.0</ele><time>2026-04-04T13:28:20.639Z</time></trkpt><trkpt lat="43.4105981" lon="10.7061621"><ele>503.0</ele><time>2026-04-04T13:28:21.639Z</time></trkpt><trkpt lat="43.4106857" lon="10.7060857"><ele>502.99999999999994</ele><time>2026-04-04T13:28:22.641Z</time></trkpt><trkpt lat="43.4107528" lon="10.7060304"><ele>503.0</ele><time>2026-04-04T13:28:23.642Z</time></trkpt><trkpt lat="43.4108149" lon="10.7059638"><ele>503.0</ele><time>2026-04-04T13:28:24.641Z</time></trkpt><trkpt lat="43.410861" lon="10.7058962"><ele>503.0</ele><time>2026-04-04T13:28:25.632Z</time></trkpt><trkpt lat="43.4109012" lon="10.7058232"><ele>502.99999999999994</ele><time>2026-04-04T13:28:26.636Z</time></trkpt><trkpt lat="43.410953" lon="10.705728"><ele>503.0</ele><time>2026-04-04T13:28:27.635Z</time></trkpt><trkpt lat="43.4110048" lon="10.705631"><ele>502.99999999999994</ele><time>2026-04-04T13:28:28.642Z</time></trkpt><trkpt lat="43.4110585" lon="10.7055412"><ele>503.0</ele><time>2026-04-04T13:28:29.638Z</time></trkpt><trkpt lat="43.4111099" lon="10.705463"><ele>503.0</ele><time>2026-04-04T13:28:30.643Z</time></trkpt><trkpt lat="43.4111696" lon="10.7053922"><ele>503.0</ele><time>2026-04-04T13:28:31.634Z</time></trkpt><trkpt lat="43.4112421" lon="10.7053334"><ele>502.99999999999994</ele><time>2026-04-04T13:28:32.636Z</time></trkpt><trkpt lat="43.4113016" lon="10.7052905"><ele>503.0</ele><time>2026-04-04T13:28:33.635Z</time></trkpt><trkpt lat="43.4113645" lon="10.7052603"><ele>503.8333333333333</ele><time>2026-04-04T13:28:34.633Z</time></trkpt><trkpt lat="43.4114473" lon="10.70524"><ele>504.66666666666663</ele><time>2026-04-04T13:28:35.636Z</time></trkpt><trkpt lat="43.4115316" lon="10.7052268"><ele>505.5</ele><time>2026-04-04T13:28:36.635Z</time></trkpt><trkpt lat="43.4116107" lon="10.7052536"><ele>506.33333333333337</ele><time>2026-04-04T13:28:37.631Z</time></trkpt><trkpt lat="43.4116862" lon="10.7052842"><ele>507.1666666666667</ele><time>2026-04-04T13:28:38.636Z</time></trkpt><trkpt lat="43.4117637" lon="10.7053275"><ele>508.0</ele><time>2026-04-04T13:28:39.636Z</time></trkpt><trkpt lat="43.4118369" lon="10.705369"><ele>505.2</ele><time>2026-04-04T13:28:40.637Z</time></trkpt><trkpt lat="43.4119122" lon="10.7053994"><ele>502.4</ele><time>2026-04-04T13:28:41.644Z</time></trkpt><trkpt lat="43.4120317" lon="10.7054322"><ele>499.59999999999997</ele><time>2026-04-04T13:28:43.635Z</time></trkpt><trkpt lat="43.4121385" lon="10.7054854"><ele>496.79999999999995</ele><time>2026-04-04T13:28:45.644Z</time></trkpt><trkpt lat="43.4122186" lon="10.7055673"><ele>494.0</ele><time>2026-04-04T13:28:47.637Z</time></trkpt><trkpt lat="43.4122978" lon="10.7055332"><ele>493.99999999999994</ele><time>2026-04-04T13:28:50.655Z</time></trkpt><trkpt lat="43.4123735" lon="10.7055329"><ele>494.0</ele><time>2026-04-04T13:28:53.649Z</time></trkpt><trkpt lat="43.4124149" lon="10.7054549"><ele>494.0</ele><time>2026-04-04T13:28:58.656Z</time></trkpt><trkpt lat="43.412447" lon="10.7053622"><ele>494.0</ele><time>2026-04-04T13:29:01.659Z</time></trkpt><trkpt lat="43.412511" lon="10.7052818"><ele>493.99999999999994</ele><time>2026-04-04T13:29:03.656Z</time></trkpt><trkpt lat="43.4126215" lon="10.7052528"><ele>494.0</ele><time>2026-04-04T13:29:05.644Z</time></trkpt><trkpt lat="43.4127251" lon="10.7052453"><ele>494.0</ele><time>2026-04-04T13:29:07.645Z</time></trkpt><trkpt lat="43.4128403" lon="10.7052469"><ele>494.0</ele><time>2026-04-04T13:29:09.634Z</time></trkpt><trkpt lat="43.4129294" lon="10.7052844"><ele>494.0</ele><time>2026-04-04T13:29:11.647Z</time></trkpt><trkpt lat="43.4130259" lon="10.7053141"><ele>494.0</ele><time>2026-04-04T13:29:13.646Z</time></trkpt><trkpt lat="43.413154" lon="10.7053058"><ele>494.0</ele><time>2026-04-04T13:29:15.647Z</time></trkpt><trkpt lat="43.4132461" lon="10.7053949"><ele>495.0</ele><time>2026-04-04T13:29:17.637Z</time></trkpt><trkpt lat="43.4133207" lon="10.7054914"><ele>496.0</ele><time>2026-04-04T13:29:19.638Z</time></trkpt><trkpt lat="43.4134089" lon="10.7055966"><ele>497.0</ele><time>2026-04-04T13:29:21.644Z</time></trkpt><trkpt lat="43.4134562" lon="10.7056669"><ele>498.0</ele><time>2026-04-04T13:29:22.639Z</time></trkpt><trkpt lat="43.4135182" lon="10.7057491"><ele>499.0</ele><time>2026-04-04T13:29:23.635Z</time></trkpt><trkpt lat="43.4135763" lon="10.705827"><ele>499.00000000000006</ele><time>2026-04-04T13:29:24.633Z</time></trkpt><trkpt lat="43.4136391" lon="10.705905"><ele>499.0</ele><time>2026-04-04T13:29:25.643Z</time></trkpt><trkpt lat="43.413702" lon="10.7059981"><ele>499.0</ele><time>2026-04-04T13:29:26.637Z</time></trkpt><trkpt lat="43.4137617" lon="10.7060799"><ele>499.0</ele><time>2026-04-04T13:29:27.64Z</time></trkpt><trkpt lat="43.4138093" lon="10.7061423"><ele>499.00000000000006</ele><time>2026-04-04T13:29:28.633Z</time></trkpt><trkpt lat="43.4138509" lon="10.7062092"><ele>499.0</ele><time>2026-04-04T13:29:29.634Z</time></trkpt><trkpt lat="43.4138979" lon="10.7062743"><ele>498.4</ele><time>2026-04-04T13:29:30.641Z</time></trkpt><trkpt lat="43.414006" lon="10.7063502"><ele>497.79999999999995</ele><time>2026-04-04T13:29:32.649Z</time></trkpt><trkpt lat="43.4141217" lon="10.7063837"><ele>497.20000000000005</ele><time>2026-04-04T13:29:34.647Z</time></trkpt><trkpt lat="43.4142028" lon="10.7063956"><ele>496.6</ele><time>2026-04-04T13:29:35.648Z</time></trkpt><trkpt lat="43.4142838" lon="10.7063957"><ele>496.0</ele><time>2026-04-04T13:29:36.644Z</time></trkpt><trkpt lat="43.4143597" lon="10.7063844"><ele>496.0</ele><time>2026-04-04T13:29:37.645Z</time></trkpt><trkpt lat="43.4144334" lon="10.7063739"><ele>496.00000000000006</ele><time>2026-04-04T13:29:38.648Z</time></trkpt><trkpt lat="43.4145051" lon="10.7063632"><ele>496.0</ele><time>2026-04-04T13:29:39.643Z</time></trkpt><trkpt lat="43.4145732" lon="10.7063718"><ele>496.0</ele><time>2026-04-04T13:29:40.631Z</time></trkpt><trkpt lat="43.414635" lon="10.7063962"><ele>496.00000000000006</ele><time>2026-04-04T13:29:41.631Z</time></trkpt><trkpt lat="43.4146858" lon="10.7064553"><ele>496.0</ele><time>2026-04-04T13:29:42.632Z</time></trkpt><trkpt lat="43.4147324" lon="10.7065375"><ele>496.0</ele><time>2026-04-04T13:29:43.621Z</time></trkpt><trkpt lat="43.4147777" lon="10.7066272"><ele>496.50000000000006</ele><time>2026-04-04T13:29:44.626Z</time></trkpt><trkpt lat="43.4148177" lon="10.7067212"><ele>497.0</ele><time>2026-04-04T13:29:45.635Z</time></trkpt><trkpt lat="43.4148466" lon="10.7068014"><ele>497.5</ele><time>2026-04-04T13:29:46.636Z</time></trkpt><trkpt lat="43.4148949" lon="10.706932"><ele>498.0</ele><time>2026-04-04T13:29:48.64Z</time></trkpt><trkpt lat="43.4149419" lon="10.7070052"><ele>498.50000000000006</ele><time>2026-04-04T13:29:49.644Z</time></trkpt><trkpt lat="43.4150011" lon="10.707073"><ele>499.0</ele><time>2026-04-04T13:29:50.635Z</time></trkpt><trkpt lat="43.4150625" lon="10.7071513"><ele>499.0</ele><time>2026-04-04T13:29:51.636Z</time></trkpt><trkpt lat="43.4151083" lon="10.7072141"><ele>499.0</ele><time>2026-04-04T13:29:52.64Z</time></trkpt><trkpt lat="43.4151871" lon="10.7073426"><ele>499.0</ele><time>2026-04-04T13:29:54.64Z</time></trkpt><trkpt lat="43.4152811" lon="10.7074396"><ele>499.0</ele><time>2026-04-04T13:29:56.643Z</time></trkpt><trkpt lat="43.4153968" lon="10.707475"><ele>499.0</ele><time>2026-04-04T13:29:58.632Z</time></trkpt><trkpt lat="43.4154806" lon="10.7074861"><ele>501.33333333333337</ele><time>2026-04-04T13:29:59.636Z</time></trkpt><trkpt lat="43.4155642" lon="10.7074886"><ele>503.6666666666667</ele><time>2026-04-04T13:30:00.636Z</time></trkpt><trkpt lat="43.4156558" lon="10.7074888"><ele>506.0</ele><time>2026-04-04T13:30:01.636Z</time></trkpt><trkpt lat="43.4157289" lon="10.7075137"><ele>508.33333333333337</ele><time>2026-04-04T13:30:02.628Z</time></trkpt><trkpt lat="43.4158039" lon="10.7075623"><ele>510.6666666666667</ele><time>2026-04-04T13:30:03.63Z</time></trkpt><trkpt lat="43.4158755" lon="10.7076212"><ele>513.0</ele><time>2026-04-04T13:30:04.627Z</time></trkpt><trkpt lat="43.4159329" lon="10.7076719"><ele>512.5</ele><time>2026-04-04T13:30:05.626Z</time></trkpt><trkpt lat="43.4160031" lon="10.7077515"><ele>512.0</ele><time>2026-04-04T13:30:07.626Z</time></trkpt><trkpt lat="43.4160751" lon="10.7077773"><ele>511.5</ele><time>2026-04-04T13:30:14.64Z</time></trkpt><trkpt lat="43.41615" lon="10.7078405"><ele>511.0</ele><time>2026-04-04T13:30:18.643Z</time></trkpt><trkpt lat="43.4162345" lon="10.7079383"><ele>510.5</ele><time>2026-04-04T13:30:21.638Z</time></trkpt><trkpt lat="43.4162935" lon="10.7079995"><ele>510.0</ele><time>2026-04-04T13:30:22.639Z</time></trkpt><trkpt lat="43.4163726" lon="10.7080655"><ele>510.0</ele><time>2026-04-04T13:30:23.624Z</time></trkpt><trkpt lat="43.4164669" lon="10.7081383"><ele>510.0</ele><time>2026-04-04T13:30:25.626Z</time></trkpt><trkpt lat="43.4165239" lon="10.7081997"><ele>510.0</ele><time>2026-04-04T13:30:27.638Z</time></trkpt><trkpt lat="43.4165988" lon="10.7082486"><ele>510.0</ele><time>2026-04-04T13:30:30.641Z</time></trkpt><trkpt lat="43.4166598" lon="10.7082961"><ele>510.0</ele><time>2026-04-04T13:30:32.647Z</time></trkpt><trkpt lat="43.4167425" lon="10.7082674"><ele>510.0</ele><time>2026-04-04T13:30:35.648Z</time></trkpt><trkpt lat="43.4167953" lon="10.7082114"><ele>510.0</ele><time>2026-04-04T13:30:41.648Z</time></trkpt><trkpt lat="43.4168669" lon="10.7081508"><ele>510.0</ele><time>2026-04-04T13:30:45.653Z</time></trkpt><trkpt lat="43.4169284" lon="10.708113"><ele>510.0</ele><time>2026-04-04T13:30:47.644Z</time></trkpt><trkpt lat="43.4170247" lon="10.7081056"><ele>510.0</ele><time>2026-04-04T13:31:05.625Z</time></trkpt><trkpt lat="43.4169836" lon="10.7081833"><ele>510.0</ele><time>2026-04-04T13:31:21.601Z</time></trkpt><trkpt lat="43.4170672" lon="10.7081862"><ele>510.0</ele><time>2026-04-04T13:31:40.636Z</time></trkpt><trkpt lat="43.4171217" lon="10.7082571"><ele>511.6</ele><time>2026-04-04T13:31:42.643Z</time></trkpt><trkpt lat="43.4172041" lon="10.7083252"><ele>513.2</ele><time>2026-04-04T13:31:44.642Z</time></trkpt><trkpt lat="43.417286" lon="10.7083826"><ele>514.8</ele><time>2026-04-04T13:31:46.646Z</time></trkpt><trkpt lat="43.4173807" lon="10.7083752"><ele>516.4</ele><time>2026-04-04T13:31:48.647Z</time></trkpt><trkpt lat="43.417462" lon="10.7083925"><ele>518.0</ele><time>2026-04-04T13:31:50.644Z</time></trkpt><trkpt lat="43.4175227" lon="10.708499"><ele>517.0</ele><time>2026-04-04T13:31:52.64Z</time></trkpt><trkpt lat="43.4175566" lon="10.7086445"><ele>516.0</ele><time>2026-04-04T13:31:54.631Z</time></trkpt><trkpt lat="43.4175862" lon="10.7088159"><ele>515.0</ele><time>2026-04-04T13:31:56.635Z</time></trkpt><trkpt lat="43.417614" lon="10.7089143"><ele>514.0</ele><time>2026-04-04T13:31:57.631Z</time></trkpt><trkpt lat="43.4176425" lon="10.7090052"><ele>513.0</ele><time>2026-04-04T13:31:58.625Z</time></trkpt><trkpt lat="43.4176759" lon="10.7090987"><ele>513.0</ele><time>2026-04-04T13:31:59.635Z</time></trkpt><trkpt lat="43.4177153" lon="10.7091791"><ele>513.0</ele><time>2026-04-04T13:32:00.631Z</time></trkpt><trkpt lat="43.417743" lon="10.709278"><ele>513.0</ele><time>2026-04-04T13:32:01.635Z</time></trkpt><trkpt lat="43.417775" lon="10.7093671"><ele>513.0</ele><time>2026-04-04T13:32:02.627Z</time></trkpt><trkpt lat="43.4178101" lon="10.709466"><ele>513.0</ele><time>2026-04-04T13:32:03.635Z</time></trkpt><trkpt lat="43.4178493" lon="10.7095565"><ele>513.0</ele><time>2026-04-04T13:32:04.634Z</time></trkpt><trkpt lat="43.4178875" lon="10.7096466"><ele>512.1999999999999</ele><time>2026-04-04T13:32:05.635Z</time></trkpt><trkpt lat="43.4179322" lon="10.7097242"><ele>511.4</ele><time>2026-04-04T13:32:06.631Z</time></trkpt><trkpt lat="43.4179991" lon="10.709867"><ele>510.59999999999997</ele><time>2026-04-04T13:32:08.635Z</time></trkpt><trkpt lat="43.4180637" lon="10.7099851"><ele>509.79999999999995</ele><time>2026-04-04T13:32:10.63Z</time></trkpt><trkpt lat="43.418125" lon="10.7100581"><ele>509.0</ele><time>2026-04-04T13:32:11.629Z</time></trkpt><trkpt lat="43.4182017" lon="10.7101499"><ele>509.71428571428567</ele><time>2026-04-04T13:32:12.635Z</time></trkpt><trkpt lat="43.4182602" lon="10.7102353"><ele>510.42857142857144</ele><time>2026-04-04T13:32:13.636Z</time></trkpt><trkpt lat="43.4183067" lon="10.7103194"><ele>511.1428571428571</ele><time>2026-04-04T13:32:14.634Z</time></trkpt><trkpt lat="43.4183592" lon="10.7103978"><ele>511.85714285714283</ele><time>2026-04-04T13:32:15.637Z</time></trkpt><trkpt lat="43.4184052" lon="10.710463"><ele>512.5714285714286</ele><time>2026-04-04T13:32:16.631Z</time></trkpt><trkpt lat="43.4184547" lon="10.7105215"><ele>513.2857142857142</ele><time>2026-04-04T13:32:17.631Z</time></trkpt><trkpt lat="43.4185111" lon="10.7105888"><ele>514.0</ele><time>2026-04-04T13:32:18.637Z</time></trkpt><trkpt lat="43.4185758" lon="10.7106303"><ele>514.0</ele><time>2026-04-04T13:32:19.63Z</time></trkpt><trkpt lat="43.4186483" lon="10.7106662"><ele>514.0</ele><time>2026-04-04T13:32:20.627Z</time></trkpt><trkpt lat="43.4187415" lon="10.7107313"><ele>514.0</ele><time>2026-04-04T13:32:22.629Z</time></trkpt><trkpt lat="43.4187855" lon="10.7108743"><ele>514.0</ele><time>2026-04-04T13:32:24.627Z</time></trkpt><trkpt lat="43.4187987" lon="10.7109784"><ele>514.0</ele><time>2026-04-04T13:32:25.629Z</time></trkpt><trkpt lat="43.4188096" lon="10.7110964"><ele>515.0</ele><time>2026-04-04T13:32:26.632Z</time></trkpt><trkpt lat="43.4188105" lon="10.7112141"><ele>516.0</ele><time>2026-04-04T13:32:27.633Z</time></trkpt><trkpt lat="43.4188176" lon="10.7113274"><ele>517.0</ele><time>2026-04-04T13:32:28.631Z</time></trkpt><trkpt lat="43.4188239" lon="10.7114214"><ele>518.0</ele><time>2026-04-04T13:32:29.629Z</time></trkpt><trkpt lat="43.4188375" lon="10.7115172"><ele>519.0</ele><time>2026-04-04T13:32:30.632Z</time></trkpt><trkpt lat="43.4188859" lon="10.7116466"><ele>520.0</ele><time>2026-04-04T13:32:32.631Z</time></trkpt><trkpt lat="43.418963" lon="10.7117372"><ele>520.0</ele><time>2026-04-04T13:32:34.632Z</time></trkpt><trkpt lat="43.4190603" lon="10.7118465"><ele>520.0</ele><time>2026-04-04T13:32:36.635Z</time></trkpt><trkpt lat="43.4191258" lon="10.7119012"><ele>520.0</ele><time>2026-04-04T13:32:37.634Z</time></trkpt><trkpt lat="43.4191906" lon="10.7119594"><ele>520.0</ele><time>2026-04-04T13:32:38.632Z</time></trkpt><trkpt lat="43.419255" lon="10.712014"><ele>520.0</ele><time>2026-04-04T13:32:39.633Z</time></trkpt><trkpt lat="43.4193182" lon="10.7120691"><ele>520.0</ele><time>2026-04-04T13:32:40.637Z</time></trkpt><trkpt lat="43.4193783" lon="10.7121375"><ele>520.0000000000001</ele><time>2026-04-04T13:32:41.632Z</time></trkpt><trkpt lat="43.419447" lon="10.7121987"><ele>520.0</ele><time>2026-04-04T13:32:42.632Z</time></trkpt><trkpt lat="43.4195072" lon="10.7122512"><ele>520.0</ele><time>2026-04-04T13:32:43.634Z</time></trkpt><trkpt lat="43.4195546" lon="10.712317"><ele>520.0</ele><time>2026-04-04T13:32:44.629Z</time></trkpt><trkpt lat="43.4195919" lon="10.7123955"><ele>520.0</ele><time>2026-04-04T13:32:45.641Z</time></trkpt><trkpt lat="43.4196283" lon="10.712488"><ele>520.0000000000001</ele><time>2026-04-04T13:32:46.638Z</time></trkpt><trkpt lat="43.4196587" lon="10.7125822"><ele>520.0</ele><time>2026-04-04T13:32:47.634Z</time></trkpt><trkpt lat="43.4196904" lon="10.7126686"><ele>518.1666666666667</ele><time>2026-04-04T13:32:48.643Z</time></trkpt><trkpt lat="43.4197284" lon="10.7127451"><ele>516.3333333333334</ele><time>2026-04-04T13:32:49.642Z</time></trkpt><trkpt lat="43.4197707" lon="10.7128304"><ele>514.5</ele><time>2026-04-04T13:32:50.64Z</time></trkpt><trkpt lat="43.4198274" lon="10.712926"><ele>512.6666666666666</ele><time>2026-04-04T13:32:51.637Z</time></trkpt><trkpt lat="43.4198879" lon="10.7130254"><ele>510.8333333333333</ele><time>2026-04-04T13:32:52.632Z</time></trkpt><trkpt lat="43.419941" lon="10.7131032"><ele>509.0</ele><time>2026-04-04T13:32:53.63Z</time></trkpt><trkpt lat="43.4200001" lon="10.7131687"><ele>508.99999999999994</ele><time>2026-04-04T13:32:54.631Z</time></trkpt><trkpt lat="43.4200629" lon="10.7132296"><ele>509.0</ele><time>2026-04-04T13:32:55.636Z</time></trkpt><trkpt lat="43.4201254" lon="10.7132883"><ele>509.0</ele><time>2026-04-04T13:32:56.641Z</time></trkpt><trkpt lat="43.4201902" lon="10.7133349"><ele>509.0</ele><time>2026-04-04T13:32:57.64Z</time></trkpt><trkpt lat="43.4202717" lon="10.7133789"><ele>508.99999999999994</ele><time>2026-04-04T13:32:58.635Z</time></trkpt><trkpt lat="43.4203797" lon="10.7134269"><ele>509.0</ele><time>2026-04-04T13:32:59.636Z</time></trkpt><trkpt lat="43.4204795" lon="10.7134705"><ele>508.79999999999995</ele><time>2026-04-04T13:33:00.632Z</time></trkpt><trkpt lat="43.4205683" lon="10.7134959"><ele>508.59999999999997</ele><time>2026-04-04T13:33:01.627Z</time></trkpt><trkpt lat="43.4206491" lon="10.713531"><ele>508.4</ele><time>2026-04-04T13:33:02.632Z</time></trkpt><trkpt lat="43.4207748" lon="10.7136162"><ele>508.2</ele><time>2026-04-04T13:33:04.624Z</time></trkpt><trkpt lat="43.4208189" lon="10.7136831"><ele>508.0</ele><time>2026-04-04T13:33:05.626Z</time></trkpt><trkpt lat="43.4208628" lon="10.7137589"><ele>508.0</ele><time>2026-04-04T13:33:06.63Z</time></trkpt><trkpt lat="43.4209023" lon="10.7138611"><ele>507.99999999999994</ele><time>2026-04-04T13:33:07.631Z</time></trkpt><trkpt lat="43.4209481" lon="10.7139652"><ele>507.99999999999994</ele><time>2026-04-04T13:33:08.628Z</time></trkpt><trkpt lat="43.420978" lon="10.71408"><ele>508.0</ele><time>2026-04-04T13:33:09.615Z</time></trkpt><trkpt lat="43.4210085" lon="10.7142018"><ele>508.0</ele><time>2026-04-04T13:33:10.616Z</time></trkpt><trkpt lat="43.421052" lon="10.7143198"><ele>508.00000000000006</ele><time>2026-04-04T13:33:11.612Z</time></trkpt><trkpt lat="43.4211004" lon="10.7144152"><ele>508.0</ele><time>2026-04-04T13:33:12.616Z</time></trkpt><trkpt lat="43.4211912" lon="10.7145077"><ele>508.0</ele><time>2026-04-04T13:33:14.617Z</time></trkpt><trkpt lat="43.4212584" lon="10.7145679"><ele>508.0</ele><time>2026-04-04T13:33:15.624Z</time></trkpt><trkpt lat="43.4213275" lon="10.7146209"><ele>508.00000000000006</ele><time>2026-04-04T13:33:16.625Z</time></trkpt><trkpt lat="43.4213888" lon="10.7146531"><ele>508.0</ele><time>2026-04-04T13:33:17.629Z</time></trkpt><trkpt lat="43.4214524" lon="10.7146814"><ele>508.00000000000006</ele><time>2026-04-04T13:33:18.628Z</time></trkpt><trkpt lat="43.4215622" lon="10.7147123"><ele>508.0</ele><time>2026-04-04T13:33:20.626Z</time></trkpt><trkpt lat="43.4216346" lon="10.7147154"><ele>508.0</ele><time>2026-04-04T13:33:21.631Z</time></trkpt><trkpt lat="43.4217043" lon="10.7147212"><ele>508.0</ele><time>2026-04-04T13:33:22.627Z</time></trkpt><trkpt lat="43.4217657" lon="10.7147427"><ele>508.00000000000006</ele><time>2026-04-04T13:33:23.626Z</time></trkpt><trkpt lat="43.4218961" lon="10.7147361"><ele>508.0</ele><time>2026-04-04T13:33:25.63Z</time></trkpt><trkpt lat="43.4219751" lon="10.7147183"><ele>508.00000000000006</ele><time>2026-04-04T13:33:26.627Z</time></trkpt><trkpt lat="43.4220492" lon="10.7146634"><ele>508.0</ele><time>2026-04-04T13:33:27.63Z</time></trkpt><trkpt lat="43.4221204" lon="10.7145988"><ele>508.0</ele><time>2026-04-04T13:33:28.632Z</time></trkpt><trkpt lat="43.4221899" lon="10.7145434"><ele>508.0</ele><time>2026-04-04T13:33:29.64Z</time></trkpt><trkpt lat="43.4222596" lon="10.7144735"><ele>508.00000000000006</ele><time>2026-04-04T13:33:30.635Z</time></trkpt><trkpt lat="43.4223295" lon="10.7144199"><ele>508.0</ele><time>2026-04-04T13:33:31.632Z</time></trkpt><trkpt lat="43.422398" lon="10.7143641"><ele>508.33333333333337</ele><time>2026-04-04T13:33:32.626Z</time></trkpt><trkpt lat="43.4224645" lon="10.7143122"><ele>508.6666666666667</ele><time>2026-04-04T13:33:33.624Z</time></trkpt><trkpt lat="43.4225409" lon="10.7142639"><ele>509.0</ele><time>2026-04-04T13:33:34.626Z</time></trkpt><trkpt lat="43.4226158" lon="10.7142199"><ele>509.33333333333337</ele><time>2026-04-04T13:33:35.631Z</time></trkpt><trkpt lat="43.4226925" lon="10.7142008"><ele>509.6666666666667</ele><time>2026-04-04T13:33:36.623Z</time></trkpt><trkpt lat="43.4227652" lon="10.714205"><ele>510.0</ele><time>2026-04-04T13:33:37.625Z</time></trkpt><trkpt lat="43.4228434" lon="10.7142243"><ele>510.0</ele><time>2026-04-04T13:33:38.632Z</time></trkpt><trkpt lat="43.4229337" lon="10.7142402"><ele>510.0</ele><time>2026-04-04T13:33:39.631Z</time></trkpt><trkpt lat="43.4230152" lon="10.7142628"><ele>510.0</ele><time>2026-04-04T13:33:40.636Z</time></trkpt><trkpt lat="43.423106" lon="10.7142539"><ele>510.0</ele><time>2026-04-04T13:33:41.631Z</time></trkpt><trkpt lat="43.4231862" lon="10.7142308"><ele>510.0</ele><time>2026-04-04T13:33:42.631Z</time></trkpt><trkpt lat="43.4232707" lon="10.7142027"><ele>510.0</ele><time>2026-04-04T13:33:43.636Z</time></trkpt><trkpt lat="43.4233456" lon="10.7141837"><ele>509.1666666666667</ele><time>2026-04-04T13:33:44.634Z</time></trkpt><trkpt lat="43.4234292" lon="10.7141764"><ele>508.33333333333337</ele><time>2026-04-04T13:33:45.64Z</time></trkpt><trkpt lat="43.4235033" lon="10.7141801"><ele>507.5</ele><time>2026-04-04T13:33:46.632Z</time></trkpt><trkpt lat="43.4235749" lon="10.7142074"><ele>506.6666666666667</ele><time>2026-04-04T13:33:47.625Z</time></trkpt><trkpt lat="43.4236585" lon="10.7142194"><ele>505.83333333333337</ele><time>2026-04-04T13:33:48.632Z</time></trkpt><trkpt lat="43.4237377" lon="10.7142419"><ele>505.0</ele><time>2026-04-04T13:33:49.629Z</time></trkpt><trkpt lat="43.4238173" lon="10.7142824"><ele>504.0</ele><time>2026-04-04T13:33:50.633Z</time></trkpt><trkpt lat="43.4239145" lon="10.7143129"><ele>503.0</ele><time>2026-04-04T13:33:51.635Z</time></trkpt><trkpt lat="43.424011" lon="10.7143397"><ele>502.0</ele><time>2026-04-04T13:33:52.63Z</time></trkpt><trkpt lat="43.4241055" lon="10.7143474"><ele>501.0</ele><time>2026-04-04T13:33:53.639Z</time></trkpt><trkpt lat="43.4241927" lon="10.7143605"><ele>500.0</ele><time>2026-04-04T13:33:54.629Z</time></trkpt><trkpt lat="43.4242817" lon="10.7143973"><ele>497.3333333333333</ele><time>2026-04-04T13:33:55.632Z</time></trkpt><trkpt lat="43.4243602" lon="10.7144513"><ele>494.66666666666663</ele><time>2026-04-04T13:33:56.632Z</time></trkpt><trkpt lat="43.42444" lon="10.7145128"><ele>492.0</ele><time>2026-04-04T13:33:57.633Z</time></trkpt><trkpt lat="43.4245184" lon="10.7145849"><ele>489.33333333333337</ele><time>2026-04-04T13:33:58.638Z</time></trkpt><trkpt lat="43.4245885" lon="10.7146442"><ele>486.6666666666667</ele><time>2026-04-04T13:33:59.635Z</time></trkpt><trkpt lat="43.4246522" lon="10.7146912"><ele>484.0</ele><time>2026-04-04T13:34:00.629Z</time></trkpt><trkpt lat="43.4247195" lon="10.7147242"><ele>483.33333333333337</ele><time>2026-04-04T13:34:01.622Z</time></trkpt><trkpt lat="43.4247945" lon="10.7147384"><ele>482.6666666666667</ele><time>2026-04-04T13:34:02.63Z</time></trkpt><trkpt lat="43.4249042" lon="10.7147329"><ele>482.0</ele><time>2026-04-04T13:34:04.637Z</time></trkpt><trkpt lat="43.4250152" lon="10.7146943"><ele>481.33333333333337</ele><time>2026-04-04T13:34:06.634Z</time></trkpt><trkpt lat="43.4250775" lon="10.7146466"><ele>480.6666666666667</ele><time>2026-04-04T13:34:07.634Z</time></trkpt><trkpt lat="43.4251399" lon="10.7146119"><ele>480.0</ele><time>2026-04-04T13:34:08.634Z</time></trkpt><trkpt lat="43.4252686" lon="10.714577"><ele>480.0</ele><time>2026-04-04T13:34:10.64Z</time></trkpt><trkpt lat="43.4253394" lon="10.7145821"><ele>480.0</ele><time>2026-04-04T13:34:11.633Z</time></trkpt><trkpt lat="43.4254049" lon="10.7145898"><ele>480.0</ele><time>2026-04-04T13:34:12.641Z</time></trkpt><trkpt lat="43.4254677" lon="10.7145994"><ele>480.0</ele><time>2026-04-04T13:34:13.632Z</time></trkpt><trkpt lat="43.4255376" lon="10.7146011"><ele>480.0</ele><time>2026-04-04T13:34:14.629Z</time></trkpt><trkpt lat="43.4256038" lon="10.7146147"><ele>480.0</ele><time>2026-04-04T13:34:15.636Z</time></trkpt><trkpt lat="43.4256652" lon="10.7146474"><ele>480.0</ele><time>2026-04-04T13:34:16.629Z</time></trkpt><trkpt lat="43.425774" lon="10.7147561"><ele>478.8333333333333</ele><time>2026-04-04T13:34:18.634Z</time></trkpt><trkpt lat="43.4258259" lon="10.7148337"><ele>477.66666666666663</ele><time>2026-04-04T13:34:19.628Z</time></trkpt><trkpt lat="43.4258888" lon="10.7148957"><ele>476.5</ele><time>2026-04-04T13:34:20.625Z</time></trkpt><trkpt lat="43.4259476" lon="10.714964"><ele>475.3333333333333</ele><time>2026-04-04T13:34:21.62Z</time></trkpt><trkpt lat="43.4260087" lon="10.7150294"><ele>474.16666666666663</ele><time>2026-04-04T13:34:22.632Z</time></trkpt><trkpt lat="43.4260519" lon="10.7151013"><ele>473.0</ele><time>2026-04-04T13:34:23.628Z</time></trkpt><trkpt lat="43.4261292" lon="10.7151624"><ele>472.99999999999994</ele><time>2026-04-04T13:34:25.626Z</time></trkpt><trkpt lat="43.4262003" lon="10.7151426"><ele>473.0</ele><time>2026-04-04T13:34:27.63Z</time></trkpt><trkpt lat="43.4262661" lon="10.7150652"><ele>473.0</ele><time>2026-04-04T13:34:29.628Z</time></trkpt><trkpt lat="43.4263321" lon="10.7149244"><ele>473.0</ele><time>2026-04-04T13:34:31.622Z</time></trkpt><trkpt lat="43.4263712" lon="10.7148501"><ele>472.99999999999994</ele><time>2026-04-04T13:34:32.627Z</time></trkpt><trkpt lat="43.4264178" lon="10.7147907"><ele>473.0</ele><time>2026-04-04T13:34:33.614Z</time></trkpt><trkpt lat="43.4264918" lon="10.7146547"><ele>471.8333333333333</ele><time>2026-04-04T13:34:35.625Z</time></trkpt><trkpt lat="43.4265403" lon="10.7145973"><ele>470.66666666666663</ele><time>2026-04-04T13:34:36.624Z</time></trkpt><trkpt lat="43.4266588" lon="10.7145302"><ele>469.5</ele><time>2026-04-04T13:34:38.617Z</time></trkpt><trkpt lat="43.4267246" lon="10.7145117"><ele>468.33333333333337</ele><time>2026-04-04T13:34:39.614Z</time></trkpt><trkpt lat="43.4267953" lon="10.7144953"><ele>467.1666666666667</ele><time>2026-04-04T13:34:40.612Z</time></trkpt><trkpt lat="43.4268629" lon="10.7144675"><ele>466.0</ele><time>2026-04-04T13:34:41.62Z</time></trkpt><trkpt lat="43.4269878" lon="10.7143986"><ele>466.00000000000006</ele><time>2026-04-04T13:34:43.616Z</time></trkpt><trkpt lat="43.4270526" lon="10.7143465"><ele>466.0</ele><time>2026-04-04T13:34:44.614Z</time></trkpt><trkpt lat="43.427121" lon="10.7143236"><ele>466.0</ele><time>2026-04-04T13:34:45.629Z</time></trkpt><trkpt lat="43.4271928" lon="10.7143299"><ele>466.0</ele><time>2026-04-04T13:34:46.616Z</time></trkpt><trkpt lat="43.4272678" lon="10.7143441"><ele>466.00000000000006</ele><time>2026-04-04T13:34:47.614Z</time></trkpt><trkpt lat="43.4273457" lon="10.7143794"><ele>466.0</ele><time>2026-04-04T13:34:48.613Z</time></trkpt><trkpt lat="43.4274135" lon="10.7144547"><ele>464.00000000000006</ele><time>2026-04-04T13:34:49.608Z</time></trkpt><trkpt lat="43.4274822" lon="10.7145247"><ele>462.0</ele><time>2026-04-04T13:34:50.614Z</time></trkpt><trkpt lat="43.4275489" lon="10.7145987"><ele>460.0</ele><time>2026-04-04T13:34:51.613Z</time></trkpt><trkpt lat="43.4276022" lon="10.714676"><ele>458.0</ele><time>2026-04-04T13:34:52.615Z</time></trkpt><trkpt lat="43.4276501" lon="10.7147354"><ele>456.00000000000006</ele><time>2026-04-04T13:34:53.621Z</time></trkpt><trkpt lat="43.4277178" lon="10.7147949"><ele>454.0</ele><time>2026-04-04T13:34:54.614Z</time></trkpt><trkpt lat="43.4278075" lon="10.71485"><ele>454.0</ele><time>2026-04-04T13:34:55.617Z</time></trkpt><trkpt lat="43.4279255" lon="10.7149097"><ele>454.0</ele><time>2026-04-04T13:34:56.616Z</time></trkpt><trkpt lat="43.4280285" lon="10.7149665"><ele>454.0</ele><time>2026-04-04T13:34:57.622Z</time></trkpt><trkpt lat="43.428124" lon="10.7150257"><ele>454.0</ele><time>2026-04-04T13:34:58.626Z</time></trkpt><trkpt lat="43.4282109" lon="10.7150797"><ele>454.0</ele><time>2026-04-04T13:34:59.62Z</time></trkpt><trkpt lat="43.4282896" lon="10.7151495"><ele>453.6</ele><time>2026-04-04T13:35:00.624Z</time></trkpt><trkpt lat="43.4283579" lon="10.7152262"><ele>453.2</ele><time>2026-04-04T13:35:01.621Z</time></trkpt><trkpt lat="43.4284394" lon="10.7152841"><ele>452.80000000000007</ele><time>2026-04-04T13:35:02.621Z</time></trkpt><trkpt lat="43.4285114" lon="10.7153543"><ele>452.40000000000003</ele><time>2026-04-04T13:35:03.614Z</time></trkpt><trkpt lat="43.4285849" lon="10.7154201"><ele>452.0</ele><time>2026-04-04T13:35:04.617Z</time></trkpt><trkpt lat="43.4286658" lon="10.7154992"><ele>451.6</ele><time>2026-04-04T13:35:05.614Z</time></trkpt><trkpt lat="43.428736" lon="10.715586"><ele>451.20000000000005</ele><time>2026-04-04T13:35:06.624Z</time></trkpt><trkpt lat="43.4288061" lon="10.7156627"><ele>450.8</ele><time>2026-04-04T13:35:07.617Z</time></trkpt><trkpt lat="43.4288837" lon="10.7157262"><ele>450.4</ele><time>2026-04-04T13:35:08.613Z</time></trkpt><trkpt lat="43.4289523" lon="10.7157785"><ele>450.0</ele><time>2026-04-04T13:35:09.618Z</time></trkpt><trkpt lat="43.4290581" lon="10.7158286"><ele>450.0</ele><time>2026-04-04T13:35:11.622Z</time></trkpt><trkpt lat="43.4291725" lon="10.7157532"><ele>450.0</ele><time>2026-04-04T13:35:13.618Z</time></trkpt><trkpt lat="43.4292346" lon="10.7156561"><ele>450.0</ele><time>2026-04-04T13:35:14.624Z</time></trkpt><trkpt lat="43.4293095" lon="10.7155461"><ele>450.0</ele><time>2026-04-04T13:35:15.635Z</time></trkpt><trkpt lat="43.4293896" lon="10.715435"><ele>450.0</ele><time>2026-04-04T13:35:16.618Z</time></trkpt><trkpt lat="43.4294709" lon="10.7153297"><ele>449.2</ele><time>2026-04-04T13:35:17.62Z</time></trkpt><trkpt lat="43.429575" lon="10.7152225"><ele>448.4</ele><time>2026-04-04T13:35:18.619Z</time></trkpt><trkpt lat="43.429668" lon="10.7151435"><ele>447.6</ele><time>2026-04-04T13:35:19.614Z</time></trkpt><trkpt lat="43.4297645" lon="10.7150734"><ele>446.8</ele><time>2026-04-04T13:35:20.619Z</time></trkpt><trkpt lat="43.4298428" lon="10.7150102"><ele>446.0</ele><time>2026-04-04T13:35:21.618Z</time></trkpt><trkpt lat="43.4299062" lon="10.7149637"><ele>444.8</ele><time>2026-04-04T13:35:22.619Z</time></trkpt><trkpt lat="43.4299629" lon="10.7149205"><ele>443.6</ele><time>2026-04-04T13:35:23.618Z</time></trkpt><trkpt lat="43.4300949" lon="10.7148661"><ele>442.4</ele><time>2026-04-04T13:35:25.611Z</time></trkpt><trkpt lat="43.430165" lon="10.7148482"><ele>441.2</ele><time>2026-04-04T13:35:26.615Z</time></trkpt><trkpt lat="43.4302554" lon="10.7148263"><ele>440.0</ele><time>2026-04-04T13:35:27.612Z</time></trkpt><trkpt lat="43.4303715" lon="10.714819"><ele>438.25</ele><time>2026-04-04T13:35:28.616Z</time></trkpt><trkpt lat="43.4304956" lon="10.7148235"><ele>436.5</ele><time>2026-04-04T13:35:29.613Z</time></trkpt><trkpt lat="43.4306317" lon="10.7148308"><ele>434.75</ele><time>2026-04-04T13:35:30.618Z</time></trkpt><trkpt lat="43.4307705" lon="10.7148245"><ele>433.0</ele><time>2026-04-04T13:35:31.621Z</time></trkpt><trkpt lat="43.430873" lon="10.7148168"><ele>433.00000000000006</ele><time>2026-04-04T13:35:32.625Z</time></trkpt><trkpt lat="43.4309407" lon="10.7148014"><ele>433.0</ele><time>2026-04-04T13:35:33.623Z</time></trkpt><trkpt lat="43.4310305" lon="10.7147251"><ele>433.0</ele><time>2026-04-04T13:35:35.622Z</time></trkpt><trkpt lat="43.4310691" lon="10.7146556"><ele>433.0</ele><time>2026-04-04T13:35:36.614Z</time></trkpt><trkpt lat="43.4311052" lon="10.7145613"><ele>433.00000000000006</ele><time>2026-04-04T13:35:37.61Z</time></trkpt><trkpt lat="43.4311485" lon="10.7144719"><ele>433.0</ele><time>2026-04-04T13:35:38.605Z</time></trkpt><trkpt lat="43.431198" lon="10.7143664"><ele>430.4</ele><time>2026-04-04T13:35:39.61Z</time></trkpt><trkpt lat="43.4312589" lon="10.7142601"><ele>427.79999999999995</ele><time>2026-04-04T13:35:40.602Z</time></trkpt><trkpt lat="43.4313222" lon="10.7141553"><ele>425.2</ele><time>2026-04-04T13:35:41.609Z</time></trkpt><trkpt lat="43.4313886" lon="10.7140465"><ele>422.6</ele><time>2026-04-04T13:35:42.615Z</time></trkpt><trkpt lat="43.431447" lon="10.7139504"><ele>420.0</ele><time>2026-04-04T13:35:43.612Z</time></trkpt><trkpt lat="43.4315254" lon="10.7138276"><ele>418.8</ele><time>2026-04-04T13:35:45.615Z</time></trkpt><trkpt lat="43.4315852" lon="10.7137894"><ele>417.6</ele><time>2026-04-04T13:35:47.616Z</time></trkpt><trkpt lat="43.4316526" lon="10.713856"><ele>416.4</ele><time>2026-04-04T13:35:49.62Z</time></trkpt><trkpt lat="43.4317314" lon="10.7140013"><ele>415.2</ele><time>2026-04-04T13:35:51.613Z</time></trkpt><trkpt lat="43.4317908" lon="10.7141021"><ele>414.0</ele><time>2026-04-04T13:35:52.611Z</time></trkpt><trkpt lat="43.4318595" lon="10.7141992"><ele>414.0</ele><time>2026-04-04T13:35:53.609Z</time></trkpt><trkpt lat="43.4319228" lon="10.7142918"><ele>414.0</ele><time>2026-04-04T13:35:54.611Z</time></trkpt><trkpt lat="43.431992" lon="10.7143653"><ele>414.0</ele><time>2026-04-04T13:35:55.61Z</time></trkpt><trkpt lat="43.4320614" lon="10.714444"><ele>414.0</ele><time>2026-04-04T13:35:56.611Z</time></trkpt><trkpt lat="43.4321385" lon="10.7145168"><ele>414.0</ele><time>2026-04-04T13:35:57.611Z</time></trkpt><trkpt lat="43.4322227" lon="10.7145798"><ele>412.79999999999995</ele><time>2026-04-04T13:35:58.616Z</time></trkpt><trkpt lat="43.4323004" lon="10.7146745"><ele>411.59999999999997</ele><time>2026-04-04T13:35:59.602Z</time></trkpt><trkpt lat="43.4323862" lon="10.7147898"><ele>410.4</ele><time>2026-04-04T13:36:00.61Z</time></trkpt><trkpt lat="43.4324744" lon="10.7148817"><ele>409.2</ele><time>2026-04-04T13:36:01.611Z</time></trkpt><trkpt lat="43.4325526" lon="10.7149747"><ele>408.0</ele><time>2026-04-04T13:36:02.62Z</time></trkpt><trkpt lat="43.4326231" lon="10.715068"><ele>408.0</ele><time>2026-04-04T13:36:03.615Z</time></trkpt><trkpt lat="43.4326939" lon="10.7151643"><ele>408.0</ele><time>2026-04-04T13:36:04.61Z</time></trkpt><trkpt lat="43.4327672" lon="10.7152544"><ele>408.0</ele><time>2026-04-04T13:36:05.613Z</time></trkpt><trkpt lat="43.4328437" lon="10.7153426"><ele>408.0</ele><time>2026-04-04T13:36:06.609Z</time></trkpt><trkpt lat="43.4329121" lon="10.7154441"><ele>408.0</ele><time>2026-04-04T13:36:07.612Z</time></trkpt><trkpt lat="43.4329815" lon="10.7155337"><ele>407.2</ele><time>2026-04-04T13:36:08.622Z</time></trkpt><trkpt lat="43.4330685" lon="10.7156013"><ele>406.4</ele><time>2026-04-04T13:36:09.606Z</time></trkpt><trkpt lat="43.4331529" lon="10.7156518"><ele>405.59999999999997</ele><time>2026-04-04T13:36:10.609Z</time></trkpt><trkpt lat="43.4332532" lon="10.7156782"><ele>404.79999999999995</ele><time>2026-04-04T13:36:11.611Z</time></trkpt><trkpt lat="43.4333714" lon="10.7156987"><ele>404.0</ele><time>2026-04-04T13:36:12.615Z</time></trkpt><trkpt lat="43.4334975" lon="10.715717"><ele>404.0</ele><time>2026-04-04T13:36:13.616Z</time></trkpt><trkpt lat="43.4335942" lon="10.7157526"><ele>404.0</ele><time>2026-04-04T13:36:14.612Z</time></trkpt><trkpt lat="43.4336949" lon="10.7157809"><ele>404.0</ele><time>2026-04-04T13:36:15.618Z</time></trkpt><trkpt lat="43.4337898" lon="10.7158062"><ele>404.0</ele><time>2026-04-04T13:36:16.615Z</time></trkpt><trkpt lat="43.4338758" lon="10.7158513"><ele>404.0</ele><time>2026-04-04T13:36:17.616Z</time></trkpt><trkpt lat="43.433967" lon="10.7158813"><ele>402.0</ele><time>2026-04-04T13:36:18.626Z</time></trkpt><trkpt lat="43.4340783" lon="10.7159146"><ele>400.0</ele><time>2026-04-04T13:36:19.62Z</time></trkpt><trkpt lat="43.434187" lon="10.7159494"><ele>398.0</ele><time>2026-04-04T13:36:20.62Z</time></trkpt><trkpt lat="43.4342753" lon="10.7159974"><ele>396.0</ele><time>2026-04-04T13:36:21.622Z</time></trkpt><trkpt lat="43.4343432" lon="10.716056"><ele>394.0</ele><time>2026-04-04T13:36:22.622Z</time></trkpt><trkpt lat="43.4343941" lon="10.7161347"><ele>393.4</ele><time>2026-04-04T13:36:23.617Z</time></trkpt><trkpt lat="43.4344349" lon="10.7162216"><ele>392.79999999999995</ele><time>2026-04-04T13:36:24.616Z</time></trkpt><trkpt lat="43.4344841" lon="10.7163116"><ele>392.20000000000005</ele><time>2026-04-04T13:36:25.611Z</time></trkpt><trkpt lat="43.434532" lon="10.7164267"><ele>391.6</ele><time>2026-04-04T13:36:26.607Z</time></trkpt><trkpt lat="43.4345969" lon="10.71655"><ele>391.0</ele><time>2026-04-04T13:36:27.607Z</time></trkpt><trkpt lat="43.4346368" lon="10.7166642"><ele>388.1666666666667</ele><time>2026-04-04T13:36:28.6Z</time></trkpt><trkpt lat="43.4346567" lon="10.7167695"><ele>385.33333333333337</ele><time>2026-04-04T13:36:29.6Z</time></trkpt><trkpt lat="43.4346729" lon="10.7168653"><ele>382.5</ele><time>2026-04-04T13:36:30.606Z</time></trkpt><trkpt lat="43.4346719" lon="10.716974"><ele>379.6666666666667</ele><time>2026-04-04T13:36:31.601Z</time></trkpt><trkpt lat="43.4346696" lon="10.7170804"><ele>376.83333333333337</ele><time>2026-04-04T13:36:32.605Z</time></trkpt><trkpt lat="43.4346562" lon="10.7172008"><ele>374.0</ele><time>2026-04-04T13:36:33.602Z</time></trkpt><trkpt lat="43.4346553" lon="10.7173381"><ele>373.6</ele><time>2026-04-04T13:36:34.602Z</time></trkpt><trkpt lat="43.4346716" lon="10.717469"><ele>373.2</ele><time>2026-04-04T13:36:35.606Z</time></trkpt><trkpt lat="43.4347088" lon="10.7175894"><ele>372.8</ele><time>2026-04-04T13:36:36.602Z</time></trkpt><trkpt lat="43.434764" lon="10.7177004"><ele>372.40000000000003</ele><time>2026-04-04T13:36:37.603Z</time></trkpt><trkpt lat="43.4348133" lon="10.7178127"><ele>372.0</ele><time>2026-04-04T13:36:38.602Z</time></trkpt><trkpt lat="43.4348591" lon="10.7179268"><ele>371.25</ele><time>2026-04-04T13:36:39.608Z</time></trkpt><trkpt lat="43.4349076" lon="10.718056"><ele>370.5</ele><time>2026-04-04T13:36:40.608Z</time></trkpt><trkpt lat="43.4349568" lon="10.7181996"><ele>369.75</ele><time>2026-04-04T13:36:41.606Z</time></trkpt><trkpt lat="43.4350081" lon="10.7183582"><ele>369.0</ele><time>2026-04-04T13:36:42.608Z</time></trkpt><trkpt lat="43.4350596" lon="10.7185176"><ele>368.0</ele><time>2026-04-04T13:36:43.61Z</time></trkpt><trkpt lat="43.4351109" lon="10.7186585"><ele>367.0</ele><time>2026-04-04T13:36:44.609Z</time></trkpt><trkpt lat="43.4351609" lon="10.7187864"><ele>366.0</ele><time>2026-04-04T13:36:45.614Z</time></trkpt><trkpt lat="43.4352042" lon="10.7189338"><ele>365.0</ele><time>2026-04-04T13:36:46.606Z</time></trkpt><trkpt lat="43.4352398" lon="10.7190803"><ele>364.0</ele><time>2026-04-04T13:36:47.61Z</time></trkpt><trkpt lat="43.435257" lon="10.7192421"><ele>364.0</ele><time>2026-04-04T13:36:48.606Z</time></trkpt><trkpt lat="43.435295" lon="10.7193727"><ele>364.0</ele><time>2026-04-04T13:36:49.615Z</time></trkpt><trkpt lat="43.4353267" lon="10.7195004"><ele>364.0</ele><time>2026-04-04T13:36:50.603Z</time></trkpt><trkpt lat="43.4353444" lon="10.7196215"><ele>364.0</ele><time>2026-04-04T13:36:51.609Z</time></trkpt><trkpt lat="43.4353304" lon="10.7197438"><ele>364.0</ele><time>2026-04-04T13:36:52.608Z</time></trkpt><trkpt lat="43.4353025" lon="10.7198683"><ele>362.8333333333333</ele><time>2026-04-04T13:36:53.602Z</time></trkpt><trkpt lat="43.4352614" lon="10.7199683"><ele>361.66666666666663</ele><time>2026-04-04T13:36:54.612Z</time></trkpt><trkpt lat="43.4352271" lon="10.7200693"><ele>360.5</ele><time>2026-04-04T13:36:55.604Z</time></trkpt><trkpt lat="43.4352183" lon="10.7201668"><ele>359.3333333333333</ele><time>2026-04-04T13:36:56.604Z</time></trkpt><trkpt lat="43.4352413" lon="10.7202999"><ele>358.1666666666667</ele><time>2026-04-04T13:36:57.61Z</time></trkpt><trkpt lat="43.4352701" lon="10.7204446"><ele>357.0</ele><time>2026-04-04T13:36:58.61Z</time></trkpt><trkpt lat="43.4353043" lon="10.7205911"><ele>356.40000000000003</ele><time>2026-04-04T13:36:59.607Z</time></trkpt><trkpt lat="43.4353377" lon="10.7207328"><ele>355.8</ele><time>2026-04-04T13:37:00.6Z</time></trkpt><trkpt lat="43.4353651" lon="10.7208798"><ele>355.2</ele><time>2026-04-04T13:37:01.595Z</time></trkpt><trkpt lat="43.4353834" lon="10.7210141"><ele>354.6</ele><time>2026-04-04T13:37:02.598Z</time></trkpt><trkpt lat="43.4354012" lon="10.7210999"><ele>354.0</ele><time>2026-04-04T13:37:03.606Z</time></trkpt><trkpt lat="43.4354381" lon="10.7211858"><ele>352.8333333333333</ele><time>2026-04-04T13:37:05.595Z</time></trkpt><trkpt lat="43.4354258" lon="10.7213039"><ele>351.6666666666667</ele><time>2026-04-04T13:37:08.603Z</time></trkpt><trkpt lat="43.4353536" lon="10.7213804"><ele>350.5</ele><time>2026-04-04T13:37:10.607Z</time></trkpt><trkpt lat="43.4352844" lon="10.7214614"><ele>349.33333333333337</ele><time>2026-04-04T13:37:12.601Z</time></trkpt><trkpt lat="43.4353653" lon="10.7214177"><ele>348.1666666666667</ele><time>2026-04-04T13:37:29.609Z</time></trkpt><trkpt lat="43.4353771" lon="10.7212895"><ele>347.0</ele><time>2026-04-04T13:37:32.613Z</time></trkpt><trkpt lat="43.4353656" lon="10.7212037"><ele>347.0</ele><time>2026-04-04T13:37:33.613Z</time></trkpt><trkpt lat="43.4353584" lon="10.7211162"><ele>347.0</ele><time>2026-04-04T13:37:34.611Z</time></trkpt><trkpt lat="43.4353858" lon="10.7209906"><ele>347.0</ele><time>2026-04-04T13:37:36.598Z</time></trkpt><trkpt lat="43.4354099" lon="10.7209052"><ele>347.0</ele><time>2026-04-04T13:37:38.611Z</time></trkpt><trkpt lat="43.4354433" lon="10.720774"><ele>347.0</ele><time>2026-04-04T13:37:41.606Z</time></trkpt><trkpt lat="43.4354906" lon="10.7206996"><ele>347.0</ele><time>2026-04-04T13:37:43.61Z</time></trkpt><trkpt lat="43.4355599" lon="10.7206818"><ele>348.40000000000003</ele><time>2026-04-04T13:37:45.608Z</time></trkpt><trkpt lat="43.435607" lon="10.720604"><ele>349.8</ele><time>2026-04-04T13:37:48.602Z</time></trkpt><trkpt lat="43.4355524" lon="10.720675"><ele>351.2</ele><time>2026-04-04T13:37:51.605Z</time></trkpt><trkpt lat="43.4354303" lon="10.7207824"><ele>352.6</ele><time>2026-04-04T13:37:56.607Z</time></trkpt><trkpt lat="43.4353767" lon="10.7209417"><ele>354.0</ele><time>2026-04-04T13:37:58.604Z</time></trkpt><trkpt lat="43.4353583" lon="10.7210639"><ele>352.6</ele><time>2026-04-04T13:38:00.605Z</time></trkpt><trkpt lat="43.4353108" lon="10.7212201"><ele>351.2</ele><time>2026-04-04T13:38:02.609Z</time></trkpt><trkpt lat="43.4353034" lon="10.7213905"><ele>349.8</ele><time>2026-04-04T13:38:04.606Z</time></trkpt><trkpt lat="43.4352981" lon="10.7214885"><ele>348.40000000000003</ele><time>2026-04-04T13:38:05.606Z</time></trkpt><trkpt lat="43.4353035" lon="10.7215894"><ele>347.0</ele><time>2026-04-04T13:38:06.604Z</time></trkpt><trkpt lat="43.4352962" lon="10.7216873"><ele>347.0</ele><time>2026-04-04T13:38:07.594Z</time></trkpt><trkpt lat="43.4353041" lon="10.7217926"><ele>347.0</ele><time>2026-04-04T13:38:08.597Z</time></trkpt><trkpt lat="43.4353806" lon="10.7217402"><ele>347.0</ele><time>2026-04-04T13:38:13.61Z</time></trkpt><trkpt lat="43.4354997" lon="10.7217132"><ele>347.0</ele><time>2026-04-04T13:38:15.614Z</time></trkpt><trkpt lat="43.4355798" lon="10.7216996"><ele>347.0</ele><time>2026-04-04T13:38:16.604Z</time></trkpt><trkpt lat="43.4356468" lon="10.7216916"><ele>347.0</ele><time>2026-04-04T13:38:17.613Z</time></trkpt><trkpt lat="43.4357246" lon="10.7216899"><ele>343.6666666666667</ele><time>2026-04-04T13:38:18.606Z</time></trkpt><trkpt lat="43.4358509" lon="10.7216948"><ele>340.33333333333337</ele><time>2026-04-04T13:38:20.609Z</time></trkpt><trkpt lat="43.4359354" lon="10.7217135"><ele>337.0</ele><time>2026-04-04T13:38:22.597Z</time></trkpt><trkpt lat="43.4359996" lon="10.7216611"><ele>333.6666666666667</ele><time>2026-04-04T13:38:24.606Z</time></trkpt><trkpt lat="43.4359364" lon="10.7217105"><ele>330.3333333333333</ele><time>2026-04-04T13:39:41.613Z</time></trkpt><trkpt lat="43.4358577" lon="10.7217012"><ele>327.0</ele><time>2026-04-04T13:39:44.618Z</time></trkpt><trkpt lat="43.435751" lon="10.7216674"><ele>327.0</ele><time>2026-04-04T13:39:46.614Z</time></trkpt><trkpt lat="43.4356745" lon="10.721668"><ele>327.0</ele><time>2026-04-04T13:39:47.61Z</time></trkpt><trkpt lat="43.4356013" lon="10.7216714"><ele>327.0</ele><time>2026-04-04T13:39:48.612Z</time></trkpt><trkpt lat="43.4355343" lon="10.7216823"><ele>327.0</ele><time>2026-04-04T13:39:49.611Z</time></trkpt><trkpt lat="43.4354617" lon="10.7216893"><ele>327.0</ele><time>2026-04-04T13:39:50.613Z</time></trkpt><trkpt lat="43.4353886" lon="10.7217198"><ele>327.0</ele><time>2026-04-04T13:39:51.604Z</time></trkpt><trkpt lat="43.4352823" lon="10.7217396"><ele>327.0</ele><time>2026-04-04T13:39:53.606Z</time></trkpt><trkpt lat="43.4352068" lon="10.7217316"><ele>327.0</ele><time>2026-04-04T13:39:55.6Z</time></trkpt><trkpt lat="43.4351435" lon="10.7217358"><ele>327.0</ele><time>2026-04-04T13:39:59.608Z</time></trkpt><trkpt lat="43.4352237" lon="10.7217376"><ele>327.0</ele><time>2026-04-04T13:40:08.61Z</time></trkpt><trkpt lat="43.4353082" lon="10.721685"><ele>327.0</ele><time>2026-04-04T13:40:10.61Z</time></trkpt><trkpt lat="43.4354058" lon="10.721655"><ele>327.0</ele><time>2026-04-04T13:40:12.615Z</time></trkpt><trkpt lat="43.435491" lon="10.7216511"><ele>327.0</ele><time>2026-04-04T13:40:13.601Z</time></trkpt><trkpt lat="43.4355912" lon="10.7216486"><ele>327.0</ele><time>2026-04-04T13:40:14.602Z</time></trkpt><trkpt lat="43.4357088" lon="10.7216479"><ele>327.0</ele><time>2026-04-04T13:40:15.609Z</time></trkpt><trkpt lat="43.4358006" lon="10.7216618"><ele>327.0</ele><time>2026-04-04T13:40:16.603Z</time></trkpt><trkpt lat="43.4359122" lon="10.7216756"><ele>327.0</ele><time>2026-04-04T13:40:18.612Z</time></trkpt><trkpt lat="43.4359729" lon="10.721652"><ele>327.0</ele><time>2026-04-04T13:40:20.618Z</time></trkpt><trkpt lat="43.4360451" lon="10.7216264"><ele>327.0</ele><time>2026-04-04T13:40:24.618Z</time></trkpt><trkpt lat="43.4360869" lon="10.7217131"><ele>327.0</ele><time>2026-04-04T13:40:27.613Z</time></trkpt><trkpt lat="43.4360559" lon="10.7217928"><ele>327.0</ele><time>2026-04-04T13:41:52.624Z</time></trkpt><trkpt lat="43.4361061" lon="10.7218515"><ele>327.0</ele><time>2026-04-04T13:41:59.63Z</time></trkpt><trkpt lat="43.4361264" lon="10.7219479"><ele>327.0</ele><time>2026-04-04T13:42:05.626Z</time></trkpt><trkpt lat="43.4361237" lon="10.7220362"><ele>327.0</ele><time>2026-04-04T13:42:10.628Z</time></trkpt><trkpt lat="43.4361065" lon="10.7221233"><ele>326.1666666666667</ele><time>2026-04-04T13:42:15.627Z</time></trkpt><trkpt lat="43.4360768" lon="10.7222144"><ele>325.3333333333333</ele><time>2026-04-04T13:42:19.617Z</time></trkpt><trkpt lat="43.4360441" lon="10.7222897"><ele>324.5</ele><time>2026-04-04T13:42:26.623Z</time></trkpt><trkpt lat="43.4360505" lon="10.7223764"><ele>323.66666666666663</ele><time>2026-04-04T13:42:33.619Z</time></trkpt><trkpt lat="43.4360702" lon="10.7224887"><ele>322.8333333333333</ele><time>2026-04-04T13:42:36.613Z</time></trkpt><trkpt lat="43.4361705" lon="10.7224914"><ele>322.0</ele><time>2026-04-04T13:42:39.619Z</time></trkpt><trkpt lat="43.4362438" lon="10.7224669"><ele>318.20000000000005</ele><time>2026-04-04T13:42:40.624Z</time></trkpt><trkpt lat="43.4363214" lon="10.7224476"><ele>314.40000000000003</ele><time>2026-04-04T13:42:41.617Z</time></trkpt><trkpt lat="43.4364257" lon="10.7224292"><ele>310.6</ele><time>2026-04-04T13:42:42.623Z</time></trkpt><trkpt lat="43.436522" lon="10.7223952"><ele>306.8</ele><time>2026-04-04T13:42:43.621Z</time></trkpt><trkpt lat="43.4366186" lon="10.7223387"><ele>303.0</ele><time>2026-04-04T13:42:44.625Z</time></trkpt><trkpt lat="43.4366953" lon="10.7222657"><ele>303.0</ele><time>2026-04-04T13:42:45.626Z</time></trkpt><trkpt lat="43.4367575" lon="10.7221828"><ele>303.0</ele><time>2026-04-04T13:42:46.62Z</time></trkpt><trkpt lat="43.4368142" lon="10.7220732"><ele>303.0</ele><time>2026-04-04T13:42:47.62Z</time></trkpt><trkpt lat="43.4368659" lon="10.7219271"><ele>303.0</ele><time>2026-04-04T13:42:48.62Z</time></trkpt><trkpt lat="43.4369189" lon="10.7217881"><ele>303.0</ele><time>2026-04-04T13:42:49.62Z</time></trkpt><trkpt lat="43.436959" lon="10.7216563"><ele>304.2</ele><time>2026-04-04T13:42:50.617Z</time></trkpt><trkpt lat="43.4370009" lon="10.7215369"><ele>305.4</ele><time>2026-04-04T13:42:51.615Z</time></trkpt><trkpt lat="43.4370475" lon="10.7214194"><ele>306.59999999999997</ele><time>2026-04-04T13:42:52.611Z</time></trkpt><trkpt lat="43.4371214" lon="10.7213119"><ele>307.8</ele><time>2026-04-04T13:42:53.615Z</time></trkpt><trkpt lat="43.4372182" lon="10.7212174"><ele>309.0</ele><time>2026-04-04T13:42:54.615Z</time></trkpt><trkpt lat="43.4373234" lon="10.7211612"><ele>306.25</ele><time>2026-04-04T13:42:55.617Z</time></trkpt><trkpt lat="43.437448" lon="10.7211259"><ele>303.5</ele><time>2026-04-04T13:42:56.619Z</time></trkpt><trkpt lat="43.4375858" lon="10.7210952"><ele>300.75</ele><time>2026-04-04T13:42:57.617Z</time></trkpt><trkpt lat="43.4377316" lon="10.7210526"><ele>298.0</ele><time>2026-04-04T13:42:58.617Z</time></trkpt><trkpt lat="43.4378617" lon="10.7210067"><ele>298.0</ele><time>2026-04-04T13:42:59.618Z</time></trkpt><trkpt lat="43.437963" lon="10.7209382"><ele>298.0</ele><time>2026-04-04T13:43:00.61Z</time></trkpt><trkpt lat="43.4380599" lon="10.7208506"><ele>298.0</ele><time>2026-04-04T13:43:01.611Z</time></trkpt><trkpt lat="43.4381124" lon="10.7207224"><ele>298.0</ele><time>2026-04-04T13:43:02.612Z</time></trkpt><trkpt lat="43.4381265" lon="10.7205933"><ele>298.0</ele><time>2026-04-04T13:43:03.602Z</time></trkpt><trkpt lat="43.4381251" lon="10.7204273"><ele>294.75</ele><time>2026-04-04T13:43:04.613Z</time></trkpt><trkpt lat="43.4381281" lon="10.7202391"><ele>291.5</ele><time>2026-04-04T13:43:05.605Z</time></trkpt><trkpt lat="43.4381058" lon="10.7200429"><ele>288.25</ele><time>2026-04-04T13:43:06.612Z</time></trkpt><trkpt lat="43.438076" lon="10.7198424"><ele>285.0</ele><time>2026-04-04T13:43:07.611Z</time></trkpt><trkpt lat="43.4380457" lon="10.7196653"><ele>284.8</ele><time>2026-04-04T13:43:08.609Z</time></trkpt><trkpt lat="43.4380238" lon="10.7195226"><ele>284.6</ele><time>2026-04-04T13:43:09.61Z</time></trkpt><trkpt lat="43.4380204" lon="10.719325"><ele>284.4</ele><time>2026-04-04T13:43:10.61Z</time></trkpt><trkpt lat="43.4380928" lon="10.7192615"><ele>284.2</ele><time>2026-04-04T13:43:11.611Z</time></trkpt><trkpt lat="43.438156" lon="10.71919"><ele>284.0</ele><time>2026-04-04T13:43:12.612Z</time></trkpt><trkpt lat="43.4382639" lon="10.7191488"><ele>285.5</ele><time>2026-04-04T13:43:13.608Z</time></trkpt><trkpt lat="43.4383903" lon="10.719156"><ele>287.0</ele><time>2026-04-04T13:43:14.615Z</time></trkpt><trkpt lat="43.4385249" lon="10.7191851"><ele>288.5</ele><time>2026-04-04T13:43:15.624Z</time></trkpt><trkpt lat="43.4386519" lon="10.7192214"><ele>290.0</ele><time>2026-04-04T13:43:16.616Z</time></trkpt><trkpt lat="43.4387731" lon="10.7192508"><ele>288.25</ele><time>2026-04-04T13:43:17.621Z</time></trkpt><trkpt lat="43.4389043" lon="10.719236"><ele>286.5</ele><time>2026-04-04T13:43:18.615Z</time></trkpt><trkpt lat="43.4390409" lon="10.7192087"><ele>284.75</ele><time>2026-04-04T13:43:19.613Z</time></trkpt><trkpt lat="43.4391701" lon="10.7191594"><ele>283.0</ele><time>2026-04-04T13:43:20.61Z</time></trkpt><trkpt lat="43.4392961" lon="10.7191487"><ele>283.0</ele><time>2026-04-04T13:43:21.609Z</time></trkpt><trkpt lat="43.4394078" lon="10.7191558"><ele>283.0</ele><time>2026-04-04T13:43:22.606Z</time></trkpt><trkpt lat="43.4395177" lon="10.7191927"><ele>283.0</ele><time>2026-04-04T13:43:23.598Z</time></trkpt><trkpt lat="43.4396384" lon="10.719285"><ele>283.0</ele><time>2026-04-04T13:43:24.614Z</time></trkpt><trkpt lat="43.4397466" lon="10.7194301"><ele>278.25</ele><time>2026-04-04T13:43:25.61Z</time></trkpt><trkpt lat="43.4398623" lon="10.7195787"><ele>273.5</ele><time>2026-04-04T13:43:26.616Z</time></trkpt><trkpt lat="43.439974" lon="10.7196946"><ele>268.75</ele><time>2026-04-04T13:43:27.602Z</time></trkpt><trkpt lat="43.4400667" lon="10.719773"><ele>264.0</ele><time>2026-04-04T13:43:28.596Z</time></trkpt><trkpt lat="43.4401673" lon="10.7198075"><ele>264.0</ele><time>2026-04-04T13:43:29.597Z</time></trkpt><trkpt lat="43.4402761" lon="10.719816"><ele>264.0</ele><time>2026-04-04T13:43:30.597Z</time></trkpt><trkpt lat="43.4403939" lon="10.7197799"><ele>264.0</ele><time>2026-04-04T13:43:31.609Z</time></trkpt><trkpt lat="43.4404596" lon="10.7196579"><ele>264.0</ele><time>2026-04-04T13:43:32.607Z</time></trkpt><trkpt lat="43.4405463" lon="10.7195231"><ele>261.75</ele><time>2026-04-04T13:43:33.603Z</time></trkpt><trkpt lat="43.4406499" lon="10.719473"><ele>259.5</ele><time>2026-04-04T13:43:34.604Z</time></trkpt><trkpt lat="43.440755" lon="10.7194868"><ele>257.25</ele><time>2026-04-04T13:43:35.604Z</time></trkpt><trkpt lat="43.4408678" lon="10.7195341"><ele>255.0</ele><time>2026-04-04T13:43:36.622Z</time></trkpt><trkpt lat="43.4409839" lon="10.7196078"><ele>255.0</ele><time>2026-04-04T13:43:37.62Z</time></trkpt><trkpt lat="43.4411031" lon="10.7196923"><ele>255.0</ele><time>2026-04-04T13:43:38.62Z</time></trkpt><trkpt lat="43.4412251" lon="10.7197823"><ele>255.0</ele><time>2026-04-04T13:43:39.613Z</time></trkpt><trkpt lat="43.4413387" lon="10.7198978"><ele>255.0</ele><time>2026-04-04T13:43:40.619Z</time></trkpt><trkpt lat="43.4414381" lon="10.7200359"><ele>253.5</ele><time>2026-04-04T13:43:41.616Z</time></trkpt><trkpt lat="43.4415365" lon="10.7201681"><ele>252.0</ele><time>2026-04-04T13:43:42.609Z</time></trkpt><trkpt lat="43.4416359" lon="10.7202398"><ele>250.5</ele><time>2026-04-04T13:43:43.614Z</time></trkpt><trkpt lat="43.4417464" lon="10.7202908"><ele>249.0</ele><time>2026-04-04T13:43:44.622Z</time></trkpt><trkpt lat="43.4418611" lon="10.7203119"><ele>249.0</ele><time>2026-04-04T13:43:45.62Z</time></trkpt><trkpt lat="43.4419853" lon="10.7202857"><ele>249.0</ele><time>2026-04-04T13:43:46.618Z</time></trkpt><trkpt lat="43.4421129" lon="10.7202233"><ele>249.0</ele><time>2026-04-04T13:43:47.616Z</time></trkpt><trkpt lat="43.4422585" lon="10.7201433"><ele>249.0</ele><time>2026-04-04T13:43:48.618Z</time></trkpt><trkpt lat="43.442418" lon="10.7200607"><ele>247.6</ele><time>2026-04-04T13:43:49.616Z</time></trkpt><trkpt lat="43.4425639" lon="10.7200187"><ele>246.2</ele><time>2026-04-04T13:43:50.617Z</time></trkpt><trkpt lat="43.4426795" lon="10.7199945"><ele>244.79999999999998</ele><time>2026-04-04T13:43:51.615Z</time></trkpt><trkpt lat="43.442777" lon="10.719986"><ele>243.39999999999998</ele><time>2026-04-04T13:43:52.624Z</time></trkpt><trkpt lat="43.4428472" lon="10.7200175"><ele>242.0</ele><time>2026-04-04T13:43:53.619Z</time></trkpt><trkpt lat="43.4429358" lon="10.7201302"><ele>242.0</ele><time>2026-04-04T13:43:55.627Z</time></trkpt><trkpt lat="43.4429536" lon="10.7202249"><ele>242.0</ele><time>2026-04-04T13:43:56.627Z</time></trkpt><trkpt lat="43.4429306" lon="10.7203167"><ele>242.0</ele><time>2026-04-04T13:43:57.626Z</time></trkpt><trkpt lat="43.4428736" lon="10.7204173"><ele>242.0</ele><time>2026-04-04T13:43:58.622Z</time></trkpt><trkpt lat="43.442798" lon="10.7205226"><ele>242.0</ele><time>2026-04-04T13:43:59.624Z</time></trkpt><trkpt lat="43.4427209" lon="10.7206341"><ele>241.39999999999998</ele><time>2026-04-04T13:44:00.625Z</time></trkpt><trkpt lat="43.4426539" lon="10.7207347"><ele>240.79999999999998</ele><time>2026-04-04T13:44:01.615Z</time></trkpt><trkpt lat="43.4425717" lon="10.72084"><ele>240.2</ele><time>2026-04-04T13:44:02.617Z</time></trkpt><trkpt lat="43.442501" lon="10.7209315"><ele>239.6</ele><time>2026-04-04T13:44:03.618Z</time></trkpt><trkpt lat="43.4424363" lon="10.7210415"><ele>239.0</ele><time>2026-04-04T13:44:04.611Z</time></trkpt><trkpt lat="43.442391" lon="10.7211643"><ele>237.33333333333334</ele><time>2026-04-04T13:44:05.613Z</time></trkpt><trkpt lat="43.4423672" lon="10.7212822"><ele>235.66666666666669</ele><time>2026-04-04T13:44:06.621Z</time></trkpt><trkpt lat="43.4423518" lon="10.7214087"><ele>234.0</ele><time>2026-04-04T13:44:07.623Z</time></trkpt><trkpt lat="43.4423386" lon="10.7215205"><ele>232.33333333333331</ele><time>2026-04-04T13:44:08.624Z</time></trkpt><trkpt lat="43.4423202" lon="10.7216388"><ele>230.66666666666666</ele><time>2026-04-04T13:44:09.625Z</time></trkpt><trkpt lat="43.4422957" lon="10.7217562"><ele>229.0</ele><time>2026-04-04T13:44:10.625Z</time></trkpt><trkpt lat="43.442261" lon="10.7218597"><ele>229.0</ele><time>2026-04-04T13:44:11.621Z</time></trkpt><trkpt lat="43.4422098" lon="10.7219762"><ele>228.99999999999997</ele><time>2026-04-04T13:44:13.619Z</time></trkpt><trkpt lat="43.4422459" lon="10.7220635"><ele>228.99999999999997</ele><time>2026-04-04T13:44:15.639Z</time></trkpt><trkpt lat="43.4423511" lon="10.7220366"><ele>229.0</ele><time>2026-04-04T13:44:17.646Z</time></trkpt><trkpt lat="43.4424269" lon="10.7219455"><ele>229.0</ele><time>2026-04-04T13:44:18.635Z</time></trkpt><trkpt lat="43.4425313" lon="10.7218202"><ele>229.0</ele><time>2026-04-04T13:44:19.634Z</time></trkpt><trkpt lat="43.4426548" lon="10.7217082"><ele>229.0</ele><time>2026-04-04T13:44:20.635Z</time></trkpt><trkpt lat="43.4428137" lon="10.7216179"><ele>229.0</ele><time>2026-04-04T13:44:21.63Z</time></trkpt><trkpt lat="43.4429925" lon="10.721545"><ele>226.0</ele><time>2026-04-04T13:44:22.639Z</time></trkpt><trkpt lat="43.4431798" lon="10.7214517"><ele>223.0</ele><time>2026-04-04T13:44:23.635Z</time></trkpt><trkpt lat="43.443344" lon="10.721326"><ele>220.0</ele><time>2026-04-04T13:44:24.631Z</time></trkpt><trkpt lat="43.4434879" lon="10.7211979"><ele>220.0</ele><time>2026-04-04T13:44:25.636Z</time></trkpt><trkpt lat="43.4436272" lon="10.7210929"><ele>220.0</ele><time>2026-04-04T13:44:26.636Z</time></trkpt><trkpt lat="43.4437792" lon="10.7210367"><ele>220.0</ele><time>2026-04-04T13:44:27.626Z</time></trkpt><trkpt lat="43.4439292" lon="10.7210292"><ele>219.25</ele><time>2026-04-04T13:44:28.624Z</time></trkpt><trkpt lat="43.4440738" lon="10.7210302"><ele>218.5</ele><time>2026-04-04T13:44:29.635Z</time></trkpt><trkpt lat="43.4441917" lon="10.7210348"><ele>217.75</ele><time>2026-04-04T13:44:30.624Z</time></trkpt><trkpt lat="43.4443196" lon="10.7210219"><ele>217.0</ele><time>2026-04-04T13:44:31.636Z</time></trkpt><trkpt lat="43.4444371" lon="10.7209685"><ele>217.0</ele><time>2026-04-04T13:44:32.64Z</time></trkpt><trkpt lat="43.44454" lon="10.7209141"><ele>217.0</ele><time>2026-04-04T13:44:33.632Z</time></trkpt><trkpt lat="43.4446375" lon="10.7208395"><ele>217.0</ele><time>2026-04-04T13:44:34.63Z</time></trkpt><trkpt lat="43.4447252" lon="10.7207152"><ele>217.0</ele><time>2026-04-04T13:44:35.629Z</time></trkpt><trkpt lat="43.444791" lon="10.7205537"><ele>215.0</ele><time>2026-04-04T13:44:36.627Z</time></trkpt><trkpt lat="43.444834" lon="10.720398"><ele>213.0</ele><time>2026-04-04T13:44:37.619Z</time></trkpt><trkpt lat="43.44488" lon="10.7202571"><ele>211.0</ele><time>2026-04-04T13:44:38.619Z</time></trkpt><trkpt lat="43.4449304" lon="10.7201542"><ele>209.0</ele><time>2026-04-04T13:44:39.613Z</time></trkpt><trkpt lat="43.4450051" lon="10.720048"><ele>207.0</ele><time>2026-04-04T13:44:40.617Z</time></trkpt><trkpt lat="43.4451176" lon="10.7199827"><ele>207.0</ele><time>2026-04-04T13:44:41.627Z</time></trkpt><trkpt lat="43.4452332" lon="10.7199232"><ele>207.0</ele><time>2026-04-04T13:44:42.626Z</time></trkpt><trkpt lat="43.4453391" lon="10.7199192"><ele>207.0</ele><time>2026-04-04T13:44:43.625Z</time></trkpt><trkpt lat="43.4454401" lon="10.7199547"><ele>207.0</ele><time>2026-04-04T13:44:44.628Z</time></trkpt><trkpt lat="43.4455316" lon="10.7200343"><ele>207.0</ele><time>2026-04-04T13:44:45.635Z</time></trkpt><trkpt lat="43.4456264" lon="10.7201692"><ele>204.25</ele><time>2026-04-04T13:44:46.625Z</time></trkpt><trkpt lat="43.4456817" lon="10.72034"><ele>201.5</ele><time>2026-04-04T13:44:47.63Z</time></trkpt><trkpt lat="43.4457083" lon="10.7205178"><ele>198.75</ele><time>2026-04-04T13:44:48.634Z</time></trkpt><trkpt lat="43.4456774" lon="10.7207034"><ele>196.0</ele><time>2026-04-04T13:44:49.624Z</time></trkpt><trkpt lat="43.4456374" lon="10.7208887"><ele>194.0</ele><time>2026-04-04T13:44:50.633Z</time></trkpt><trkpt lat="43.445586" lon="10.7210913"><ele>192.0</ele><time>2026-04-04T13:44:51.629Z</time></trkpt><trkpt lat="43.4455538" lon="10.7212965"><ele>190.0</ele><time>2026-04-04T13:44:52.63Z</time></trkpt><trkpt lat="43.4455328" lon="10.7214952"><ele>190.0</ele><time>2026-04-04T13:44:53.619Z</time></trkpt><trkpt lat="43.4455658" lon="10.7217166"><ele>190.0</ele><time>2026-04-04T13:44:54.613Z</time></trkpt><trkpt lat="43.4456406" lon="10.721927"><ele>190.0</ele><time>2026-04-04T13:44:55.623Z</time></trkpt><trkpt lat="43.4457409" lon="10.7221067"><ele>190.0</ele><time>2026-04-04T13:44:56.621Z</time></trkpt><trkpt lat="43.4458665" lon="10.722297"><ele>190.0</ele><time>2026-04-04T13:44:57.623Z</time></trkpt><trkpt lat="43.4459979" lon="10.7225064"><ele>190.0</ele><time>2026-04-04T13:44:58.621Z</time></trkpt><trkpt lat="43.4461109" lon="10.7227212"><ele>190.33333333333334</ele><time>2026-04-04T13:44:59.628Z</time></trkpt><trkpt lat="43.4462057" lon="10.7230064"><ele>190.66666666666666</ele><time>2026-04-04T13:45:00.628Z</time></trkpt><trkpt lat="43.4463073" lon="10.723254"><ele>191.0</ele><time>2026-04-04T13:45:01.629Z</time></trkpt><trkpt lat="43.4463913" lon="10.7234711"><ele>188.0</ele><time>2026-04-04T13:45:02.618Z</time></trkpt><trkpt lat="43.4464558" lon="10.7236492"><ele>185.0</ele><time>2026-04-04T13:45:03.622Z</time></trkpt><trkpt lat="43.446507" lon="10.7238263"><ele>182.0</ele><time>2026-04-04T13:45:04.618Z</time></trkpt><trkpt lat="43.4465313" lon="10.7239929"><ele>179.0</ele><time>2026-04-04T13:45:05.621Z</time></trkpt><trkpt lat="43.4465218" lon="10.7241699"><ele>179.0</ele><time>2026-04-04T13:45:06.624Z</time></trkpt><trkpt lat="43.4464887" lon="10.7243535"><ele>179.0</ele><time>2026-04-04T13:45:07.626Z</time></trkpt><trkpt lat="43.4464384" lon="10.7245484"><ele>179.0</ele><time>2026-04-04T13:45:08.626Z</time></trkpt><trkpt lat="43.4464186" lon="10.7247582"><ele>179.0</ele><time>2026-04-04T13:45:09.62Z</time></trkpt><trkpt lat="43.4463886" lon="10.7249542"><ele>177.33333333333331</ele><time>2026-04-04T13:45:10.62Z</time></trkpt><trkpt lat="43.4463899" lon="10.7251428"><ele>175.66666666666666</ele><time>2026-04-04T13:45:11.619Z</time></trkpt><trkpt lat="43.4464428" lon="10.7253522"><ele>174.0</ele><time>2026-04-04T13:45:12.615Z</time></trkpt><trkpt lat="43.4465354" lon="10.7255833"><ele>174.0</ele><time>2026-04-04T13:45:13.622Z</time></trkpt><trkpt lat="43.4466114" lon="10.7258444"><ele>174.0</ele><time>2026-04-04T13:45:14.625Z</time></trkpt><trkpt lat="43.4466896" lon="10.7260992"><ele>174.0</ele><time>2026-04-04T13:45:15.632Z</time></trkpt><trkpt lat="43.4467632" lon="10.7263858"><ele>174.0</ele><time>2026-04-04T13:45:16.629Z</time></trkpt><trkpt lat="43.4468502" lon="10.7266475"><ele>174.0</ele><time>2026-04-04T13:45:17.625Z</time></trkpt><trkpt lat="43.4469414" lon="10.7269246"><ele>174.0</ele><time>2026-04-04T13:45:18.63Z</time></trkpt><trkpt lat="43.44703" lon="10.7272094"><ele>169.5</ele><time>2026-04-04T13:45:19.631Z</time></trkpt><trkpt lat="43.4471483" lon="10.7274916"><ele>165.0</ele><time>2026-04-04T13:45:20.629Z</time></trkpt><trkpt lat="43.4472545" lon="10.7277568"><ele>165.0</ele><time>2026-04-04T13:45:21.624Z</time></trkpt><trkpt lat="43.4473548" lon="10.7280128"><ele>165.0</ele><time>2026-04-04T13:45:22.63Z</time></trkpt><trkpt lat="43.447452" lon="10.7282673"><ele>165.0</ele><time>2026-04-04T13:45:23.629Z</time></trkpt><trkpt lat="43.447542" lon="10.7285034"><ele>165.0</ele><time>2026-04-04T13:45:24.63Z</time></trkpt><trkpt lat="43.4476575" lon="10.7287132"><ele>165.0</ele><time>2026-04-04T13:45:25.622Z</time></trkpt><trkpt lat="43.4477666" lon="10.7289276"><ele>165.0</ele><time>2026-04-04T13:45:26.628Z</time></trkpt><trkpt lat="43.4478836" lon="10.7291328"><ele>162.66666666666666</ele><time>2026-04-04T13:45:27.623Z</time></trkpt><trkpt lat="43.4480414" lon="10.7293164"><ele>160.33333333333331</ele><time>2026-04-04T13:45:28.623Z</time></trkpt><trkpt lat="43.4482082" lon="10.7295137"><ele>158.0</ele><time>2026-04-04T13:45:29.634Z</time></trkpt><trkpt lat="43.4483568" lon="10.7296918"><ele>158.0</ele><time>2026-04-04T13:45:30.629Z</time></trkpt><trkpt lat="43.4484956" lon="10.7298376"><ele>158.0</ele><time>2026-04-04T13:45:31.627Z</time></trkpt><trkpt lat="43.4486501" lon="10.7299477"><ele>158.0</ele><time>2026-04-04T13:45:32.628Z</time></trkpt><trkpt lat="43.4488081" lon="10.7300613"><ele>157.0</ele><time>2026-04-04T13:45:33.621Z</time></trkpt><trkpt lat="43.4489658" lon="10.730146"><ele>156.0</ele><time>2026-04-04T13:45:34.622Z</time></trkpt><trkpt lat="43.4490961" lon="10.7302024"><ele>155.0</ele><time>2026-04-04T13:45:35.624Z</time></trkpt><trkpt lat="43.4492118" lon="10.7302636"><ele>154.0</ele><time>2026-04-04T13:45:36.623Z</time></trkpt><trkpt lat="43.4493017" lon="10.7303137"><ele>154.0</ele><time>2026-04-04T13:45:37.626Z</time></trkpt><trkpt lat="43.4494063" lon="10.7302851"><ele>154.0</ele><time>2026-04-04T13:45:38.633Z</time></trkpt><trkpt lat="43.4494865" lon="10.7302096"><ele>154.0</ele><time>2026-04-04T13:45:39.632Z</time></trkpt><trkpt lat="43.4495517" lon="10.7300716"><ele>154.0</ele><time>2026-04-04T13:45:40.621Z</time></trkpt><trkpt lat="43.4496029" lon="10.7298992"><ele>153.0</ele><time>2026-04-04T13:45:41.619Z</time></trkpt><trkpt lat="43.4496564" lon="10.7297146"><ele>152.0</ele><time>2026-04-04T13:45:42.62Z</time></trkpt><trkpt lat="43.4497013" lon="10.7295412"><ele>151.0</ele><time>2026-04-04T13:45:43.625Z</time></trkpt><trkpt lat="43.4498017" lon="10.7294184"><ele>150.0</ele><time>2026-04-04T13:45:44.623Z</time></trkpt><trkpt lat="43.4499566" lon="10.7293102"><ele>147.66666666666666</ele><time>2026-04-04T13:45:45.616Z</time></trkpt><trkpt lat="43.4501125" lon="10.7291804"><ele>145.33333333333331</ele><time>2026-04-04T13:45:46.61Z</time></trkpt><trkpt lat="43.4502537" lon="10.7290554"><ele>143.0</ele><time>2026-04-04T13:45:47.615Z</time></trkpt><trkpt lat="43.4504126" lon="10.7289277"><ele>142.0</ele><time>2026-04-04T13:45:48.619Z</time></trkpt><trkpt lat="43.4505588" lon="10.7287906"><ele>141.0</ele><time>2026-04-04T13:45:49.625Z</time></trkpt><trkpt lat="43.4507267" lon="10.728697"><ele>140.0</ele><time>2026-04-04T13:45:50.619Z</time></trkpt><trkpt lat="43.4508971" lon="10.7286067"><ele>140.0</ele><time>2026-04-04T13:45:51.626Z</time></trkpt><trkpt lat="43.4510842" lon="10.7285625"><ele>140.0</ele><time>2026-04-04T13:45:52.619Z</time></trkpt><trkpt lat="43.4512771" lon="10.7285406"><ele>140.0</ele><time>2026-04-04T13:45:53.627Z</time></trkpt><trkpt lat="43.4514486" lon="10.7285568"><ele>138.0</ele><time>2026-04-04T13:45:54.619Z</time></trkpt><trkpt lat="43.4516126" lon="10.7286207"><ele>136.0</ele><time>2026-04-04T13:45:55.629Z</time></trkpt><trkpt lat="43.4518355" lon="10.7287133"><ele>134.0</ele><time>2026-04-04T13:45:56.625Z</time></trkpt><trkpt lat="43.4520573" lon="10.7288281"><ele>133.0</ele><time>2026-04-04T13:45:57.622Z</time></trkpt><trkpt lat="43.4523094" lon="10.7289275"><ele>132.0</ele><time>2026-04-04T13:45:58.626Z</time></trkpt><trkpt lat="43.4525275" lon="10.7290431"><ele>132.0</ele><time>2026-04-04T13:45:59.63Z</time></trkpt><trkpt lat="43.4527289" lon="10.7291197"><ele>132.0</ele><time>2026-04-04T13:46:00.628Z</time></trkpt><trkpt lat="43.4529084" lon="10.7292182"><ele>132.0</ele><time>2026-04-04T13:46:01.621Z</time></trkpt><trkpt lat="43.4530478" lon="10.729273"><ele>131.66666666666666</ele><time>2026-04-04T13:46:02.621Z</time></trkpt><trkpt lat="43.4531775" lon="10.7293468"><ele>131.33333333333331</ele><time>2026-04-04T13:46:03.621Z</time></trkpt><trkpt lat="43.4533395" lon="10.7294575"><ele>131.0</ele><time>2026-04-04T13:46:04.621Z</time></trkpt><trkpt lat="43.4535004" lon="10.7295968"><ele>130.0</ele><time>2026-04-04T13:46:05.612Z</time></trkpt><trkpt lat="43.4536821" lon="10.7297684"><ele>129.0</ele><time>2026-04-04T13:46:06.623Z</time></trkpt><trkpt lat="43.4538796" lon="10.7299243"><ele>128.0</ele><time>2026-04-04T13:46:07.619Z</time></trkpt><trkpt lat="43.4540835" lon="10.7300968"><ele>126.5</ele><time>2026-04-04T13:46:08.625Z</time></trkpt><trkpt lat="43.4542983" lon="10.730271"><ele>125.0</ele><time>2026-04-04T13:46:09.628Z</time></trkpt><trkpt lat="43.4545302" lon="10.7304526"><ele>125.5</ele><time>2026-04-04T13:46:10.629Z</time></trkpt><trkpt lat="43.4547419" lon="10.7306291"><ele>126.0</ele><time>2026-04-04T13:46:11.634Z</time></trkpt><trkpt lat="43.454964" lon="10.7308064"><ele>126.0</ele><time>2026-04-04T13:46:12.628Z</time></trkpt><trkpt lat="43.4551538" lon="10.7309659"><ele>126.0</ele><time>2026-04-04T13:46:13.626Z</time></trkpt><trkpt lat="43.45534" lon="10.7311114"><ele>126.0</ele><time>2026-04-04T13:46:14.627Z</time></trkpt><trkpt lat="43.4555" lon="10.7312917"><ele>125.66666666666666</ele><time>2026-04-04T13:46:15.62Z</time></trkpt><trkpt lat="43.4556677" lon="10.7314382"><ele>125.33333333333333</ele><time>2026-04-04T13:46:16.631Z</time></trkpt><trkpt lat="43.4558568" lon="10.731607"><ele>125.0</ele><time>2026-04-04T13:46:17.632Z</time></trkpt><trkpt lat="43.4560614" lon="10.731775"><ele>124.0</ele><time>2026-04-04T13:46:18.629Z</time></trkpt><trkpt lat="43.4562614" lon="10.7319271"><ele>123.0</ele><time>2026-04-04T13:46:19.634Z</time></trkpt><trkpt lat="43.456439" lon="10.7320913"><ele>122.0</ele><time>2026-04-04T13:46:20.634Z</time></trkpt><trkpt lat="43.4566117" lon="10.7322549"><ele>122.0</ele><time>2026-04-04T13:46:21.63Z</time></trkpt><trkpt lat="43.4567891" lon="10.7323964"><ele>122.0</ele><time>2026-04-04T13:46:22.633Z</time></trkpt><trkpt lat="43.456957" lon="10.7325099"><ele>122.0</ele><time>2026-04-04T13:46:23.623Z</time></trkpt><trkpt lat="43.4571231" lon="10.732592"><ele>121.5</ele><time>2026-04-04T13:46:24.622Z</time></trkpt><trkpt lat="43.457276" lon="10.7326213"><ele>121.0</ele><time>2026-04-04T13:46:25.627Z</time></trkpt><trkpt lat="43.4574175" lon="10.7326867"><ele>120.5</ele><time>2026-04-04T13:46:26.63Z</time></trkpt><trkpt lat="43.4575507" lon="10.7327647"><ele>120.0</ele><time>2026-04-04T13:46:27.631Z</time></trkpt><trkpt lat="43.4576379" lon="10.7328707"><ele>120.0</ele><time>2026-04-04T13:46:28.621Z</time></trkpt><trkpt lat="43.4577027" lon="10.7330282"><ele>120.0</ele><time>2026-04-04T13:46:29.632Z</time></trkpt><trkpt lat="43.4577481" lon="10.7331882"><ele>120.0</ele><time>2026-04-04T13:46:30.623Z</time></trkpt><trkpt lat="43.4577867" lon="10.7333656"><ele>120.0</ele><time>2026-04-04T13:46:31.62Z</time></trkpt><trkpt lat="43.4578637" lon="10.7335403"><ele>119.25</ele><time>2026-04-04T13:46:32.613Z</time></trkpt><trkpt lat="43.4579661" lon="10.7336897"><ele>118.5</ele><time>2026-04-04T13:46:33.617Z</time></trkpt><trkpt lat="43.4580792" lon="10.7338225"><ele>117.75</ele><time>2026-04-04T13:46:34.617Z</time></trkpt><trkpt lat="43.4581837" lon="10.733911"><ele>117.0</ele><time>2026-04-04T13:46:35.621Z</time></trkpt><trkpt lat="43.4583212" lon="10.7339613"><ele>117.0</ele><time>2026-04-04T13:46:36.623Z</time></trkpt><trkpt lat="43.4584538" lon="10.734047"><ele>117.0</ele><time>2026-04-04T13:46:37.626Z</time></trkpt><trkpt lat="43.4585757" lon="10.7341286"><ele>117.0</ele><time>2026-04-04T13:46:38.629Z</time></trkpt><trkpt lat="43.4587013" lon="10.734237"><ele>117.0</ele><time>2026-04-04T13:46:39.625Z</time></trkpt><trkpt lat="43.4588188" lon="10.7343216"><ele>117.66666666666666</ele><time>2026-04-04T13:46:40.631Z</time></trkpt><trkpt lat="43.4589541" lon="10.7344104"><ele>118.33333333333333</ele><time>2026-04-04T13:46:41.62Z</time></trkpt><trkpt lat="43.459099" lon="10.7345184"><ele>119.0</ele><time>2026-04-04T13:46:42.622Z</time></trkpt><trkpt lat="43.459233" lon="10.7345745"><ele>118.99999999999999</ele><time>2026-04-04T13:46:43.619Z</time></trkpt><trkpt lat="43.4593126" lon="10.7346444"><ele>119.0</ele><time>2026-04-04T13:46:44.622Z</time></trkpt><trkpt lat="43.4594169" lon="10.734683"><ele>119.0</ele><time>2026-04-04T13:46:46.624Z</time></trkpt><trkpt lat="43.4594994" lon="10.7346563"><ele>119.0</ele><time>2026-04-04T13:46:48.62Z</time></trkpt><trkpt lat="43.4595601" lon="10.7346008"><ele>118.99999999999999</ele><time>2026-04-04T13:46:49.614Z</time></trkpt><trkpt lat="43.4596264" lon="10.7345316"><ele>119.0</ele><time>2026-04-04T13:46:50.621Z</time></trkpt><trkpt lat="43.4597109" lon="10.734474"><ele>119.80000000000001</ele><time>2026-04-04T13:46:51.618Z</time></trkpt><trkpt lat="43.4598022" lon="10.7344211"><ele>120.60000000000001</ele><time>2026-04-04T13:46:52.617Z</time></trkpt><trkpt lat="43.4599023" lon="10.7343948"><ele>121.4</ele><time>2026-04-04T13:46:53.614Z</time></trkpt><trkpt lat="43.4600232" lon="10.7343854"><ele>122.2</ele><time>2026-04-04T13:46:54.614Z</time></trkpt><trkpt lat="43.4601371" lon="10.7343546"><ele>123.0</ele><time>2026-04-04T13:46:55.617Z</time></trkpt><trkpt lat="43.4602481" lon="10.7343094"><ele>123.0</ele><time>2026-04-04T13:46:56.622Z</time></trkpt><trkpt lat="43.4603519" lon="10.7342659"><ele>123.0</ele><time>2026-04-04T13:46:57.614Z</time></trkpt><trkpt lat="43.4604576" lon="10.7342167"><ele>123.0</ele><time>2026-04-04T13:46:58.618Z</time></trkpt><trkpt lat="43.4605738" lon="10.7341586"><ele>123.0</ele><time>2026-04-04T13:46:59.623Z</time></trkpt><trkpt lat="43.4607122" lon="10.7341186"><ele>124.66666666666666</ele><time>2026-04-04T13:47:00.617Z</time></trkpt><trkpt lat="43.4608704" lon="10.7340873"><ele>126.33333333333333</ele><time>2026-04-04T13:47:01.615Z</time></trkpt><trkpt lat="43.4610696" lon="10.7340908"><ele>128.0</ele><time>2026-04-04T13:47:02.62Z</time></trkpt><trkpt lat="43.4612748" lon="10.7341251"><ele>130.0</ele><time>2026-04-04T13:47:03.623Z</time></trkpt><trkpt lat="43.4614605" lon="10.7341175"><ele>132.0</ele><time>2026-04-04T13:47:04.624Z</time></trkpt><trkpt lat="43.4616145" lon="10.7340952"><ele>134.0</ele><time>2026-04-04T13:47:05.62Z</time></trkpt><trkpt lat="43.4617661" lon="10.7340557"><ele>134.0</ele><time>2026-04-04T13:47:06.617Z</time></trkpt><trkpt lat="43.4619433" lon="10.733937"><ele>134.0</ele><time>2026-04-04T13:47:07.621Z</time></trkpt><trkpt lat="43.4620518" lon="10.7337625"><ele>134.0</ele><time>2026-04-04T13:47:08.615Z</time></trkpt><trkpt lat="43.4621629" lon="10.7335689"><ele>137.66666666666666</ele><time>2026-04-04T13:47:09.612Z</time></trkpt><trkpt lat="43.4622497" lon="10.7333437"><ele>141.33333333333334</ele><time>2026-04-04T13:47:10.607Z</time></trkpt><trkpt lat="43.4622945" lon="10.7330734"><ele>145.0</ele><time>2026-04-04T13:47:11.612Z</time></trkpt><trkpt lat="43.4623188" lon="10.7328185"><ele>145.66666666666669</ele><time>2026-04-04T13:47:12.614Z</time></trkpt><trkpt lat="43.462302" lon="10.7325614"><ele>146.33333333333334</ele><time>2026-04-04T13:47:13.608Z</time></trkpt><trkpt lat="43.4622494" lon="10.7323074"><ele>147.0</ele><time>2026-04-04T13:47:14.614Z</time></trkpt><trkpt lat="43.4621538" lon="10.7320588"><ele>144.0</ele><time>2026-04-04T13:47:15.625Z</time></trkpt><trkpt lat="43.4620478" lon="10.7318094"><ele>141.0</ele><time>2026-04-04T13:47:16.623Z</time></trkpt><trkpt lat="43.4619603" lon="10.7315893"><ele>138.0</ele><time>2026-04-04T13:47:17.615Z</time></trkpt><trkpt lat="43.4618869" lon="10.7313962"><ele>138.0</ele><time>2026-04-04T13:47:18.641Z</time></trkpt><trkpt lat="43.4618895" lon="10.7312295"><ele>138.0</ele><time>2026-04-04T13:47:19.622Z</time></trkpt><trkpt lat="43.4619578" lon="10.7310882"><ele>138.0</ele><time>2026-04-04T13:47:20.616Z</time></trkpt><trkpt lat="43.4620411" lon="10.7309798"><ele>138.0</ele><time>2026-04-04T13:47:21.624Z</time></trkpt><trkpt lat="43.4621606" lon="10.7309131"><ele>140.75</ele><time>2026-04-04T13:47:22.62Z</time></trkpt><trkpt lat="43.4622751" lon="10.7308683"><ele>143.5</ele><time>2026-04-04T13:47:23.615Z</time></trkpt><trkpt lat="43.4624258" lon="10.7308715"><ele>146.25</ele><time>2026-04-04T13:47:24.609Z</time></trkpt><trkpt lat="43.4625838" lon="10.7309293"><ele>149.0</ele><time>2026-04-04T13:47:25.61Z</time></trkpt><trkpt lat="43.462791" lon="10.7310343"><ele>152.33333333333331</ele><time>2026-04-04T13:47:26.618Z</time></trkpt><trkpt lat="43.4629906" lon="10.731161"><ele>155.66666666666666</ele><time>2026-04-04T13:47:27.617Z</time></trkpt><trkpt lat="43.4631964" lon="10.7312924"><ele>159.0</ele><time>2026-04-04T13:47:28.622Z</time></trkpt><trkpt lat="43.4633793" lon="10.7313986"><ele>159.0</ele><time>2026-04-04T13:47:29.622Z</time></trkpt><trkpt lat="43.4635485" lon="10.7314681"><ele>159.0</ele><time>2026-04-04T13:47:30.616Z</time></trkpt><trkpt lat="43.463689" lon="10.7314943"><ele>159.0</ele><time>2026-04-04T13:47:31.612Z</time></trkpt><trkpt lat="43.4638486" lon="10.7314546"><ele>159.0</ele><time>2026-04-04T13:47:32.62Z</time></trkpt><trkpt lat="43.4640141" lon="10.7313552"><ele>159.0</ele><time>2026-04-04T13:47:33.613Z</time></trkpt><trkpt lat="43.4641037" lon="10.7311813"><ele>159.0</ele><time>2026-04-04T13:47:34.615Z</time></trkpt><trkpt lat="43.4641849" lon="10.7309832"><ele>159.0</ele><time>2026-04-04T13:47:35.617Z</time></trkpt><trkpt lat="43.4642344" lon="10.7307272"><ele>159.0</ele><time>2026-04-04T13:47:36.606Z</time></trkpt><trkpt lat="43.4643263" lon="10.7304673"><ele>159.0</ele><time>2026-04-04T13:47:37.614Z</time></trkpt><trkpt lat="43.4643823" lon="10.730204"><ele>160.0</ele><time>2026-04-04T13:47:38.613Z</time></trkpt><trkpt lat="43.4644347" lon="10.7299157"><ele>161.0</ele><time>2026-04-04T13:47:39.616Z</time></trkpt><trkpt lat="43.4645149" lon="10.7296193"><ele>162.0</ele><time>2026-04-04T13:47:40.626Z</time></trkpt><trkpt lat="43.4645905" lon="10.7293031"><ele>159.5</ele><time>2026-04-04T13:47:41.625Z</time></trkpt><trkpt lat="43.4646757" lon="10.7289866"><ele>157.0</ele><time>2026-04-04T13:47:42.628Z</time></trkpt><trkpt lat="43.4647727" lon="10.7286862"><ele>158.5</ele><time>2026-04-04T13:47:43.629Z</time></trkpt><trkpt lat="43.4648624" lon="10.7283872"><ele>160.0</ele><time>2026-04-04T13:47:44.626Z</time></trkpt><trkpt lat="43.4649384" lon="10.7280973"><ele>160.0</ele><time>2026-04-04T13:47:45.642Z</time></trkpt><trkpt lat="43.4650217" lon="10.7278061"><ele>160.0</ele><time>2026-04-04T13:47:46.633Z</time></trkpt><trkpt lat="43.465117" lon="10.7275218"><ele>160.33333333333334</ele><time>2026-04-04T13:47:47.637Z</time></trkpt><trkpt lat="43.4652073" lon="10.7272318"><ele>160.66666666666666</ele><time>2026-04-04T13:47:48.643Z</time></trkpt><trkpt lat="43.4652987" lon="10.726956"><ele>161.0</ele><time>2026-04-04T13:47:49.642Z</time></trkpt><trkpt lat="43.4653894" lon="10.7266997"><ele>160.0</ele><time>2026-04-04T13:47:50.639Z</time></trkpt><trkpt lat="43.4654919" lon="10.7264313"><ele>159.0</ele><time>2026-04-04T13:47:51.636Z</time></trkpt><trkpt lat="43.46558" lon="10.7261772"><ele>158.0</ele><time>2026-04-04T13:47:52.632Z</time></trkpt><trkpt lat="43.4656498" lon="10.7259202"><ele>160.0</ele><time>2026-04-04T13:47:53.639Z</time></trkpt><trkpt lat="43.4657213" lon="10.7256627"><ele>162.0</ele><time>2026-04-04T13:47:54.636Z</time></trkpt><trkpt lat="43.4658138" lon="10.7254282"><ele>164.0</ele><time>2026-04-04T13:47:55.634Z</time></trkpt><trkpt lat="43.4658871" lon="10.7251752"><ele>165.66666666666666</ele><time>2026-04-04T13:47:56.635Z</time></trkpt><trkpt lat="43.4659784" lon="10.7249601"><ele>167.33333333333334</ele><time>2026-04-04T13:47:57.631Z</time></trkpt><trkpt lat="43.4660813" lon="10.7247662"><ele>169.0</ele><time>2026-04-04T13:47:58.629Z</time></trkpt><trkpt lat="43.4662123" lon="10.7245637"><ele>166.66666666666669</ele><time>2026-04-04T13:47:59.633Z</time></trkpt><trkpt lat="43.4663409" lon="10.7243773"><ele>164.33333333333334</ele><time>2026-04-04T13:48:00.631Z</time></trkpt><trkpt lat="43.4664425" lon="10.7241978"><ele>162.0</ele><time>2026-04-04T13:48:01.626Z</time></trkpt><trkpt lat="43.4665508" lon="10.7240322"><ele>162.0</ele><time>2026-04-04T13:48:02.627Z</time></trkpt><trkpt lat="43.4666491" lon="10.7238734"><ele>162.0</ele><time>2026-04-04T13:48:03.625Z</time></trkpt><trkpt lat="43.4667598" lon="10.7236782"><ele>162.0</ele><time>2026-04-04T13:48:04.624Z</time></trkpt><trkpt lat="43.4668023" lon="10.7234201"><ele>164.0</ele><time>2026-04-04T13:48:05.623Z</time></trkpt><trkpt lat="43.4668549" lon="10.7231473"><ele>166.0</ele><time>2026-04-04T13:48:06.622Z</time></trkpt><trkpt lat="43.4669189" lon="10.7228897"><ele>168.0</ele><time>2026-04-04T13:48:07.618Z</time></trkpt><trkpt lat="43.4669856" lon="10.7226337"><ele>169.0</ele><time>2026-04-04T13:48:08.621Z</time></trkpt><trkpt lat="43.4670317" lon="10.7223601"><ele>170.0</ele><time>2026-04-04T13:48:09.626Z</time></trkpt><trkpt lat="43.4670887" lon="10.7221314"><ele>171.0</ele><time>2026-04-04T13:48:10.622Z</time></trkpt><trkpt lat="43.4671395" lon="10.7219084"><ele>169.75</ele><time>2026-04-04T13:48:11.624Z</time></trkpt><trkpt lat="43.4671939" lon="10.7217167"><ele>168.5</ele><time>2026-04-04T13:48:12.625Z</time></trkpt><trkpt lat="43.46725" lon="10.7215728"><ele>167.25</ele><time>2026-04-04T13:48:13.619Z</time></trkpt><trkpt lat="43.4673152" lon="10.7214764"><ele>166.0</ele><time>2026-04-04T13:48:14.618Z</time></trkpt><trkpt lat="43.4673878" lon="10.7214099"><ele>166.0</ele><time>2026-04-04T13:48:15.62Z</time></trkpt><trkpt lat="43.4674622" lon="10.7213427"><ele>166.0</ele><time>2026-04-04T13:48:16.615Z</time></trkpt><trkpt lat="43.4675446" lon="10.7213227"><ele>166.0</ele><time>2026-04-04T13:48:17.615Z</time></trkpt><trkpt lat="43.4676217" lon="10.7213465"><ele>166.0</ele><time>2026-04-04T13:48:18.63Z</time></trkpt><trkpt lat="43.4677057" lon="10.721413"><ele>166.0</ele><time>2026-04-04T13:48:19.62Z</time></trkpt><trkpt lat="43.4677924" lon="10.7214866"><ele>166.0</ele><time>2026-04-04T13:48:20.624Z</time></trkpt><trkpt lat="43.4678859" lon="10.7215778"><ele>166.0</ele><time>2026-04-04T13:48:21.62Z</time></trkpt><trkpt lat="43.4680011" lon="10.7216715"><ele>166.0</ele><time>2026-04-04T13:48:22.622Z</time></trkpt><trkpt lat="43.4681409" lon="10.7217642"><ele>166.0</ele><time>2026-04-04T13:48:23.618Z</time></trkpt><trkpt lat="43.4683199" lon="10.7218669"><ele>166.0</ele><time>2026-04-04T13:48:24.629Z</time></trkpt><trkpt lat="43.4684624" lon="10.7219791"><ele>166.0</ele><time>2026-04-04T13:48:25.622Z</time></trkpt><trkpt lat="43.4686199" lon="10.7220762"><ele>166.0</ele><time>2026-04-04T13:48:26.626Z</time></trkpt><trkpt lat="43.4687987" lon="10.7221637"><ele>168.66666666666669</ele><time>2026-04-04T13:48:27.627Z</time></trkpt><trkpt lat="43.4689924" lon="10.7222064"><ele>171.33333333333334</ele><time>2026-04-04T13:48:28.627Z</time></trkpt><trkpt lat="43.4691878" lon="10.7222051"><ele>174.0</ele><time>2026-04-04T13:48:29.628Z</time></trkpt><trkpt lat="43.4693217" lon="10.7222107"><ele>174.0</ele><time>2026-04-04T13:48:30.615Z</time></trkpt><trkpt lat="43.4694261" lon="10.7222443"><ele>174.0</ele><time>2026-04-04T13:48:31.621Z</time></trkpt><trkpt lat="43.4695541" lon="10.7223434"><ele>174.0</ele><time>2026-04-04T13:48:32.621Z</time></trkpt><trkpt lat="43.4696254" lon="10.7224636"><ele>174.0</ele><time>2026-04-04T13:48:33.618Z</time></trkpt><trkpt lat="43.4696839" lon="10.722594"><ele>173.5</ele><time>2026-04-04T13:48:34.618Z</time></trkpt><trkpt lat="43.4697314" lon="10.7227367"><ele>173.0</ele><time>2026-04-04T13:48:35.63Z</time></trkpt><trkpt lat="43.4697419" lon="10.7229398"><ele>172.5</ele><time>2026-04-04T13:48:36.62Z</time></trkpt><trkpt lat="43.4697411" lon="10.7231582"><ele>172.0</ele><time>2026-04-04T13:48:37.614Z</time></trkpt><trkpt lat="43.4697429" lon="10.7233657"><ele>171.5</ele><time>2026-04-04T13:48:38.619Z</time></trkpt><trkpt lat="43.4697464" lon="10.7235747"><ele>171.0</ele><time>2026-04-04T13:48:39.624Z</time></trkpt><trkpt lat="43.4697564" lon="10.7237854"><ele>170.5</ele><time>2026-04-04T13:48:40.622Z</time></trkpt><trkpt lat="43.4697583" lon="10.7239774"><ele>170.0</ele><time>2026-04-04T13:48:41.619Z</time></trkpt><trkpt lat="43.4697754" lon="10.7241871"><ele>170.25</ele><time>2026-04-04T13:48:42.617Z</time></trkpt><trkpt lat="43.4698326" lon="10.7244119"><ele>170.5</ele><time>2026-04-04T13:48:43.609Z</time></trkpt><trkpt lat="43.4699047" lon="10.7245729"><ele>170.75</ele><time>2026-04-04T13:48:44.619Z</time></trkpt><trkpt lat="43.4699581" lon="10.7247176"><ele>171.0</ele><time>2026-04-04T13:48:45.625Z</time></trkpt><trkpt lat="43.4699913" lon="10.7248792"><ele>171.0</ele><time>2026-04-04T13:48:46.62Z</time></trkpt><trkpt lat="43.4699978" lon="10.7250243"><ele>171.0</ele><time>2026-04-04T13:48:47.622Z</time></trkpt><trkpt lat="43.4700571" lon="10.7252058"><ele>171.0</ele><time>2026-04-04T13:48:48.622Z</time></trkpt><trkpt lat="43.4701151" lon="10.7253862"><ele>171.0</ele><time>2026-04-04T13:48:49.617Z</time></trkpt><trkpt lat="43.4702046" lon="10.7255475"><ele>172.33333333333334</ele><time>2026-04-04T13:48:50.616Z</time></trkpt><trkpt lat="43.4703041" lon="10.7257245"><ele>173.66666666666669</ele><time>2026-04-04T13:48:51.612Z</time></trkpt><trkpt lat="43.4703943" lon="10.7259025"><ele>175.0</ele><time>2026-04-04T13:48:52.61Z</time></trkpt><trkpt lat="43.4705298" lon="10.7260513"><ele>178.0</ele><time>2026-04-04T13:48:53.613Z</time></trkpt><trkpt lat="43.4706716" lon="10.7261539"><ele>181.0</ele><time>2026-04-04T13:48:54.615Z</time></trkpt><trkpt lat="43.4708068" lon="10.7262797"><ele>184.0</ele><time>2026-04-04T13:48:55.624Z</time></trkpt><trkpt lat="43.470959" lon="10.7263874"><ele>184.0</ele><time>2026-04-04T13:48:56.621Z</time></trkpt><trkpt lat="43.4711197" lon="10.7264821"><ele>184.0</ele><time>2026-04-04T13:48:57.622Z</time></trkpt><trkpt lat="43.4713144" lon="10.7264997"><ele>184.0</ele><time>2026-04-04T13:48:58.615Z</time></trkpt><trkpt lat="43.4714504" lon="10.7265741"><ele>184.25</ele><time>2026-04-04T13:48:59.629Z</time></trkpt><trkpt lat="43.4715749" lon="10.7266134"><ele>184.5</ele><time>2026-04-04T13:49:00.625Z</time></trkpt><trkpt lat="43.4716839" lon="10.7266507"><ele>184.75</ele><time>2026-04-04T13:49:01.623Z</time></trkpt><trkpt lat="43.4718119" lon="10.7267003"><ele>185.0</ele><time>2026-04-04T13:49:02.623Z</time></trkpt><trkpt lat="43.4719347" lon="10.7267418"><ele>185.0</ele><time>2026-04-04T13:49:03.616Z</time></trkpt><trkpt lat="43.472075" lon="10.7267534"><ele>185.0</ele><time>2026-04-04T13:49:04.61Z</time></trkpt><trkpt lat="43.472178" lon="10.7267811"><ele>185.0</ele><time>2026-04-04T13:49:05.622Z</time></trkpt><trkpt lat="43.4722984" lon="10.7268156"><ele>185.0</ele><time>2026-04-04T13:49:06.61Z</time></trkpt><trkpt lat="43.4723718" lon="10.7268954"><ele>188.2</ele><time>2026-04-04T13:49:07.608Z</time></trkpt><trkpt lat="43.4723539" lon="10.727064"><ele>191.4</ele><time>2026-04-04T13:49:09.595Z</time></trkpt><trkpt lat="43.4723212" lon="10.7271597"><ele>194.60000000000002</ele><time>2026-04-04T13:49:10.597Z</time></trkpt><trkpt lat="43.472257" lon="10.7272708"><ele>197.8</ele><time>2026-04-04T13:49:11.599Z</time></trkpt><trkpt lat="43.4721869" lon="10.7273845"><ele>201.0</ele><time>2026-04-04T13:49:12.593Z</time></trkpt><trkpt lat="43.4721238" lon="10.7275046"><ele>202.0</ele><time>2026-04-04T13:49:13.596Z</time></trkpt><trkpt lat="43.4720535" lon="10.7276467"><ele>203.0</ele><time>2026-04-04T13:49:14.593Z</time></trkpt><trkpt lat="43.4719831" lon="10.7278029"><ele>204.0</ele><time>2026-04-04T13:49:15.602Z</time></trkpt><trkpt lat="43.4719152" lon="10.7279486"><ele>205.0</ele><time>2026-04-04T13:49:16.596Z</time></trkpt><trkpt lat="43.4718461" lon="10.7281045"><ele>204.99999999999997</ele><time>2026-04-04T13:49:17.602Z</time></trkpt><trkpt lat="43.4718401" lon="10.7282262"><ele>205.0</ele><time>2026-04-04T13:49:18.607Z</time></trkpt><trkpt lat="43.471831" lon="10.7283208"><ele>205.0</ele><time>2026-04-04T13:49:19.605Z</time></trkpt><trkpt lat="43.4718272" lon="10.7284137"><ele>205.0</ele><time>2026-04-04T13:49:21.615Z</time></trkpt><trkpt lat="43.4718956" lon="10.728364"><ele>204.99999999999997</ele><time>2026-04-04T13:50:20.609Z</time></trkpt><trkpt lat="43.4718127" lon="10.7284003"><ele>205.0</ele><time>2026-04-04T13:50:24.612Z</time></trkpt><trkpt lat="43.4717055" lon="10.7284233"><ele>205.0</ele><time>2026-04-04T13:50:26.61Z</time></trkpt><trkpt lat="43.4716433" lon="10.7284483"><ele>205.0</ele><time>2026-04-04T13:50:27.603Z</time></trkpt><trkpt lat="43.471571" lon="10.7284844"><ele>205.0</ele><time>2026-04-04T13:50:28.608Z</time></trkpt><trkpt lat="43.4715002" lon="10.7285161"><ele>205.0</ele><time>2026-04-04T13:50:29.606Z</time></trkpt><trkpt lat="43.4714327" lon="10.7285462"><ele>205.0</ele><time>2026-04-04T13:50:30.61Z</time></trkpt><trkpt lat="43.4713621" lon="10.7285872"><ele>205.0</ele><time>2026-04-04T13:50:31.605Z</time></trkpt><trkpt lat="43.4712848" lon="10.7286265"><ele>205.0</ele><time>2026-04-04T13:50:32.613Z</time></trkpt><trkpt lat="43.4711959" lon="10.72867"><ele>204.8</ele><time>2026-04-04T13:50:33.605Z</time></trkpt><trkpt lat="43.4711087" lon="10.7287257"><ele>204.6</ele><time>2026-04-04T13:50:34.6Z</time></trkpt><trkpt lat="43.471017" lon="10.7288055"><ele>204.39999999999998</ele><time>2026-04-04T13:50:35.602Z</time></trkpt><trkpt lat="43.4709305" lon="10.7288832"><ele>204.2</ele><time>2026-04-04T13:50:36.6Z</time></trkpt><trkpt lat="43.4708393" lon="10.7289754"><ele>204.0</ele><time>2026-04-04T13:50:37.599Z</time></trkpt><trkpt lat="43.4707458" lon="10.7290743"><ele>204.0</ele><time>2026-04-04T13:50:38.599Z</time></trkpt><trkpt lat="43.470643" lon="10.7291827"><ele>204.0</ele><time>2026-04-04T13:50:39.594Z</time></trkpt><trkpt lat="43.4705631" lon="10.7292943"><ele>204.0</ele><time>2026-04-04T13:50:40.592Z</time></trkpt><trkpt lat="43.470481" lon="10.7293771"><ele>204.0</ele><time>2026-04-04T13:50:41.594Z</time></trkpt><trkpt lat="43.4704047" lon="10.7294035"><ele>204.0</ele><time>2026-04-04T13:50:42.61Z</time></trkpt><trkpt lat="43.4703388" lon="10.7294139"><ele>204.39999999999998</ele><time>2026-04-04T13:50:43.604Z</time></trkpt><trkpt lat="43.4702738" lon="10.7294375"><ele>204.8</ele><time>2026-04-04T13:50:44.613Z</time></trkpt><trkpt lat="43.4702052" lon="10.7294676"><ele>205.2</ele><time>2026-04-04T13:50:45.623Z</time></trkpt><trkpt lat="43.4700841" lon="10.7295836"><ele>205.60000000000002</ele><time>2026-04-04T13:50:47.618Z</time></trkpt><trkpt lat="43.4700188" lon="10.729653"><ele>206.0</ele><time>2026-04-04T13:50:48.629Z</time></trkpt><trkpt lat="43.4699563" lon="10.7297271"><ele>206.00000000000003</ele><time>2026-04-04T13:50:49.611Z</time></trkpt><trkpt lat="43.469897" lon="10.7297843"><ele>206.0</ele><time>2026-04-04T13:50:50.613Z</time></trkpt><trkpt lat="43.4698535" lon="10.7298545"><ele>206.0</ele><time>2026-04-04T13:50:51.614Z</time></trkpt><trkpt lat="43.4698735" lon="10.7299746"><ele>206.0</ele><time>2026-04-04T13:50:53.617Z</time></trkpt><trkpt lat="43.4699308" lon="10.7299012"><ele>206.00000000000003</ele><time>2026-04-04T13:51:00.641Z</time></trkpt><trkpt lat="43.4699414" lon="10.7297277"><ele>206.0</ele><time>2026-04-04T13:51:02.611Z</time></trkpt><trkpt lat="43.4699825" lon="10.7296439"><ele>206.0</ele><time>2026-04-04T13:51:03.608Z</time></trkpt><trkpt lat="43.4700464" lon="10.7295566"><ele>206.0</ele><time>2026-04-04T13:51:04.616Z</time></trkpt><trkpt lat="43.4701193" lon="10.7294505"><ele>206.0</ele><time>2026-04-04T13:51:05.615Z</time></trkpt><trkpt lat="43.4701992" lon="10.729357"><ele>206.0</ele><time>2026-04-04T13:51:06.604Z</time></trkpt><trkpt lat="43.4702659" lon="10.7292943"><ele>206.0</ele><time>2026-04-04T13:51:07.613Z</time></trkpt><trkpt lat="43.4703467" lon="10.7292592"><ele>205.66666666666669</ele><time>2026-04-04T13:51:08.627Z</time></trkpt><trkpt lat="43.4704138" lon="10.7292675"><ele>205.33333333333334</ele><time>2026-04-04T13:51:09.609Z</time></trkpt><trkpt lat="43.4704885" lon="10.7293585"><ele>205.0</ele><time>2026-04-04T13:51:11.615Z</time></trkpt><trkpt lat="43.4705069" lon="10.7294539"><ele>204.66666666666669</ele><time>2026-04-04T13:51:12.608Z</time></trkpt><trkpt lat="43.4705195" lon="10.7295725"><ele>204.33333333333334</ele><time>2026-04-04T13:51:13.607Z</time></trkpt><trkpt lat="43.4705472" lon="10.7297037"><ele>204.0</ele><time>2026-04-04T13:51:14.613Z</time></trkpt><trkpt lat="43.4705761" lon="10.7298236"><ele>202.6</ele><time>2026-04-04T13:51:15.617Z</time></trkpt><trkpt lat="43.4706159" lon="10.7299363"><ele>201.2</ele><time>2026-04-04T13:51:16.611Z</time></trkpt><trkpt lat="43.4706518" lon="10.730065"><ele>199.79999999999998</ele><time>2026-04-04T13:51:17.616Z</time></trkpt><trkpt lat="43.4706783" lon="10.7301945"><ele>198.39999999999998</ele><time>2026-04-04T13:51:18.63Z</time></trkpt><trkpt lat="43.4707104" lon="10.730324"><ele>197.0</ele><time>2026-04-04T13:51:19.614Z</time></trkpt><trkpt lat="43.4707385" lon="10.7304651"><ele>197.0</ele><time>2026-04-04T13:51:20.617Z</time></trkpt><trkpt lat="43.4707556" lon="10.7306119"><ele>197.0</ele><time>2026-04-04T13:51:21.619Z</time></trkpt><trkpt lat="43.4707683" lon="10.7307481"><ele>197.0</ele><time>2026-04-04T13:51:22.623Z</time></trkpt><trkpt lat="43.470768" lon="10.7308947"><ele>197.0</ele><time>2026-04-04T13:51:23.621Z</time></trkpt><trkpt lat="43.4707574" lon="10.7310588"><ele>197.0</ele><time>2026-04-04T13:51:24.621Z</time></trkpt><trkpt lat="43.470733" lon="10.7312275"><ele>196.75</ele><time>2026-04-04T13:51:25.619Z</time></trkpt><trkpt lat="43.4707023" lon="10.7313944"><ele>196.5</ele><time>2026-04-04T13:51:26.621Z</time></trkpt><trkpt lat="43.4706704" lon="10.7315558"><ele>196.25</ele><time>2026-04-04T13:51:27.619Z</time></trkpt><trkpt lat="43.4706454" lon="10.7317144"><ele>196.0</ele><time>2026-04-04T13:51:28.626Z</time></trkpt><trkpt lat="43.4706268" lon="10.7318717"><ele>193.75</ele><time>2026-04-04T13:51:29.61Z</time></trkpt><trkpt lat="43.4706121" lon="10.7320227"><ele>191.5</ele><time>2026-04-04T13:51:30.611Z</time></trkpt><trkpt lat="43.4705877" lon="10.7321736"><ele>189.25</ele><time>2026-04-04T13:51:31.61Z</time></trkpt><trkpt lat="43.4705557" lon="10.7323264"><ele>187.0</ele><time>2026-04-04T13:51:32.606Z</time></trkpt><trkpt lat="43.4705203" lon="10.7324853"><ele>187.0</ele><time>2026-04-04T13:51:33.605Z</time></trkpt><trkpt lat="43.4704742" lon="10.732666"><ele>187.0</ele><time>2026-04-04T13:51:34.602Z</time></trkpt><trkpt lat="43.4704183" lon="10.7328504"><ele>187.0</ele><time>2026-04-04T13:51:35.609Z</time></trkpt><trkpt lat="43.4703867" lon="10.7330527"><ele>187.0</ele><time>2026-04-04T13:51:36.602Z</time></trkpt><trkpt lat="43.4703639" lon="10.7332344"><ele>184.75</ele><time>2026-04-04T13:51:37.607Z</time></trkpt><trkpt lat="43.4703395" lon="10.7334154"><ele>182.5</ele><time>2026-04-04T13:51:38.623Z</time></trkpt><trkpt lat="43.470335" lon="10.7335888"><ele>180.25</ele><time>2026-04-04T13:51:39.614Z</time></trkpt><trkpt lat="43.4703065" lon="10.7337265"><ele>178.0</ele><time>2026-04-04T13:51:40.617Z</time></trkpt><trkpt lat="43.4703129" lon="10.7338725"><ele>178.0</ele><time>2026-04-04T13:51:41.618Z</time></trkpt><trkpt lat="43.4702823" lon="10.7340483"><ele>178.0</ele><time>2026-04-04T13:51:42.616Z</time></trkpt><trkpt lat="43.470287" lon="10.7341771"><ele>178.0</ele><time>2026-04-04T13:51:43.623Z</time></trkpt><trkpt lat="43.4702941" lon="10.7343168"><ele>178.0</ele><time>2026-04-04T13:51:44.615Z</time></trkpt><trkpt lat="43.4703092" lon="10.7344672"><ele>178.0</ele><time>2026-04-04T13:51:45.605Z</time></trkpt><trkpt lat="43.4703497" lon="10.734627"><ele>178.0</ele><time>2026-04-04T13:51:46.604Z</time></trkpt><trkpt lat="43.4703706" lon="10.734758"><ele>178.0</ele><time>2026-04-04T13:51:47.604Z</time></trkpt><trkpt lat="43.4703885" lon="10.7348738"><ele>178.0</ele><time>2026-04-04T13:51:48.635Z</time></trkpt><trkpt lat="43.4703943" lon="10.7349834"><ele>178.0</ele><time>2026-04-04T13:51:49.615Z</time></trkpt><trkpt lat="43.4703897" lon="10.7350823"><ele>178.0</ele><time>2026-04-04T13:51:50.615Z</time></trkpt><trkpt lat="43.4703736" lon="10.7351766"><ele>178.0</ele><time>2026-04-04T13:51:51.625Z</time></trkpt><trkpt lat="43.4703515" lon="10.7352914"><ele>174.8</ele><time>2026-04-04T13:51:52.619Z</time></trkpt><trkpt lat="43.470335" lon="10.7354173"><ele>171.60000000000002</ele><time>2026-04-04T13:51:53.619Z</time></trkpt><trkpt lat="43.4703166" lon="10.7355439"><ele>168.39999999999998</ele><time>2026-04-04T13:51:54.618Z</time></trkpt><trkpt lat="43.4703017" lon="10.7356734"><ele>165.2</ele><time>2026-04-04T13:51:55.628Z</time></trkpt><trkpt lat="43.4702907" lon="10.7357943"><ele>162.0</ele><time>2026-04-04T13:51:56.627Z</time></trkpt><trkpt lat="43.4702773" lon="10.7359103"><ele>162.0</ele><time>2026-04-04T13:51:57.626Z</time></trkpt><trkpt lat="43.4702435" lon="10.7360249"><ele>162.0</ele><time>2026-04-04T13:51:58.632Z</time></trkpt><trkpt lat="43.4701833" lon="10.7361218"><ele>162.0</ele><time>2026-04-04T13:51:59.63Z</time></trkpt><trkpt lat="43.4701216" lon="10.7362329"><ele>162.0</ele><time>2026-04-04T13:52:00.621Z</time></trkpt><trkpt lat="43.4700609" lon="10.7363467"><ele>162.0</ele><time>2026-04-04T13:52:01.633Z</time></trkpt><trkpt lat="43.4700029" lon="10.736472"><ele>160.25</ele><time>2026-04-04T13:52:02.632Z</time></trkpt><trkpt lat="43.4699442" lon="10.7366041"><ele>158.5</ele><time>2026-04-04T13:52:03.626Z</time></trkpt><trkpt lat="43.469884" lon="10.7367429"><ele>156.75</ele><time>2026-04-04T13:52:04.632Z</time></trkpt><trkpt lat="43.4698194" lon="10.7368918"><ele>155.0</ele><time>2026-04-04T13:52:05.631Z</time></trkpt><trkpt lat="43.469753" lon="10.7370462"><ele>153.5</ele><time>2026-04-04T13:52:06.631Z</time></trkpt><trkpt lat="43.4696859" lon="10.7371892"><ele>152.0</ele><time>2026-04-04T13:52:07.632Z</time></trkpt><trkpt lat="43.4696097" lon="10.7373139"><ele>150.5</ele><time>2026-04-04T13:52:08.645Z</time></trkpt><trkpt lat="43.4695367" lon="10.7374464"><ele>149.0</ele><time>2026-04-04T13:52:09.633Z</time></trkpt><trkpt lat="43.4694678" lon="10.737595"><ele>146.75</ele><time>2026-04-04T13:52:10.629Z</time></trkpt><trkpt lat="43.4693923" lon="10.737758"><ele>144.5</ele><time>2026-04-04T13:52:11.636Z</time></trkpt><trkpt lat="43.4693137" lon="10.7379044"><ele>142.25</ele><time>2026-04-04T13:52:12.633Z</time></trkpt><trkpt lat="43.4692356" lon="10.7380077"><ele>140.0</ele><time>2026-04-04T13:52:13.629Z</time></trkpt><trkpt lat="43.4691503" lon="10.7380877"><ele>140.0</ele><time>2026-04-04T13:52:14.632Z</time></trkpt><trkpt lat="43.4690578" lon="10.7381267"><ele>140.0</ele><time>2026-04-04T13:52:15.629Z</time></trkpt><trkpt lat="43.4689584" lon="10.7381411"><ele>140.0</ele><time>2026-04-04T13:52:16.641Z</time></trkpt><trkpt lat="43.4688518" lon="10.7381224"><ele>140.0</ele><time>2026-04-04T13:52:17.63Z</time></trkpt><trkpt lat="43.4687461" lon="10.7381172"><ele>140.0</ele><time>2026-04-04T13:52:18.642Z</time></trkpt><trkpt lat="43.4686526" lon="10.7381134"><ele>139.5</ele><time>2026-04-04T13:52:19.63Z</time></trkpt><trkpt lat="43.4685632" lon="10.7381058"><ele>139.0</ele><time>2026-04-04T13:52:20.627Z</time></trkpt><trkpt lat="43.4684677" lon="10.7381349"><ele>138.5</ele><time>2026-04-04T13:52:21.628Z</time></trkpt><trkpt lat="43.4684098" lon="10.7381871"><ele>138.0</ele><time>2026-04-04T13:52:22.627Z</time></trkpt><trkpt lat="43.4683558" lon="10.7382613"><ele>137.5</ele><time>2026-04-04T13:52:23.625Z</time></trkpt><trkpt lat="43.4682987" lon="10.7383354"><ele>137.0</ele><time>2026-04-04T13:52:24.637Z</time></trkpt><trkpt lat="43.4682405" lon="10.7384246"><ele>137.0</ele><time>2026-04-04T13:52:25.628Z</time></trkpt><trkpt lat="43.468196" lon="10.7385122"><ele>137.0</ele><time>2026-04-04T13:52:26.64Z</time></trkpt><trkpt lat="43.4681765" lon="10.7386066"><ele>137.0</ele><time>2026-04-04T13:52:27.634Z</time></trkpt><trkpt lat="43.4681842" lon="10.7386947"><ele>137.0</ele><time>2026-04-04T13:52:28.646Z</time></trkpt><trkpt lat="43.468211" lon="10.7387811"><ele>137.0</ele><time>2026-04-04T13:52:29.64Z</time></trkpt><trkpt lat="43.4682494" lon="10.7388773"><ele>137.0</ele><time>2026-04-04T13:52:30.641Z</time></trkpt><trkpt lat="43.4683047" lon="10.7389746"><ele>136.2</ele><time>2026-04-04T13:52:31.636Z</time></trkpt><trkpt lat="43.46837" lon="10.7390761"><ele>135.39999999999998</ele><time>2026-04-04T13:52:33.711Z</time></trkpt><trkpt lat="43.4684118" lon="10.7392022"><ele>134.60000000000002</ele><time>2026-04-04T13:52:34.715Z</time></trkpt><trkpt lat="43.4684717" lon="10.7393169"><ele>133.8</ele><time>2026-04-04T13:52:35.698Z</time></trkpt><trkpt lat="43.4684887" lon="10.7394582"><ele>133.0</ele><time>2026-04-04T13:52:36.7Z</time></trkpt><trkpt lat="43.4684911" lon="10.7396132"><ele>132.5</ele><time>2026-04-04T13:52:37.695Z</time></trkpt><trkpt lat="43.4684783" lon="10.7397807"><ele>132.0</ele><time>2026-04-04T13:52:38.707Z</time></trkpt><trkpt lat="43.468462" lon="10.7399735"><ele>131.5</ele><time>2026-04-04T13:52:39.705Z</time></trkpt><trkpt lat="43.4684342" lon="10.7401763"><ele>131.0</ele><time>2026-04-04T13:52:40.713Z</time></trkpt><trkpt lat="43.4684108" lon="10.7402999"><ele>131.0</ele><time>2026-04-04T13:52:41.706Z</time></trkpt><trkpt lat="43.4683829" lon="10.7404888"><ele>131.0</ele><time>2026-04-04T13:52:42.704Z</time></trkpt><trkpt lat="43.4683436" lon="10.7406484"><ele>131.0</ele><time>2026-04-04T13:52:43.705Z</time></trkpt><trkpt lat="43.4683164" lon="10.7407476"><ele>131.0</ele><time>2026-04-04T13:52:44.706Z</time></trkpt><trkpt lat="43.4682428" lon="10.7408627"><ele>130.0</ele><time>2026-04-04T13:52:45.699Z</time></trkpt><trkpt lat="43.4680712" lon="10.7411026"><ele>129.0</ele><time>2026-04-04T13:52:46.612Z</time></trkpt><trkpt lat="43.467978" lon="10.7412388"><ele>128.0</ele><time>2026-04-04T13:52:47.608Z</time></trkpt><trkpt lat="43.4678972" lon="10.7413713"><ele>129.25</ele><time>2026-04-04T13:52:48.618Z</time></trkpt><trkpt lat="43.4678243" lon="10.7415213"><ele>130.5</ele><time>2026-04-04T13:52:49.624Z</time></trkpt><trkpt lat="43.4677744" lon="10.7416852"><ele>131.75</ele><time>2026-04-04T13:52:50.616Z</time></trkpt><trkpt lat="43.4677184" lon="10.7418683"><ele>133.0</ele><time>2026-04-04T13:52:51.622Z</time></trkpt><trkpt lat="43.4676628" lon="10.7420719"><ele>133.0</ele><time>2026-04-04T13:52:52.619Z</time></trkpt><trkpt lat="43.4675918" lon="10.7422462"><ele>133.0</ele><time>2026-04-04T13:52:53.625Z</time></trkpt><trkpt lat="43.4675266" lon="10.7424312"><ele>133.0</ele><time>2026-04-04T13:52:54.619Z</time></trkpt><trkpt lat="43.4674644" lon="10.7425959"><ele>133.0</ele><time>2026-04-04T13:52:55.614Z</time></trkpt><trkpt lat="43.467416" lon="10.742786"><ele>132.0</ele><time>2026-04-04T13:52:56.621Z</time></trkpt><trkpt lat="43.4673829" lon="10.7429766"><ele>131.0</ele><time>2026-04-04T13:52:57.615Z</time></trkpt><trkpt lat="43.4673463" lon="10.7431904"><ele>130.0</ele><time>2026-04-04T13:52:58.619Z</time></trkpt><trkpt lat="43.4673314" lon="10.7434107"><ele>131.25</ele><time>2026-04-04T13:52:59.631Z</time></trkpt><trkpt lat="43.4673124" lon="10.7436036"><ele>132.5</ele><time>2026-04-04T13:53:00.619Z</time></trkpt><trkpt lat="43.4672866" lon="10.7437787"><ele>133.75</ele><time>2026-04-04T13:53:01.617Z</time></trkpt><trkpt lat="43.4672687" lon="10.7439368"><ele>135.0</ele><time>2026-04-04T13:53:02.623Z</time></trkpt><trkpt lat="43.4672492" lon="10.744065"><ele>135.0</ele><time>2026-04-04T13:53:03.623Z</time></trkpt><trkpt lat="43.4672406" lon="10.7441897"><ele>135.0</ele><time>2026-04-04T13:53:04.61Z</time></trkpt><trkpt lat="43.4672787" lon="10.7443323"><ele>135.0</ele><time>2026-04-04T13:53:05.612Z</time></trkpt><trkpt lat="43.4673441" lon="10.744425"><ele>135.0</ele><time>2026-04-04T13:53:06.615Z</time></trkpt><trkpt lat="43.467429" lon="10.7445074"><ele>135.0</ele><time>2026-04-04T13:53:07.612Z</time></trkpt><trkpt lat="43.4675286" lon="10.7445854"><ele>136.25</ele><time>2026-04-04T13:53:08.62Z</time></trkpt><trkpt lat="43.4676564" lon="10.7446715"><ele>137.5</ele><time>2026-04-04T13:53:09.616Z</time></trkpt><trkpt lat="43.4677925" lon="10.7447609"><ele>138.75</ele><time>2026-04-04T13:53:10.619Z</time></trkpt><trkpt lat="43.4679224" lon="10.7448477"><ele>140.0</ele><time>2026-04-04T13:53:11.617Z</time></trkpt><trkpt lat="43.4680581" lon="10.7449322"><ele>138.75</ele><time>2026-04-04T13:53:12.616Z</time></trkpt><trkpt lat="43.4681415" lon="10.7450329"><ele>137.5</ele><time>2026-04-04T13:53:13.62Z</time></trkpt><trkpt lat="43.4682335" lon="10.7451373"><ele>136.25</ele><time>2026-04-04T13:53:14.622Z</time></trkpt><trkpt lat="43.4683237" lon="10.7452612"><ele>135.0</ele><time>2026-04-04T13:53:15.625Z</time></trkpt><trkpt lat="43.4683956" lon="10.7454185"><ele>135.0</ele><time>2026-04-04T13:53:16.619Z</time></trkpt><trkpt lat="43.4684296" lon="10.7455954"><ele>135.0</ele><time>2026-04-04T13:53:17.622Z</time></trkpt><trkpt lat="43.4684813" lon="10.745803"><ele>135.0</ele><time>2026-04-04T13:53:18.623Z</time></trkpt><trkpt lat="43.4685149" lon="10.7460138"><ele>135.0</ele><time>2026-04-04T13:53:19.623Z</time></trkpt><trkpt lat="43.4685524" lon="10.7462003"><ele>135.25</ele><time>2026-04-04T13:53:20.62Z</time></trkpt><trkpt lat="43.4685949" lon="10.7463759"><ele>135.5</ele><time>2026-04-04T13:53:21.614Z</time></trkpt><trkpt lat="43.4686364" lon="10.7465407"><ele>135.75</ele><time>2026-04-04T13:53:22.619Z</time></trkpt><trkpt lat="43.4686801" lon="10.7466767"><ele>136.0</ele><time>2026-04-04T13:53:23.608Z</time></trkpt><trkpt lat="43.4687626" lon="10.7468123"><ele>134.0</ele><time>2026-04-04T13:53:24.618Z</time></trkpt><trkpt lat="43.468865" lon="10.7469306"><ele>132.0</ele><time>2026-04-04T13:53:25.616Z</time></trkpt><trkpt lat="43.4689804" lon="10.747038"><ele>130.0</ele><time>2026-04-04T13:53:26.616Z</time></trkpt><trkpt lat="43.4691078" lon="10.7471578"><ele>128.0</ele><time>2026-04-04T13:53:27.621Z</time></trkpt><trkpt lat="43.4692534" lon="10.7472697"><ele>128.0</ele><time>2026-04-04T13:53:28.615Z</time></trkpt><trkpt lat="43.4693843" lon="10.7473831"><ele>128.0</ele><time>2026-04-04T13:53:29.616Z</time></trkpt><trkpt lat="43.469512" lon="10.7474985"><ele>128.0</ele><time>2026-04-04T13:53:30.618Z</time></trkpt><trkpt lat="43.4696445" lon="10.7476206"><ele>125.66666666666666</ele><time>2026-04-04T13:53:31.616Z</time></trkpt><trkpt lat="43.4697751" lon="10.7477406"><ele>123.33333333333334</ele><time>2026-04-04T13:53:32.622Z</time></trkpt><trkpt lat="43.4699119" lon="10.7478534"><ele>121.0</ele><time>2026-04-04T13:53:33.618Z</time></trkpt><trkpt lat="43.4700309" lon="10.747957"><ele>121.0</ele><time>2026-04-04T13:53:34.618Z</time></trkpt><trkpt lat="43.4701652" lon="10.7480583"><ele>121.0</ele><time>2026-04-04T13:53:35.616Z</time></trkpt><trkpt lat="43.4703069" lon="10.7481439"><ele>121.0</ele><time>2026-04-04T13:53:36.618Z</time></trkpt><trkpt lat="43.4704759" lon="10.7482118"><ele>121.33333333333334</ele><time>2026-04-04T13:53:37.618Z</time></trkpt><trkpt lat="43.470647" lon="10.748299"><ele>121.66666666666666</ele><time>2026-04-04T13:53:38.616Z</time></trkpt><trkpt lat="43.4708134" lon="10.7484097"><ele>122.0</ele><time>2026-04-04T13:53:39.618Z</time></trkpt><trkpt lat="43.4709476" lon="10.7485004"><ele>121.8</ele><time>2026-04-04T13:53:40.613Z</time></trkpt><trkpt lat="43.4710434" lon="10.7485775"><ele>121.6</ele><time>2026-04-04T13:53:41.61Z</time></trkpt><trkpt lat="43.471118" lon="10.7486566"><ele>121.39999999999999</ele><time>2026-04-04T13:53:42.62Z</time></trkpt><trkpt lat="43.4711885" lon="10.7487451"><ele>121.19999999999999</ele><time>2026-04-04T13:53:43.615Z</time></trkpt><trkpt lat="43.4712809" lon="10.7488583"><ele>121.0</ele><time>2026-04-04T13:53:44.62Z</time></trkpt><trkpt lat="43.4713706" lon="10.7489795"><ele>121.0</ele><time>2026-04-04T13:53:45.621Z</time></trkpt><trkpt lat="43.4714424" lon="10.749121"><ele>121.0</ele><time>2026-04-04T13:53:46.611Z</time></trkpt><trkpt lat="43.4715219" lon="10.7493051"><ele>121.0</ele><time>2026-04-04T13:53:47.602Z</time></trkpt><trkpt lat="43.4716123" lon="10.7495164"><ele>121.66666666666667</ele><time>2026-04-04T13:53:48.604Z</time></trkpt><trkpt lat="43.4717034" lon="10.749767"><ele>122.33333333333334</ele><time>2026-04-04T13:53:49.603Z</time></trkpt><trkpt lat="43.471789" lon="10.7499708"><ele>123.0</ele><time>2026-04-04T13:53:50.61Z</time></trkpt><trkpt lat="43.4718454" lon="10.7501844"><ele>123.0</ele><time>2026-04-04T13:53:51.621Z</time></trkpt><trkpt lat="43.4719107" lon="10.7504134"><ele>123.0</ele><time>2026-04-04T13:53:52.617Z</time></trkpt><trkpt lat="43.4719551" lon="10.7506676"><ele>123.0</ele><time>2026-04-04T13:53:53.616Z</time></trkpt><trkpt lat="43.4720145" lon="10.7509146"><ele>123.33333333333334</ele><time>2026-04-04T13:53:54.614Z</time></trkpt><trkpt lat="43.4720624" lon="10.7511523"><ele>123.66666666666667</ele><time>2026-04-04T13:53:55.616Z</time></trkpt><trkpt lat="43.4721168" lon="10.7513888"><ele>124.0</ele><time>2026-04-04T13:53:56.617Z</time></trkpt><trkpt lat="43.4721905" lon="10.7516007"><ele>124.0</ele><time>2026-04-04T13:53:57.623Z</time></trkpt><trkpt lat="43.4722703" lon="10.7518265"><ele>124.0</ele><time>2026-04-04T13:53:58.619Z</time></trkpt><trkpt lat="43.4723397" lon="10.7520408"><ele>124.0</ele><time>2026-04-04T13:53:59.625Z</time></trkpt><trkpt lat="43.4723966" lon="10.7522743"><ele>124.66666666666667</ele><time>2026-04-04T13:54:00.624Z</time></trkpt><trkpt lat="43.4724556" lon="10.7524985"><ele>125.33333333333334</ele><time>2026-04-04T13:54:01.629Z</time></trkpt><trkpt lat="43.4725067" lon="10.7527445"><ele>126.0</ele><time>2026-04-04T13:54:02.624Z</time></trkpt><trkpt lat="43.4725618" lon="10.7529392"><ele>126.0</ele><time>2026-04-04T13:54:03.627Z</time></trkpt><trkpt lat="43.4726042" lon="10.7531455"><ele>126.0</ele><time>2026-04-04T13:54:04.63Z</time></trkpt><trkpt lat="43.4726486" lon="10.7533561"><ele>126.0</ele><time>2026-04-04T13:54:05.629Z</time></trkpt><trkpt lat="43.4726917" lon="10.7535503"><ele>125.66666666666666</ele><time>2026-04-04T13:54:06.622Z</time></trkpt><trkpt lat="43.472747" lon="10.7537626"><ele>125.33333333333333</ele><time>2026-04-04T13:54:07.627Z</time></trkpt><trkpt lat="43.472799" lon="10.7539651"><ele>125.0</ele><time>2026-04-04T13:54:08.624Z</time></trkpt><trkpt lat="43.4728689" lon="10.7541631"><ele>125.0</ele><time>2026-04-04T13:54:09.633Z</time></trkpt><trkpt lat="43.4729272" lon="10.7543654"><ele>125.0</ele><time>2026-04-04T13:54:10.631Z</time></trkpt><trkpt lat="43.4729897" lon="10.7545752"><ele>125.0</ele><time>2026-04-04T13:54:11.628Z</time></trkpt><trkpt lat="43.4730809" lon="10.7547979"><ele>125.33333333333333</ele><time>2026-04-04T13:54:12.629Z</time></trkpt><trkpt lat="43.4731587" lon="10.7550025"><ele>125.66666666666666</ele><time>2026-04-04T13:54:13.629Z</time></trkpt><trkpt lat="43.4732393" lon="10.7552142"><ele>126.0</ele><time>2026-04-04T13:54:14.63Z</time></trkpt><trkpt lat="43.4733098" lon="10.7554263"><ele>126.0</ele><time>2026-04-04T13:54:15.631Z</time></trkpt><trkpt lat="43.4734077" lon="10.7556511"><ele>126.0</ele><time>2026-04-04T13:54:16.624Z</time></trkpt><trkpt lat="43.4734875" lon="10.7558587"><ele>126.0</ele><time>2026-04-04T13:54:17.612Z</time></trkpt><trkpt lat="43.4735482" lon="10.7560538"><ele>126.0</ele><time>2026-04-04T13:54:18.619Z</time></trkpt><trkpt lat="43.4736104" lon="10.7562327"><ele>126.0</ele><time>2026-04-04T13:54:19.622Z</time></trkpt><trkpt lat="43.4736527" lon="10.7563981"><ele>126.0</ele><time>2026-04-04T13:54:20.621Z</time></trkpt><trkpt lat="43.4736857" lon="10.7565487"><ele>126.0</ele><time>2026-04-04T13:54:21.622Z</time></trkpt><trkpt lat="43.4737114" lon="10.7566594"><ele>125.75</ele><time>2026-04-04T13:54:22.62Z</time></trkpt><trkpt lat="43.4737741" lon="10.7567776"><ele>125.5</ele><time>2026-04-04T13:54:23.621Z</time></trkpt><trkpt lat="43.4738653" lon="10.7569132"><ele>125.25</ele><time>2026-04-04T13:54:24.617Z</time></trkpt><trkpt lat="43.4739589" lon="10.7570529"><ele>125.0</ele><time>2026-04-04T13:54:25.617Z</time></trkpt><trkpt lat="43.4741025" lon="10.75718"><ele>125.75</ele><time>2026-04-04T13:54:26.616Z</time></trkpt><trkpt lat="43.4742348" lon="10.7573131"><ele>126.5</ele><time>2026-04-04T13:54:27.611Z</time></trkpt><trkpt lat="43.4743619" lon="10.7574321"><ele>127.25</ele><time>2026-04-04T13:54:28.612Z</time></trkpt><trkpt lat="43.474468" lon="10.7575146"><ele>128.0</ele><time>2026-04-04T13:54:29.614Z</time></trkpt><trkpt lat="43.4745899" lon="10.7576094"><ele>126.60000000000001</ele><time>2026-04-04T13:54:30.617Z</time></trkpt><trkpt lat="43.4746685" lon="10.7577143"><ele>125.20000000000002</ele><time>2026-04-04T13:54:31.614Z</time></trkpt><trkpt lat="43.4747362" lon="10.757809"><ele>123.8</ele><time>2026-04-04T13:54:32.615Z</time></trkpt><trkpt lat="43.4748288" lon="10.7578873"><ele>122.4</ele><time>2026-04-04T13:54:33.616Z</time></trkpt><trkpt lat="43.474896" lon="10.7579724"><ele>121.0</ele><time>2026-04-04T13:54:34.616Z</time></trkpt><trkpt lat="43.4749306" lon="10.7580548"><ele>121.0</ele><time>2026-04-04T13:54:35.624Z</time></trkpt><trkpt lat="43.4749912" lon="10.7581475"><ele>121.0</ele><time>2026-04-04T13:54:36.62Z</time></trkpt><trkpt lat="43.4750455" lon="10.7582526"><ele>121.0</ele><time>2026-04-04T13:54:37.616Z</time></trkpt><trkpt lat="43.4750959" lon="10.7583569"><ele>121.0</ele><time>2026-04-04T13:54:38.619Z</time></trkpt><trkpt lat="43.475122" lon="10.7584863"><ele>121.0</ele><time>2026-04-04T13:54:39.625Z</time></trkpt><trkpt lat="43.4751404" lon="10.7586228"><ele>119.8</ele><time>2026-04-04T13:54:40.622Z</time></trkpt><trkpt lat="43.4751751" lon="10.7587675"><ele>118.6</ele><time>2026-04-04T13:54:41.629Z</time></trkpt><trkpt lat="43.4751995" lon="10.7589034"><ele>117.4</ele><time>2026-04-04T13:54:42.622Z</time></trkpt><trkpt lat="43.4752219" lon="10.7590466"><ele>116.2</ele><time>2026-04-04T13:54:43.624Z</time></trkpt><trkpt lat="43.4752426" lon="10.7592079"><ele>115.0</ele><time>2026-04-04T13:54:44.621Z</time></trkpt><trkpt lat="43.475249" lon="10.7593814"><ele>114.5</ele><time>2026-04-04T13:54:45.625Z</time></trkpt><trkpt lat="43.4752556" lon="10.7595649"><ele>114.0</ele><time>2026-04-04T13:54:46.624Z</time></trkpt><trkpt lat="43.4752624" lon="10.7597735"><ele>113.5</ele><time>2026-04-04T13:54:47.622Z</time></trkpt><trkpt lat="43.4752498" lon="10.7599521"><ele>113.0</ele><time>2026-04-04T13:54:48.622Z</time></trkpt><trkpt lat="43.4752809" lon="10.7601085"><ele>111.5</ele><time>2026-04-04T13:54:49.625Z</time></trkpt><trkpt lat="43.4752788" lon="10.7602536"><ele>110.0</ele><time>2026-04-04T13:54:50.627Z</time></trkpt><trkpt lat="43.4752826" lon="10.7604048"><ele>108.5</ele><time>2026-04-04T13:54:51.62Z</time></trkpt><trkpt lat="43.4752683" lon="10.7605682"><ele>107.0</ele><time>2026-04-04T13:54:52.624Z</time></trkpt><trkpt lat="43.4752375" lon="10.760742"><ele>107.0</ele><time>2026-04-04T13:54:53.622Z</time></trkpt><trkpt lat="43.4751975" lon="10.7608997"><ele>107.0</ele><time>2026-04-04T13:54:54.627Z</time></trkpt><trkpt lat="43.4751414" lon="10.7610405"><ele>107.0</ele><time>2026-04-04T13:54:55.622Z</time></trkpt><trkpt lat="43.4750699" lon="10.7611747"><ele>107.0</ele><time>2026-04-04T13:54:56.622Z</time></trkpt><trkpt lat="43.4749717" lon="10.7612979"><ele>104.66666666666666</ele><time>2026-04-04T13:54:57.618Z</time></trkpt><trkpt lat="43.4748419" lon="10.7614261"><ele>102.33333333333334</ele><time>2026-04-04T13:54:58.621Z</time></trkpt><trkpt lat="43.4746727" lon="10.7615373"><ele>100.0</ele><time>2026-04-04T13:54:59.623Z</time></trkpt><trkpt lat="43.4745199" lon="10.7616416"><ele>100.0</ele><time>2026-04-04T13:55:00.625Z</time></trkpt><trkpt lat="43.4743991" lon="10.7617533"><ele>100.0</ele><time>2026-04-04T13:55:01.625Z</time></trkpt><trkpt lat="43.4742624" lon="10.7618587"><ele>100.0</ele><time>2026-04-04T13:55:02.624Z</time></trkpt><trkpt lat="43.4741307" lon="10.7619531"><ele>97.25</ele><time>2026-04-04T13:55:03.623Z</time></trkpt><trkpt lat="43.4740131" lon="10.7620595"><ele>94.5</ele><time>2026-04-04T13:55:04.628Z</time></trkpt><trkpt lat="43.4739025" lon="10.762163"><ele>91.75</ele><time>2026-04-04T13:55:05.625Z</time></trkpt><trkpt lat="43.4737909" lon="10.7622452"><ele>89.0</ele><time>2026-04-04T13:55:06.625Z</time></trkpt><trkpt lat="43.4736833" lon="10.7623441"><ele>89.0</ele><time>2026-04-04T13:55:07.627Z</time></trkpt><trkpt lat="43.473567" lon="10.7624194"><ele>89.0</ele><time>2026-04-04T13:55:08.624Z</time></trkpt><trkpt lat="43.4734557" lon="10.7624877"><ele>89.0</ele><time>2026-04-04T13:55:09.642Z</time></trkpt><trkpt lat="43.4733476" lon="10.7625599"><ele>89.0</ele><time>2026-04-04T13:55:10.631Z</time></trkpt><trkpt lat="43.4732565" lon="10.7626413"><ele>87.80000000000001</ele><time>2026-04-04T13:55:11.629Z</time></trkpt><trkpt lat="43.4731779" lon="10.7627404"><ele>86.60000000000001</ele><time>2026-04-04T13:55:12.62Z</time></trkpt><trkpt lat="43.4731287" lon="10.7628699"><ele>85.4</ele><time>2026-04-04T13:55:13.615Z</time></trkpt><trkpt lat="43.4730853" lon="10.762996"><ele>84.2</ele><time>2026-04-04T13:55:14.625Z</time></trkpt><trkpt lat="43.473063" lon="10.7631037"><ele>83.0</ele><time>2026-04-04T13:55:15.62Z</time></trkpt><trkpt lat="43.473052" lon="10.7632098"><ele>83.0</ele><time>2026-04-04T13:55:16.619Z</time></trkpt><trkpt lat="43.4730504" lon="10.7633029"><ele>83.0</ele><time>2026-04-04T13:55:24.638Z</time></trkpt><trkpt lat="43.4731385" lon="10.7633699"><ele>83.0</ele><time>2026-04-04T13:55:27.628Z</time></trkpt><trkpt lat="43.4732294" lon="10.7633744"><ele>83.0</ele><time>2026-04-04T13:55:28.63Z</time></trkpt><trkpt lat="43.4733535" lon="10.76339"><ele>83.0</ele><time>2026-04-04T13:55:29.624Z</time></trkpt><trkpt lat="43.4734762" lon="10.7633999"><ele>83.0</ele><time>2026-04-04T13:55:30.623Z</time></trkpt><trkpt lat="43.4736151" lon="10.7634298"><ele>83.0</ele><time>2026-04-04T13:55:31.62Z</time></trkpt><trkpt lat="43.4737617" lon="10.7634551"><ele>83.0</ele><time>2026-04-04T13:55:32.621Z</time></trkpt><trkpt lat="43.4739184" lon="10.763486"><ele>83.0</ele><time>2026-04-04T13:55:33.622Z</time></trkpt><trkpt lat="43.4740938" lon="10.7635163"><ele>82.66666666666667</ele><time>2026-04-04T13:55:34.621Z</time></trkpt><trkpt lat="43.474265" lon="10.7635227"><ele>82.33333333333333</ele><time>2026-04-04T13:55:35.617Z</time></trkpt><trkpt lat="43.4744264" lon="10.7635274"><ele>82.0</ele><time>2026-04-04T13:55:36.623Z</time></trkpt><trkpt lat="43.4746018" lon="10.7635039"><ele>82.33333333333333</ele><time>2026-04-04T13:55:37.627Z</time></trkpt><trkpt lat="43.4747488" lon="10.76348"><ele>82.66666666666667</ele><time>2026-04-04T13:55:38.627Z</time></trkpt><trkpt lat="43.4749081" lon="10.7634421"><ele>83.0</ele><time>2026-04-04T13:55:39.623Z</time></trkpt><trkpt lat="43.4750581" lon="10.7633888"><ele>83.0</ele><time>2026-04-04T13:55:40.621Z</time></trkpt><trkpt lat="43.4752147" lon="10.7633474"><ele>83.0</ele><time>2026-04-04T13:55:41.62Z</time></trkpt><trkpt lat="43.4753785" lon="10.7633057"><ele>83.0</ele><time>2026-04-04T13:55:42.616Z</time></trkpt><trkpt lat="43.4755627" lon="10.7632612"><ele>82.66666666666667</ele><time>2026-04-04T13:55:43.627Z</time></trkpt><trkpt lat="43.4757427" lon="10.763225"><ele>82.33333333333333</ele><time>2026-04-04T13:55:44.624Z</time></trkpt><trkpt lat="43.4759034" lon="10.7632011"><ele>82.0</ele><time>2026-04-04T13:55:45.624Z</time></trkpt><trkpt lat="43.4760677" lon="10.7631508"><ele>82.0</ele><time>2026-04-04T13:55:46.619Z</time></trkpt><trkpt lat="43.4762073" lon="10.7630994"><ele>82.0</ele><time>2026-04-04T13:55:47.622Z</time></trkpt><trkpt lat="43.4763227" lon="10.7630364"><ele>82.0</ele><time>2026-04-04T13:55:48.622Z</time></trkpt><trkpt lat="43.4764127" lon="10.7629478"><ele>82.0</ele><time>2026-04-04T13:55:49.617Z</time></trkpt><trkpt lat="43.4765382" lon="10.7628195"><ele>80.33333333333333</ele><time>2026-04-04T13:55:50.61Z</time></trkpt><trkpt lat="43.4766223" lon="10.7626501"><ele>78.66666666666667</ele><time>2026-04-04T13:55:51.617Z</time></trkpt><trkpt lat="43.4766945" lon="10.7624417"><ele>77.0</ele><time>2026-04-04T13:55:52.61Z</time></trkpt><trkpt lat="43.4767516" lon="10.7622117"><ele>77.0</ele><time>2026-04-04T13:55:53.605Z</time></trkpt><trkpt lat="43.4767556" lon="10.761965"><ele>77.0</ele><time>2026-04-04T13:55:54.615Z</time></trkpt><trkpt lat="43.4767651" lon="10.7617169"><ele>77.0</ele><time>2026-04-04T13:55:55.636Z</time></trkpt><trkpt lat="43.4767466" lon="10.7614556"><ele>76.66666666666667</ele><time>2026-04-04T13:55:56.626Z</time></trkpt><trkpt lat="43.4767311" lon="10.761209"><ele>76.33333333333333</ele><time>2026-04-04T13:55:57.636Z</time></trkpt><trkpt lat="43.4767676" lon="10.7609817"><ele>76.0</ele><time>2026-04-04T13:55:58.631Z</time></trkpt><trkpt lat="43.4768441" lon="10.7607531"><ele>76.66666666666666</ele><time>2026-04-04T13:55:59.637Z</time></trkpt><trkpt lat="43.4769054" lon="10.7605107"><ele>77.33333333333333</ele><time>2026-04-04T13:56:00.633Z</time></trkpt><trkpt lat="43.4769744" lon="10.7602788"><ele>78.0</ele><time>2026-04-04T13:56:01.632Z</time></trkpt><trkpt lat="43.4770469" lon="10.7600388"><ele>75.33333333333333</ele><time>2026-04-04T13:56:02.638Z</time></trkpt><trkpt lat="43.4771135" lon="10.7597972"><ele>72.66666666666666</ele><time>2026-04-04T13:56:03.638Z</time></trkpt><trkpt lat="43.4771921" lon="10.7595499"><ele>70.0</ele><time>2026-04-04T13:56:05.713Z</time></trkpt><trkpt lat="43.4772747" lon="10.7593067"><ele>70.0</ele><time>2026-04-04T13:56:06.712Z</time></trkpt><trkpt lat="43.4773584" lon="10.7590545"><ele>70.0</ele><time>2026-04-04T13:56:07.711Z</time></trkpt><trkpt lat="43.4774357" lon="10.7588077"><ele>70.0</ele><time>2026-04-04T13:56:08.709Z</time></trkpt><trkpt lat="43.4775127" lon="10.7585598"><ele>71.0</ele><time>2026-04-04T13:56:09.7Z</time></trkpt><trkpt lat="43.4775778" lon="10.7583123"><ele>72.0</ele><time>2026-04-04T13:56:10.704Z</time></trkpt><trkpt lat="43.4776468" lon="10.7580663"><ele>73.0</ele><time>2026-04-04T13:56:11.701Z</time></trkpt><trkpt lat="43.4777146" lon="10.7578301"><ele>74.0</ele><time>2026-04-04T13:56:12.699Z</time></trkpt><trkpt lat="43.4777833" lon="10.7575985"><ele>75.0</ele><time>2026-04-04T13:56:13.706Z</time></trkpt><trkpt lat="43.4778444" lon="10.7573926"><ele>76.0</ele><time>2026-04-04T13:56:14.697Z</time></trkpt><trkpt lat="43.4779103" lon="10.7571776"><ele>75.5</ele><time>2026-04-04T13:56:15.702Z</time></trkpt><trkpt lat="43.477973" lon="10.7569696"><ele>75.0</ele><time>2026-04-04T13:56:16.701Z</time></trkpt><trkpt lat="43.4780285" lon="10.756812"><ele>74.5</ele><time>2026-04-04T13:56:17.701Z</time></trkpt><trkpt lat="43.4780941" lon="10.7566174"><ele>74.0</ele><time>2026-04-04T13:56:18.703Z</time></trkpt><trkpt lat="43.4781678" lon="10.7564435"><ele>74.0</ele><time>2026-04-04T13:56:19.705Z</time></trkpt><trkpt lat="43.478245" lon="10.7562774"><ele>74.0</ele><time>2026-04-04T13:56:20.691Z</time></trkpt><trkpt lat="43.4783243" lon="10.756139"><ele>74.0</ele><time>2026-04-04T13:56:21.689Z</time></trkpt><trkpt lat="43.4784018" lon="10.7560111"><ele>74.0</ele><time>2026-04-04T13:56:22.693Z</time></trkpt><trkpt lat="43.4784759" lon="10.7558893"><ele>74.2</ele><time>2026-04-04T13:56:23.693Z</time></trkpt><trkpt lat="43.4785472" lon="10.7557849"><ele>74.4</ele><time>2026-04-04T13:56:24.705Z</time></trkpt><trkpt lat="43.4786242" lon="10.7556774"><ele>74.6</ele><time>2026-04-04T13:56:25.706Z</time></trkpt><trkpt lat="43.4786949" lon="10.7555888"><ele>74.8</ele><time>2026-04-04T13:56:26.714Z</time></trkpt><trkpt lat="43.4787601" lon="10.7554915"><ele>75.0</ele><time>2026-04-04T13:56:27.714Z</time></trkpt><trkpt lat="43.4788236" lon="10.7553889"><ele>75.0</ele><time>2026-04-04T13:56:28.695Z</time></trkpt><trkpt lat="43.4788832" lon="10.7552938"><ele>75.0</ele><time>2026-04-04T13:56:29.702Z</time></trkpt><trkpt lat="43.4789415" lon="10.7552028"><ele>75.0</ele><time>2026-04-04T13:56:30.699Z</time></trkpt><trkpt lat="43.4789999" lon="10.7551197"><ele>75.0</ele><time>2026-04-04T13:56:31.702Z</time></trkpt><trkpt lat="43.479058" lon="10.7550436"><ele>75.0</ele><time>2026-04-04T13:56:32.7Z</time></trkpt><trkpt lat="43.4791088" lon="10.754969"><ele>75.0</ele><time>2026-04-04T13:56:33.704Z</time></trkpt><trkpt lat="43.4791216" lon="10.7548711"><ele>75.0</ele><time>2026-04-04T13:56:35.702Z</time></trkpt><trkpt lat="43.479052" lon="10.754802"><ele>75.0</ele><time>2026-04-04T13:56:38.697Z</time></trkpt><trkpt lat="43.4789517" lon="10.7547628"><ele>75.0</ele><time>2026-04-04T13:56:40.696Z</time></trkpt><trkpt lat="43.4788834" lon="10.7547242"><ele>75.0</ele><time>2026-04-04T13:56:41.697Z</time></trkpt><trkpt lat="43.478797" lon="10.7546917"><ele>75.0</ele><time>2026-04-04T13:56:42.698Z</time></trkpt><trkpt lat="43.4786879" lon="10.7546716"><ele>75.6</ele><time>2026-04-04T13:56:43.696Z</time></trkpt><trkpt lat="43.4785694" lon="10.754674"><ele>76.2</ele><time>2026-04-04T13:56:44.697Z</time></trkpt><trkpt lat="43.4784553" lon="10.7546941"><ele>76.8</ele><time>2026-04-04T13:56:45.698Z</time></trkpt><trkpt lat="43.4783737" lon="10.7547058"><ele>77.4</ele><time>2026-04-04T13:56:46.689Z</time></trkpt><trkpt lat="43.4783102" lon="10.7546989"><ele>78.0</ele><time>2026-04-04T13:56:47.685Z</time></trkpt><trkpt lat="43.478137" lon="10.7546023"><ele>78.0</ele><time>2026-04-04T13:56:49.705Z</time></trkpt><trkpt lat="43.4780556" lon="10.7545359"><ele>78.0</ele><time>2026-04-04T13:56:50.692Z</time></trkpt><trkpt lat="43.4779084" lon="10.754495"><ele>78.0</ele><time>2026-04-04T13:56:51.691Z</time></trkpt><trkpt lat="43.477855" lon="10.7544246"><ele>78.0</ele><time>2026-04-04T13:56:52.695Z</time></trkpt><trkpt lat="43.4778194" lon="10.7543529"><ele>78.0</ele><time>2026-04-04T13:56:53.703Z</time></trkpt><trkpt lat="43.4777313" lon="10.7541295"><ele>79.6</ele><time>2026-04-04T13:56:55.713Z</time></trkpt><trkpt lat="43.4776885" lon="10.7539828"><ele>81.19999999999999</ele><time>2026-04-04T13:56:56.699Z</time></trkpt><trkpt lat="43.4776218" lon="10.7538751"><ele>82.8</ele><time>2026-04-04T13:56:57.699Z</time></trkpt><trkpt lat="43.4776051" lon="10.7537532"><ele>84.39999999999999</ele><time>2026-04-04T13:56:58.697Z</time></trkpt><trkpt lat="43.4776022" lon="10.7536221"><ele>86.0</ele><time>2026-04-04T13:56:59.701Z</time></trkpt><trkpt lat="43.4776114" lon="10.7534879"><ele>87.6</ele><time>2026-04-04T13:57:00.708Z</time></trkpt><trkpt lat="43.4776313" lon="10.753347"><ele>89.19999999999999</ele><time>2026-04-04T13:57:01.714Z</time></trkpt><trkpt lat="43.4776028" lon="10.7532297"><ele>90.80000000000001</ele><time>2026-04-04T13:57:02.697Z</time></trkpt><trkpt lat="43.4776491" lon="10.7531072"><ele>92.4</ele><time>2026-04-04T13:57:03.699Z</time></trkpt><trkpt lat="43.4776864" lon="10.7529437"><ele>94.0</ele><time>2026-04-04T13:57:04.695Z</time></trkpt><trkpt lat="43.4777586" lon="10.7528114"><ele>94.5</ele><time>2026-04-04T13:57:05.697Z</time></trkpt><trkpt lat="43.4778385" lon="10.7526851"><ele>95.0</ele><time>2026-04-04T13:57:06.701Z</time></trkpt><trkpt lat="43.4779228" lon="10.7525488"><ele>95.5</ele><time>2026-04-04T13:57:07.702Z</time></trkpt><trkpt lat="43.4780121" lon="10.7523441"><ele>96.0</ele><time>2026-04-04T13:57:08.698Z</time></trkpt><trkpt lat="43.4780896" lon="10.7522262"><ele>98.8</ele><time>2026-04-04T13:57:09.699Z</time></trkpt><trkpt lat="43.4781657" lon="10.7520855"><ele>101.6</ele><time>2026-04-04T13:57:10.701Z</time></trkpt><trkpt lat="43.4782213" lon="10.7520015"><ele>104.4</ele><time>2026-04-04T13:57:11.697Z</time></trkpt><trkpt lat="43.4782585" lon="10.751921"><ele>107.2</ele><time>2026-04-04T13:57:12.684Z</time></trkpt><trkpt lat="43.4782992" lon="10.7517411"><ele>110.0</ele><time>2026-04-04T13:57:14.689Z</time></trkpt><trkpt lat="43.4783389" lon="10.7516525"><ele>111.25</ele><time>2026-04-04T13:57:16.703Z</time></trkpt><trkpt lat="43.4784334" lon="10.7515983"><ele>112.5</ele><time>2026-04-04T13:57:19.705Z</time></trkpt><trkpt lat="43.4786061" lon="10.7514479"><ele>113.75</ele><time>2026-04-04T13:57:21.709Z</time></trkpt><trkpt lat="43.4786634" lon="10.7513518"><ele>115.0</ele><time>2026-04-04T13:57:22.707Z</time></trkpt><trkpt lat="43.4786839" lon="10.7512354"><ele>115.0</ele><time>2026-04-04T13:57:23.721Z</time></trkpt><trkpt lat="43.4787497" lon="10.7510721"><ele>115.0</ele><time>2026-04-04T13:57:24.715Z</time></trkpt><trkpt lat="43.4787873" lon="10.7509085"><ele>115.0</ele><time>2026-04-04T13:57:25.714Z</time></trkpt><trkpt lat="43.478825" lon="10.7507416"><ele>115.0</ele><time>2026-04-04T13:57:26.714Z</time></trkpt><trkpt lat="43.4788548" lon="10.7505809"><ele>114.5</ele><time>2026-04-04T13:57:27.713Z</time></trkpt><trkpt lat="43.4788805" lon="10.7504171"><ele>114.0</ele><time>2026-04-04T13:57:28.715Z</time></trkpt><trkpt lat="43.4789086" lon="10.7502483"><ele>113.5</ele><time>2026-04-04T13:57:29.719Z</time></trkpt><trkpt lat="43.478951" lon="10.7500787"><ele>113.0</ele><time>2026-04-04T13:57:30.716Z</time></trkpt><trkpt lat="43.4789994" lon="10.7498956"><ele>113.0</ele><time>2026-04-04T13:57:31.718Z</time></trkpt><trkpt lat="43.4790501" lon="10.7496949"><ele>113.0</ele><time>2026-04-04T13:57:32.715Z</time></trkpt><trkpt lat="43.4790977" lon="10.7494811"><ele>113.0</ele><time>2026-04-04T13:57:33.717Z</time></trkpt><trkpt lat="43.4791399" lon="10.7492621"><ele>113.5</ele><time>2026-04-04T13:57:34.717Z</time></trkpt><trkpt lat="43.4791841" lon="10.7490598"><ele>114.0</ele><time>2026-04-04T13:57:35.734Z</time></trkpt><trkpt lat="43.4792252" lon="10.7488677"><ele>114.5</ele><time>2026-04-04T13:57:36.714Z</time></trkpt><trkpt lat="43.4792754" lon="10.7486886"><ele>115.0</ele><time>2026-04-04T13:57:37.713Z</time></trkpt><trkpt lat="43.4793368" lon="10.7485188"><ele>114.5</ele><time>2026-04-04T13:57:38.706Z</time></trkpt><trkpt lat="43.4794036" lon="10.7483485"><ele>114.0</ele><time>2026-04-04T13:57:39.706Z</time></trkpt><trkpt lat="43.4794734" lon="10.7481723"><ele>113.5</ele><time>2026-04-04T13:57:40.706Z</time></trkpt><trkpt lat="43.4795539" lon="10.7479984"><ele>113.0</ele><time>2026-04-04T13:57:41.709Z</time></trkpt><trkpt lat="43.479639" lon="10.7478273"><ele>113.75</ele><time>2026-04-04T13:57:42.717Z</time></trkpt><trkpt lat="43.4797186" lon="10.7476586"><ele>114.5</ele><time>2026-04-04T13:57:43.717Z</time></trkpt><trkpt lat="43.4797961" lon="10.7474904"><ele>115.25</ele><time>2026-04-04T13:57:44.711Z</time></trkpt><trkpt lat="43.4798637" lon="10.7473351"><ele>116.0</ele><time>2026-04-04T13:57:45.724Z</time></trkpt><trkpt lat="43.4799223" lon="10.7471884"><ele>116.0</ele><time>2026-04-04T13:57:46.726Z</time></trkpt><trkpt lat="43.4799723" lon="10.7470402"><ele>116.0</ele><time>2026-04-04T13:57:47.722Z</time></trkpt><trkpt lat="43.4800258" lon="10.7468881"><ele>116.0</ele><time>2026-04-04T13:57:48.724Z</time></trkpt><trkpt lat="43.4800804" lon="10.7467338"><ele>116.0</ele><time>2026-04-04T13:57:49.725Z</time></trkpt><trkpt lat="43.4801292" lon="10.7465734"><ele>116.25</ele><time>2026-04-04T13:57:50.726Z</time></trkpt><trkpt lat="43.4801767" lon="10.746413"><ele>116.5</ele><time>2026-04-04T13:57:51.724Z</time></trkpt><trkpt lat="43.4802265" lon="10.7462394"><ele>116.75</ele><time>2026-04-04T13:57:52.727Z</time></trkpt><trkpt lat="43.4802785" lon="10.7460551"><ele>117.0</ele><time>2026-04-04T13:57:53.732Z</time></trkpt><trkpt lat="43.4803375" lon="10.7458617"><ele>117.0</ele><time>2026-04-04T13:57:54.721Z</time></trkpt><trkpt lat="43.4803964" lon="10.7456701"><ele>117.0</ele><time>2026-04-04T13:57:55.728Z</time></trkpt><trkpt lat="43.4804528" lon="10.7454755"><ele>117.0</ele><time>2026-04-04T13:57:56.729Z</time></trkpt><trkpt lat="43.480514" lon="10.7452802"><ele>115.33333333333334</ele><time>2026-04-04T13:57:57.725Z</time></trkpt><trkpt lat="43.4806424" lon="10.7449098"><ele>113.66666666666667</ele><time>2026-04-04T13:57:58.638Z</time></trkpt><trkpt lat="43.480715" lon="10.7447398"><ele>112.0</ele><time>2026-04-04T13:57:59.641Z</time></trkpt><trkpt lat="43.4807538" lon="10.744561"><ele>112.33333333333334</ele><time>2026-04-04T13:58:00.644Z</time></trkpt><trkpt lat="43.4808198" lon="10.7443711"><ele>112.66666666666666</ele><time>2026-04-04T13:58:01.637Z</time></trkpt><trkpt lat="43.4808793" lon="10.7441746"><ele>113.0</ele><time>2026-04-04T13:58:02.64Z</time></trkpt><trkpt lat="43.4809315" lon="10.7439855"><ele>113.0</ele><time>2026-04-04T13:58:03.635Z</time></trkpt><trkpt lat="43.4809739" lon="10.7437963"><ele>113.0</ele><time>2026-04-04T13:58:04.636Z</time></trkpt><trkpt lat="43.4810077" lon="10.7436407"><ele>113.0</ele><time>2026-04-04T13:58:05.637Z</time></trkpt><trkpt lat="43.4810555" lon="10.7434899"><ele>113.0</ele><time>2026-04-04T13:58:06.636Z</time></trkpt><trkpt lat="43.4811173" lon="10.7433211"><ele>113.25</ele><time>2026-04-04T13:58:07.637Z</time></trkpt><trkpt lat="43.4811579" lon="10.7431413"><ele>113.5</ele><time>2026-04-04T13:58:08.638Z</time></trkpt><trkpt lat="43.4811947" lon="10.7429706"><ele>113.75</ele><time>2026-04-04T13:58:09.638Z</time></trkpt><trkpt lat="43.4812362" lon="10.7428569"><ele>114.0</ele><time>2026-04-04T13:58:10.639Z</time></trkpt><trkpt lat="43.4812778" lon="10.7427354"><ele>114.2</ele><time>2026-04-04T13:58:11.641Z</time></trkpt><trkpt lat="43.481329" lon="10.7426173"><ele>114.4</ele><time>2026-04-04T13:58:12.631Z</time></trkpt><trkpt lat="43.481379" lon="10.7424937"><ele>114.6</ele><time>2026-04-04T13:58:13.632Z</time></trkpt><trkpt lat="43.4814019" lon="10.7423593"><ele>114.8</ele><time>2026-04-04T13:58:14.628Z</time></trkpt><trkpt lat="43.4814115" lon="10.7422192"><ele>115.0</ele><time>2026-04-04T13:58:15.633Z</time></trkpt><trkpt lat="43.4814057" lon="10.7420754"><ele>115.0</ele><time>2026-04-04T13:58:16.631Z</time></trkpt><trkpt lat="43.481394" lon="10.7419232"><ele>115.0</ele><time>2026-04-04T13:58:17.627Z</time></trkpt><trkpt lat="43.4813653" lon="10.7417642"><ele>115.0</ele><time>2026-04-04T13:58:18.636Z</time></trkpt><trkpt lat="43.4813256" lon="10.7415907"><ele>115.0</ele><time>2026-04-04T13:58:19.62Z</time></trkpt><trkpt lat="43.4812742" lon="10.741442"><ele>115.8</ele><time>2026-04-04T13:58:20.628Z</time></trkpt><trkpt lat="43.4812231" lon="10.7413103"><ele>116.6</ele><time>2026-04-04T13:58:21.631Z</time></trkpt><trkpt lat="43.4811678" lon="10.7411773"><ele>117.4</ele><time>2026-04-04T13:58:22.641Z</time></trkpt><trkpt lat="43.4811211" lon="10.7410478"><ele>118.2</ele><time>2026-04-04T13:58:23.638Z</time></trkpt><trkpt lat="43.4810785" lon="10.7408893"><ele>119.0</ele><time>2026-04-04T13:58:24.64Z</time></trkpt><trkpt lat="43.4810416" lon="10.7407166"><ele>119.0</ele><time>2026-04-04T13:58:25.639Z</time></trkpt><trkpt lat="43.4810258" lon="10.7405367"><ele>119.0</ele><time>2026-04-04T13:58:26.631Z</time></trkpt><trkpt lat="43.4810255" lon="10.740355"><ele>119.0</ele><time>2026-04-04T13:58:27.634Z</time></trkpt><trkpt lat="43.4810169" lon="10.740188"><ele>119.0</ele><time>2026-04-04T13:58:28.629Z</time></trkpt><trkpt lat="43.4810193" lon="10.7400385"><ele>119.0</ele><time>2026-04-04T13:58:29.642Z</time></trkpt><trkpt lat="43.4810159" lon="10.7398924"><ele>119.0</ele><time>2026-04-04T13:58:30.636Z</time></trkpt><trkpt lat="43.4810065" lon="10.7397575"><ele>119.0</ele><time>2026-04-04T13:58:31.641Z</time></trkpt><trkpt lat="43.480989" lon="10.7396307"><ele>119.0</ele><time>2026-04-04T13:58:32.639Z</time></trkpt><trkpt lat="43.4809486" lon="10.7394699"><ele>119.0</ele><time>2026-04-04T13:58:33.635Z</time></trkpt><trkpt lat="43.480895" lon="10.7393052"><ele>118.25</ele><time>2026-04-04T13:58:34.64Z</time></trkpt><trkpt lat="43.4808534" lon="10.7391354"><ele>117.5</ele><time>2026-04-04T13:58:35.64Z</time></trkpt><trkpt lat="43.4808251" lon="10.7389838"><ele>116.75</ele><time>2026-04-04T13:58:36.639Z</time></trkpt><trkpt lat="43.4808063" lon="10.7388279"><ele>116.0</ele><time>2026-04-04T13:58:37.641Z</time></trkpt><trkpt lat="43.4807907" lon="10.7386835"><ele>116.19999999999999</ele><time>2026-04-04T13:58:38.641Z</time></trkpt><trkpt lat="43.4807832" lon="10.7385302"><ele>116.39999999999999</ele><time>2026-04-04T13:58:39.636Z</time></trkpt><trkpt lat="43.4807744" lon="10.7383709"><ele>116.6</ele><time>2026-04-04T13:58:40.644Z</time></trkpt><trkpt lat="43.4807675" lon="10.7382236"><ele>116.8</ele><time>2026-04-04T13:58:41.623Z</time></trkpt><trkpt lat="43.4807714" lon="10.7380654"><ele>117.0</ele><time>2026-04-04T13:58:42.634Z</time></trkpt><trkpt lat="43.4807656" lon="10.7379273"><ele>117.0</ele><time>2026-04-04T13:58:43.643Z</time></trkpt><trkpt lat="43.4807405" lon="10.7378051"><ele>116.99999999999999</ele><time>2026-04-04T13:58:44.638Z</time></trkpt><trkpt lat="43.4807034" lon="10.7376925"><ele>116.99999999999999</ele><time>2026-04-04T13:58:45.648Z</time></trkpt><trkpt lat="43.4806565" lon="10.7375782"><ele>117.0</ele><time>2026-04-04T13:58:46.638Z</time></trkpt><trkpt lat="43.4805921" lon="10.737481"><ele>117.0</ele><time>2026-04-04T13:58:47.646Z</time></trkpt><trkpt lat="43.4805158" lon="10.7373897"><ele>118.0</ele><time>2026-04-04T13:58:48.636Z</time></trkpt><trkpt lat="43.4804222" lon="10.7372944"><ele>119.0</ele><time>2026-04-04T13:58:49.637Z</time></trkpt><trkpt lat="43.480309" lon="10.7371808"><ele>120.0</ele><time>2026-04-04T13:58:50.629Z</time></trkpt><trkpt lat="43.480186" lon="10.7370684"><ele>121.0</ele><time>2026-04-04T13:58:51.626Z</time></trkpt><trkpt lat="43.48005" lon="10.7369528"><ele>121.5</ele><time>2026-04-04T13:58:52.626Z</time></trkpt><trkpt lat="43.4799222" lon="10.7368449"><ele>122.0</ele><time>2026-04-04T13:58:53.621Z</time></trkpt><trkpt lat="43.4798018" lon="10.7367411"><ele>122.5</ele><time>2026-04-04T13:58:54.627Z</time></trkpt><trkpt lat="43.4797138" lon="10.7366059"><ele>123.0</ele><time>2026-04-04T13:58:55.632Z</time></trkpt><trkpt lat="43.4796137" lon="10.736484"><ele>124.25</ele><time>2026-04-04T13:58:56.639Z</time></trkpt><trkpt lat="43.479505" lon="10.7363854"><ele>125.5</ele><time>2026-04-04T13:58:57.634Z</time></trkpt><trkpt lat="43.4793967" lon="10.7362974"><ele>126.75</ele><time>2026-04-04T13:58:58.632Z</time></trkpt><trkpt lat="43.4792796" lon="10.7362046"><ele>128.0</ele><time>2026-04-04T13:58:59.633Z</time></trkpt><trkpt lat="43.4791548" lon="10.7361135"><ele>130.0</ele><time>2026-04-04T13:59:00.626Z</time></trkpt><trkpt lat="43.4790401" lon="10.7360199"><ele>132.0</ele><time>2026-04-04T13:59:01.631Z</time></trkpt><trkpt lat="43.4789823" lon="10.7359333"><ele>134.0</ele><time>2026-04-04T13:59:02.638Z</time></trkpt><trkpt lat="43.47892" lon="10.7358204"><ele>136.0</ele><time>2026-04-04T13:59:03.635Z</time></trkpt><trkpt lat="43.4788951" lon="10.7356997"><ele>138.0</ele><time>2026-04-04T13:59:04.629Z</time></trkpt><trkpt lat="43.4788754" lon="10.7355787"><ele>138.0</ele><time>2026-04-04T13:59:05.636Z</time></trkpt><trkpt lat="43.478838" lon="10.7354553"><ele>138.0</ele><time>2026-04-04T13:59:06.623Z</time></trkpt><trkpt lat="43.478805" lon="10.735274"><ele>138.0</ele><time>2026-04-04T13:59:07.628Z</time></trkpt><trkpt lat="43.4787786" lon="10.7350937"><ele>138.0</ele><time>2026-04-04T13:59:08.622Z</time></trkpt><trkpt lat="43.4787483" lon="10.7349228"><ele>142.0</ele><time>2026-04-04T13:59:09.626Z</time></trkpt><trkpt lat="43.4787207" lon="10.7347363"><ele>146.0</ele><time>2026-04-04T13:59:10.615Z</time></trkpt><trkpt lat="43.478673" lon="10.7345362"><ele>150.0</ele><time>2026-04-04T13:59:11.624Z</time></trkpt><trkpt lat="43.4786469" lon="10.7343603"><ele>154.0</ele><time>2026-04-04T13:59:12.618Z</time></trkpt><trkpt lat="43.4786363" lon="10.734207"><ele>155.5</ele><time>2026-04-04T13:59:13.626Z</time></trkpt><trkpt lat="43.4786279" lon="10.7340529"><ele>157.0</ele><time>2026-04-04T13:59:14.622Z</time></trkpt><trkpt lat="43.4786122" lon="10.7338943"><ele>158.5</ele><time>2026-04-04T13:59:15.631Z</time></trkpt><trkpt lat="43.4785542" lon="10.7337353"><ele>160.0</ele><time>2026-04-04T13:59:16.638Z</time></trkpt><trkpt lat="43.4784936" lon="10.7335903"><ele>160.5</ele><time>2026-04-04T13:59:17.634Z</time></trkpt><trkpt lat="43.478461" lon="10.7334912"><ele>161.0</ele><time>2026-04-04T13:59:18.633Z</time></trkpt><trkpt lat="43.4784182" lon="10.7334198"><ele>161.5</ele><time>2026-04-04T13:59:19.632Z</time></trkpt><trkpt lat="43.4783524" lon="10.733368"><ele>162.0</ele><time>2026-04-04T13:59:20.63Z</time></trkpt><trkpt lat="43.4782668" lon="10.7333146"><ele>162.5</ele><time>2026-04-04T13:59:21.631Z</time></trkpt><trkpt lat="43.47818" lon="10.7332215"><ele>163.0</ele><time>2026-04-04T13:59:22.624Z</time></trkpt><trkpt lat="43.4781072" lon="10.7331038"><ele>163.0</ele><time>2026-04-04T13:59:23.631Z</time></trkpt><trkpt lat="43.4780297" lon="10.7329701"><ele>163.0</ele><time>2026-04-04T13:59:24.623Z</time></trkpt><trkpt lat="43.4779663" lon="10.7328718"><ele>163.0</ele><time>2026-04-04T13:59:25.628Z</time></trkpt><trkpt lat="43.4779106" lon="10.7327744"><ele>163.0</ele><time>2026-04-04T13:59:26.63Z</time></trkpt><trkpt lat="43.4778662" lon="10.7326809"><ele>163.0</ele><time>2026-04-04T13:59:27.624Z</time></trkpt><trkpt lat="43.4778312" lon="10.7326035"><ele>164.2</ele><time>2026-04-04T13:59:28.621Z</time></trkpt><trkpt lat="43.477805" lon="10.7324129"><ele>165.4</ele><time>2026-04-04T13:59:30.634Z</time></trkpt><trkpt lat="43.4778012" lon="10.7322974"><ele>166.6</ele><time>2026-04-04T13:59:31.636Z</time></trkpt><trkpt lat="43.4777904" lon="10.7321761"><ele>167.79999999999998</ele><time>2026-04-04T13:59:32.641Z</time></trkpt><trkpt lat="43.4777786" lon="10.7320593"><ele>169.0</ele><time>2026-04-04T13:59:33.64Z</time></trkpt><trkpt lat="43.477774" lon="10.7319637"><ele>168.79999999999998</ele><time>2026-04-04T13:59:34.634Z</time></trkpt><trkpt lat="43.4778402" lon="10.7318355"><ele>168.6</ele><time>2026-04-04T13:59:36.623Z</time></trkpt><trkpt lat="43.4779665" lon="10.7317739"><ele>168.4</ele><time>2026-04-04T13:59:38.622Z</time></trkpt><trkpt lat="43.4780403" lon="10.7317293"><ele>168.2</ele><time>2026-04-04T13:59:39.628Z</time></trkpt><trkpt lat="43.4781108" lon="10.7316016"><ele>168.0</ele><time>2026-04-04T13:59:40.619Z</time></trkpt><trkpt lat="43.4781695" lon="10.7314413"><ele>168.0</ele><time>2026-04-04T13:59:41.631Z</time></trkpt><trkpt lat="43.4782079" lon="10.7312432"><ele>168.0</ele><time>2026-04-04T13:59:42.622Z</time></trkpt><trkpt lat="43.4782238" lon="10.7310575"><ele>168.0</ele><time>2026-04-04T13:59:43.613Z</time></trkpt><trkpt lat="43.4782373" lon="10.7308967"><ele>168.0</ele><time>2026-04-04T13:59:44.617Z</time></trkpt><trkpt lat="43.4782597" lon="10.7307428"><ele>169.5</ele><time>2026-04-04T13:59:45.615Z</time></trkpt><trkpt lat="43.4782943" lon="10.730617"><ele>171.0</ele><time>2026-04-04T13:59:46.603Z</time></trkpt><trkpt lat="43.4783752" lon="10.7305387"><ele>172.5</ele><time>2026-04-04T13:59:47.615Z</time></trkpt><trkpt lat="43.4785024" lon="10.7304992"><ele>174.0</ele><time>2026-04-04T13:59:48.612Z</time></trkpt><trkpt lat="43.4786569" lon="10.7304858"><ele>170.75</ele><time>2026-04-04T13:59:49.614Z</time></trkpt><trkpt lat="43.4788087" lon="10.730454"><ele>167.5</ele><time>2026-04-04T13:59:50.614Z</time></trkpt><trkpt lat="43.4789412" lon="10.7303718"><ele>164.25</ele><time>2026-04-04T13:59:51.616Z</time></trkpt><trkpt lat="43.4790668" lon="10.7302608"><ele>161.0</ele><time>2026-04-04T13:59:52.611Z</time></trkpt><trkpt lat="43.4791687" lon="10.7301238"><ele>161.0</ele><time>2026-04-04T13:59:53.606Z</time></trkpt><trkpt lat="43.4792291" lon="10.7299667"><ele>161.0</ele><time>2026-04-04T13:59:54.6Z</time></trkpt><trkpt lat="43.4792587" lon="10.7298444"><ele>161.0</ele><time>2026-04-04T13:59:55.618Z</time></trkpt><trkpt lat="43.4792739" lon="10.7297432"><ele>161.0</ele><time>2026-04-04T13:59:56.615Z</time></trkpt><trkpt lat="43.4793397" lon="10.7295928"><ele>161.0</ele><time>2026-04-04T13:59:58.603Z</time></trkpt><trkpt lat="43.4794105" lon="10.7295634"><ele>161.0</ele><time>2026-04-04T13:59:59.605Z</time></trkpt><trkpt lat="43.4795123" lon="10.7295591"><ele>161.0</ele><time>2026-04-04T14:00:00.609Z</time></trkpt><trkpt lat="43.4796489" lon="10.72959"><ele>161.0</ele><time>2026-04-04T14:00:01.603Z</time></trkpt><trkpt lat="43.4798069" lon="10.7295985"><ele>161.0</ele><time>2026-04-04T14:00:02.61Z</time></trkpt><trkpt lat="43.4799849" lon="10.7295775"><ele>156.66666666666666</ele><time>2026-04-04T14:00:03.605Z</time></trkpt><trkpt lat="43.4802082" lon="10.7295274"><ele>152.33333333333334</ele><time>2026-04-04T14:00:04.62Z</time></trkpt><trkpt lat="43.4803814" lon="10.7295069"><ele>148.0</ele><time>2026-04-04T14:00:05.604Z</time></trkpt><trkpt lat="43.480534" lon="10.7295301"><ele>146.66666666666669</ele><time>2026-04-04T14:00:06.62Z</time></trkpt><trkpt lat="43.4806842" lon="10.7295971"><ele>145.33333333333334</ele><time>2026-04-04T14:00:07.619Z</time></trkpt><trkpt lat="43.4808533" lon="10.7296653"><ele>144.0</ele><time>2026-04-04T14:00:08.609Z</time></trkpt><trkpt lat="43.4810396" lon="10.7296967"><ele>144.0</ele><time>2026-04-04T14:00:09.617Z</time></trkpt><trkpt lat="43.4812237" lon="10.7297167"><ele>144.0</ele><time>2026-04-04T14:00:11.69Z</time></trkpt><trkpt lat="43.4814085" lon="10.7297377"><ele>144.0</ele><time>2026-04-04T14:00:12.698Z</time></trkpt><trkpt lat="43.4815828" lon="10.7297565"><ele>144.33333333333334</ele><time>2026-04-04T14:00:13.7Z</time></trkpt><trkpt lat="43.4817491" lon="10.7297929"><ele>144.66666666666669</ele><time>2026-04-04T14:00:14.701Z</time></trkpt><trkpt lat="43.4819119" lon="10.7298474"><ele>145.0</ele><time>2026-04-04T14:00:15.707Z</time></trkpt><trkpt lat="43.482075" lon="10.7299118"><ele>144.33333333333334</ele><time>2026-04-04T14:00:16.693Z</time></trkpt><trkpt lat="43.4822359" lon="10.7299835"><ele>143.66666666666666</ele><time>2026-04-04T14:00:17.69Z</time></trkpt><trkpt lat="43.4823885" lon="10.7300483"><ele>143.0</ele><time>2026-04-04T14:00:18.675Z</time></trkpt><trkpt lat="43.4825418" lon="10.7301031"><ele>143.0</ele><time>2026-04-04T14:00:19.678Z</time></trkpt><trkpt lat="43.482717" lon="10.7301568"><ele>143.0</ele><time>2026-04-04T14:00:20.677Z</time></trkpt><trkpt lat="43.4829271" lon="10.7302136"><ele>143.0</ele><time>2026-04-04T14:00:21.682Z</time></trkpt><trkpt lat="43.4828076" lon="10.7302311"><ele>143.20000000000002</ele><time>2026-04-04T14:00:22.601Z</time></trkpt><trkpt lat="43.4828449" lon="10.7303011"><ele>143.4</ele><time>2026-04-04T14:00:23.603Z</time></trkpt><trkpt lat="43.4829099" lon="10.7304049"><ele>143.60000000000002</ele><time>2026-04-04T14:00:24.602Z</time></trkpt><trkpt lat="43.4829921" lon="10.7305142"><ele>143.8</ele><time>2026-04-04T14:00:25.606Z</time></trkpt><trkpt lat="43.4830771" lon="10.7306045"><ele>144.0</ele><time>2026-04-04T14:00:26.614Z</time></trkpt><trkpt lat="43.483153" lon="10.7307053"><ele>144.0</ele><time>2026-04-04T14:00:27.605Z</time></trkpt><trkpt lat="43.4832246" lon="10.7308128"><ele>144.0</ele><time>2026-04-04T14:00:28.608Z</time></trkpt><trkpt lat="43.4832951" lon="10.7309187"><ele>144.0</ele><time>2026-04-04T14:00:29.618Z</time></trkpt><trkpt lat="43.4833563" lon="10.7310292"><ele>144.0</ele><time>2026-04-04T14:00:30.615Z</time></trkpt><trkpt lat="43.483417" lon="10.7311343"><ele>144.0</ele><time>2026-04-04T14:00:31.612Z</time></trkpt><trkpt lat="43.4834758" lon="10.7312352"><ele>142.8</ele><time>2026-04-04T14:00:32.621Z</time></trkpt><trkpt lat="43.4835375" lon="10.7313256"><ele>141.60000000000002</ele><time>2026-04-04T14:00:33.619Z</time></trkpt><trkpt lat="43.4836064" lon="10.7314183"><ele>140.4</ele><time>2026-04-04T14:00:34.615Z</time></trkpt><trkpt lat="43.4836655" lon="10.7315221"><ele>139.20000000000002</ele><time>2026-04-04T14:00:35.623Z</time></trkpt><trkpt lat="43.4837251" lon="10.7316244"><ele>138.0</ele><time>2026-04-04T14:00:36.617Z</time></trkpt><trkpt lat="43.4837855" lon="10.7317284"><ele>137.4</ele><time>2026-04-04T14:00:37.621Z</time></trkpt><trkpt lat="43.4838417" lon="10.73184"><ele>136.8</ele><time>2026-04-04T14:00:38.62Z</time></trkpt><trkpt lat="43.4839009" lon="10.7319547"><ele>136.2</ele><time>2026-04-04T14:00:39.617Z</time></trkpt><trkpt lat="43.4839561" lon="10.7320575"><ele>135.6</ele><time>2026-04-04T14:00:40.623Z</time></trkpt><trkpt lat="43.4840239" lon="10.7321493"><ele>135.0</ele><time>2026-04-04T14:00:41.626Z</time></trkpt><trkpt lat="43.4840805" lon="10.7322243"><ele>134.66666666666666</ele><time>2026-04-04T14:00:42.622Z</time></trkpt><trkpt lat="43.4841302" lon="10.7323116"><ele>134.33333333333334</ele><time>2026-04-04T14:00:43.623Z</time></trkpt><trkpt lat="43.4841745" lon="10.7324089"><ele>134.0</ele><time>2026-04-04T14:00:44.624Z</time></trkpt><trkpt lat="43.4842334" lon="10.732488"><ele>133.66666666666669</ele><time>2026-04-04T14:00:45.622Z</time></trkpt><trkpt lat="43.4842825" lon="10.732546"><ele>133.33333333333334</ele><time>2026-04-04T14:00:46.629Z</time></trkpt><trkpt lat="43.4843734" lon="10.7326368"><ele>133.0</ele><time>2026-04-04T14:00:48.629Z</time></trkpt><trkpt lat="43.4844536" lon="10.7327683"><ele>133.16666666666669</ele><time>2026-04-04T14:00:50.624Z</time></trkpt><trkpt lat="43.4845038" lon="10.7328357"><ele>133.33333333333334</ele><time>2026-04-04T14:00:51.626Z</time></trkpt><trkpt lat="43.4845593" lon="10.7329174"><ele>133.5</ele><time>2026-04-04T14:00:52.625Z</time></trkpt><trkpt lat="43.4846076" lon="10.7329948"><ele>133.66666666666666</ele><time>2026-04-04T14:00:53.634Z</time></trkpt><trkpt lat="43.4846442" lon="10.7330813"><ele>133.83333333333331</ele><time>2026-04-04T14:00:54.636Z</time></trkpt><trkpt lat="43.4847162" lon="10.7332202"><ele>134.0</ele><time>2026-04-04T14:00:56.643Z</time></trkpt><trkpt lat="43.4847833" lon="10.7333473"><ele>134.0</ele><time>2026-04-04T14:00:58.636Z</time></trkpt><trkpt lat="43.4848235" lon="10.7334275"><ele>134.0</ele><time>2026-04-04T14:00:59.651Z</time></trkpt><trkpt lat="43.4848727" lon="10.7335054"><ele>134.0</ele><time>2026-04-04T14:01:00.645Z</time></trkpt><trkpt lat="43.4849289" lon="10.7335669"><ele>134.0</ele><time>2026-04-04T14:01:01.642Z</time></trkpt><trkpt lat="43.4849905" lon="10.7336213"><ele>134.0</ele><time>2026-04-04T14:01:02.645Z</time></trkpt><trkpt lat="43.4850453" lon="10.7336836"><ele>134.0</ele><time>2026-04-04T14:01:03.637Z</time></trkpt><trkpt lat="43.4851467" lon="10.7337841"><ele>133.5</ele><time>2026-04-04T14:01:05.629Z</time></trkpt><trkpt lat="43.4852077" lon="10.7338502"><ele>133.0</ele><time>2026-04-04T14:01:06.628Z</time></trkpt><trkpt lat="43.4852651" lon="10.7339242"><ele>132.5</ele><time>2026-04-04T14:01:07.631Z</time></trkpt><trkpt lat="43.4853295" lon="10.7339862"><ele>132.0</ele><time>2026-04-04T14:01:08.633Z</time></trkpt><trkpt lat="43.4853996" lon="10.7340551"><ele>131.5</ele><time>2026-04-04T14:01:09.629Z</time></trkpt><trkpt lat="43.4854538" lon="10.7341222"><ele>131.0</ele><time>2026-04-04T14:01:10.638Z</time></trkpt><trkpt lat="43.4855072" lon="10.7341848"><ele>130.0</ele><time>2026-04-04T14:01:11.638Z</time></trkpt><trkpt lat="43.4855635" lon="10.7342458"><ele>129.0</ele><time>2026-04-04T14:01:12.64Z</time></trkpt><trkpt lat="43.4856158" lon="10.7342958"><ele>128.0</ele><time>2026-04-04T14:01:13.635Z</time></trkpt><trkpt lat="43.4856638" lon="10.734361"><ele>127.0</ele><time>2026-04-04T14:01:14.644Z</time></trkpt><trkpt lat="43.485719" lon="10.7344179"><ele>126.00000000000001</ele><time>2026-04-04T14:01:15.637Z</time></trkpt><trkpt lat="43.4857744" lon="10.7344835"><ele>125.0</ele><time>2026-04-04T14:01:16.629Z</time></trkpt><trkpt lat="43.485832" lon="10.7345678"><ele>124.0</ele><time>2026-04-04T14:01:17.634Z</time></trkpt><trkpt lat="43.4858895" lon="10.7346621"><ele>123.83333333333334</ele><time>2026-04-04T14:01:18.628Z</time></trkpt><trkpt lat="43.4859353" lon="10.7347618"><ele>123.66666666666667</ele><time>2026-04-04T14:01:19.635Z</time></trkpt><trkpt lat="43.4859795" lon="10.7348514"><ele>123.5</ele><time>2026-04-04T14:01:20.634Z</time></trkpt><trkpt lat="43.4860123" lon="10.7349457"><ele>123.33333333333334</ele><time>2026-04-04T14:01:21.64Z</time></trkpt><trkpt lat="43.486037" lon="10.735038"><ele>123.16666666666667</ele><time>2026-04-04T14:01:22.634Z</time></trkpt><trkpt lat="43.4860586" lon="10.7351351"><ele>123.0</ele><time>2026-04-04T14:01:23.634Z</time></trkpt><trkpt lat="43.4860767" lon="10.7352296"><ele>122.16666666666667</ele><time>2026-04-04T14:01:24.64Z</time></trkpt><trkpt lat="43.4860919" lon="10.7353253"><ele>121.33333333333334</ele><time>2026-04-04T14:01:25.628Z</time></trkpt><trkpt lat="43.4861186" lon="10.7354062"><ele>120.5</ele><time>2026-04-04T14:01:26.626Z</time></trkpt><trkpt lat="43.4861943" lon="10.7355202"><ele>119.66666666666667</ele><time>2026-04-04T14:01:28.626Z</time></trkpt><trkpt lat="43.4862544" lon="10.7356007"><ele>118.83333333333334</ele><time>2026-04-04T14:01:30.632Z</time></trkpt><trkpt lat="43.4862985" lon="10.7356829"><ele>118.0</ele><time>2026-04-04T14:01:32.637Z</time></trkpt><trkpt lat="43.4863562" lon="10.7357618"><ele>117.83333333333334</ele><time>2026-04-04T14:01:34.639Z</time></trkpt><trkpt lat="43.4864074" lon="10.7358397"><ele>117.66666666666667</ele><time>2026-04-04T14:01:36.638Z</time></trkpt><trkpt lat="43.4864606" lon="10.7359006"><ele>117.5</ele><time>2026-04-04T14:01:38.628Z</time></trkpt><trkpt lat="43.4865124" lon="10.735973"><ele>117.33333333333334</ele><time>2026-04-04T14:01:40.636Z</time></trkpt><trkpt lat="43.4865747" lon="10.7360477"><ele>117.16666666666667</ele><time>2026-04-04T14:01:42.641Z</time></trkpt><trkpt lat="43.4866365" lon="10.7361412"><ele>117.0</ele><time>2026-04-04T14:01:44.638Z</time></trkpt><trkpt lat="43.4866979" lon="10.7362175"><ele>116.5</ele><time>2026-04-04T14:01:46.637Z</time></trkpt><trkpt lat="43.4867446" lon="10.7362933"><ele>116.0</ele><time>2026-04-04T14:01:48.638Z</time></trkpt><trkpt lat="43.4868013" lon="10.7363694"><ele>115.5</ele><time>2026-04-04T14:01:50.636Z</time></trkpt><trkpt lat="43.486841" lon="10.736445"><ele>115.0</ele><time>2026-04-04T14:01:52.636Z</time></trkpt><trkpt lat="43.4868917" lon="10.7365163"><ele>114.5</ele><time>2026-04-04T14:01:54.628Z</time></trkpt><trkpt lat="43.4869878" lon="10.7365583"><ele>114.0</ele><time>2026-04-04T14:01:56.642Z</time></trkpt><trkpt lat="43.4870702" lon="10.7366332"><ele>113.0</ele><time>2026-04-04T14:01:58.641Z</time></trkpt><trkpt lat="43.4871689" lon="10.7367243"><ele>112.0</ele><time>2026-04-04T14:02:00.631Z</time></trkpt><trkpt lat="43.487233" lon="10.7367811"><ele>111.0</ele><time>2026-04-04T14:02:01.62Z</time></trkpt><trkpt lat="43.4872959" lon="10.7368457"><ele>110.0</ele><time>2026-04-04T14:02:02.631Z</time></trkpt><trkpt lat="43.4873534" lon="10.7369099"><ele>109.0</ele><time>2026-04-04T14:02:03.621Z</time></trkpt><trkpt lat="43.4873964" lon="10.736991"><ele>108.0</ele><time>2026-04-04T14:02:04.613Z</time></trkpt><trkpt lat="43.4874467" lon="10.7370672"><ele>107.5</ele><time>2026-04-04T14:02:05.63Z</time></trkpt><trkpt lat="43.4874909" lon="10.7371357"><ele>107.0</ele><time>2026-04-04T14:02:06.632Z</time></trkpt><trkpt lat="43.4875423" lon="10.7372036"><ele>106.5</ele><time>2026-04-04T14:02:07.624Z</time></trkpt><trkpt lat="43.4876095" lon="10.7372848"><ele>106.0</ele><time>2026-04-04T14:02:08.626Z</time></trkpt><trkpt lat="43.4876859" lon="10.7373781"><ele>105.5</ele><time>2026-04-04T14:02:09.624Z</time></trkpt><trkpt lat="43.4877565" lon="10.737454"><ele>105.0</ele><time>2026-04-04T14:02:10.628Z</time></trkpt><trkpt lat="43.4878216" lon="10.7375248"><ele>105.0</ele><time>2026-04-04T14:02:11.632Z</time></trkpt><trkpt lat="43.4878802" lon="10.7375978"><ele>105.0</ele><time>2026-04-04T14:02:12.629Z</time></trkpt><trkpt lat="43.4879508" lon="10.7376737"><ele>105.0</ele><time>2026-04-04T14:02:13.635Z</time></trkpt><trkpt lat="43.4880188" lon="10.7377474"><ele>105.0</ele><time>2026-04-04T14:02:14.633Z</time></trkpt><trkpt lat="43.488097" lon="10.7378436"><ele>105.0</ele><time>2026-04-04T14:02:15.64Z</time></trkpt><trkpt lat="43.4881647" lon="10.7379377"><ele>104.0</ele><time>2026-04-04T14:02:16.637Z</time></trkpt><trkpt lat="43.4882301" lon="10.7380302"><ele>103.0</ele><time>2026-04-04T14:02:17.64Z</time></trkpt><trkpt lat="43.488296" lon="10.738114"><ele>102.0</ele><time>2026-04-04T14:02:18.63Z</time></trkpt><trkpt lat="43.4883586" lon="10.7382002"><ele>101.0</ele><time>2026-04-04T14:02:19.631Z</time></trkpt><trkpt lat="43.4884142" lon="10.7382792"><ele>100.0</ele><time>2026-04-04T14:02:20.621Z</time></trkpt><trkpt lat="43.488469" lon="10.7383489"><ele>99.0</ele><time>2026-04-04T14:02:21.625Z</time></trkpt><trkpt lat="43.488514" lon="10.7384287"><ele>99.0</ele><time>2026-04-04T14:02:22.627Z</time></trkpt><trkpt lat="43.4885488" lon="10.7385127"><ele>99.0</ele><time>2026-04-04T14:02:23.633Z</time></trkpt><trkpt lat="43.4885893" lon="10.7385856"><ele>99.0</ele><time>2026-04-04T14:02:24.628Z</time></trkpt><trkpt lat="43.4886421" lon="10.7386535"><ele>99.0</ele><time>2026-04-04T14:02:25.626Z</time></trkpt><trkpt lat="43.488711" lon="10.7387434"><ele>99.0</ele><time>2026-04-04T14:02:26.628Z</time></trkpt><trkpt lat="43.4887784" lon="10.7388427"><ele>99.0</ele><time>2026-04-04T14:02:27.625Z</time></trkpt><trkpt lat="43.4888411" lon="10.7389421"><ele>97.66666666666667</ele><time>2026-04-04T14:02:28.62Z</time></trkpt><trkpt lat="43.4889089" lon="10.7390474"><ele>96.33333333333333</ele><time>2026-04-04T14:02:29.639Z</time></trkpt><trkpt lat="43.4889689" lon="10.7391391"><ele>95.0</ele><time>2026-04-04T14:02:30.63Z</time></trkpt><trkpt lat="43.4890223" lon="10.7392203"><ele>93.66666666666666</ele><time>2026-04-04T14:02:31.624Z</time></trkpt><trkpt lat="43.489065" lon="10.7393045"><ele>92.33333333333333</ele><time>2026-04-04T14:02:32.636Z</time></trkpt><trkpt lat="43.4891067" lon="10.7393934"><ele>91.0</ele><time>2026-04-04T14:02:33.635Z</time></trkpt><trkpt lat="43.4891467" lon="10.7394904"><ele>90.83333333333333</ele><time>2026-04-04T14:02:34.634Z</time></trkpt><trkpt lat="43.4891776" lon="10.7395921"><ele>90.66666666666666</ele><time>2026-04-04T14:02:35.639Z</time></trkpt><trkpt lat="43.4892107" lon="10.7396912"><ele>90.5</ele><time>2026-04-04T14:02:36.635Z</time></trkpt><trkpt lat="43.489246" lon="10.7397989"><ele>90.33333333333333</ele><time>2026-04-04T14:02:37.629Z</time></trkpt><trkpt lat="43.4892812" lon="10.7399074"><ele>90.16666666666667</ele><time>2026-04-04T14:02:38.625Z</time></trkpt><trkpt lat="43.4893221" lon="10.7400076"><ele>90.0</ele><time>2026-04-04T14:02:39.618Z</time></trkpt><trkpt lat="43.4893638" lon="10.7400958"><ele>90.0</ele><time>2026-04-04T14:02:40.615Z</time></trkpt><trkpt lat="43.4893856" lon="10.7402212"><ele>90.0</ele><time>2026-04-04T14:02:42.613Z</time></trkpt><trkpt lat="43.4894576" lon="10.7402969"><ele>90.0</ele><time>2026-04-04T14:02:45.603Z</time></trkpt><trkpt lat="43.4895229" lon="10.7403148"><ele>90.0</ele><time>2026-04-04T14:02:46.6Z</time></trkpt><trkpt lat="43.4895985" lon="10.7403382"><ele>90.0</ele><time>2026-04-04T14:02:47.6Z</time></trkpt><trkpt lat="43.4896742" lon="10.7403583"><ele>90.0</ele><time>2026-04-04T14:02:48.602Z</time></trkpt><trkpt lat="43.4897614" lon="10.740369"><ele>88.0</ele><time>2026-04-04T14:02:49.609Z</time></trkpt><trkpt lat="43.4898444" lon="10.7403856"><ele>86.0</ele><time>2026-04-04T14:02:50.61Z</time></trkpt><trkpt lat="43.4899257" lon="10.7404009"><ele>84.0</ele><time>2026-04-04T14:02:51.611Z</time></trkpt><trkpt lat="43.490006" lon="10.7404331"><ele>82.0</ele><time>2026-04-04T14:02:52.625Z</time></trkpt><trkpt lat="43.4900948" lon="10.740464"><ele>80.0</ele><time>2026-04-04T14:02:53.634Z</time></trkpt><trkpt lat="43.4901734" lon="10.740516"><ele>78.0</ele><time>2026-04-04T14:02:54.63Z</time></trkpt><trkpt lat="43.4902251" lon="10.7405813"><ele>78.0</ele><time>2026-04-04T14:02:55.626Z</time></trkpt><trkpt lat="43.4902637" lon="10.7406764"><ele>78.0</ele><time>2026-04-04T14:02:56.621Z</time></trkpt><trkpt lat="43.4902895" lon="10.7407778"><ele>78.0</ele><time>2026-04-04T14:02:57.621Z</time></trkpt><trkpt lat="43.4902916" lon="10.7408959"><ele>78.0</ele><time>2026-04-04T14:02:58.632Z</time></trkpt><trkpt lat="43.4902825" lon="10.7410064"><ele>78.0</ele><time>2026-04-04T14:02:59.629Z</time></trkpt><trkpt lat="43.4902728" lon="10.7410988"><ele>78.0</ele><time>2026-04-04T14:03:00.62Z</time></trkpt><trkpt lat="43.4902768" lon="10.7411975"><ele>77.14285714285715</ele><time>2026-04-04T14:03:01.606Z</time></trkpt><trkpt lat="43.4903116" lon="10.7412759"><ele>76.28571428571428</ele><time>2026-04-04T14:03:03.615Z</time></trkpt><trkpt lat="43.4903533" lon="10.7412101"><ele>75.42857142857143</ele><time>2026-04-04T14:03:05.628Z</time></trkpt><trkpt lat="43.4904407" lon="10.741116"><ele>74.57142857142858</ele><time>2026-04-04T14:03:07.633Z</time></trkpt><trkpt lat="43.4904903" lon="10.7410588"><ele>73.71428571428572</ele><time>2026-04-04T14:03:08.628Z</time></trkpt><trkpt lat="43.4905445" lon="10.7410019"><ele>72.85714285714286</ele><time>2026-04-04T14:03:09.63Z</time></trkpt><trkpt lat="43.4906033" lon="10.7409406"><ele>72.0</ele><time>2026-04-04T14:03:10.632Z</time></trkpt><trkpt lat="43.4906591" lon="10.7408878"><ele>71.66666666666667</ele><time>2026-04-04T14:03:11.631Z</time></trkpt><trkpt lat="43.4907134" lon="10.7408372"><ele>71.33333333333333</ele><time>2026-04-04T14:03:12.624Z</time></trkpt><trkpt lat="43.4907809" lon="10.7407712"><ele>71.0</ele><time>2026-04-04T14:03:14.631Z</time></trkpt><trkpt lat="43.4908316" lon="10.740698"><ele>70.66666666666666</ele><time>2026-04-04T14:03:25.627Z</time></trkpt><trkpt lat="43.4908816" lon="10.7406412"><ele>70.33333333333333</ele><time>2026-04-04T14:03:28.637Z</time></trkpt><trkpt lat="43.4909857" lon="10.7405781"><ele>70.0</ele><time>2026-04-04T14:03:30.633Z</time></trkpt><trkpt lat="43.4910598" lon="10.7405261"><ele>70.0</ele><time>2026-04-04T14:03:31.646Z</time></trkpt><trkpt lat="43.4911355" lon="10.7404906"><ele>70.0</ele><time>2026-04-04T14:03:32.642Z</time></trkpt><trkpt lat="43.4912058" lon="10.7404706"><ele>70.0</ele><time>2026-04-04T14:03:33.63Z</time></trkpt><trkpt lat="43.4912865" lon="10.7404866"><ele>70.0</ele><time>2026-04-04T14:03:34.626Z</time></trkpt><trkpt lat="43.4913785" lon="10.7405409"><ele>70.0</ele><time>2026-04-04T14:03:35.631Z</time></trkpt><trkpt lat="43.4914852" lon="10.7406309"><ele>69.5</ele><time>2026-04-04T14:03:36.625Z</time></trkpt><trkpt lat="43.4915872" lon="10.740735"><ele>69.0</ele><time>2026-04-04T14:03:37.635Z</time></trkpt><trkpt lat="43.4917107" lon="10.740829"><ele>68.5</ele><time>2026-04-04T14:03:38.638Z</time></trkpt><trkpt lat="43.4918339" lon="10.7409215"><ele>68.0</ele><time>2026-04-04T14:03:40.719Z</time></trkpt><trkpt lat="43.4919626" lon="10.74102"><ele>67.75</ele><time>2026-04-04T14:03:41.719Z</time></trkpt><trkpt lat="43.4920849" lon="10.7411153"><ele>67.5</ele><time>2026-04-04T14:03:42.714Z</time></trkpt><trkpt lat="43.4922043" lon="10.7412003"><ele>67.25</ele><time>2026-04-04T14:03:43.713Z</time></trkpt><trkpt lat="43.4923176" lon="10.74128"><ele>67.0</ele><time>2026-04-04T14:03:44.714Z</time></trkpt><trkpt lat="43.4924371" lon="10.7413508"><ele>67.0</ele><time>2026-04-04T14:03:45.71Z</time></trkpt><trkpt lat="43.4925402" lon="10.7414152"><ele>67.0</ele><time>2026-04-04T14:03:46.715Z</time></trkpt><trkpt lat="43.4926467" lon="10.7414742"><ele>67.0</ele><time>2026-04-04T14:03:47.708Z</time></trkpt><trkpt lat="43.492753" lon="10.7415347"><ele>67.0</ele><time>2026-04-04T14:03:48.713Z</time></trkpt><trkpt lat="43.4928603" lon="10.7415958"><ele>66.2</ele><time>2026-04-04T14:03:49.708Z</time></trkpt><trkpt lat="43.4929598" lon="10.7416576"><ele>65.4</ele><time>2026-04-04T14:03:50.701Z</time></trkpt><trkpt lat="43.4930486" lon="10.741718"><ele>64.6</ele><time>2026-04-04T14:03:51.696Z</time></trkpt><trkpt lat="43.4931186" lon="10.7417767"><ele>63.8</ele><time>2026-04-04T14:03:52.698Z</time></trkpt><trkpt lat="43.4931576" lon="10.7418493"><ele>63.0</ele><time>2026-04-04T14:03:53.69Z</time></trkpt><trkpt lat="43.4931689" lon="10.7420044"><ele>62.599999999999994</ele><time>2026-04-04T14:03:55.686Z</time></trkpt><trkpt lat="43.4931128" lon="10.7421579"><ele>62.199999999999996</ele><time>2026-04-04T14:03:57.685Z</time></trkpt><trkpt lat="43.4930855" lon="10.7422814"><ele>61.8</ele><time>2026-04-04T14:03:58.691Z</time></trkpt><trkpt lat="43.4930792" lon="10.742443"><ele>61.4</ele><time>2026-04-04T14:04:01.717Z</time></trkpt><trkpt lat="43.493123" lon="10.7425348"><ele>61.0</ele><time>2026-04-04T14:04:03.714Z</time></trkpt><trkpt lat="43.4931726" lon="10.7426647"><ele>60.4</ele><time>2026-04-04T14:04:05.707Z</time></trkpt><trkpt lat="43.493234" lon="10.7427864"><ele>59.8</ele><time>2026-04-04T14:04:07.689Z</time></trkpt><trkpt lat="43.4932696" lon="10.7428723"><ele>59.199999999999996</ele><time>2026-04-04T14:04:08.684Z</time></trkpt><trkpt lat="43.4933069" lon="10.7429561"><ele>58.599999999999994</ele><time>2026-04-04T14:04:09.69Z</time></trkpt><trkpt lat="43.4934125" lon="10.7431172"><ele>58.0</ele><time>2026-04-04T14:04:10.617Z</time></trkpt><trkpt lat="43.4934338" lon="10.7432024"><ele>57.99999999999999</ele><time>2026-04-04T14:04:11.614Z</time></trkpt><trkpt lat="43.4934176" lon="10.7433421"><ele>58.0</ele><time>2026-04-04T14:04:13.617Z</time></trkpt><trkpt lat="43.493413" lon="10.7434658"><ele>58.0</ele><time>2026-04-04T14:04:15.617Z</time></trkpt><trkpt lat="43.4933487" lon="10.7435693"><ele>58.0</ele><time>2026-04-04T14:04:17.619Z</time></trkpt><trkpt lat="43.4932991" lon="10.7436335"><ele>57.99999999999999</ele><time>2026-04-04T14:04:18.618Z</time></trkpt><trkpt lat="43.493239" lon="10.7437062"><ele>58.0</ele><time>2026-04-04T14:04:19.618Z</time></trkpt><trkpt lat="43.4931685" lon="10.7437732"><ele>57.666666666666664</ele><time>2026-04-04T14:04:20.62Z</time></trkpt><trkpt lat="43.4930936" lon="10.7438516"><ele>57.33333333333333</ele><time>2026-04-04T14:04:21.622Z</time></trkpt><trkpt lat="43.4930323" lon="10.7439196"><ele>57.0</ele><time>2026-04-04T14:04:22.633Z</time></trkpt><trkpt lat="43.4929817" lon="10.7440239"><ele>56.66666666666667</ele><time>2026-04-04T14:04:24.62Z</time></trkpt><trkpt lat="43.4930195" lon="10.7441389"><ele>56.333333333333336</ele><time>2026-04-04T14:04:27.628Z</time></trkpt><trkpt lat="43.49305" lon="10.7442196"><ele>56.0</ele><time>2026-04-04T14:04:28.625Z</time></trkpt><trkpt lat="43.4930834" lon="10.7443295"><ele>56.4</ele><time>2026-04-04T14:04:29.629Z</time></trkpt><trkpt lat="43.4931052" lon="10.7444393"><ele>56.8</ele><time>2026-04-04T14:04:30.625Z</time></trkpt><trkpt lat="43.4931382" lon="10.7445718"><ele>57.199999999999996</ele><time>2026-04-04T14:04:31.63Z</time></trkpt><trkpt lat="43.4931776" lon="10.7447361"><ele>57.599999999999994</ele><time>2026-04-04T14:04:32.623Z</time></trkpt><trkpt lat="43.4932128" lon="10.7449118"><ele>58.0</ele><time>2026-04-04T14:04:33.619Z</time></trkpt><trkpt lat="43.493251" lon="10.7450788"><ele>58.25</ele><time>2026-04-04T14:04:34.615Z</time></trkpt><trkpt lat="43.4932857" lon="10.7452431"><ele>58.5</ele><time>2026-04-04T14:04:35.627Z</time></trkpt><trkpt lat="43.4933173" lon="10.7454225"><ele>58.75</ele><time>2026-04-04T14:04:36.626Z</time></trkpt><trkpt lat="43.493343" lon="10.7455935"><ele>59.0</ele><time>2026-04-04T14:04:37.622Z</time></trkpt><trkpt lat="43.4933741" lon="10.7457672"><ele>59.0</ele><time>2026-04-04T14:04:38.621Z</time></trkpt><trkpt lat="43.4934028" lon="10.7459434"><ele>59.0</ele><time>2026-04-04T14:04:39.61Z</time></trkpt><trkpt lat="43.493429" lon="10.7461098"><ele>59.0</ele><time>2026-04-04T14:04:40.612Z</time></trkpt><trkpt lat="43.4934556" lon="10.7462699"><ele>59.0</ele><time>2026-04-04T14:04:41.602Z</time></trkpt><trkpt lat="43.4934817" lon="10.7464364"><ele>59.2</ele><time>2026-04-04T14:04:42.598Z</time></trkpt><trkpt lat="43.493509" lon="10.7465827"><ele>59.400000000000006</ele><time>2026-04-04T14:04:43.608Z</time></trkpt><trkpt lat="43.4935472" lon="10.7467229"><ele>59.6</ele><time>2026-04-04T14:04:44.61Z</time></trkpt><trkpt lat="43.4935866" lon="10.7468631"><ele>59.8</ele><time>2026-04-04T14:04:45.613Z</time></trkpt><trkpt lat="43.4936123" lon="10.7469967"><ele>60.0</ele><time>2026-04-04T14:04:46.61Z</time></trkpt><trkpt lat="43.4936344" lon="10.7471134"><ele>60.0</ele><time>2026-04-04T14:04:47.607Z</time></trkpt><trkpt lat="43.4936565" lon="10.7472042"><ele>60.0</ele><time>2026-04-04T14:04:48.609Z</time></trkpt><trkpt lat="43.4936882" lon="10.7472922"><ele>60.0</ele><time>2026-04-04T14:04:49.614Z</time></trkpt><trkpt lat="43.4937097" lon="10.7473815"><ele>60.0</ele><time>2026-04-04T14:04:50.618Z</time></trkpt><trkpt lat="43.4937485" lon="10.7475232"><ele>60.0</ele><time>2026-04-04T14:04:52.628Z</time></trkpt><trkpt lat="43.4937878" lon="10.7476842"><ele>60.0</ele><time>2026-04-04T14:04:54.621Z</time></trkpt><trkpt lat="43.4938074" lon="10.7477821"><ele>60.0</ele><time>2026-04-04T14:04:55.62Z</time></trkpt><trkpt lat="43.4938294" lon="10.7478785"><ele>60.0</ele><time>2026-04-04T14:04:56.622Z</time></trkpt><trkpt lat="43.4938547" lon="10.7479695"><ele>60.0</ele><time>2026-04-04T14:04:57.62Z</time></trkpt><trkpt lat="43.4938744" lon="10.7480656"><ele>60.0</ele><time>2026-04-04T14:04:58.623Z</time></trkpt><trkpt lat="43.4938916" lon="10.7481665"><ele>60.0</ele><time>2026-04-04T14:04:59.621Z</time></trkpt><trkpt lat="43.4939078" lon="10.7483296"><ele>60.0</ele><time>2026-04-04T14:05:01.624Z</time></trkpt><trkpt lat="43.4939327" lon="10.7484953"><ele>60.4</ele><time>2026-04-04T14:05:03.621Z</time></trkpt><trkpt lat="43.4939458" lon="10.7486017"><ele>60.8</ele><time>2026-04-04T14:05:04.624Z</time></trkpt><trkpt lat="43.4939678" lon="10.7487184"><ele>61.2</ele><time>2026-04-04T14:05:05.629Z</time></trkpt><trkpt lat="43.4939926" lon="10.7488544"><ele>61.6</ele><time>2026-04-04T14:05:06.623Z</time></trkpt><trkpt lat="43.4940161" lon="10.7490074"><ele>62.0</ele><time>2026-04-04T14:05:07.619Z</time></trkpt><trkpt lat="43.494048" lon="10.7491639"><ele>62.00000000000001</ele><time>2026-04-04T14:05:08.615Z</time></trkpt><trkpt lat="43.4940818" lon="10.7493152"><ele>62.0</ele><time>2026-04-04T14:05:09.609Z</time></trkpt><trkpt lat="43.4941087" lon="10.7494326"><ele>62.0</ele><time>2026-04-04T14:05:10.621Z</time></trkpt><trkpt lat="43.494122" lon="10.74954"><ele>62.0</ele><time>2026-04-04T14:05:11.606Z</time></trkpt><trkpt lat="43.4941362" lon="10.7496367"><ele>62.00000000000001</ele><time>2026-04-04T14:05:12.615Z</time></trkpt><trkpt lat="43.4941494" lon="10.7497222"><ele>62.0</ele><time>2026-04-04T14:05:13.613Z</time></trkpt><trkpt lat="43.4941904" lon="10.7498203"><ele>62.8</ele><time>2026-04-04T14:05:15.615Z</time></trkpt><trkpt lat="43.4942542" lon="10.7498611"><ele>63.6</ele><time>2026-04-04T14:05:17.622Z</time></trkpt><trkpt lat="43.4943268" lon="10.7498168"><ele>64.39999999999999</ele><time>2026-04-04T14:05:19.627Z</time></trkpt><trkpt lat="43.4944208" lon="10.74975"><ele>65.2</ele><time>2026-04-04T14:05:21.618Z</time></trkpt><trkpt lat="43.494559" lon="10.7497335"><ele>66.0</ele><time>2026-04-04T14:05:23.62Z</time></trkpt><trkpt lat="43.494629" lon="10.7497146"><ele>66.83333333333333</ele><time>2026-04-04T14:05:24.619Z</time></trkpt><trkpt lat="43.4947097" lon="10.7496882"><ele>67.66666666666667</ele><time>2026-04-04T14:05:25.615Z</time></trkpt><trkpt lat="43.4947826" lon="10.7496708"><ele>68.5</ele><time>2026-04-04T14:05:26.619Z</time></trkpt><trkpt lat="43.4948554" lon="10.7496543"><ele>69.33333333333334</ele><time>2026-04-04T14:05:27.618Z</time></trkpt><trkpt lat="43.4949211" lon="10.7496295"><ele>70.16666666666667</ele><time>2026-04-04T14:05:28.617Z</time></trkpt><trkpt lat="43.4950189" lon="10.7495603"><ele>71.0</ele><time>2026-04-04T14:05:30.617Z</time></trkpt><trkpt lat="43.495074" lon="10.7495095"><ele>71.0</ele><time>2026-04-04T14:05:31.619Z</time></trkpt><trkpt lat="43.4951242" lon="10.7494441"><ele>71.0</ele><time>2026-04-04T14:05:32.628Z</time></trkpt><trkpt lat="43.4951864" lon="10.7493796"><ele>71.0</ele><time>2026-04-04T14:05:33.623Z</time></trkpt><trkpt lat="43.4952418" lon="10.7493184"><ele>71.0</ele><time>2026-04-04T14:05:34.629Z</time></trkpt><trkpt lat="43.4953371" lon="10.7492139"><ele>71.0</ele><time>2026-04-04T14:05:36.626Z</time></trkpt><trkpt lat="43.4953926" lon="10.7491549"><ele>71.0</ele><time>2026-04-04T14:05:37.624Z</time></trkpt><trkpt lat="43.4954957" lon="10.7490639"><ele>70.5</ele><time>2026-04-04T14:05:39.625Z</time></trkpt><trkpt lat="43.4955539" lon="10.7490299"><ele>70.0</ele><time>2026-04-04T14:05:40.621Z</time></trkpt><trkpt lat="43.495616" lon="10.7489853"><ele>69.5</ele><time>2026-04-04T14:05:41.617Z</time></trkpt><trkpt lat="43.4956749" lon="10.7489384"><ele>69.0</ele><time>2026-04-04T14:05:42.616Z</time></trkpt><trkpt lat="43.4957335" lon="10.7489024"><ele>68.5</ele><time>2026-04-04T14:05:43.618Z</time></trkpt><trkpt lat="43.4958455" lon="10.7488302"><ele>68.0</ele><time>2026-04-04T14:05:45.628Z</time></trkpt><trkpt lat="43.4959626" lon="10.7488009"><ele>68.0</ele><time>2026-04-04T14:05:47.617Z</time></trkpt><trkpt lat="43.4960357" lon="10.748793"><ele>68.0</ele><time>2026-04-04T14:05:48.625Z</time></trkpt><trkpt lat="43.4961253" lon="10.7487765"><ele>68.0</ele><time>2026-04-04T14:05:49.622Z</time></trkpt><trkpt lat="43.4962057" lon="10.748756"><ele>68.0</ele><time>2026-04-04T14:05:50.623Z</time></trkpt><trkpt lat="43.4962778" lon="10.7487373"><ele>68.0</ele><time>2026-04-04T14:05:51.619Z</time></trkpt><trkpt lat="43.4963363" lon="10.7487004"><ele>68.0</ele><time>2026-04-04T14:05:52.624Z</time></trkpt><trkpt lat="43.4964358" lon="10.7486327"><ele>68.4</ele><time>2026-04-04T14:05:54.619Z</time></trkpt><trkpt lat="43.496523" lon="10.7485699"><ele>68.8</ele><time>2026-04-04T14:05:56.617Z</time></trkpt><trkpt lat="43.4966172" lon="10.7485201"><ele>69.2</ele><time>2026-04-04T14:05:58.625Z</time></trkpt><trkpt lat="43.4967346" lon="10.7484797"><ele>69.6</ele><time>2026-04-04T14:06:00.612Z</time></trkpt><trkpt lat="43.4967979" lon="10.7484518"><ele>70.0</ele><time>2026-04-04T14:06:01.616Z</time></trkpt><trkpt lat="43.496864" lon="10.7484295"><ele>69.28571428571429</ele><time>2026-04-04T14:06:02.618Z</time></trkpt><trkpt lat="43.4969353" lon="10.7484044"><ele>68.57142857142857</ele><time>2026-04-04T14:06:03.619Z</time></trkpt><trkpt lat="43.4970042" lon="10.7483722"><ele>67.85714285714286</ele><time>2026-04-04T14:06:04.614Z</time></trkpt><trkpt lat="43.4970801" lon="10.748331"><ele>67.14285714285714</ele><time>2026-04-04T14:06:05.614Z</time></trkpt><trkpt lat="43.4971499" lon="10.7482821"><ele>66.42857142857143</ele><time>2026-04-04T14:06:06.611Z</time></trkpt><trkpt lat="43.4972208" lon="10.7482386"><ele>65.71428571428572</ele><time>2026-04-04T14:06:07.608Z</time></trkpt><trkpt lat="43.497278" lon="10.7482014"><ele>65.0</ele><time>2026-04-04T14:06:08.61Z</time></trkpt><trkpt lat="43.4973669" lon="10.7481489"><ele>64.83333333333334</ele><time>2026-04-04T14:06:10.635Z</time></trkpt><trkpt lat="43.4974421" lon="10.7481213"><ele>64.66666666666667</ele><time>2026-04-04T14:06:12.62Z</time></trkpt><trkpt lat="43.497518" lon="10.7481651"><ele>64.5</ele><time>2026-04-04T14:06:14.618Z</time></trkpt><trkpt lat="43.4975522" lon="10.7483131"><ele>64.33333333333333</ele><time>2026-04-04T14:06:16.633Z</time></trkpt><trkpt lat="43.4975745" lon="10.7484059"><ele>64.16666666666666</ele><time>2026-04-04T14:06:17.632Z</time></trkpt><trkpt lat="43.4975999" lon="10.7485146"><ele>64.0</ele><time>2026-04-04T14:06:18.629Z</time></trkpt><trkpt lat="43.4976353" lon="10.7486298"><ele>64.8</ele><time>2026-04-04T14:06:19.627Z</time></trkpt><trkpt lat="43.4976646" lon="10.748747"><ele>65.60000000000001</ele><time>2026-04-04T14:06:20.625Z</time></trkpt><trkpt lat="43.4977023" lon="10.7488708"><ele>66.4</ele><time>2026-04-04T14:06:21.636Z</time></trkpt><trkpt lat="43.4977337" lon="10.7489921"><ele>67.2</ele><time>2026-04-04T14:06:23.705Z</time></trkpt><trkpt lat="43.4977704" lon="10.7491238"><ele>68.0</ele><time>2026-04-04T14:06:24.707Z</time></trkpt><trkpt lat="43.497812" lon="10.7492594"><ele>67.8</ele><time>2026-04-04T14:06:25.708Z</time></trkpt><trkpt lat="43.4978536" lon="10.7493966"><ele>67.6</ele><time>2026-04-04T14:06:26.706Z</time></trkpt><trkpt lat="43.4978963" lon="10.7495356"><ele>67.4</ele><time>2026-04-04T14:06:27.703Z</time></trkpt><trkpt lat="43.4979332" lon="10.7496595"><ele>67.2</ele><time>2026-04-04T14:06:28.701Z</time></trkpt><trkpt lat="43.4979623" lon="10.749768"><ele>67.0</ele><time>2026-04-04T14:06:29.708Z</time></trkpt><trkpt lat="43.4979922" lon="10.7498791"><ele>67.0</ele><time>2026-04-04T14:06:30.705Z</time></trkpt><trkpt lat="43.4980214" lon="10.749987"><ele>67.0</ele><time>2026-04-04T14:06:31.7Z</time></trkpt><trkpt lat="43.4980537" lon="10.7501004"><ele>67.0</ele><time>2026-04-04T14:06:32.712Z</time></trkpt><trkpt lat="43.4980851" lon="10.7502055"><ele>67.0</ele><time>2026-04-04T14:06:33.714Z</time></trkpt><trkpt lat="43.4981288" lon="10.7503105"><ele>67.0</ele><time>2026-04-04T14:06:34.708Z</time></trkpt><trkpt lat="43.4981649" lon="10.7504145"><ele>67.0</ele><time>2026-04-04T14:06:35.702Z</time></trkpt><trkpt lat="43.498196" lon="10.7505198"><ele>67.16666666666666</ele><time>2026-04-04T14:06:36.707Z</time></trkpt><trkpt lat="43.4982292" lon="10.7506251"><ele>67.33333333333333</ele><time>2026-04-04T14:06:37.71Z</time></trkpt><trkpt lat="43.4982605" lon="10.7507285"><ele>67.5</ele><time>2026-04-04T14:06:38.705Z</time></trkpt><trkpt lat="43.4982899" lon="10.7508275"><ele>67.66666666666667</ele><time>2026-04-04T14:06:39.706Z</time></trkpt><trkpt lat="43.4983193" lon="10.7509231"><ele>67.83333333333334</ele><time>2026-04-04T14:06:40.705Z</time></trkpt><trkpt lat="43.4983493" lon="10.7510185"><ele>68.0</ele><time>2026-04-04T14:06:41.704Z</time></trkpt><trkpt lat="43.4983736" lon="10.7511161"><ele>68.33333333333334</ele><time>2026-04-04T14:06:42.705Z</time></trkpt><trkpt lat="43.4984024" lon="10.7512128"><ele>68.66666666666667</ele><time>2026-04-04T14:06:43.705Z</time></trkpt><trkpt lat="43.498426" lon="10.7513027"><ele>69.0</ele><time>2026-04-04T14:06:44.695Z</time></trkpt><trkpt lat="43.4984669" lon="10.7514341"><ele>69.33333333333333</ele><time>2026-04-04T14:06:46.694Z</time></trkpt><trkpt lat="43.4985081" lon="10.7515485"><ele>69.66666666666666</ele><time>2026-04-04T14:06:48.716Z</time></trkpt><trkpt lat="43.4985482" lon="10.7516747"><ele>70.0</ele><time>2026-04-04T14:06:50.706Z</time></trkpt><trkpt lat="43.4985899" lon="10.7518037"><ele>70.33333333333333</ele><time>2026-04-04T14:06:52.71Z</time></trkpt><trkpt lat="43.4986199" lon="10.7519194"><ele>70.66666666666666</ele><time>2026-04-04T14:06:54.719Z</time></trkpt><trkpt lat="43.4986549" lon="10.7520493"><ele>71.0</ele><time>2026-04-04T14:06:56.706Z</time></trkpt><trkpt lat="43.4986872" lon="10.7521465"><ele>71.33333333333333</ele><time>2026-04-04T14:06:58.702Z</time></trkpt><trkpt lat="43.4987392" lon="10.7521969"><ele>71.66666666666667</ele><time>2026-04-04T14:07:00.711Z</time></trkpt><trkpt lat="43.498805" lon="10.7522196"><ele>72.0</ele><time>2026-04-04T14:07:02.717Z</time></trkpt><trkpt lat="43.4988999" lon="10.7522549"><ele>72.83333333333333</ele><time>2026-04-04T14:07:04.72Z</time></trkpt><trkpt lat="43.4989963" lon="10.7522887"><ele>73.66666666666667</ele><time>2026-04-04T14:07:05.63Z</time></trkpt><trkpt lat="43.4990463" lon="10.752355"><ele>74.5</ele><time>2026-04-04T14:07:07.628Z</time></trkpt><trkpt lat="43.4990953" lon="10.7524567"><ele>75.33333333333334</ele><time>2026-04-04T14:07:09.632Z</time></trkpt><trkpt lat="43.49912" lon="10.7525828"><ele>76.16666666666667</ele><time>2026-04-04T14:07:11.629Z</time></trkpt><trkpt lat="43.4991491" lon="10.7526952"><ele>77.0</ele><time>2026-04-04T14:07:13.625Z</time></trkpt><trkpt lat="43.4991807" lon="10.7528702"><ele>78.14285714285714</ele><time>2026-04-04T14:07:15.633Z</time></trkpt><trkpt lat="43.499191" lon="10.7529582"><ele>79.28571428571428</ele><time>2026-04-04T14:07:16.623Z</time></trkpt><trkpt lat="43.4991983" lon="10.7530594"><ele>80.42857142857143</ele><time>2026-04-04T14:07:17.623Z</time></trkpt><trkpt lat="43.4992196" lon="10.753163"><ele>81.57142857142857</ele><time>2026-04-04T14:07:18.625Z</time></trkpt><trkpt lat="43.4992391" lon="10.7532731"><ele>82.71428571428571</ele><time>2026-04-04T14:07:19.624Z</time></trkpt><trkpt lat="43.4992531" lon="10.7533739"><ele>83.85714285714286</ele><time>2026-04-04T14:07:20.626Z</time></trkpt><trkpt lat="43.4992701" lon="10.7534621"><ele>85.0</ele><time>2026-04-04T14:07:21.627Z</time></trkpt><trkpt lat="43.4992792" lon="10.7535594"><ele>86.16666666666666</ele><time>2026-04-04T14:07:22.621Z</time></trkpt><trkpt lat="43.4992993" lon="10.753722"><ele>87.33333333333333</ele><time>2026-04-04T14:07:24.625Z</time></trkpt><trkpt lat="43.499309" lon="10.7538102"><ele>88.5</ele><time>2026-04-04T14:07:25.624Z</time></trkpt><trkpt lat="43.4993146" lon="10.7539205"><ele>89.66666666666667</ele><time>2026-04-04T14:07:26.623Z</time></trkpt><trkpt lat="43.4993286" lon="10.7540395"><ele>90.83333333333334</ele><time>2026-04-04T14:07:27.624Z</time></trkpt><trkpt lat="43.4993389" lon="10.7541527"><ele>92.0</ele><time>2026-04-04T14:07:28.627Z</time></trkpt><trkpt lat="43.4993486" lon="10.7542424"><ele>92.8</ele><time>2026-04-04T14:07:29.623Z</time></trkpt><trkpt lat="43.4993703" lon="10.7544098"><ele>93.6</ele><time>2026-04-04T14:07:31.628Z</time></trkpt><trkpt lat="43.4993882" lon="10.7545753"><ele>94.39999999999999</ele><time>2026-04-04T14:07:33.629Z</time></trkpt><trkpt lat="43.4994079" lon="10.7547254"><ele>95.19999999999999</ele><time>2026-04-04T14:07:35.629Z</time></trkpt><trkpt lat="43.4994021" lon="10.7548316"><ele>96.0</ele><time>2026-04-04T14:07:37.631Z</time></trkpt><trkpt lat="43.4993859" lon="10.7549266"><ele>96.0</ele><time>2026-04-04T14:07:39.629Z</time></trkpt><trkpt lat="43.49935" lon="10.7550081"><ele>96.0</ele><time>2026-04-04T14:07:41.629Z</time></trkpt><trkpt lat="43.4992928" lon="10.7550917"><ele>96.0</ele><time>2026-04-04T14:07:43.634Z</time></trkpt><trkpt lat="43.4992458" lon="10.7552057"><ele>96.0</ele><time>2026-04-04T14:07:45.631Z</time></trkpt><trkpt lat="43.4992615" lon="10.7552919"><ele>96.0</ele><time>2026-04-04T14:08:11.631Z</time></trkpt><trkpt lat="43.499291" lon="10.7553926"><ele>96.0</ele><time>2026-04-04T14:08:13.626Z</time></trkpt><trkpt lat="43.4993415" lon="10.7555496"><ele>96.42857142857142</ele><time>2026-04-04T14:08:15.634Z</time></trkpt><trkpt lat="43.4993762" lon="10.7556403"><ele>96.85714285714286</ele><time>2026-04-04T14:08:16.626Z</time></trkpt><trkpt lat="43.4994003" lon="10.7557285"><ele>97.28571428571428</ele><time>2026-04-04T14:08:17.627Z</time></trkpt><trkpt lat="43.4994158" lon="10.7558349"><ele>97.71428571428571</ele><time>2026-04-04T14:08:18.624Z</time></trkpt><trkpt lat="43.499419" lon="10.7559455"><ele>98.14285714285714</ele><time>2026-04-04T14:08:19.627Z</time></trkpt><trkpt lat="43.499414" lon="10.7560378"><ele>98.57142857142857</ele><time>2026-04-04T14:08:20.626Z</time></trkpt><trkpt lat="43.4994158" lon="10.7561317"><ele>99.0</ele><time>2026-04-04T14:08:21.624Z</time></trkpt><trkpt lat="43.4994333" lon="10.7562424"><ele>99.42857142857143</ele><time>2026-04-04T14:08:22.627Z</time></trkpt><trkpt lat="43.4994427" lon="10.7563431"><ele>99.85714285714285</ele><time>2026-04-04T14:08:23.626Z</time></trkpt><trkpt lat="43.49945" lon="10.7564327"><ele>100.28571428571428</ele><time>2026-04-04T14:08:24.623Z</time></trkpt><trkpt lat="43.4994585" lon="10.7565201"><ele>100.71428571428572</ele><time>2026-04-04T14:08:25.62Z</time></trkpt><trkpt lat="43.4994685" lon="10.7566109"><ele>101.14285714285714</ele><time>2026-04-04T14:08:26.625Z</time></trkpt><trkpt lat="43.4994858" lon="10.7567176"><ele>101.57142857142857</ele><time>2026-04-04T14:08:27.621Z</time></trkpt><trkpt lat="43.4995" lon="10.7568363"><ele>102.0</ele><time>2026-04-04T14:08:28.626Z</time></trkpt><trkpt lat="43.4995043" lon="10.7569604"><ele>102.83333333333333</ele><time>2026-04-04T14:08:29.624Z</time></trkpt><trkpt lat="43.4995151" lon="10.7570818"><ele>103.66666666666666</ele><time>2026-04-04T14:08:30.621Z</time></trkpt><trkpt lat="43.499527" lon="10.7571943"><ele>104.5</ele><time>2026-04-04T14:08:31.627Z</time></trkpt><trkpt lat="43.4995282" lon="10.7573031"><ele>105.33333333333333</ele><time>2026-04-04T14:08:32.632Z</time></trkpt><trkpt lat="43.4995357" lon="10.7574062"><ele>106.16666666666666</ele><time>2026-04-04T14:08:33.623Z</time></trkpt><trkpt lat="43.499545" lon="10.7575315"><ele>107.0</ele><time>2026-04-04T14:08:34.619Z</time></trkpt><trkpt lat="43.499556" lon="10.7576456"><ele>107.83333333333333</ele><time>2026-04-04T14:08:35.623Z</time></trkpt><trkpt lat="43.4995642" lon="10.7577655"><ele>108.66666666666666</ele><time>2026-04-04T14:08:36.621Z</time></trkpt><trkpt lat="43.4995695" lon="10.7578664"><ele>109.5</ele><time>2026-04-04T14:08:37.628Z</time></trkpt><trkpt lat="43.4995873" lon="10.7579583"><ele>110.33333333333334</ele><time>2026-04-04T14:08:38.629Z</time></trkpt><trkpt lat="43.4995921" lon="10.7580476"><ele>111.16666666666667</ele><time>2026-04-04T14:08:39.62Z</time></trkpt><trkpt lat="43.4995924" lon="10.7581522"><ele>112.0</ele><time>2026-04-04T14:08:40.625Z</time></trkpt><trkpt lat="43.499594" lon="10.7582755"><ele>112.00000000000001</ele><time>2026-04-04T14:08:41.625Z</time></trkpt><trkpt lat="43.4995967" lon="10.7583952"><ele>112.0</ele><time>2026-04-04T14:08:42.625Z</time></trkpt><trkpt lat="43.4996081" lon="10.7585139"><ele>112.0</ele><time>2026-04-04T14:08:43.622Z</time></trkpt><trkpt lat="43.4996102" lon="10.7586361"><ele>112.0</ele><time>2026-04-04T14:08:44.623Z</time></trkpt><trkpt lat="43.499619" lon="10.7587456"><ele>112.00000000000001</ele><time>2026-04-04T14:08:45.619Z</time></trkpt><trkpt lat="43.4996219" lon="10.7588493"><ele>112.0</ele><time>2026-04-04T14:08:46.622Z</time></trkpt><trkpt lat="43.4996216" lon="10.7589623"><ele>112.50000000000001</ele><time>2026-04-04T14:08:47.615Z</time></trkpt><trkpt lat="43.4996195" lon="10.7590772"><ele>113.0</ele><time>2026-04-04T14:08:48.64Z</time></trkpt><trkpt lat="43.4996276" lon="10.7591941"><ele>113.5</ele><time>2026-04-04T14:08:49.614Z</time></trkpt><trkpt lat="43.4996348" lon="10.7593191"><ele>114.0</ele><time>2026-04-04T14:08:50.621Z</time></trkpt><trkpt lat="43.4996389" lon="10.7594499"><ele>114.50000000000001</ele><time>2026-04-04T14:08:51.614Z</time></trkpt><trkpt lat="43.4996489" lon="10.7595789"><ele>115.0</ele><time>2026-04-04T14:08:52.626Z</time></trkpt><trkpt lat="43.4996641" lon="10.7597076"><ele>116.00000000000001</ele><time>2026-04-04T14:08:53.626Z</time></trkpt><trkpt lat="43.4996684" lon="10.7598334"><ele>117.0</ele><time>2026-04-04T14:08:54.623Z</time></trkpt><trkpt lat="43.4996688" lon="10.7599467"><ele>118.0</ele><time>2026-04-04T14:08:55.625Z</time></trkpt><trkpt lat="43.4996708" lon="10.7600645"><ele>119.0</ele><time>2026-04-04T14:08:56.627Z</time></trkpt><trkpt lat="43.4996803" lon="10.7601719"><ele>120.00000000000001</ele><time>2026-04-04T14:08:57.63Z</time></trkpt><trkpt lat="43.4997038" lon="10.7602955"><ele>121.0</ele><time>2026-04-04T14:08:58.626Z</time></trkpt><trkpt lat="43.499717" lon="10.7604115"><ele>121.50000000000001</ele><time>2026-04-04T14:08:59.628Z</time></trkpt><trkpt lat="43.4997352" lon="10.7605179"><ele>122.0</ele><time>2026-04-04T14:09:00.622Z</time></trkpt><trkpt lat="43.4997609" lon="10.7606326"><ele>122.5</ele><time>2026-04-04T14:09:01.622Z</time></trkpt><trkpt lat="43.499779" lon="10.7607419"><ele>123.0</ele><time>2026-04-04T14:09:02.631Z</time></trkpt><trkpt lat="43.499801" lon="10.7608517"><ele>123.50000000000001</ele><time>2026-04-04T14:09:03.629Z</time></trkpt><trkpt lat="43.4998294" lon="10.7609678"><ele>124.0</ele><time>2026-04-04T14:09:04.622Z</time></trkpt><trkpt lat="43.4998501" lon="10.7610809"><ele>124.33333333333334</ele><time>2026-04-04T14:09:05.626Z</time></trkpt><trkpt lat="43.4998745" lon="10.7611921"><ele>124.66666666666667</ele><time>2026-04-04T14:09:06.626Z</time></trkpt><trkpt lat="43.499907" lon="10.7613122"><ele>125.0</ele><time>2026-04-04T14:09:07.63Z</time></trkpt><trkpt lat="43.4999312" lon="10.7614196"><ele>125.33333333333334</ele><time>2026-04-04T14:09:08.628Z</time></trkpt><trkpt lat="43.4999577" lon="10.7615251"><ele>125.66666666666667</ele><time>2026-04-04T14:09:09.626Z</time></trkpt><trkpt lat="43.4999764" lon="10.761631"><ele>126.0</ele><time>2026-04-04T14:09:10.629Z</time></trkpt><trkpt lat="43.4999964" lon="10.7617361"><ele>126.0</ele><time>2026-04-04T14:09:11.631Z</time></trkpt><trkpt lat="43.5000288" lon="10.761829"><ele>126.0</ele><time>2026-04-04T14:09:12.631Z</time></trkpt><trkpt lat="43.5000683" lon="10.761929"><ele>126.0</ele><time>2026-04-04T14:09:13.625Z</time></trkpt><trkpt lat="43.500096" lon="10.762015"><ele>126.0</ele><time>2026-04-04T14:09:14.631Z</time></trkpt><trkpt lat="43.5001249" lon="10.7621054"><ele>126.0</ele><time>2026-04-04T14:09:15.633Z</time></trkpt><trkpt lat="43.5001527" lon="10.7621942"><ele>126.0</ele><time>2026-04-04T14:09:16.625Z</time></trkpt><trkpt lat="43.5001886" lon="10.7623106"><ele>126.66666666666667</ele><time>2026-04-04T14:09:17.625Z</time></trkpt><trkpt lat="43.5002238" lon="10.7624241"><ele>127.33333333333334</ele><time>2026-04-04T14:09:18.632Z</time></trkpt><trkpt lat="43.5002617" lon="10.7625172"><ele>128.0</ele><time>2026-04-04T14:09:19.628Z</time></trkpt><trkpt lat="43.5002892" lon="10.7626211"><ele>128.66666666666669</ele><time>2026-04-04T14:09:20.621Z</time></trkpt><trkpt lat="43.5003113" lon="10.7627076"><ele>129.33333333333334</ele><time>2026-04-04T14:09:21.626Z</time></trkpt><trkpt lat="43.5002964" lon="10.7628283"><ele>130.0</ele><time>2026-04-04T14:09:23.617Z</time></trkpt><trkpt lat="43.5002258" lon="10.7629195"><ele>130.0</ele><time>2026-04-04T14:09:26.625Z</time></trkpt><trkpt lat="43.5001322" lon="10.7629866"><ele>130.0</ele><time>2026-04-04T14:09:28.621Z</time></trkpt><trkpt lat="43.5000634" lon="10.7630179"><ele>130.0</ele><time>2026-04-04T14:09:30.626Z</time></trkpt><trkpt lat="43.5001176" lon="10.7630998"><ele>130.0</ele><time>2026-04-04T14:09:41.645Z</time></trkpt><trkpt lat="43.5002452" lon="10.7631426"><ele>130.0</ele><time>2026-04-04T14:09:43.634Z</time></trkpt><trkpt lat="43.5003153" lon="10.763169"><ele>130.0</ele><time>2026-04-04T14:09:44.633Z</time></trkpt><trkpt lat="43.5004007" lon="10.7631946"><ele>130.0</ele><time>2026-04-04T14:09:45.632Z</time></trkpt><trkpt lat="43.5005094" lon="10.7632259"><ele>130.0</ele><time>2026-04-04T14:09:46.63Z</time></trkpt><trkpt lat="43.5006169" lon="10.7632642"><ele>130.0</ele><time>2026-04-04T14:09:47.624Z</time></trkpt><trkpt lat="43.5007262" lon="10.7632998"><ele>130.0</ele><time>2026-04-04T14:09:48.641Z</time></trkpt><trkpt lat="43.5008413" lon="10.7633341"><ele>132.2</ele><time>2026-04-04T14:09:50.706Z</time></trkpt><trkpt lat="43.5009448" lon="10.763371"><ele>134.4</ele><time>2026-04-04T14:09:51.713Z</time></trkpt><trkpt lat="43.5010421" lon="10.7634123"><ele>136.6</ele><time>2026-04-04T14:09:52.713Z</time></trkpt><trkpt lat="43.5011196" lon="10.7634574"><ele>138.8</ele><time>2026-04-04T14:09:53.707Z</time></trkpt><trkpt lat="43.5011999" lon="10.7635297"><ele>141.0</ele><time>2026-04-04T14:09:54.715Z</time></trkpt><trkpt lat="43.5012765" lon="10.7636193"><ele>143.75</ele><time>2026-04-04T14:09:55.695Z</time></trkpt><trkpt lat="43.5013599" lon="10.7637334"><ele>146.5</ele><time>2026-04-04T14:09:56.698Z</time></trkpt><trkpt lat="43.5014559" lon="10.7638679"><ele>149.25</ele><time>2026-04-04T14:09:57.693Z</time></trkpt><trkpt lat="43.5015481" lon="10.7639902"><ele>152.0</ele><time>2026-04-04T14:09:58.687Z</time></trkpt><trkpt lat="43.5016266" lon="10.764084"><ele>152.0</ele><time>2026-04-04T14:09:59.702Z</time></trkpt><trkpt lat="43.501753" lon="10.7642855"><ele>152.0</ele><time>2026-04-04T14:10:00.615Z</time></trkpt><trkpt lat="43.5018204" lon="10.7644075"><ele>152.0</ele><time>2026-04-04T14:10:01.619Z</time></trkpt><trkpt lat="43.5018755" lon="10.764554"><ele>152.0</ele><time>2026-04-04T14:10:02.621Z</time></trkpt><trkpt lat="43.5019445" lon="10.7647128"><ele>151.75</ele><time>2026-04-04T14:10:03.612Z</time></trkpt><trkpt lat="43.5020245" lon="10.764853"><ele>151.5</ele><time>2026-04-04T14:10:04.608Z</time></trkpt><trkpt lat="43.5021186" lon="10.764992"><ele>151.25</ele><time>2026-04-04T14:10:05.61Z</time></trkpt><trkpt lat="43.5022182" lon="10.7651266"><ele>151.0</ele><time>2026-04-04T14:10:06.621Z</time></trkpt><trkpt lat="43.5023232" lon="10.765241"><ele>150.75</ele><time>2026-04-04T14:10:07.614Z</time></trkpt><trkpt lat="43.5024191" lon="10.7653526"><ele>150.5</ele><time>2026-04-04T14:10:08.616Z</time></trkpt><trkpt lat="43.5025135" lon="10.7654491"><ele>150.25</ele><time>2026-04-04T14:10:09.612Z</time></trkpt><trkpt lat="43.5026154" lon="10.7655266"><ele>150.0</ele><time>2026-04-04T14:10:10.614Z</time></trkpt><trkpt lat="43.5027356" lon="10.7655971"><ele>150.0</ele><time>2026-04-04T14:10:11.614Z</time></trkpt><trkpt lat="43.5028556" lon="10.7656499"><ele>150.0</ele><time>2026-04-04T14:10:12.61Z</time></trkpt><trkpt lat="43.5029912" lon="10.7656883"><ele>150.0</ele><time>2026-04-04T14:10:13.61Z</time></trkpt><trkpt lat="43.503135" lon="10.7657223"><ele>150.0</ele><time>2026-04-04T14:10:14.615Z</time></trkpt><trkpt lat="43.5032881" lon="10.7657464"><ele>151.4</ele><time>2026-04-04T14:10:15.62Z</time></trkpt><trkpt lat="43.5034168" lon="10.7657579"><ele>152.8</ele><time>2026-04-04T14:10:16.615Z</time></trkpt><trkpt lat="43.5035402" lon="10.7657601"><ele>154.2</ele><time>2026-04-04T14:10:17.61Z</time></trkpt><trkpt lat="43.5036504" lon="10.7657516"><ele>155.6</ele><time>2026-04-04T14:10:18.615Z</time></trkpt><trkpt lat="43.5037336" lon="10.7657561"><ele>157.0</ele><time>2026-04-04T14:10:19.605Z</time></trkpt><trkpt lat="43.503814" lon="10.7657574"><ele>159.39999999999998</ele><time>2026-04-04T14:10:20.603Z</time></trkpt><trkpt lat="43.5038954" lon="10.7657383"><ele>161.79999999999998</ele><time>2026-04-04T14:10:21.607Z</time></trkpt><trkpt lat="43.5039887" lon="10.7657347"><ele>164.2</ele><time>2026-04-04T14:10:22.609Z</time></trkpt><trkpt lat="43.50408" lon="10.7657543"><ele>166.6</ele><time>2026-04-04T14:10:23.606Z</time></trkpt><trkpt lat="43.5041722" lon="10.7657685"><ele>169.0</ele><time>2026-04-04T14:10:24.606Z</time></trkpt><trkpt lat="43.5042609" lon="10.7657956"><ele>169.0</ele><time>2026-04-04T14:10:25.607Z</time></trkpt><trkpt lat="43.5043445" lon="10.7658432"><ele>169.0</ele><time>2026-04-04T14:10:26.606Z</time></trkpt><trkpt lat="43.5044251" lon="10.7659026"><ele>169.0</ele><time>2026-04-04T14:10:27.601Z</time></trkpt><trkpt lat="43.5044955" lon="10.7659829"><ele>169.0</ele><time>2026-04-04T14:10:28.594Z</time></trkpt><trkpt lat="43.5045597" lon="10.7660738"><ele>169.0</ele><time>2026-04-04T14:10:29.593Z</time></trkpt><trkpt lat="43.5045827" lon="10.7661824"><ele>169.0</ele><time>2026-04-04T14:10:30.599Z</time></trkpt><trkpt lat="43.5046028" lon="10.766306"><ele>168.5</ele><time>2026-04-04T14:10:31.599Z</time></trkpt><trkpt lat="43.5046372" lon="10.7664256"><ele>168.0</ele><time>2026-04-04T14:10:32.599Z</time></trkpt><trkpt lat="43.5046746" lon="10.7665339"><ele>167.5</ele><time>2026-04-04T14:10:33.6Z</time></trkpt><trkpt lat="43.5047152" lon="10.7666353"><ele>167.0</ele><time>2026-04-04T14:10:34.598Z</time></trkpt><trkpt lat="43.5047513" lon="10.7667247"><ele>166.5</ele><time>2026-04-04T14:10:35.593Z</time></trkpt><trkpt lat="43.50478" lon="10.7668194"><ele>166.0</ele><time>2026-04-04T14:10:36.588Z</time></trkpt><trkpt lat="43.504832" lon="10.7669108"><ele>164.0</ele><time>2026-04-04T14:10:37.58Z</time></trkpt><trkpt lat="43.5048735" lon="10.7669878"><ele>162.0</ele><time>2026-04-04T14:10:38.586Z</time></trkpt><trkpt lat="43.5049313" lon="10.7670954"><ele>160.0</ele><time>2026-04-04T14:10:40.6Z</time></trkpt><trkpt lat="43.5050118" lon="10.7671258"><ele>158.0</ele><time>2026-04-04T14:10:42.6Z</time></trkpt><trkpt lat="43.5050721" lon="10.7671746"><ele>156.0</ele><time>2026-04-04T14:10:44.607Z</time></trkpt><trkpt lat="43.505055" lon="10.7672798"><ele>154.0</ele><time>2026-04-04T14:10:47.615Z</time></trkpt><trkpt lat="43.5049778" lon="10.7674411"><ele>154.0</ele><time>2026-04-04T14:10:49.6Z</time></trkpt><trkpt lat="43.5049473" lon="10.7675911"><ele>154.0</ele><time>2026-04-04T14:10:50.596Z</time></trkpt><trkpt lat="43.5049492" lon="10.7677608"><ele>154.0</ele><time>2026-04-04T14:10:51.596Z</time></trkpt><trkpt lat="43.5049373" lon="10.7679462"><ele>154.0</ele><time>2026-04-04T14:10:52.599Z</time></trkpt><trkpt lat="43.504893" lon="10.7681263"><ele>153.0</ele><time>2026-04-04T14:10:53.596Z</time></trkpt><trkpt lat="43.5048404" lon="10.768311"><ele>152.0</ele><time>2026-04-04T14:10:54.597Z</time></trkpt><trkpt lat="43.5047751" lon="10.7684865"><ele>151.0</ele><time>2026-04-04T14:10:55.598Z</time></trkpt><trkpt lat="43.504727" lon="10.7686502"><ele>150.0</ele><time>2026-04-04T14:10:56.598Z</time></trkpt><trkpt lat="43.5046895" lon="10.7688322"><ele>150.0</ele><time>2026-04-04T14:10:57.597Z</time></trkpt><trkpt lat="43.5046856" lon="10.7690246"><ele>150.0</ele><time>2026-04-04T14:10:58.593Z</time></trkpt><trkpt lat="43.5047121" lon="10.7691968"><ele>150.0</ele><time>2026-04-04T14:10:59.597Z</time></trkpt><trkpt lat="43.5047918" lon="10.7693827"><ele>150.0</ele><time>2026-04-04T14:11:00.612Z</time></trkpt><trkpt lat="43.504874" lon="10.7695342"><ele>152.5</ele><time>2026-04-04T14:11:01.617Z</time></trkpt><trkpt lat="43.5049914" lon="10.7696604"><ele>155.0</ele><time>2026-04-04T14:11:02.617Z</time></trkpt><trkpt lat="43.5050459" lon="10.7697874"><ele>157.5</ele><time>2026-04-04T14:11:03.612Z</time></trkpt><trkpt lat="43.5050928" lon="10.7699336"><ele>160.0</ele><time>2026-04-04T14:11:04.613Z</time></trkpt><trkpt lat="43.5051034" lon="10.7701088"><ele>161.25</ele><time>2026-04-04T14:11:05.61Z</time></trkpt><trkpt lat="43.5050903" lon="10.7702835"><ele>162.5</ele><time>2026-04-04T14:11:06.615Z</time></trkpt><trkpt lat="43.5050723" lon="10.7704628"><ele>163.75</ele><time>2026-04-04T14:11:07.617Z</time></trkpt><trkpt lat="43.5050543" lon="10.7706434"><ele>165.0</ele><time>2026-04-04T14:11:08.616Z</time></trkpt><trkpt lat="43.5050261" lon="10.7708558"><ele>165.25</ele><time>2026-04-04T14:11:09.621Z</time></trkpt><trkpt lat="43.5050028" lon="10.7710536"><ele>165.5</ele><time>2026-04-04T14:11:10.617Z</time></trkpt><trkpt lat="43.5050072" lon="10.7712523"><ele>165.75</ele><time>2026-04-04T14:11:11.621Z</time></trkpt><trkpt lat="43.5050539" lon="10.7714551"><ele>166.0</ele><time>2026-04-04T14:11:12.606Z</time></trkpt><trkpt lat="43.5051001" lon="10.7716513"><ele>164.0</ele><time>2026-04-04T14:11:13.612Z</time></trkpt><trkpt lat="43.5051573" lon="10.7718689"><ele>162.0</ele><time>2026-04-04T14:11:14.611Z</time></trkpt><trkpt lat="43.5052413" lon="10.7720659"><ele>160.0</ele><time>2026-04-04T14:11:15.612Z</time></trkpt><trkpt lat="43.5053172" lon="10.7722425"><ele>160.0</ele><time>2026-04-04T14:11:16.605Z</time></trkpt><trkpt lat="43.5054071" lon="10.772403"><ele>160.0</ele><time>2026-04-04T14:11:17.609Z</time></trkpt><trkpt lat="43.505508" lon="10.7725604"><ele>160.0</ele><time>2026-04-04T14:11:18.615Z</time></trkpt><trkpt lat="43.505672" lon="10.7726612"><ele>164.33333333333334</ele><time>2026-04-04T14:11:19.617Z</time></trkpt><trkpt lat="43.5058407" lon="10.7727545"><ele>168.66666666666666</ele><time>2026-04-04T14:11:20.62Z</time></trkpt><trkpt lat="43.5059941" lon="10.772853"><ele>173.0</ele><time>2026-04-04T14:11:21.617Z</time></trkpt><trkpt lat="43.5061515" lon="10.7729427"><ele>174.33333333333331</ele><time>2026-04-04T14:11:22.615Z</time></trkpt><trkpt lat="43.506314" lon="10.7730093"><ele>175.66666666666666</ele><time>2026-04-04T14:11:23.607Z</time></trkpt><trkpt lat="43.5064846" lon="10.773045"><ele>177.0</ele><time>2026-04-04T14:11:24.608Z</time></trkpt><trkpt lat="43.5066094" lon="10.7730273"><ele>177.0</ele><time>2026-04-04T14:11:25.605Z</time></trkpt><trkpt lat="43.5067253" lon="10.7730654"><ele>177.0</ele><time>2026-04-04T14:11:26.604Z</time></trkpt><trkpt lat="43.5068614" lon="10.7731108"><ele>177.0</ele><time>2026-04-04T14:11:27.615Z</time></trkpt><trkpt lat="43.5069586" lon="10.7731773"><ele>177.0</ele><time>2026-04-04T14:11:28.606Z</time></trkpt><trkpt lat="43.5070437" lon="10.7732551"><ele>177.0</ele><time>2026-04-04T14:11:29.61Z</time></trkpt><trkpt lat="43.5071444" lon="10.7733395"><ele>177.0</ele><time>2026-04-04T14:11:30.616Z</time></trkpt><trkpt lat="43.5072589" lon="10.7734313"><ele>177.0</ele><time>2026-04-04T14:11:31.609Z</time></trkpt><trkpt lat="43.5074117" lon="10.7734671"><ele>177.0</ele><time>2026-04-04T14:11:32.604Z</time></trkpt><trkpt lat="43.5075795" lon="10.7734804"><ele>177.0</ele><time>2026-04-04T14:11:33.596Z</time></trkpt><trkpt lat="43.5077396" lon="10.7734702"><ele>177.0</ele><time>2026-04-04T14:11:34.593Z</time></trkpt><trkpt lat="43.5078442" lon="10.773477"><ele>177.0</ele><time>2026-04-04T14:11:35.596Z</time></trkpt><trkpt lat="43.5079535" lon="10.773483"><ele>177.0</ele><time>2026-04-04T14:11:36.597Z</time></trkpt><trkpt lat="43.5080381" lon="10.7734987"><ele>174.2</ele><time>2026-04-04T14:11:37.606Z</time></trkpt><trkpt lat="43.5081425" lon="10.7735379"><ele>171.39999999999998</ele><time>2026-04-04T14:11:39.604Z</time></trkpt><trkpt lat="43.5082263" lon="10.7735862"><ele>168.60000000000002</ele><time>2026-04-04T14:11:40.607Z</time></trkpt><trkpt lat="43.5083079" lon="10.7736487"><ele>165.8</ele><time>2026-04-04T14:11:41.609Z</time></trkpt><trkpt lat="43.5083897" lon="10.7737135"><ele>163.0</ele><time>2026-04-04T14:11:42.606Z</time></trkpt><trkpt lat="43.5084711" lon="10.7737883"><ele>163.0</ele><time>2026-04-04T14:11:43.603Z</time></trkpt><trkpt lat="43.5085615" lon="10.77388"><ele>163.0</ele><time>2026-04-04T14:11:44.6Z</time></trkpt><trkpt lat="43.50867" lon="10.7739747"><ele>163.0</ele><time>2026-04-04T14:11:45.599Z</time></trkpt><trkpt lat="43.5087708" lon="10.7740514"><ele>163.0</ele><time>2026-04-04T14:11:46.594Z</time></trkpt><trkpt lat="43.508848" lon="10.7741153"><ele>163.0</ele><time>2026-04-04T14:11:47.598Z</time></trkpt><trkpt lat="43.5089076" lon="10.7741629"><ele>162.16666666666669</ele><time>2026-04-04T14:11:48.595Z</time></trkpt><trkpt lat="43.5089531" lon="10.7742971"><ele>161.33333333333334</ele><time>2026-04-04T14:11:50.598Z</time></trkpt><trkpt lat="43.5089235" lon="10.774377"><ele>160.5</ele><time>2026-04-04T14:11:51.593Z</time></trkpt><trkpt lat="43.5088829" lon="10.7744727"><ele>159.66666666666666</ele><time>2026-04-04T14:11:52.606Z</time></trkpt><trkpt lat="43.5088466" lon="10.7745888"><ele>158.83333333333331</ele><time>2026-04-04T14:11:53.603Z</time></trkpt><trkpt lat="43.5088396" lon="10.7747071"><ele>158.0</ele><time>2026-04-04T14:11:54.605Z</time></trkpt><trkpt lat="43.5088535" lon="10.7748102"><ele>158.0</ele><time>2026-04-04T14:11:55.606Z</time></trkpt><trkpt lat="43.5089034" lon="10.7748963"><ele>158.0</ele><time>2026-04-04T14:11:56.605Z</time></trkpt><trkpt lat="43.5089939" lon="10.7749511"><ele>158.0</ele><time>2026-04-04T14:11:57.608Z</time></trkpt><trkpt lat="43.5090817" lon="10.774972"><ele>158.0</ele><time>2026-04-04T14:11:58.611Z</time></trkpt><trkpt lat="43.5091767" lon="10.7749451"><ele>158.0</ele><time>2026-04-04T14:11:59.607Z</time></trkpt><trkpt lat="43.5092709" lon="10.7748705"><ele>158.0</ele><time>2026-04-04T14:12:00.607Z</time></trkpt><trkpt lat="43.5093681" lon="10.7747682"><ele>158.0</ele><time>2026-04-04T14:12:01.605Z</time></trkpt><trkpt lat="43.5094486" lon="10.7746707"><ele>158.0</ele><time>2026-04-04T14:12:02.607Z</time></trkpt><trkpt lat="43.509533" lon="10.7746172"><ele>158.0</ele><time>2026-04-04T14:12:03.601Z</time></trkpt><trkpt lat="43.5096073" lon="10.7746046"><ele>158.0</ele><time>2026-04-04T14:12:04.6Z</time></trkpt><trkpt lat="43.50967" lon="10.7746145"><ele>156.33333333333331</ele><time>2026-04-04T14:12:05.606Z</time></trkpt><trkpt lat="43.5097279" lon="10.7746753"><ele>154.66666666666666</ele><time>2026-04-04T14:12:06.606Z</time></trkpt><trkpt lat="43.5097378" lon="10.7747622"><ele>153.0</ele><time>2026-04-04T14:12:07.604Z</time></trkpt><trkpt lat="43.5097274" lon="10.7748617"><ele>151.33333333333334</ele><time>2026-04-04T14:12:08.609Z</time></trkpt><trkpt lat="43.5096817" lon="10.7749783"><ele>149.66666666666669</ele><time>2026-04-04T14:12:09.598Z</time></trkpt><trkpt lat="43.5096082" lon="10.7750926"><ele>148.0</ele><time>2026-04-04T14:12:10.603Z</time></trkpt><trkpt lat="43.5095387" lon="10.775204"><ele>146.33333333333334</ele><time>2026-04-04T14:12:11.604Z</time></trkpt><trkpt lat="43.5094774" lon="10.7753128"><ele>144.66666666666669</ele><time>2026-04-04T14:12:12.602Z</time></trkpt><trkpt lat="43.5094416" lon="10.7754084"><ele>143.0</ele><time>2026-04-04T14:12:13.6Z</time></trkpt><trkpt lat="43.5094713" lon="10.7755302"><ele>141.33333333333334</ele><time>2026-04-04T14:12:15.604Z</time></trkpt><trkpt lat="43.5095393" lon="10.7755608"><ele>139.66666666666666</ele><time>2026-04-04T14:12:16.604Z</time></trkpt><trkpt lat="43.5096309" lon="10.7755763"><ele>138.0</ele><time>2026-04-04T14:12:17.6Z</time></trkpt><trkpt lat="43.5097227" lon="10.7756217"><ele>138.0</ele><time>2026-04-04T14:12:18.61Z</time></trkpt><trkpt lat="43.509825" lon="10.7757046"><ele>138.0</ele><time>2026-04-04T14:12:19.61Z</time></trkpt><trkpt lat="43.5099222" lon="10.7758234"><ele>138.0</ele><time>2026-04-04T14:12:20.609Z</time></trkpt><trkpt lat="43.5100237" lon="10.7759812"><ele>138.0</ele><time>2026-04-04T14:12:21.602Z</time></trkpt><trkpt lat="43.5101206" lon="10.7761511"><ele>135.33333333333334</ele><time>2026-04-04T14:12:22.607Z</time></trkpt><trkpt lat="43.5102299" lon="10.7763039"><ele>132.66666666666669</ele><time>2026-04-04T14:12:23.612Z</time></trkpt><trkpt lat="43.5103463" lon="10.7764569"><ele>130.0</ele><time>2026-04-04T14:12:24.615Z</time></trkpt><trkpt lat="43.5104491" lon="10.7765765"><ele>130.0</ele><time>2026-04-04T14:12:25.615Z</time></trkpt><trkpt lat="43.5105826" lon="10.7767266"><ele>130.0</ele><time>2026-04-04T14:12:26.609Z</time></trkpt><trkpt lat="43.5106868" lon="10.7768867"><ele>130.0</ele><time>2026-04-04T14:12:27.612Z</time></trkpt><trkpt lat="43.5107924" lon="10.7770545"><ele>130.25</ele><time>2026-04-04T14:12:28.614Z</time></trkpt><trkpt lat="43.5108826" lon="10.7772316"><ele>130.5</ele><time>2026-04-04T14:12:29.623Z</time></trkpt><trkpt lat="43.5109839" lon="10.7774015"><ele>130.75</ele><time>2026-04-04T14:12:30.621Z</time></trkpt><trkpt lat="43.5110699" lon="10.7775392"><ele>131.0</ele><time>2026-04-04T14:12:31.619Z</time></trkpt><trkpt lat="43.5112006" lon="10.7776678"><ele>130.0</ele><time>2026-04-04T14:12:32.618Z</time></trkpt><trkpt lat="43.5112779" lon="10.7778004"><ele>129.0</ele><time>2026-04-04T14:12:33.62Z</time></trkpt><trkpt lat="43.5113914" lon="10.7779115"><ele>128.0</ele><time>2026-04-04T14:12:34.618Z</time></trkpt><trkpt lat="43.5114857" lon="10.7780399"><ele>127.0</ele><time>2026-04-04T14:12:35.615Z</time></trkpt><trkpt lat="43.5115839" lon="10.7781616"><ele>127.0</ele><time>2026-04-04T14:12:36.618Z</time></trkpt><trkpt lat="43.5117028" lon="10.7782758"><ele>127.0</ele><time>2026-04-04T14:12:37.617Z</time></trkpt><trkpt lat="43.5117987" lon="10.7784191"><ele>127.0</ele><time>2026-04-04T14:12:38.618Z</time></trkpt><trkpt lat="43.5118708" lon="10.7785885"><ele>127.0</ele><time>2026-04-04T14:12:39.617Z</time></trkpt><trkpt lat="43.511902" lon="10.7787968"><ele>125.66666666666667</ele><time>2026-04-04T14:12:40.62Z</time></trkpt><trkpt lat="43.5119802" lon="10.7789633"><ele>124.33333333333334</ele><time>2026-04-04T14:12:41.621Z</time></trkpt><trkpt lat="43.5121038" lon="10.7791174"><ele>123.0</ele><time>2026-04-04T14:12:42.626Z</time></trkpt><trkpt lat="43.5122405" lon="10.7792756"><ele>122.0</ele><time>2026-04-04T14:12:43.629Z</time></trkpt><trkpt lat="43.5123492" lon="10.7794345"><ele>121.0</ele><time>2026-04-04T14:12:44.633Z</time></trkpt><trkpt lat="43.5124708" lon="10.7795903"><ele>120.0</ele><time>2026-04-04T14:12:45.634Z</time></trkpt><trkpt lat="43.5125876" lon="10.7797394"><ele>120.0</ele><time>2026-04-04T14:12:47.705Z</time></trkpt><trkpt lat="43.5126973" lon="10.7799015"><ele>120.0</ele><time>2026-04-04T14:12:48.707Z</time></trkpt><trkpt lat="43.5127966" lon="10.7800545"><ele>120.0</ele><time>2026-04-04T14:12:49.703Z</time></trkpt><trkpt lat="43.5129858" lon="10.780333"><ele>118.25</ele><time>2026-04-04T14:12:50.619Z</time></trkpt><trkpt lat="43.5130616" lon="10.7804566"><ele>116.5</ele><time>2026-04-04T14:12:51.613Z</time></trkpt><trkpt lat="43.5131576" lon="10.7805582"><ele>114.75</ele><time>2026-04-04T14:12:52.602Z</time></trkpt><trkpt lat="43.5132569" lon="10.7806332"><ele>113.0</ele><time>2026-04-04T14:12:53.609Z</time></trkpt><trkpt lat="43.5133577" lon="10.780687"><ele>113.0</ele><time>2026-04-04T14:12:54.621Z</time></trkpt><trkpt lat="43.5134687" lon="10.7807153"><ele>113.0</ele><time>2026-04-04T14:12:55.615Z</time></trkpt><trkpt lat="43.5136122" lon="10.7807358"><ele>113.0</ele><time>2026-04-04T14:12:56.613Z</time></trkpt><trkpt lat="43.5137293" lon="10.7808205"><ele>113.0</ele><time>2026-04-04T14:12:57.614Z</time></trkpt><trkpt lat="43.5138311" lon="10.780966"><ele>111.5</ele><time>2026-04-04T14:12:58.603Z</time></trkpt><trkpt lat="43.5139174" lon="10.7810997"><ele>110.0</ele><time>2026-04-04T14:12:59.609Z</time></trkpt><trkpt lat="43.5140094" lon="10.7812364"><ele>108.5</ele><time>2026-04-04T14:13:00.617Z</time></trkpt><trkpt lat="43.5141035" lon="10.781399"><ele>107.0</ele><time>2026-04-04T14:13:01.605Z</time></trkpt><trkpt lat="43.5141818" lon="10.7816024"><ele>107.0</ele><time>2026-04-04T14:13:02.605Z</time></trkpt><trkpt lat="43.5142673" lon="10.7818334"><ele>107.0</ele><time>2026-04-04T14:13:03.605Z</time></trkpt><trkpt lat="43.5143387" lon="10.7820679"><ele>107.0</ele><time>2026-04-04T14:13:04.607Z</time></trkpt><trkpt lat="43.5144028" lon="10.7823366"><ele>107.33333333333333</ele><time>2026-04-04T14:13:05.61Z</time></trkpt><trkpt lat="43.5144407" lon="10.7826035"><ele>107.66666666666666</ele><time>2026-04-04T14:13:06.612Z</time></trkpt><trkpt lat="43.5144653" lon="10.782857"><ele>108.0</ele><time>2026-04-04T14:13:07.621Z</time></trkpt><trkpt lat="43.5145179" lon="10.783092"><ele>109.0</ele><time>2026-04-04T14:13:08.622Z</time></trkpt><trkpt lat="43.5145615" lon="10.7833085"><ele>110.0</ele><time>2026-04-04T14:13:09.621Z</time></trkpt><trkpt lat="43.5146463" lon="10.7835475"><ele>111.0</ele><time>2026-04-04T14:13:10.615Z</time></trkpt><trkpt lat="43.5147503" lon="10.7837832"><ele>111.0</ele><time>2026-04-04T14:13:11.613Z</time></trkpt><trkpt lat="43.5148233" lon="10.7840087"><ele>111.0</ele><time>2026-04-04T14:13:12.611Z</time></trkpt><trkpt lat="43.514892" lon="10.7841744"><ele>111.0</ele><time>2026-04-04T14:13:13.615Z</time></trkpt><trkpt lat="43.5149636" lon="10.7843374"><ele>109.5</ele><time>2026-04-04T14:13:14.615Z</time></trkpt><trkpt lat="43.5150361" lon="10.7845008"><ele>108.0</ele><time>2026-04-04T14:13:15.621Z</time></trkpt><trkpt lat="43.5151023" lon="10.7846709"><ele>106.5</ele><time>2026-04-04T14:13:16.62Z</time></trkpt><trkpt lat="43.5151776" lon="10.7848252"><ele>105.0</ele><time>2026-04-04T14:13:17.614Z</time></trkpt><trkpt lat="43.5152623" lon="10.7849757"><ele>105.0</ele><time>2026-04-04T14:13:18.614Z</time></trkpt><trkpt lat="43.5153801" lon="10.7851107"><ele>105.0</ele><time>2026-04-04T14:13:19.616Z</time></trkpt><trkpt lat="43.5155084" lon="10.7852499"><ele>105.0</ele><time>2026-04-04T14:13:20.614Z</time></trkpt><trkpt lat="43.5156352" lon="10.7853734"><ele>105.5</ele><time>2026-04-04T14:13:21.612Z</time></trkpt><trkpt lat="43.5157443" lon="10.7854903"><ele>106.0</ele><time>2026-04-04T14:13:22.621Z</time></trkpt><trkpt lat="43.5158407" lon="10.7855984"><ele>106.5</ele><time>2026-04-04T14:13:23.613Z</time></trkpt><trkpt lat="43.5158991" lon="10.7857072"><ele>107.0</ele><time>2026-04-04T14:13:24.616Z</time></trkpt><trkpt lat="43.5159703" lon="10.7858363"><ele>106.99999999999999</ele><time>2026-04-04T14:13:25.61Z</time></trkpt><trkpt lat="43.515995" lon="10.7859655"><ele>107.0</ele><time>2026-04-04T14:13:26.617Z</time></trkpt><trkpt lat="43.5160113" lon="10.7860912"><ele>107.0</ele><time>2026-04-04T14:13:27.61Z</time></trkpt><trkpt lat="43.5159805" lon="10.7862058"><ele>107.0</ele><time>2026-04-04T14:13:28.613Z</time></trkpt><trkpt lat="43.5159486" lon="10.7862897"><ele>106.99999999999999</ele><time>2026-04-04T14:13:29.611Z</time></trkpt><trkpt lat="43.5158639" lon="10.7863368"><ele>107.0</ele><time>2026-04-04T14:13:30.609Z</time></trkpt><trkpt lat="43.515778" lon="10.7863546"><ele>104.75</ele><time>2026-04-04T14:13:31.614Z</time></trkpt><trkpt lat="43.5156933" lon="10.7863273"><ele>102.5</ele><time>2026-04-04T14:13:32.612Z</time></trkpt><trkpt lat="43.515586" lon="10.7862776"><ele>100.25</ele><time>2026-04-04T14:13:33.611Z</time></trkpt><trkpt lat="43.5154591" lon="10.786225"><ele>98.0</ele><time>2026-04-04T14:13:34.611Z</time></trkpt><trkpt lat="43.5153196" lon="10.7861782"><ele>95.0</ele><time>2026-04-04T14:13:35.607Z</time></trkpt><trkpt lat="43.5151675" lon="10.7861115"><ele>92.0</ele><time>2026-04-04T14:13:36.606Z</time></trkpt><trkpt lat="43.5150283" lon="10.7860543"><ele>89.0</ele><time>2026-04-04T14:13:37.616Z</time></trkpt><trkpt lat="43.5148742" lon="10.7860131"><ele>87.80000000000001</ele><time>2026-04-04T14:13:38.61Z</time></trkpt><trkpt lat="43.5147591" lon="10.7859959"><ele>86.60000000000001</ele><time>2026-04-04T14:13:39.609Z</time></trkpt><trkpt lat="43.5146327" lon="10.7859702"><ele>85.4</ele><time>2026-04-04T14:13:40.604Z</time></trkpt><trkpt lat="43.5145625" lon="10.7859988"><ele>84.2</ele><time>2026-04-04T14:13:41.603Z</time></trkpt><trkpt lat="43.5144769" lon="10.7860285"><ele>83.0</ele><time>2026-04-04T14:13:42.6Z</time></trkpt><trkpt lat="43.5144081" lon="10.7861179"><ele>82.75</ele><time>2026-04-04T14:13:43.601Z</time></trkpt><trkpt lat="43.5143129" lon="10.7862413"><ele>82.5</ele><time>2026-04-04T14:13:44.594Z</time></trkpt><trkpt lat="43.5142294" lon="10.7864097"><ele>82.25</ele><time>2026-04-04T14:13:45.599Z</time></trkpt><trkpt lat="43.5141639" lon="10.7865552"><ele>82.0</ele><time>2026-04-04T14:13:46.607Z</time></trkpt><trkpt lat="43.5140939" lon="10.7866373"><ele>82.0</ele><time>2026-04-04T14:13:47.6Z</time></trkpt><trkpt lat="43.514015" lon="10.7867577"><ele>82.0</ele><time>2026-04-04T14:13:48.609Z</time></trkpt><trkpt lat="43.5139505" lon="10.7869148"><ele>82.0</ele><time>2026-04-04T14:13:49.607Z</time></trkpt><trkpt lat="43.5138962" lon="10.7870963"><ele>82.0</ele><time>2026-04-04T14:13:50.611Z</time></trkpt><trkpt lat="43.5138555" lon="10.7873024"><ele>80.66666666666666</ele><time>2026-04-04T14:13:51.612Z</time></trkpt><trkpt lat="43.5138378" lon="10.7875299"><ele>79.33333333333333</ele><time>2026-04-04T14:13:52.616Z</time></trkpt><trkpt lat="43.5138181" lon="10.7877651"><ele>78.0</ele><time>2026-04-04T14:13:53.617Z</time></trkpt><trkpt lat="43.5138036" lon="10.787934"><ele>76.75</ele><time>2026-04-04T14:13:54.616Z</time></trkpt><trkpt lat="43.5138055" lon="10.7880999"><ele>75.5</ele><time>2026-04-04T14:13:55.609Z</time></trkpt><trkpt lat="43.5138449" lon="10.7882679"><ele>74.25</ele><time>2026-04-04T14:13:56.617Z</time></trkpt><trkpt lat="43.5139062" lon="10.7884456"><ele>73.0</ele><time>2026-04-04T14:13:57.618Z</time></trkpt><trkpt lat="43.5139814" lon="10.7886342"><ele>72.66666666666666</ele><time>2026-04-04T14:13:58.625Z</time></trkpt><trkpt lat="43.5140849" lon="10.7888717"><ele>72.33333333333333</ele><time>2026-04-04T14:13:59.624Z</time></trkpt><trkpt lat="43.5141717" lon="10.7890823"><ele>72.0</ele><time>2026-04-04T14:14:00.621Z</time></trkpt><trkpt lat="43.5142678" lon="10.7892844"><ele>72.0</ele><time>2026-04-04T14:14:01.621Z</time></trkpt><trkpt lat="43.5143704" lon="10.7894996"><ele>72.0</ele><time>2026-04-04T14:14:02.616Z</time></trkpt><trkpt lat="43.5144455" lon="10.7896756"><ele>72.0</ele><time>2026-04-04T14:14:03.611Z</time></trkpt><trkpt lat="43.5145035" lon="10.7898467"><ele>72.0</ele><time>2026-04-04T14:14:04.612Z</time></trkpt><trkpt lat="43.5145283" lon="10.7899359"><ele>72.0</ele><time>2026-04-04T14:14:05.615Z</time></trkpt><trkpt lat="43.5145851" lon="10.7900285"><ele>72.0</ele><time>2026-04-04T14:14:15.61Z</time></trkpt><trkpt lat="43.5147239" lon="10.7900505"><ele>72.0</ele><time>2026-04-04T14:14:17.608Z</time></trkpt><trkpt lat="43.5148188" lon="10.7900437"><ele>72.0</ele><time>2026-04-04T14:14:18.608Z</time></trkpt><trkpt lat="43.5149231" lon="10.7900497"><ele>71.66666666666667</ele><time>2026-04-04T14:14:19.603Z</time></trkpt><trkpt lat="43.5150679" lon="10.7900942"><ele>71.33333333333334</ele><time>2026-04-04T14:14:20.621Z</time></trkpt><trkpt lat="43.5152118" lon="10.7901006"><ele>71.0</ele><time>2026-04-04T14:14:21.617Z</time></trkpt><trkpt lat="43.5153753" lon="10.790114"><ele>71.0</ele><time>2026-04-04T14:14:22.619Z</time></trkpt><trkpt lat="43.5155634" lon="10.7901422"><ele>71.0</ele><time>2026-04-04T14:14:23.619Z</time></trkpt><trkpt lat="43.5157437" lon="10.7901761"><ele>71.0</ele><time>2026-04-04T14:14:24.617Z</time></trkpt><trkpt lat="43.5159416" lon="10.7902018"><ele>71.0</ele><time>2026-04-04T14:14:25.616Z</time></trkpt><trkpt lat="43.5161452" lon="10.7902206"><ele>71.0</ele><time>2026-04-04T14:14:26.621Z</time></trkpt><trkpt lat="43.5163498" lon="10.7902581"><ele>71.0</ele><time>2026-04-04T14:14:27.616Z</time></trkpt><trkpt lat="43.5165538" lon="10.7902793"><ele>72.0</ele><time>2026-04-04T14:14:28.619Z</time></trkpt><trkpt lat="43.5168108" lon="10.7903312"><ele>73.0</ele><time>2026-04-04T14:14:29.611Z</time></trkpt><trkpt lat="43.5170464" lon="10.7903585"><ele>72.33333333333333</ele><time>2026-04-04T14:14:30.629Z</time></trkpt><trkpt lat="43.5172429" lon="10.7904104"><ele>71.66666666666667</ele><time>2026-04-04T14:14:31.616Z</time></trkpt><trkpt lat="43.5174631" lon="10.7904328"><ele>71.0</ele><time>2026-04-04T14:14:32.624Z</time></trkpt><trkpt lat="43.5176377" lon="10.7904479"><ele>71.0</ele><time>2026-04-04T14:14:33.622Z</time></trkpt><trkpt lat="43.5177997" lon="10.7904689"><ele>71.0</ele><time>2026-04-04T14:14:34.618Z</time></trkpt><trkpt lat="43.5179516" lon="10.7904834"><ele>71.0</ele><time>2026-04-04T14:14:35.618Z</time></trkpt><trkpt lat="43.5180954" lon="10.7904612"><ele>71.0</ele><time>2026-04-04T14:14:36.616Z</time></trkpt><trkpt lat="43.5182194" lon="10.7904025"><ele>71.0</ele><time>2026-04-04T14:14:37.618Z</time></trkpt><trkpt lat="43.5183324" lon="10.7903291"><ele>71.0</ele><time>2026-04-04T14:14:38.614Z</time></trkpt><trkpt lat="43.5184325" lon="10.7902247"><ele>71.0</ele><time>2026-04-04T14:14:39.614Z</time></trkpt><trkpt lat="43.5185493" lon="10.7900944"><ele>71.33333333333334</ele><time>2026-04-04T14:14:40.62Z</time></trkpt><trkpt lat="43.5186701" lon="10.7899493"><ele>71.66666666666667</ele><time>2026-04-04T14:14:41.622Z</time></trkpt><trkpt lat="43.5187963" lon="10.7897982"><ele>72.0</ele><time>2026-04-04T14:14:42.622Z</time></trkpt><trkpt lat="43.5189334" lon="10.7896628"><ele>72.0</ele><time>2026-04-04T14:14:43.624Z</time></trkpt><trkpt lat="43.5190727" lon="10.7895148"><ele>72.0</ele><time>2026-04-04T14:14:44.625Z</time></trkpt><trkpt lat="43.5192212" lon="10.7893627"><ele>72.0</ele><time>2026-04-04T14:14:45.633Z</time></trkpt><trkpt lat="43.5193488" lon="10.7892081"><ele>72.0</ele><time>2026-04-04T14:14:46.627Z</time></trkpt><trkpt lat="43.5194899" lon="10.7890638"><ele>72.0</ele><time>2026-04-04T14:14:48.705Z</time></trkpt><trkpt lat="43.519616" lon="10.7888883"><ele>72.0</ele><time>2026-04-04T14:14:49.699Z</time></trkpt><trkpt lat="43.5197406" lon="10.7886852"><ele>71.66666666666667</ele><time>2026-04-04T14:14:50.688Z</time></trkpt><trkpt lat="43.5198691" lon="10.788458"><ele>71.33333333333334</ele><time>2026-04-04T14:14:51.681Z</time></trkpt><trkpt lat="43.5200014" lon="10.7882197"><ele>71.0</ele><time>2026-04-04T14:14:52.681Z</time></trkpt><trkpt lat="43.5201282" lon="10.787985"><ele>71.0</ele><time>2026-04-04T14:14:53.683Z</time></trkpt><trkpt lat="43.5202515" lon="10.7877656"><ele>71.0</ele><time>2026-04-04T14:14:54.696Z</time></trkpt><trkpt lat="43.5203691" lon="10.7875492"><ele>71.0</ele><time>2026-04-04T14:14:55.697Z</time></trkpt><trkpt lat="43.5204828" lon="10.7873422"><ele>70.33333333333334</ele><time>2026-04-04T14:14:56.697Z</time></trkpt><trkpt lat="43.5205944" lon="10.7871429"><ele>69.66666666666667</ele><time>2026-04-04T14:14:57.699Z</time></trkpt><trkpt lat="43.5207026" lon="10.7869504"><ele>69.0</ele><time>2026-04-04T14:14:58.703Z</time></trkpt><trkpt lat="43.5207819" lon="10.7867642"><ele>69.0</ele><time>2026-04-04T14:14:59.709Z</time></trkpt><trkpt lat="43.5208745" lon="10.7865697"><ele>69.0</ele><time>2026-04-04T14:15:00.701Z</time></trkpt><trkpt lat="43.5209622" lon="10.7863833"><ele>69.0</ele><time>2026-04-04T14:15:01.698Z</time></trkpt><trkpt lat="43.5210468" lon="10.786211"><ele>69.0</ele><time>2026-04-04T14:15:02.695Z</time></trkpt><trkpt lat="43.5211215" lon="10.7860593"><ele>69.0</ele><time>2026-04-04T14:15:03.694Z</time></trkpt><trkpt lat="43.5212144" lon="10.7859324"><ele>69.0</ele><time>2026-04-04T14:15:04.694Z</time></trkpt><trkpt lat="43.5212997" lon="10.7858112"><ele>69.0</ele><time>2026-04-04T14:15:05.676Z</time></trkpt><trkpt lat="43.5214094" lon="10.7857087"><ele>68.5</ele><time>2026-04-04T14:15:06.682Z</time></trkpt><trkpt lat="43.5215219" lon="10.7856251"><ele>68.0</ele><time>2026-04-04T14:15:07.686Z</time></trkpt><trkpt lat="43.521651" lon="10.7855488"><ele>67.5</ele><time>2026-04-04T14:15:08.678Z</time></trkpt><trkpt lat="43.5217894" lon="10.7854802"><ele>67.0</ele><time>2026-04-04T14:15:09.687Z</time></trkpt><trkpt lat="43.5219298" lon="10.7854108"><ele>67.5</ele><time>2026-04-04T14:15:10.685Z</time></trkpt><trkpt lat="43.522069" lon="10.7853314"><ele>68.0</ele><time>2026-04-04T14:15:11.685Z</time></trkpt><trkpt lat="43.5221812" lon="10.7852765"><ele>68.5</ele><time>2026-04-04T14:15:12.69Z</time></trkpt><trkpt lat="43.5222758" lon="10.7852169"><ele>69.0</ele><time>2026-04-04T14:15:13.692Z</time></trkpt><trkpt lat="43.5223501" lon="10.7851894"><ele>69.0</ele><time>2026-04-04T14:15:14.694Z</time></trkpt><trkpt lat="43.5224235" lon="10.7852759"><ele>69.0</ele><time>2026-04-04T14:15:16.689Z</time></trkpt><trkpt lat="43.5224942" lon="10.7854025"><ele>69.0</ele><time>2026-04-04T14:15:18.697Z</time></trkpt><trkpt lat="43.5225499" lon="10.7855527"><ele>69.0</ele><time>2026-04-04T14:15:20.691Z</time></trkpt><trkpt lat="43.5225685" lon="10.7856537"><ele>69.0</ele><time>2026-04-04T14:15:21.678Z</time></trkpt><trkpt lat="43.5225838" lon="10.785798"><ele>69.0</ele><time>2026-04-04T14:15:22.687Z</time></trkpt><trkpt lat="43.5225889" lon="10.7859751"><ele>69.0</ele><time>2026-04-04T14:15:23.689Z</time></trkpt><trkpt lat="43.5225839" lon="10.7861637"><ele>69.0</ele><time>2026-04-04T14:15:24.682Z</time></trkpt><trkpt lat="43.5225808" lon="10.7863287"><ele>69.0</ele><time>2026-04-04T14:15:25.697Z</time></trkpt><trkpt lat="43.5225904" lon="10.786506"><ele>69.25</ele><time>2026-04-04T14:15:26.697Z</time></trkpt><trkpt lat="43.5226029" lon="10.7866791"><ele>69.5</ele><time>2026-04-04T14:15:27.678Z</time></trkpt><trkpt lat="43.5226228" lon="10.7868657"><ele>69.75</ele><time>2026-04-04T14:15:28.683Z</time></trkpt><trkpt lat="43.5226493" lon="10.787066"><ele>70.0</ele><time>2026-04-04T14:15:29.683Z</time></trkpt><trkpt lat="43.522679" lon="10.7872727"><ele>71.0</ele><time>2026-04-04T14:15:30.684Z</time></trkpt><trkpt lat="43.522714" lon="10.7874704"><ele>72.0</ele><time>2026-04-04T14:15:31.695Z</time></trkpt><trkpt lat="43.5227816" lon="10.7878776"><ele>72.5</ele><time>2026-04-04T14:15:32.608Z</time></trkpt><trkpt lat="43.5228046" lon="10.7880632"><ele>73.0</ele><time>2026-04-04T14:15:33.608Z</time></trkpt><trkpt lat="43.5228286" lon="10.7882455"><ele>73.5</ele><time>2026-04-04T14:15:34.612Z</time></trkpt><trkpt lat="43.5228408" lon="10.7884165"><ele>74.0</ele><time>2026-04-04T14:15:35.611Z</time></trkpt><trkpt lat="43.5228756" lon="10.7885934"><ele>76.5</ele><time>2026-04-04T14:15:36.612Z</time></trkpt><trkpt lat="43.5229165" lon="10.7887871"><ele>79.0</ele><time>2026-04-04T14:15:37.61Z</time></trkpt><trkpt lat="43.5229496" lon="10.7889778"><ele>81.5</ele><time>2026-04-04T14:15:38.614Z</time></trkpt><trkpt lat="43.5229897" lon="10.7891425"><ele>84.0</ele><time>2026-04-04T14:15:39.613Z</time></trkpt><trkpt lat="43.5229988" lon="10.7893054"><ele>85.2</ele><time>2026-04-04T14:15:40.612Z</time></trkpt><trkpt lat="43.5230114" lon="10.7894684"><ele>86.4</ele><time>2026-04-04T14:15:41.612Z</time></trkpt><trkpt lat="43.5230413" lon="10.789626"><ele>87.6</ele><time>2026-04-04T14:15:42.612Z</time></trkpt><trkpt lat="43.5230631" lon="10.7897693"><ele>88.8</ele><time>2026-04-04T14:15:43.609Z</time></trkpt><trkpt lat="43.5230902" lon="10.7898908"><ele>90.0</ele><time>2026-04-04T14:15:44.615Z</time></trkpt><trkpt lat="43.5231181" lon="10.7899812"><ele>90.0</ele><time>2026-04-04T14:15:45.616Z</time></trkpt><trkpt lat="43.5231522" lon="10.7901013"><ele>90.0</ele><time>2026-04-04T14:15:47.612Z</time></trkpt><trkpt lat="43.5231689" lon="10.7902577"><ele>90.0</ele><time>2026-04-04T14:15:49.613Z</time></trkpt><trkpt lat="43.5231634" lon="10.7903673"><ele>90.0</ele><time>2026-04-04T14:15:50.613Z</time></trkpt><trkpt lat="43.5231626" lon="10.7904949"><ele>90.0</ele><time>2026-04-04T14:15:51.612Z</time></trkpt><trkpt lat="43.5231722" lon="10.7906324"><ele>90.6</ele><time>2026-04-04T14:15:52.616Z</time></trkpt><trkpt lat="43.5231812" lon="10.7907707"><ele>91.2</ele><time>2026-04-04T14:15:53.618Z</time></trkpt><trkpt lat="43.5231977" lon="10.7909144"><ele>91.80000000000001</ele><time>2026-04-04T14:15:54.615Z</time></trkpt><trkpt lat="43.5232325" lon="10.7910406"><ele>92.4</ele><time>2026-04-04T14:15:55.606Z</time></trkpt><trkpt lat="43.523286" lon="10.7911459"><ele>93.0</ele><time>2026-04-04T14:15:56.612Z</time></trkpt><trkpt lat="43.523348" lon="10.7912572"><ele>93.0</ele><time>2026-04-04T14:15:57.61Z</time></trkpt><trkpt lat="43.5234227" lon="10.7913634"><ele>93.0</ele><time>2026-04-04T14:15:58.61Z</time></trkpt><trkpt lat="43.5234982" lon="10.7914537"><ele>93.0</ele><time>2026-04-04T14:15:59.614Z</time></trkpt><trkpt lat="43.5235574" lon="10.7915621"><ele>93.0</ele><time>2026-04-04T14:16:00.612Z</time></trkpt><trkpt lat="43.5236192" lon="10.7916736"><ele>93.0</ele><time>2026-04-04T14:16:01.617Z</time></trkpt><trkpt lat="43.5236723" lon="10.7917703"><ele>93.0</ele><time>2026-04-04T14:16:02.619Z</time></trkpt><trkpt lat="43.5236986" lon="10.7918851"><ele>93.0</ele><time>2026-04-04T14:16:03.612Z</time></trkpt><trkpt lat="43.5237174" lon="10.7920028"><ele>93.0</ele><time>2026-04-04T14:16:04.612Z</time></trkpt><trkpt lat="43.5237082" lon="10.7921437"><ele>93.0</ele><time>2026-04-04T14:16:05.606Z</time></trkpt><trkpt lat="43.5236721" lon="10.7923073"><ele>93.0</ele><time>2026-04-04T14:16:06.605Z</time></trkpt><trkpt lat="43.5236285" lon="10.7924896"><ele>93.0</ele><time>2026-04-04T14:16:07.607Z</time></trkpt><trkpt lat="43.5235712" lon="10.7926689"><ele>93.0</ele><time>2026-04-04T14:16:08.604Z</time></trkpt><trkpt lat="43.5235204" lon="10.7928677"><ele>93.0</ele><time>2026-04-04T14:16:09.608Z</time></trkpt><trkpt lat="43.5235096" lon="10.7930547"><ele>93.0</ele><time>2026-04-04T14:16:10.612Z</time></trkpt><trkpt lat="43.5235019" lon="10.7932646"><ele>93.75</ele><time>2026-04-04T14:16:11.61Z</time></trkpt><trkpt lat="43.5235082" lon="10.7934479"><ele>94.5</ele><time>2026-04-04T14:16:12.61Z</time></trkpt><trkpt lat="43.523506" lon="10.7936477"><ele>95.25</ele><time>2026-04-04T14:16:13.61Z</time></trkpt><trkpt lat="43.5235147" lon="10.793839"><ele>96.0</ele><time>2026-04-04T14:16:14.618Z</time></trkpt><trkpt lat="43.5235112" lon="10.7940181"><ele>96.0</ele><time>2026-04-04T14:16:15.619Z</time></trkpt><trkpt lat="43.523495" lon="10.7941904"><ele>96.0</ele><time>2026-04-04T14:16:16.62Z</time></trkpt><trkpt lat="43.5234801" lon="10.7943744"><ele>96.0</ele><time>2026-04-04T14:16:17.625Z</time></trkpt><trkpt lat="43.5234773" lon="10.7945672"><ele>96.0</ele><time>2026-04-04T14:16:18.62Z</time></trkpt><trkpt lat="43.5234447" lon="10.7947369"><ele>96.0</ele><time>2026-04-04T14:16:19.62Z</time></trkpt><trkpt lat="43.5234393" lon="10.7948928"><ele>96.0</ele><time>2026-04-04T14:16:20.62Z</time></trkpt><trkpt lat="43.523448" lon="10.7950335"><ele>96.0</ele><time>2026-04-04T14:16:21.61Z</time></trkpt><trkpt lat="43.5234788" lon="10.795176"><ele>96.0</ele><time>2026-04-04T14:16:22.616Z</time></trkpt><trkpt lat="43.5235046" lon="10.7953212"><ele>96.0</ele><time>2026-04-04T14:16:23.611Z</time></trkpt><trkpt lat="43.523544" lon="10.7955079"><ele>95.75</ele><time>2026-04-04T14:16:24.611Z</time></trkpt><trkpt lat="43.523589" lon="10.7956936"><ele>95.5</ele><time>2026-04-04T14:16:25.61Z</time></trkpt><trkpt lat="43.5236433" lon="10.7958861"><ele>95.25</ele><time>2026-04-04T14:16:26.616Z</time></trkpt><trkpt lat="43.5237137" lon="10.7960742"><ele>95.0</ele><time>2026-04-04T14:16:27.615Z</time></trkpt><trkpt lat="43.5237867" lon="10.7962346"><ele>95.0</ele><time>2026-04-04T14:16:28.619Z</time></trkpt><trkpt lat="43.523836" lon="10.7963707"><ele>95.0</ele><time>2026-04-04T14:16:29.623Z</time></trkpt><trkpt lat="43.5238715" lon="10.7965203"><ele>95.0</ele><time>2026-04-04T14:16:30.618Z</time></trkpt><trkpt lat="43.5239155" lon="10.7966873"><ele>95.0</ele><time>2026-04-04T14:16:31.619Z</time></trkpt><trkpt lat="43.523958" lon="10.7968687"><ele>94.75</ele><time>2026-04-04T14:16:32.627Z</time></trkpt><trkpt lat="43.5239725" lon="10.797033"><ele>94.5</ele><time>2026-04-04T14:16:33.626Z</time></trkpt><trkpt lat="43.5239905" lon="10.7972085"><ele>94.25</ele><time>2026-04-04T14:16:34.615Z</time></trkpt><trkpt lat="43.5240017" lon="10.7973988"><ele>94.0</ele><time>2026-04-04T14:16:35.614Z</time></trkpt><trkpt lat="43.5240151" lon="10.7976139"><ele>95.0</ele><time>2026-04-04T14:16:36.623Z</time></trkpt><trkpt lat="43.5240389" lon="10.7978209"><ele>96.0</ele><time>2026-04-04T14:16:37.617Z</time></trkpt><trkpt lat="43.5240669" lon="10.7980189"><ele>97.0</ele><time>2026-04-04T14:16:38.614Z</time></trkpt><trkpt lat="43.5240727" lon="10.7981983"><ele>98.0</ele><time>2026-04-04T14:16:39.608Z</time></trkpt><trkpt lat="43.5241031" lon="10.7984072"><ele>98.75</ele><time>2026-04-04T14:16:40.614Z</time></trkpt><trkpt lat="43.5241301" lon="10.7986026"><ele>99.5</ele><time>2026-04-04T14:16:41.609Z</time></trkpt><trkpt lat="43.5241477" lon="10.7987655"><ele>100.25</ele><time>2026-04-04T14:16:42.617Z</time></trkpt><trkpt lat="43.5241832" lon="10.798938"><ele>101.0</ele><time>2026-04-04T14:16:43.615Z</time></trkpt><trkpt lat="43.5242217" lon="10.799112"><ele>101.0</ele><time>2026-04-04T14:16:44.613Z</time></trkpt><trkpt lat="43.5242428" lon="10.7992732"><ele>101.0</ele><time>2026-04-04T14:16:45.62Z</time></trkpt><trkpt lat="43.5242527" lon="10.7994422"><ele>101.0</ele><time>2026-04-04T14:16:46.614Z</time></trkpt><trkpt lat="43.524264" lon="10.7996098"><ele>101.0</ele><time>2026-04-04T14:16:47.619Z</time></trkpt><trkpt lat="43.5242557" lon="10.7997642"><ele>100.75</ele><time>2026-04-04T14:16:48.621Z</time></trkpt><trkpt lat="43.5242393" lon="10.7999133"><ele>100.5</ele><time>2026-04-04T14:16:49.618Z</time></trkpt><trkpt lat="43.5242232" lon="10.8000677"><ele>100.25</ele><time>2026-04-04T14:16:50.619Z</time></trkpt><trkpt lat="43.5242033" lon="10.8002325"><ele>100.0</ele><time>2026-04-04T14:16:51.62Z</time></trkpt><trkpt lat="43.5241834" lon="10.8003966"><ele>100.0</ele><time>2026-04-04T14:16:52.625Z</time></trkpt><trkpt lat="43.5241761" lon="10.8005624"><ele>100.0</ele><time>2026-04-04T14:16:53.62Z</time></trkpt><trkpt lat="43.5241678" lon="10.8007121"><ele>100.0</ele><time>2026-04-04T14:16:54.624Z</time></trkpt><trkpt lat="43.524152" lon="10.8008483"><ele>100.0</ele><time>2026-04-04T14:16:55.624Z</time></trkpt><trkpt lat="43.5241407" lon="10.8009842"><ele>100.0</ele><time>2026-04-04T14:16:56.631Z</time></trkpt><trkpt lat="43.5241092" lon="10.8011263"><ele>98.5</ele><time>2026-04-04T14:16:57.621Z</time></trkpt><trkpt lat="43.5240619" lon="10.8012742"><ele>97.0</ele><time>2026-04-04T14:16:58.621Z</time></trkpt><trkpt lat="43.5240081" lon="10.8014324"><ele>95.5</ele><time>2026-04-04T14:16:59.629Z</time></trkpt><trkpt lat="43.5239512" lon="10.8015808"><ele>94.0</ele><time>2026-04-04T14:17:00.627Z</time></trkpt><trkpt lat="43.523892" lon="10.8017069"><ele>94.0</ele><time>2026-04-04T14:17:01.635Z</time></trkpt><trkpt lat="43.5238329" lon="10.8018309"><ele>94.0</ele><time>2026-04-04T14:17:02.629Z</time></trkpt><trkpt lat="43.5237634" lon="10.8019395"><ele>94.0</ele><time>2026-04-04T14:17:03.623Z</time></trkpt><trkpt lat="43.5236828" lon="10.802033"><ele>94.0</ele><time>2026-04-04T14:17:04.621Z</time></trkpt><trkpt lat="43.5235791" lon="10.8021095"><ele>94.0</ele><time>2026-04-04T14:17:05.625Z</time></trkpt><trkpt lat="43.5234579" lon="10.8021745"><ele>95.80000000000001</ele><time>2026-04-04T14:17:06.621Z</time></trkpt><trkpt lat="43.5233484" lon="10.802243"><ele>97.60000000000001</ele><time>2026-04-04T14:17:07.625Z</time></trkpt><trkpt lat="43.5232478" lon="10.8023167"><ele>99.4</ele><time>2026-04-04T14:17:08.627Z</time></trkpt><trkpt lat="43.5231522" lon="10.8023767"><ele>101.2</ele><time>2026-04-04T14:17:09.624Z</time></trkpt><trkpt lat="43.5230831" lon="10.8024582"><ele>103.0</ele><time>2026-04-04T14:17:10.626Z</time></trkpt><trkpt lat="43.5230367" lon="10.8025575"><ele>103.66666666666667</ele><time>2026-04-04T14:17:11.623Z</time></trkpt><trkpt lat="43.5229925" lon="10.8026691"><ele>104.33333333333334</ele><time>2026-04-04T14:17:12.619Z</time></trkpt><trkpt lat="43.5229548" lon="10.8027998"><ele>105.0</ele><time>2026-04-04T14:17:13.619Z</time></trkpt><trkpt lat="43.5229334" lon="10.8029237"><ele>105.66666666666666</ele><time>2026-04-04T14:17:14.623Z</time></trkpt><trkpt lat="43.5229207" lon="10.8030399"><ele>106.33333333333333</ele><time>2026-04-04T14:17:15.615Z</time></trkpt><trkpt lat="43.5229197" lon="10.8031345"><ele>107.0</ele><time>2026-04-04T14:17:16.615Z</time></trkpt><trkpt lat="43.5229191" lon="10.8032291"><ele>107.0</ele><time>2026-04-04T14:17:17.619Z</time></trkpt><trkpt lat="43.5229247" lon="10.8033453"><ele>106.99999999999999</ele><time>2026-04-04T14:17:18.623Z</time></trkpt><trkpt lat="43.522931" lon="10.803471"><ele>106.99999999999999</ele><time>2026-04-04T14:17:19.616Z</time></trkpt><trkpt lat="43.5229476" lon="10.8036047"><ele>107.0</ele><time>2026-04-04T14:17:20.63Z</time></trkpt><trkpt lat="43.5229692" lon="10.8037378"><ele>107.0</ele><time>2026-04-04T14:17:21.624Z</time></trkpt><trkpt lat="43.5230046" lon="10.8038605"><ele>106.75</ele><time>2026-04-04T14:17:22.622Z</time></trkpt><trkpt lat="43.5230595" lon="10.8039905"><ele>106.5</ele><time>2026-04-04T14:17:23.617Z</time></trkpt><trkpt lat="43.5231332" lon="10.8041228"><ele>106.25</ele><time>2026-04-04T14:17:24.617Z</time></trkpt><trkpt lat="43.523215" lon="10.80429"><ele>106.0</ele><time>2026-04-04T14:17:25.612Z</time></trkpt><trkpt lat="43.5232967" lon="10.8044606"><ele>104.0</ele><time>2026-04-04T14:17:26.622Z</time></trkpt><trkpt lat="43.5233781" lon="10.8046644"><ele>102.0</ele><time>2026-04-04T14:17:27.625Z</time></trkpt><trkpt lat="43.5234515" lon="10.8048531"><ele>100.0</ele><time>2026-04-04T14:17:28.625Z</time></trkpt><trkpt lat="43.5235309" lon="10.8050257"><ele>99.75</ele><time>2026-04-04T14:17:29.625Z</time></trkpt><trkpt lat="43.5235994" lon="10.8051965"><ele>99.5</ele><time>2026-04-04T14:17:30.62Z</time></trkpt><trkpt lat="43.5236395" lon="10.8053502"><ele>99.25</ele><time>2026-04-04T14:17:31.617Z</time></trkpt><trkpt lat="43.523682" lon="10.8055219"><ele>99.0</ele><time>2026-04-04T14:17:32.626Z</time></trkpt><trkpt lat="43.5237211" lon="10.8057123"><ele>99.0</ele><time>2026-04-04T14:17:33.625Z</time></trkpt><trkpt lat="43.523753" lon="10.8058957"><ele>99.0</ele><time>2026-04-04T14:17:34.619Z</time></trkpt><trkpt lat="43.5237838" lon="10.8060349"><ele>99.0</ele><time>2026-04-04T14:17:35.618Z</time></trkpt><trkpt lat="43.5238064" lon="10.8061608"><ele>99.0</ele><time>2026-04-04T14:17:36.629Z</time></trkpt><trkpt lat="43.5238043" lon="10.8062818"><ele>99.0</ele><time>2026-04-04T14:17:37.622Z</time></trkpt><trkpt lat="43.5237986" lon="10.8064131"><ele>98.4</ele><time>2026-04-04T14:17:38.624Z</time></trkpt><trkpt lat="43.5237875" lon="10.8065523"><ele>97.80000000000001</ele><time>2026-04-04T14:17:39.621Z</time></trkpt><trkpt lat="43.5237641" lon="10.806699"><ele>97.19999999999999</ele><time>2026-04-04T14:17:40.622Z</time></trkpt><trkpt lat="43.5237314" lon="10.8068456"><ele>96.6</ele><time>2026-04-04T14:17:41.622Z</time></trkpt><trkpt lat="43.5237158" lon="10.8069957"><ele>96.0</ele><time>2026-04-04T14:17:42.619Z</time></trkpt><trkpt lat="43.5237069" lon="10.8071325"><ele>96.0</ele><time>2026-04-04T14:17:43.621Z</time></trkpt><trkpt lat="43.5237195" lon="10.8072839"><ele>96.0</ele><time>2026-04-04T14:17:44.621Z</time></trkpt><trkpt lat="43.5237462" lon="10.8074415"><ele>96.0</ele><time>2026-04-04T14:17:45.626Z</time></trkpt><trkpt lat="43.523794" lon="10.8076112"><ele>96.0</ele><time>2026-04-04T14:17:46.624Z</time></trkpt><trkpt lat="43.5238608" lon="10.8077796"><ele>96.0</ele><time>2026-04-04T14:17:47.623Z</time></trkpt><trkpt lat="43.5239331" lon="10.8079556"><ele>96.0</ele><time>2026-04-04T14:17:48.637Z</time></trkpt><trkpt lat="43.524014" lon="10.808095"><ele>96.0</ele><time>2026-04-04T14:17:49.635Z</time></trkpt><trkpt lat="43.5240625" lon="10.808219"><ele>96.0</ele><time>2026-04-04T14:17:50.628Z</time></trkpt><trkpt lat="43.5240841" lon="10.8083448"><ele>96.0</ele><time>2026-04-04T14:17:51.629Z</time></trkpt><trkpt lat="43.5240958" lon="10.8084669"><ele>96.0</ele><time>2026-04-04T14:17:52.619Z</time></trkpt><trkpt lat="43.5241045" lon="10.8086374"><ele>96.0</ele><time>2026-04-04T14:17:53.617Z</time></trkpt><trkpt lat="43.5240801" lon="10.8088144"><ele>96.0</ele><time>2026-04-04T14:17:54.625Z</time></trkpt><trkpt lat="43.5240485" lon="10.8090023"><ele>97.0</ele><time>2026-04-04T14:17:55.614Z</time></trkpt><trkpt lat="43.5240259" lon="10.8091804"><ele>98.0</ele><time>2026-04-04T14:17:56.619Z</time></trkpt><trkpt lat="43.5240273" lon="10.8093504"><ele>99.0</ele><time>2026-04-04T14:17:57.618Z</time></trkpt><trkpt lat="43.524043" lon="10.8095087"><ele>100.0</ele><time>2026-04-04T14:17:58.618Z</time></trkpt><trkpt lat="43.5240718" lon="10.8096596"><ele>100.75</ele><time>2026-04-04T14:17:59.627Z</time></trkpt><trkpt lat="43.5241048" lon="10.8098249"><ele>101.5</ele><time>2026-04-04T14:18:00.624Z</time></trkpt><trkpt lat="43.5241178" lon="10.8100063"><ele>102.25</ele><time>2026-04-04T14:18:01.626Z</time></trkpt><trkpt lat="43.5241176" lon="10.8101624"><ele>103.0</ele><time>2026-04-04T14:18:02.627Z</time></trkpt><trkpt lat="43.5241017" lon="10.8103095"><ele>103.25</ele><time>2026-04-04T14:18:03.624Z</time></trkpt><trkpt lat="43.524086" lon="10.8104624"><ele>103.5</ele><time>2026-04-04T14:18:04.617Z</time></trkpt><trkpt lat="43.5240475" lon="10.810625"><ele>103.75</ele><time>2026-04-04T14:18:05.616Z</time></trkpt><trkpt lat="43.5240072" lon="10.8107998"><ele>104.0</ele><time>2026-04-04T14:18:06.621Z</time></trkpt><trkpt lat="43.5239781" lon="10.8109731"><ele>103.6</ele><time>2026-04-04T14:18:07.613Z</time></trkpt><trkpt lat="43.5239657" lon="10.811127"><ele>103.2</ele><time>2026-04-04T14:18:08.613Z</time></trkpt><trkpt lat="43.5239388" lon="10.811278"><ele>102.8</ele><time>2026-04-04T14:18:09.616Z</time></trkpt><trkpt lat="43.5239103" lon="10.8114087"><ele>102.39999999999999</ele><time>2026-04-04T14:18:10.618Z</time></trkpt><trkpt lat="43.5238726" lon="10.8115329"><ele>102.0</ele><time>2026-04-04T14:18:11.608Z</time></trkpt><trkpt lat="43.5238257" lon="10.8116204"><ele>102.0</ele><time>2026-04-04T14:18:12.607Z</time></trkpt><trkpt lat="43.523754" lon="10.8117048"><ele>102.0</ele><time>2026-04-04T14:18:13.614Z</time></trkpt><trkpt lat="43.5236635" lon="10.8118002"><ele>102.0</ele><time>2026-04-04T14:18:14.62Z</time></trkpt><trkpt lat="43.5235688" lon="10.8118985"><ele>102.0</ele><time>2026-04-04T14:18:15.616Z</time></trkpt><trkpt lat="43.5234985" lon="10.811979"><ele>102.0</ele><time>2026-04-04T14:18:16.611Z</time></trkpt><trkpt lat="43.5234279" lon="10.8120512"><ele>104.8</ele><time>2026-04-04T14:18:17.613Z</time></trkpt><trkpt lat="43.5233344" lon="10.8120845"><ele>107.6</ele><time>2026-04-04T14:18:18.61Z</time></trkpt><trkpt lat="43.5232336" lon="10.8121191"><ele>110.39999999999999</ele><time>2026-04-04T14:18:19.612Z</time></trkpt><trkpt lat="43.5231343" lon="10.8121618"><ele>113.19999999999999</ele><time>2026-04-04T14:18:20.611Z</time></trkpt><trkpt lat="43.5230524" lon="10.8122105"><ele>116.0</ele><time>2026-04-04T14:18:21.61Z</time></trkpt><trkpt lat="43.5229768" lon="10.8122729"><ele>116.0</ele><time>2026-04-04T14:18:22.609Z</time></trkpt><trkpt lat="43.5229116" lon="10.8123808"><ele>116.0</ele><time>2026-04-04T14:18:23.598Z</time></trkpt><trkpt lat="43.5228605" lon="10.8125207"><ele>116.0</ele><time>2026-04-04T14:18:24.606Z</time></trkpt><trkpt lat="43.5228066" lon="10.8126638"><ele>116.0</ele><time>2026-04-04T14:18:25.592Z</time></trkpt><trkpt lat="43.5227748" lon="10.8128428"><ele>116.99999999999999</ele><time>2026-04-04T14:18:26.6Z</time></trkpt><trkpt lat="43.5227587" lon="10.8129875"><ele>118.0</ele><time>2026-04-04T14:18:27.598Z</time></trkpt><trkpt lat="43.5227249" lon="10.8130954"><ele>119.0</ele><time>2026-04-04T14:18:28.594Z</time></trkpt><trkpt lat="43.5226679" lon="10.8131891"><ele>120.0</ele><time>2026-04-04T14:18:29.595Z</time></trkpt><trkpt lat="43.5226106" lon="10.8132726"><ele>120.99999999999999</ele><time>2026-04-04T14:18:30.603Z</time></trkpt><trkpt lat="43.5225525" lon="10.8133573"><ele>122.0</ele><time>2026-04-04T14:18:31.608Z</time></trkpt><trkpt lat="43.5224894" lon="10.813431"><ele>122.0</ele><time>2026-04-04T14:18:32.606Z</time></trkpt><trkpt lat="43.5223985" lon="10.8134639"><ele>121.99999999999999</ele><time>2026-04-04T14:18:33.598Z</time></trkpt><trkpt lat="43.522302" lon="10.8135185"><ele>121.99999999999999</ele><time>2026-04-04T14:18:34.595Z</time></trkpt><trkpt lat="43.5222103" lon="10.8135839"><ele>122.0</ele><time>2026-04-04T14:18:35.595Z</time></trkpt><trkpt lat="43.5221374" lon="10.8136673"><ele>122.0</ele><time>2026-04-04T14:18:36.596Z</time></trkpt><trkpt lat="43.5220847" lon="10.8137632"><ele>123.19999999999999</ele><time>2026-04-04T14:18:37.604Z</time></trkpt><trkpt lat="43.5220293" lon="10.8138775"><ele>124.39999999999999</ele><time>2026-04-04T14:18:38.603Z</time></trkpt><trkpt lat="43.5220008" lon="10.8140037"><ele>125.60000000000001</ele><time>2026-04-04T14:18:39.601Z</time></trkpt><trkpt lat="43.5219806" lon="10.8141523"><ele>126.80000000000001</ele><time>2026-04-04T14:18:40.606Z</time></trkpt><trkpt lat="43.5219475" lon="10.8143311"><ele>128.0</ele><time>2026-04-04T14:18:41.598Z</time></trkpt><trkpt lat="43.5219055" lon="10.8145061"><ele>128.0</ele><time>2026-04-04T14:18:42.598Z</time></trkpt><trkpt lat="43.5218437" lon="10.8146552"><ele>128.0</ele><time>2026-04-04T14:18:43.588Z</time></trkpt><trkpt lat="43.5217941" lon="10.8147593"><ele>128.0</ele><time>2026-04-04T14:18:44.588Z</time></trkpt><trkpt lat="43.5217475" lon="10.814834"><ele>128.0</ele><time>2026-04-04T14:18:45.581Z</time></trkpt><trkpt lat="43.5217117" lon="10.8150089"><ele>128.0</ele><time>2026-04-04T14:18:47.592Z</time></trkpt><trkpt lat="43.5217097" lon="10.8151223"><ele>127.80000000000001</ele><time>2026-04-04T14:18:48.589Z</time></trkpt><trkpt lat="43.5217041" lon="10.8152686"><ele>127.60000000000001</ele><time>2026-04-04T14:18:49.593Z</time></trkpt><trkpt lat="43.521691" lon="10.81542"><ele>127.39999999999999</ele><time>2026-04-04T14:18:50.598Z</time></trkpt><trkpt lat="43.5216922" lon="10.8155502"><ele>127.19999999999999</ele><time>2026-04-04T14:18:51.598Z</time></trkpt><trkpt lat="43.5216995" lon="10.8156812"><ele>127.0</ele><time>2026-04-04T14:18:52.596Z</time></trkpt><trkpt lat="43.5217094" lon="10.8157968"><ele>127.0</ele><time>2026-04-04T14:18:53.598Z</time></trkpt><trkpt lat="43.5217334" lon="10.8159179"><ele>126.99999999999999</ele><time>2026-04-04T14:18:54.598Z</time></trkpt><trkpt lat="43.5217881" lon="10.8160455"><ele>126.99999999999999</ele><time>2026-04-04T14:18:55.599Z</time></trkpt><trkpt lat="43.5218654" lon="10.8161745"><ele>127.0</ele><time>2026-04-04T14:18:56.6Z</time></trkpt><trkpt lat="43.5219532" lon="10.8162886"><ele>127.0</ele><time>2026-04-04T14:18:57.593Z</time></trkpt><trkpt lat="43.5220308" lon="10.8164179"><ele>126.39999999999999</ele><time>2026-04-04T14:18:58.586Z</time></trkpt><trkpt lat="43.5221062" lon="10.8165554"><ele>125.79999999999998</ele><time>2026-04-04T14:18:59.587Z</time></trkpt><trkpt lat="43.5221369" lon="10.8166545"><ele>125.2</ele><time>2026-04-04T14:19:00.587Z</time></trkpt><trkpt lat="43.5221507" lon="10.8167638"><ele>124.6</ele><time>2026-04-04T14:19:01.59Z</time></trkpt><trkpt lat="43.5221481" lon="10.8168633"><ele>124.0</ele><time>2026-04-04T14:19:02.592Z</time></trkpt><trkpt lat="43.5221342" lon="10.8170306"><ele>123.66666666666667</ele><time>2026-04-04T14:19:04.598Z</time></trkpt><trkpt lat="43.5221444" lon="10.8171194"><ele>123.33333333333334</ele><time>2026-04-04T14:19:05.591Z</time></trkpt><trkpt lat="43.5221799" lon="10.8172797"><ele>123.0</ele><time>2026-04-04T14:19:07.596Z</time></trkpt><trkpt lat="43.5222001" lon="10.817368"><ele>122.66666666666666</ele><time>2026-04-04T14:19:08.602Z</time></trkpt><trkpt lat="43.5222343" lon="10.8175072"><ele>122.33333333333333</ele><time>2026-04-04T14:19:10.601Z</time></trkpt><trkpt lat="43.5223023" lon="10.817575"><ele>122.0</ele><time>2026-04-04T14:19:12.607Z</time></trkpt><trkpt lat="43.5223923" lon="10.8175557"><ele>121.99999999999999</ele><time>2026-04-04T14:19:14.606Z</time></trkpt><trkpt lat="43.5224602" lon="10.8175286"><ele>122.0</ele><time>2026-04-04T14:19:15.611Z</time></trkpt><trkpt lat="43.5225307" lon="10.817493"><ele>122.0</ele><time>2026-04-04T14:19:16.605Z</time></trkpt><trkpt lat="43.5226053" lon="10.8174481"><ele>122.0</ele><time>2026-04-04T14:19:17.605Z</time></trkpt><trkpt lat="43.5226797" lon="10.8174287"><ele>121.99999999999999</ele><time>2026-04-04T14:19:18.611Z</time></trkpt><trkpt lat="43.5227627" lon="10.8174133"><ele>122.0</ele><time>2026-04-04T14:19:19.602Z</time></trkpt><trkpt lat="43.5228341" lon="10.8173969"><ele>119.33333333333333</ele><time>2026-04-04T14:19:20.614Z</time></trkpt><trkpt lat="43.5229082" lon="10.8173807"><ele>116.66666666666666</ele><time>2026-04-04T14:19:21.604Z</time></trkpt><trkpt lat="43.5229796" lon="10.81736"><ele>114.0</ele><time>2026-04-04T14:19:22.605Z</time></trkpt><trkpt lat="43.5230449" lon="10.8173444"><ele>111.33333333333334</ele><time>2026-04-04T14:19:23.602Z</time></trkpt><trkpt lat="43.5231028" lon="10.8173099"><ele>108.66666666666667</ele><time>2026-04-04T14:19:24.599Z</time></trkpt><trkpt lat="43.5232216" lon="10.8172492"><ele>106.0</ele><time>2026-04-04T14:19:26.604Z</time></trkpt><trkpt lat="43.5232822" lon="10.8172175"><ele>106.00000000000001</ele><time>2026-04-04T14:19:27.602Z</time></trkpt><trkpt lat="43.5233491" lon="10.8172026"><ele>106.0</ele><time>2026-04-04T14:19:28.613Z</time></trkpt><trkpt lat="43.5234137" lon="10.8171804"><ele>106.0</ele><time>2026-04-04T14:19:29.611Z</time></trkpt><trkpt lat="43.5234924" lon="10.8171641"><ele>106.0</ele><time>2026-04-04T14:19:30.616Z</time></trkpt><trkpt lat="43.5235642" lon="10.8171416"><ele>106.00000000000001</ele><time>2026-04-04T14:19:31.609Z</time></trkpt><trkpt lat="43.5236327" lon="10.8171105"><ele>106.0</ele><time>2026-04-04T14:19:32.61Z</time></trkpt><trkpt lat="43.5237265" lon="10.8171056"><ele>106.00000000000001</ele><time>2026-04-04T14:19:34.608Z</time></trkpt><trkpt lat="43.5237661" lon="10.8171993"><ele>106.0</ele><time>2026-04-04T14:19:36.614Z</time></trkpt><trkpt lat="43.5237094" lon="10.8173345"><ele>106.0</ele><time>2026-04-04T14:19:38.611Z</time></trkpt><trkpt lat="43.5236798" lon="10.817413"><ele>106.0</ele><time>2026-04-04T14:19:39.601Z</time></trkpt><trkpt lat="43.5236556" lon="10.8175422"><ele>106.00000000000001</ele><time>2026-04-04T14:19:41.598Z</time></trkpt><trkpt lat="43.5237018" lon="10.8176194"><ele>106.0</ele><time>2026-04-04T14:19:44.605Z</time></trkpt><trkpt lat="43.5238207" lon="10.817614"><ele>103.83333333333334</ele><time>2026-04-04T14:19:46.596Z</time></trkpt><trkpt lat="43.5239118" lon="10.8175996"><ele>101.66666666666667</ele><time>2026-04-04T14:19:47.595Z</time></trkpt><trkpt lat="43.5240135" lon="10.8176036"><ele>99.5</ele><time>2026-04-04T14:19:48.596Z</time></trkpt><trkpt lat="43.5240989" lon="10.8175929"><ele>97.33333333333334</ele><time>2026-04-04T14:19:49.591Z</time></trkpt><trkpt lat="43.5241804" lon="10.8176036"><ele>95.16666666666667</ele><time>2026-04-04T14:19:50.595Z</time></trkpt><trkpt lat="43.524265" lon="10.8175908"><ele>93.0</ele><time>2026-04-04T14:19:51.591Z</time></trkpt><trkpt lat="43.524393" lon="10.8175653"><ele>93.0</ele><time>2026-04-04T14:19:52.589Z</time></trkpt><trkpt lat="43.5244931" lon="10.8175185"><ele>93.0</ele><time>2026-04-04T14:19:53.591Z</time></trkpt><trkpt lat="43.5245708" lon="10.8174831"><ele>93.0</ele><time>2026-04-04T14:19:54.584Z</time></trkpt><trkpt lat="43.5246453" lon="10.8174511"><ele>93.0</ele><time>2026-04-04T14:19:55.579Z</time></trkpt><trkpt lat="43.5247143" lon="10.8174054"><ele>93.0</ele><time>2026-04-04T14:19:56.593Z</time></trkpt><trkpt lat="43.5247727" lon="10.8173423"><ele>93.0</ele><time>2026-04-04T14:19:57.586Z</time></trkpt><trkpt lat="43.5248252" lon="10.8172745"><ele>91.0</ele><time>2026-04-04T14:19:58.58Z</time></trkpt><trkpt lat="43.5248892" lon="10.8171786"><ele>89.0</ele><time>2026-04-04T14:19:59.588Z</time></trkpt><trkpt lat="43.5249486" lon="10.8170584"><ele>87.0</ele><time>2026-04-04T14:20:00.588Z</time></trkpt><trkpt lat="43.5250155" lon="10.816929"><ele>85.0</ele><time>2026-04-04T14:20:01.594Z</time></trkpt><trkpt lat="43.5250359" lon="10.8167423"><ele>85.0</ele><time>2026-04-04T14:20:02.604Z</time></trkpt><trkpt lat="43.5250834" lon="10.816565"><ele>85.0</ele><time>2026-04-04T14:20:03.6Z</time></trkpt><trkpt lat="43.5251142" lon="10.8164198"><ele>85.0</ele><time>2026-04-04T14:20:04.598Z</time></trkpt><trkpt lat="43.5251683" lon="10.8163003"><ele>85.0</ele><time>2026-04-04T14:20:05.599Z</time></trkpt><trkpt lat="43.5252757" lon="10.8162405"><ele>85.0</ele><time>2026-04-04T14:20:07.599Z</time></trkpt><trkpt lat="43.525395" lon="10.8162807"><ele>85.0</ele><time>2026-04-04T14:20:09.596Z</time></trkpt><trkpt lat="43.5254652" lon="10.8163668"><ele>85.0</ele><time>2026-04-04T14:20:10.601Z</time></trkpt><trkpt lat="43.5255423" lon="10.8164827"><ele>85.0</ele><time>2026-04-04T14:20:11.593Z</time></trkpt><trkpt lat="43.5256186" lon="10.8166072"><ele>85.0</ele><time>2026-04-04T14:20:12.596Z</time></trkpt><trkpt lat="43.5256785" lon="10.8167033"><ele>84.83333333333333</ele><time>2026-04-04T14:20:13.591Z</time></trkpt><trkpt lat="43.5257269" lon="10.8167765"><ele>84.66666666666666</ele><time>2026-04-04T14:20:14.593Z</time></trkpt><trkpt lat="43.5257798" lon="10.8168617"><ele>84.5</ele><time>2026-04-04T14:20:15.596Z</time></trkpt><trkpt lat="43.5258393" lon="10.8169512"><ele>84.33333333333333</ele><time>2026-04-04T14:20:16.604Z</time></trkpt><trkpt lat="43.5259017" lon="10.8170517"><ele>84.16666666666667</ele><time>2026-04-04T14:20:17.59Z</time></trkpt><trkpt lat="43.5259702" lon="10.8171491"><ele>84.0</ele><time>2026-04-04T14:20:18.59Z</time></trkpt><trkpt lat="43.5260463" lon="10.8172504"><ele>84.0</ele><time>2026-04-04T14:20:19.603Z</time></trkpt><trkpt lat="43.5261016" lon="10.8173355"><ele>84.0</ele><time>2026-04-04T14:20:20.603Z</time></trkpt><trkpt lat="43.5261526" lon="10.8174096"><ele>84.0</ele><time>2026-04-04T14:20:21.597Z</time></trkpt><trkpt lat="43.526183" lon="10.8174957"><ele>84.0</ele><time>2026-04-04T14:20:22.606Z</time></trkpt><trkpt lat="43.5262272" lon="10.8176689"><ele>84.0</ele><time>2026-04-04T14:20:24.611Z</time></trkpt><trkpt lat="43.5262627" lon="10.8177861"><ele>85.0</ele><time>2026-04-04T14:20:25.607Z</time></trkpt><trkpt lat="43.5263113" lon="10.8179022"><ele>86.0</ele><time>2026-04-04T14:20:26.612Z</time></trkpt><trkpt lat="43.5263706" lon="10.8180004"><ele>87.0</ele><time>2026-04-04T14:20:27.603Z</time></trkpt><trkpt lat="43.5264458" lon="10.8180986"><ele>88.0</ele><time>2026-04-04T14:20:28.609Z</time></trkpt><trkpt lat="43.5265117" lon="10.8182143"><ele>89.0</ele><time>2026-04-04T14:20:29.604Z</time></trkpt><trkpt lat="43.5265682" lon="10.8183265"><ele>89.0</ele><time>2026-04-04T14:20:30.589Z</time></trkpt><trkpt lat="43.5266207" lon="10.8184232"><ele>89.0</ele><time>2026-04-04T14:20:31.589Z</time></trkpt><trkpt lat="43.526675" lon="10.8184935"><ele>89.0</ele><time>2026-04-04T14:20:32.594Z</time></trkpt><trkpt lat="43.5267748" lon="10.8185803"><ele>89.0</ele><time>2026-04-04T14:20:34.59Z</time></trkpt><trkpt lat="43.5268532" lon="10.8186031"><ele>89.0</ele><time>2026-04-04T14:20:36.603Z</time></trkpt><trkpt lat="43.5269115" lon="10.8185373"><ele>89.0</ele><time>2026-04-04T14:20:38.604Z</time></trkpt><trkpt lat="43.5269805" lon="10.8184664"><ele>89.0</ele><time>2026-04-04T14:20:39.596Z</time></trkpt><trkpt lat="43.5270387" lon="10.8183578"><ele>89.0</ele><time>2026-04-04T14:20:40.599Z</time></trkpt><trkpt lat="43.5271008" lon="10.8182273"><ele>89.0</ele><time>2026-04-04T14:20:41.604Z</time></trkpt><trkpt lat="43.5271792" lon="10.818057"><ele>89.0</ele><time>2026-04-04T14:20:42.602Z</time></trkpt><trkpt lat="43.5272538" lon="10.8178737"><ele>88.0</ele><time>2026-04-04T14:20:43.608Z</time></trkpt><trkpt lat="43.5273126" lon="10.8177241"><ele>87.0</ele><time>2026-04-04T14:20:44.606Z</time></trkpt><trkpt lat="43.5273795" lon="10.8175969"><ele>86.0</ele><time>2026-04-04T14:20:45.606Z</time></trkpt><trkpt lat="43.5274367" lon="10.817474"><ele>85.0</ele><time>2026-04-04T14:20:46.609Z</time></trkpt><trkpt lat="43.5275012" lon="10.8173579"><ele>84.0</ele><time>2026-04-04T14:20:47.608Z</time></trkpt><trkpt lat="43.5275807" lon="10.8172552"><ele>84.0</ele><time>2026-04-04T14:20:48.613Z</time></trkpt><trkpt lat="43.5276722" lon="10.8171806"><ele>84.0</ele><time>2026-04-04T14:20:49.611Z</time></trkpt><trkpt lat="43.527754" lon="10.8171123"><ele>84.0</ele><time>2026-04-04T14:20:50.607Z</time></trkpt><trkpt lat="43.5278158" lon="10.8170291"><ele>84.0</ele><time>2026-04-04T14:20:51.603Z</time></trkpt><trkpt lat="43.5278748" lon="10.8169157"><ele>84.0</ele><time>2026-04-04T14:20:52.602Z</time></trkpt><trkpt lat="43.5279227" lon="10.8167445"><ele>85.5</ele><time>2026-04-04T14:20:53.607Z</time></trkpt><trkpt lat="43.5279812" lon="10.8165509"><ele>87.0</ele><time>2026-04-04T14:20:54.609Z</time></trkpt><trkpt lat="43.5280524" lon="10.8163658"><ele>88.5</ele><time>2026-04-04T14:20:55.608Z</time></trkpt><trkpt lat="43.5280791" lon="10.8161764"><ele>90.0</ele><time>2026-04-04T14:20:56.61Z</time></trkpt><trkpt lat="43.5281207" lon="10.8160467"><ele>90.0</ele><time>2026-04-04T14:20:57.603Z</time></trkpt><trkpt lat="43.5282153" lon="10.8159391"><ele>90.0</ele><time>2026-04-04T14:20:58.599Z</time></trkpt><trkpt lat="43.5283404" lon="10.8159056"><ele>90.0</ele><time>2026-04-04T14:21:00.596Z</time></trkpt><trkpt lat="43.5284244" lon="10.8159198"><ele>90.0</ele><time>2026-04-04T14:21:01.594Z</time></trkpt><trkpt lat="43.5285807" lon="10.8159954"><ele>90.0</ele><time>2026-04-04T14:21:02.595Z</time></trkpt><trkpt lat="43.5287182" lon="10.8160503"><ele>90.0</ele><time>2026-04-04T14:21:03.596Z</time></trkpt><trkpt lat="43.5288443" lon="10.8160714"><ele>90.0</ele><time>2026-04-04T14:21:04.594Z</time></trkpt><trkpt lat="43.5289642" lon="10.8160564"><ele>90.0</ele><time>2026-04-04T14:21:05.595Z</time></trkpt><trkpt lat="43.5290888" lon="10.8160141"><ele>97.0</ele><time>2026-04-04T14:21:06.588Z</time></trkpt><trkpt lat="43.5292329" lon="10.8159527"><ele>104.0</ele><time>2026-04-04T14:21:07.591Z</time></trkpt><trkpt lat="43.5293674" lon="10.8158891"><ele>111.0</ele><time>2026-04-04T14:21:08.593Z</time></trkpt><trkpt lat="43.5295151" lon="10.8158267"><ele>118.0</ele><time>2026-04-04T14:21:09.592Z</time></trkpt><trkpt lat="43.5296678" lon="10.8157728"><ele>119.5</ele><time>2026-04-04T14:21:10.592Z</time></trkpt><trkpt lat="43.5298097" lon="10.8157267"><ele>121.0</ele><time>2026-04-04T14:21:11.591Z</time></trkpt><trkpt lat="43.5299389" lon="10.8157207"><ele>122.5</ele><time>2026-04-04T14:21:12.594Z</time></trkpt><trkpt lat="43.5300558" lon="10.8157122"><ele>124.0</ele><time>2026-04-04T14:21:13.597Z</time></trkpt><trkpt lat="43.5301847" lon="10.8156806"><ele>124.0</ele><time>2026-04-04T14:21:14.606Z</time></trkpt><trkpt lat="43.5303008" lon="10.8156705"><ele>124.0</ele><time>2026-04-04T14:21:15.606Z</time></trkpt><trkpt lat="43.5304008" lon="10.815647"><ele>124.0</ele><time>2026-04-04T14:21:16.609Z</time></trkpt><trkpt lat="43.530508" lon="10.8156274"><ele>124.0</ele><time>2026-04-04T14:21:17.612Z</time></trkpt><trkpt lat="43.5306234" lon="10.8155991"><ele>124.0</ele><time>2026-04-04T14:21:18.62Z</time></trkpt><trkpt lat="43.5307269" lon="10.8155757"><ele>124.75</ele><time>2026-04-04T14:21:19.619Z</time></trkpt><trkpt lat="43.5308309" lon="10.8155728"><ele>125.5</ele><time>2026-04-04T14:21:20.616Z</time></trkpt><trkpt lat="43.5309529" lon="10.8155968"><ele>126.25</ele><time>2026-04-04T14:21:21.616Z</time></trkpt><trkpt lat="43.5310834" lon="10.8156527"><ele>127.0</ele><time>2026-04-04T14:21:22.616Z</time></trkpt><trkpt lat="43.5312266" lon="10.8157113"><ele>128.25</ele><time>2026-04-04T14:21:23.614Z</time></trkpt><trkpt lat="43.5313598" lon="10.8157697"><ele>129.5</ele><time>2026-04-04T14:21:24.61Z</time></trkpt><trkpt lat="43.5314851" lon="10.8158077"><ele>130.75</ele><time>2026-04-04T14:21:25.61Z</time></trkpt><trkpt lat="43.5316116" lon="10.8158133"><ele>132.0</ele><time>2026-04-04T14:21:26.614Z</time></trkpt><trkpt lat="43.5317472" lon="10.8158337"><ele>132.0</ele><time>2026-04-04T14:21:27.614Z</time></trkpt><trkpt lat="43.5318744" lon="10.8158304"><ele>132.0</ele><time>2026-04-04T14:21:28.611Z</time></trkpt><trkpt lat="43.5319885" lon="10.8158506"><ele>132.0</ele><time>2026-04-04T14:21:29.622Z</time></trkpt><trkpt lat="43.5320899" lon="10.8158976"><ele>132.0</ele><time>2026-04-04T14:21:30.613Z</time></trkpt><trkpt lat="43.5321879" lon="10.8159689"><ele>133.5</ele><time>2026-04-04T14:21:31.611Z</time></trkpt><trkpt lat="43.5322956" lon="10.8160757"><ele>135.0</ele><time>2026-04-04T14:21:32.613Z</time></trkpt><trkpt lat="43.5324148" lon="10.816199"><ele>136.5</ele><time>2026-04-04T14:21:33.617Z</time></trkpt><trkpt lat="43.5325192" lon="10.8162867"><ele>138.0</ele><time>2026-04-04T14:21:34.614Z</time></trkpt><trkpt lat="43.5326356" lon="10.8163412"><ele>138.0</ele><time>2026-04-04T14:21:35.624Z</time></trkpt><trkpt lat="43.5327664" lon="10.8163968"><ele>138.0</ele><time>2026-04-04T14:21:36.618Z</time></trkpt><trkpt lat="43.53291" lon="10.816439"><ele>138.0</ele><time>2026-04-04T14:21:37.62Z</time></trkpt><trkpt lat="43.5330414" lon="10.8164966"><ele>138.0</ele><time>2026-04-04T14:21:38.619Z</time></trkpt><trkpt lat="43.5331697" lon="10.8165546"><ele>137.8</ele><time>2026-04-04T14:21:39.621Z</time></trkpt><trkpt lat="43.5332918" lon="10.8166108"><ele>137.60000000000002</ele><time>2026-04-04T14:21:40.62Z</time></trkpt><trkpt lat="43.5334009" lon="10.8166638"><ele>137.39999999999998</ele><time>2026-04-04T14:21:41.616Z</time></trkpt><trkpt lat="43.5334964" lon="10.8167117"><ele>137.2</ele><time>2026-04-04T14:21:42.617Z</time></trkpt><trkpt lat="43.5335692" lon="10.8167422"><ele>137.0</ele><time>2026-04-04T14:21:43.616Z</time></trkpt><trkpt lat="43.5336414" lon="10.8167725"><ele>138.2</ele><time>2026-04-04T14:21:44.618Z</time></trkpt><trkpt lat="43.533723" lon="10.8167559"><ele>139.39999999999998</ele><time>2026-04-04T14:21:45.621Z</time></trkpt><trkpt lat="43.5338171" lon="10.8167104"><ele>140.60000000000002</ele><time>2026-04-04T14:21:46.614Z</time></trkpt><trkpt lat="43.5339289" lon="10.816656"><ele>141.8</ele><time>2026-04-04T14:21:47.62Z</time></trkpt><trkpt lat="43.534061" lon="10.8166022"><ele>143.0</ele><time>2026-04-04T14:21:48.618Z</time></trkpt><trkpt lat="43.5342023" lon="10.8165733"><ele>143.0</ele><time>2026-04-04T14:21:49.612Z</time></trkpt><trkpt lat="43.5343467" lon="10.8165803"><ele>143.0</ele><time>2026-04-04T14:21:50.615Z</time></trkpt><trkpt lat="43.5345104" lon="10.8166357"><ele>143.0</ele><time>2026-04-04T14:21:51.61Z</time></trkpt><trkpt lat="43.5346403" lon="10.8166591"><ele>143.0</ele><time>2026-04-04T14:21:52.611Z</time></trkpt><trkpt lat="43.5347682" lon="10.8166802"><ele>144.8</ele><time>2026-04-04T14:21:53.603Z</time></trkpt><trkpt lat="43.5348919" lon="10.8167111"><ele>146.60000000000002</ele><time>2026-04-04T14:21:54.595Z</time></trkpt><trkpt lat="43.5349721" lon="10.8167434"><ele>148.39999999999998</ele><time>2026-04-04T14:21:55.598Z</time></trkpt><trkpt lat="43.5350733" lon="10.8167206"><ele>150.2</ele><time>2026-04-04T14:21:56.604Z</time></trkpt><trkpt lat="43.5351512" lon="10.8166943"><ele>152.0</ele><time>2026-04-04T14:21:57.6Z</time></trkpt><trkpt lat="43.5352382" lon="10.8166152"><ele>152.0</ele><time>2026-04-04T14:21:58.61Z</time></trkpt><trkpt lat="43.5353456" lon="10.8165115"><ele>152.0</ele><time>2026-04-04T14:21:59.604Z</time></trkpt><trkpt lat="43.535465" lon="10.8163904"><ele>152.0</ele><time>2026-04-04T14:22:00.604Z</time></trkpt><trkpt lat="43.5355986" lon="10.8162593"><ele>152.0</ele><time>2026-04-04T14:22:01.613Z</time></trkpt><trkpt lat="43.5357395" lon="10.8161278"><ele>155.0</ele><time>2026-04-04T14:22:02.614Z</time></trkpt><trkpt lat="43.5358474" lon="10.8160063"><ele>158.0</ele><time>2026-04-04T14:22:03.606Z</time></trkpt><trkpt lat="43.5359448" lon="10.815916"><ele>161.0</ele><time>2026-04-04T14:22:04.612Z</time></trkpt><trkpt lat="43.5360318" lon="10.8158432"><ele>164.0</ele><time>2026-04-04T14:22:05.611Z</time></trkpt><trkpt lat="43.5361236" lon="10.8157749"><ele>165.6</ele><time>2026-04-04T14:22:06.608Z</time></trkpt><trkpt lat="43.536221" lon="10.8157208"><ele>167.2</ele><time>2026-04-04T14:22:07.609Z</time></trkpt><trkpt lat="43.5363192" lon="10.8156871"><ele>168.79999999999998</ele><time>2026-04-04T14:22:08.612Z</time></trkpt><trkpt lat="43.5364331" lon="10.8156491"><ele>170.39999999999998</ele><time>2026-04-04T14:22:09.61Z</time></trkpt><trkpt lat="43.5365525" lon="10.8156218"><ele>172.0</ele><time>2026-04-04T14:22:10.605Z</time></trkpt><trkpt lat="43.5366638" lon="10.815614"><ele>172.0</ele><time>2026-04-04T14:22:11.607Z</time></trkpt><trkpt lat="43.5367538" lon="10.8156168"><ele>172.0</ele><time>2026-04-04T14:22:12.607Z</time></trkpt><trkpt lat="43.5368349" lon="10.815623"><ele>172.0</ele><time>2026-04-04T14:22:13.608Z</time></trkpt><trkpt lat="43.5369076" lon="10.8156383"><ele>172.0</ele><time>2026-04-04T14:22:14.604Z</time></trkpt><trkpt lat="43.5369906" lon="10.8156399"><ele>172.0</ele><time>2026-04-04T14:22:15.597Z</time></trkpt><trkpt lat="43.5370691" lon="10.8156161"><ele>172.0</ele><time>2026-04-04T14:22:16.593Z</time></trkpt><trkpt lat="43.5371884" lon="10.8155275"><ele>170.33333333333334</ele><time>2026-04-04T14:22:18.593Z</time></trkpt><trkpt lat="43.5372437" lon="10.8154401"><ele>168.66666666666669</ele><time>2026-04-04T14:22:19.6Z</time></trkpt><trkpt lat="43.5372848" lon="10.8153435"><ele>167.0</ele><time>2026-04-04T14:22:20.6Z</time></trkpt><trkpt lat="43.5373107" lon="10.8152381"><ele>165.33333333333334</ele><time>2026-04-04T14:22:21.602Z</time></trkpt><trkpt lat="43.5373179" lon="10.8151471"><ele>163.66666666666666</ele><time>2026-04-04T14:22:22.608Z</time></trkpt><trkpt lat="43.5373334" lon="10.8150399"><ele>162.0</ele><time>2026-04-04T14:22:24.614Z</time></trkpt><trkpt lat="43.537347" lon="10.8151314"><ele>162.0</ele><time>2026-04-04T14:22:28.62Z</time></trkpt><trkpt lat="43.5373781" lon="10.8152537"><ele>162.0</ele><time>2026-04-04T14:22:30.615Z</time></trkpt><trkpt lat="43.5374256" lon="10.8154272"><ele>162.0</ele><time>2026-04-04T14:22:32.62Z</time></trkpt><trkpt lat="43.5374507" lon="10.8155332"><ele>162.0</ele><time>2026-04-04T14:22:33.612Z</time></trkpt><trkpt lat="43.5374833" lon="10.8156454"><ele>162.0</ele><time>2026-04-04T14:22:34.612Z</time></trkpt><trkpt lat="43.5375134" lon="10.8157687"><ele>162.0</ele><time>2026-04-04T14:22:35.618Z</time></trkpt><trkpt lat="43.5375453" lon="10.8158862"><ele>162.0</ele><time>2026-04-04T14:22:36.613Z</time></trkpt><trkpt lat="43.5375794" lon="10.8159833"><ele>162.0</ele><time>2026-04-04T14:22:37.618Z</time></trkpt><trkpt lat="43.5376152" lon="10.8160756"><ele>162.0</ele><time>2026-04-04T14:22:38.615Z</time></trkpt><trkpt lat="43.5376474" lon="10.8161637"><ele>162.0</ele><time>2026-04-04T14:22:39.618Z</time></trkpt><trkpt lat="43.5376764" lon="10.8162457"><ele>162.0</ele><time>2026-04-04T14:22:40.616Z</time></trkpt><trkpt lat="43.5377089" lon="10.8163221"><ele>162.0</ele><time>2026-04-04T14:22:41.616Z</time></trkpt><trkpt lat="43.5377533" lon="10.8164099"><ele>161.66666666666666</ele><time>2026-04-04T14:22:42.615Z</time></trkpt><trkpt lat="43.5377816" lon="10.8165091"><ele>161.33333333333334</ele><time>2026-04-04T14:22:43.619Z</time></trkpt><trkpt lat="43.5378163" lon="10.8166082"><ele>161.0</ele><time>2026-04-04T14:22:44.615Z</time></trkpt><trkpt lat="43.5378504" lon="10.8167108"><ele>160.66666666666669</ele><time>2026-04-04T14:22:45.634Z</time></trkpt><trkpt lat="43.5378904" lon="10.8168225"><ele>160.33333333333334</ele><time>2026-04-04T14:22:46.629Z</time></trkpt><trkpt lat="43.537942" lon="10.8169307"><ele>160.0</ele><time>2026-04-04T14:22:48.707Z</time></trkpt><trkpt lat="43.5379949" lon="10.8170498"><ele>160.0</ele><time>2026-04-04T14:22:49.707Z</time></trkpt><trkpt lat="43.5380532" lon="10.8171764"><ele>160.0</ele><time>2026-04-04T14:22:50.707Z</time></trkpt><trkpt lat="43.5381147" lon="10.8173101"><ele>160.0</ele><time>2026-04-04T14:22:51.706Z</time></trkpt><trkpt lat="43.5381752" lon="10.817451"><ele>160.0</ele><time>2026-04-04T14:22:52.719Z</time></trkpt><trkpt lat="43.5382404" lon="10.8175986"><ele>162.75</ele><time>2026-04-04T14:22:53.708Z</time></trkpt><trkpt lat="43.5383129" lon="10.8177544"><ele>165.5</ele><time>2026-04-04T14:22:54.712Z</time></trkpt><trkpt lat="43.5383913" lon="10.8179214"><ele>168.25</ele><time>2026-04-04T14:22:55.702Z</time></trkpt><trkpt lat="43.5384659" lon="10.8180917"><ele>171.0</ele><time>2026-04-04T14:22:56.705Z</time></trkpt><trkpt lat="43.5385347" lon="10.818264"><ele>171.0</ele><time>2026-04-04T14:22:57.7Z</time></trkpt><trkpt lat="43.5385893" lon="10.8184306"><ele>171.0</ele><time>2026-04-04T14:22:58.702Z</time></trkpt><trkpt lat="43.538651" lon="10.8186234"><ele>171.0</ele><time>2026-04-04T14:22:59.707Z</time></trkpt><trkpt lat="43.5386786" lon="10.8187867"><ele>171.0</ele><time>2026-04-04T14:23:00.689Z</time></trkpt><trkpt lat="43.538704" lon="10.818957"><ele>169.25</ele><time>2026-04-04T14:23:01.693Z</time></trkpt><trkpt lat="43.5387383" lon="10.8191371"><ele>167.5</ele><time>2026-04-04T14:23:02.699Z</time></trkpt><trkpt lat="43.5387805" lon="10.819328"><ele>165.75</ele><time>2026-04-04T14:23:03.687Z</time></trkpt><trkpt lat="43.5388294" lon="10.819534"><ele>164.0</ele><time>2026-04-04T14:23:04.707Z</time></trkpt><trkpt lat="43.5388869" lon="10.8197486"><ele>164.0</ele><time>2026-04-04T14:23:05.705Z</time></trkpt><trkpt lat="43.5389442" lon="10.8199623"><ele>164.0</ele><time>2026-04-04T14:23:06.706Z</time></trkpt><trkpt lat="43.5389913" lon="10.8201547"><ele>164.0</ele><time>2026-04-04T14:23:07.699Z</time></trkpt><trkpt lat="43.5390326" lon="10.8203532"><ele>164.66666666666666</ele><time>2026-04-04T14:23:08.695Z</time></trkpt><trkpt lat="43.5390611" lon="10.820569"><ele>165.33333333333334</ele><time>2026-04-04T14:23:09.698Z</time></trkpt><trkpt lat="43.5390702" lon="10.8207765"><ele>166.0</ele><time>2026-04-04T14:23:10.684Z</time></trkpt><trkpt lat="43.5390707" lon="10.8209997"><ele>166.33333333333334</ele><time>2026-04-04T14:23:11.689Z</time></trkpt><trkpt lat="43.5390695" lon="10.8212284"><ele>166.66666666666666</ele><time>2026-04-04T14:23:12.695Z</time></trkpt><trkpt lat="43.5390709" lon="10.8214547"><ele>167.0</ele><time>2026-04-04T14:23:13.683Z</time></trkpt><trkpt lat="43.5390803" lon="10.8216836"><ele>167.66666666666666</ele><time>2026-04-04T14:23:14.696Z</time></trkpt><trkpt lat="43.5391049" lon="10.8219197"><ele>168.33333333333334</ele><time>2026-04-04T14:23:15.711Z</time></trkpt><trkpt lat="43.5391384" lon="10.8221639"><ele>169.0</ele><time>2026-04-04T14:23:16.695Z</time></trkpt><trkpt lat="43.5391747" lon="10.8224059"><ele>169.0</ele><time>2026-04-04T14:23:17.692Z</time></trkpt><trkpt lat="43.5392083" lon="10.8226333"><ele>169.0</ele><time>2026-04-04T14:23:18.698Z</time></trkpt><trkpt lat="43.539241" lon="10.8228577"><ele>169.0</ele><time>2026-04-04T14:23:19.692Z</time></trkpt><trkpt lat="43.5392744" lon="10.823077"><ele>169.0</ele><time>2026-04-04T14:23:20.707Z</time></trkpt><trkpt lat="43.5393126" lon="10.8232917"><ele>169.0</ele><time>2026-04-04T14:23:21.695Z</time></trkpt><trkpt lat="43.5393444" lon="10.8235001"><ele>169.0</ele><time>2026-04-04T14:23:22.718Z</time></trkpt><trkpt lat="43.539378" lon="10.8236997"><ele>167.75</ele><time>2026-04-04T14:23:23.7Z</time></trkpt><trkpt lat="43.5394035" lon="10.8238891"><ele>166.5</ele><time>2026-04-04T14:23:24.707Z</time></trkpt><trkpt lat="43.5394262" lon="10.8240731"><ele>165.25</ele><time>2026-04-04T14:23:25.71Z</time></trkpt><trkpt lat="43.5394509" lon="10.8242662"><ele>164.0</ele><time>2026-04-04T14:23:26.71Z</time></trkpt><trkpt lat="43.5394808" lon="10.8244689"><ele>163.0</ele><time>2026-04-04T14:23:27.708Z</time></trkpt><trkpt lat="43.5395127" lon="10.8246842"><ele>162.0</ele><time>2026-04-04T14:23:28.7Z</time></trkpt><trkpt lat="43.5395432" lon="10.8248978"><ele>161.0</ele><time>2026-04-04T14:23:29.702Z</time></trkpt><trkpt lat="43.5395734" lon="10.8251063"><ele>160.5</ele><time>2026-04-04T14:23:30.708Z</time></trkpt><trkpt lat="43.5395967" lon="10.8253082"><ele>160.0</ele><time>2026-04-04T14:23:31.705Z</time></trkpt><trkpt lat="43.5396212" lon="10.8255051"><ele>159.5</ele><time>2026-04-04T14:23:32.719Z</time></trkpt><trkpt lat="43.5396476" lon="10.8256989"><ele>159.0</ele><time>2026-04-04T14:23:33.71Z</time></trkpt><trkpt lat="43.539675" lon="10.82589"><ele>158.25</ele><time>2026-04-04T14:23:34.71Z</time></trkpt><trkpt lat="43.5397028" lon="10.826078"><ele>157.5</ele><time>2026-04-04T14:23:35.71Z</time></trkpt><trkpt lat="43.5397285" lon="10.8262618"><ele>156.75</ele><time>2026-04-04T14:23:36.708Z</time></trkpt><trkpt lat="43.5397547" lon="10.8264381"><ele>156.0</ele><time>2026-04-04T14:23:37.705Z</time></trkpt><trkpt lat="43.5397807" lon="10.8266089"><ele>156.0</ele><time>2026-04-04T14:23:38.706Z</time></trkpt><trkpt lat="43.5398042" lon="10.826769"><ele>156.0</ele><time>2026-04-04T14:23:39.705Z</time></trkpt><trkpt lat="43.5398303" lon="10.8269529"><ele>156.0</ele><time>2026-04-04T14:23:40.707Z</time></trkpt><trkpt lat="43.5398559" lon="10.8271291"><ele>156.0</ele><time>2026-04-04T14:23:41.708Z</time></trkpt><trkpt lat="43.53988" lon="10.8272909"><ele>155.16666666666666</ele><time>2026-04-04T14:23:42.717Z</time></trkpt><trkpt lat="43.539899" lon="10.8274413"><ele>154.33333333333334</ele><time>2026-04-04T14:23:43.71Z</time></trkpt><trkpt lat="43.5399177" lon="10.8275917"><ele>153.5</ele><time>2026-04-04T14:23:44.696Z</time></trkpt><trkpt lat="43.5399263" lon="10.8276838"><ele>152.66666666666669</ele><time>2026-04-04T14:23:45.698Z</time></trkpt><trkpt lat="43.5399412" lon="10.8277914"><ele>151.83333333333334</ele><time>2026-04-04T14:23:47.707Z</time></trkpt><trkpt lat="43.5399657" lon="10.8278954"><ele>151.0</ele><time>2026-04-04T14:23:48.696Z</time></trkpt><trkpt lat="43.5400027" lon="10.8279865"><ele>151.0</ele><time>2026-04-04T14:23:49.689Z</time></trkpt><trkpt lat="43.5400997" lon="10.8280288"><ele>151.0</ele><time>2026-04-04T14:23:51.701Z</time></trkpt><trkpt lat="43.5401699" lon="10.8279248"><ele>151.0</ele><time>2026-04-04T14:23:53.717Z</time></trkpt><trkpt lat="43.5402198" lon="10.8278205"><ele>151.0</ele><time>2026-04-04T14:23:54.689Z</time></trkpt><trkpt lat="43.5402882" lon="10.8276884"><ele>151.0</ele><time>2026-04-04T14:23:55.694Z</time></trkpt><trkpt lat="43.5403345" lon="10.8276076"><ele>149.0</ele><time>2026-04-04T14:23:56.694Z</time></trkpt><trkpt lat="43.5403942" lon="10.8274919"><ele>147.0</ele><time>2026-04-04T14:23:57.692Z</time></trkpt><trkpt lat="43.5404419" lon="10.827389"><ele>145.0</ele><time>2026-04-04T14:23:58.706Z</time></trkpt><trkpt lat="43.540501" lon="10.8272486"><ele>143.0</ele><time>2026-04-04T14:23:59.701Z</time></trkpt><trkpt lat="43.5405517" lon="10.827103"><ele>141.0</ele><time>2026-04-04T14:24:00.704Z</time></trkpt><trkpt lat="43.540601" lon="10.8269369"><ele>141.5</ele><time>2026-04-04T14:24:01.694Z</time></trkpt><trkpt lat="43.5406484" lon="10.8267607"><ele>142.0</ele><time>2026-04-04T14:24:02.705Z</time></trkpt><trkpt lat="43.5406946" lon="10.8265755"><ele>142.5</ele><time>2026-04-04T14:24:03.693Z</time></trkpt><trkpt lat="43.5407401" lon="10.8263827"><ele>143.0</ele><time>2026-04-04T14:24:04.694Z</time></trkpt><trkpt lat="43.5407839" lon="10.8261923"><ele>143.0</ele><time>2026-04-04T14:24:05.717Z</time></trkpt><trkpt lat="43.5408243" lon="10.8260075"><ele>143.0</ele><time>2026-04-04T14:24:06.713Z</time></trkpt><trkpt lat="43.5408642" lon="10.8258345"><ele>143.0</ele><time>2026-04-04T14:24:07.716Z</time></trkpt><trkpt lat="43.5409059" lon="10.8256608"><ele>143.0</ele><time>2026-04-04T14:24:08.724Z</time></trkpt><trkpt lat="43.5409525" lon="10.8254808"><ele>142.5</ele><time>2026-04-04T14:24:09.717Z</time></trkpt><trkpt lat="43.5410019" lon="10.8253001"><ele>142.0</ele><time>2026-04-04T14:24:10.716Z</time></trkpt><trkpt lat="43.5410555" lon="10.8251227"><ele>141.5</ele><time>2026-04-04T14:24:11.717Z</time></trkpt><trkpt lat="43.5411056" lon="10.8249451"><ele>141.0</ele><time>2026-04-04T14:24:12.73Z</time></trkpt><trkpt lat="43.5411597" lon="10.8247662"><ele>137.0</ele><time>2026-04-04T14:24:13.723Z</time></trkpt><trkpt lat="43.5412194" lon="10.8245764"><ele>133.0</ele><time>2026-04-04T14:24:14.717Z</time></trkpt><trkpt lat="43.5412767" lon="10.8243906"><ele>129.0</ele><time>2026-04-04T14:24:15.726Z</time></trkpt><trkpt lat="43.5413339" lon="10.8242132"><ele>125.0</ele><time>2026-04-04T14:24:16.721Z</time></trkpt><trkpt lat="43.5413913" lon="10.8240369"><ele>125.0</ele><time>2026-04-04T14:24:17.721Z</time></trkpt><trkpt lat="43.5414475" lon="10.8238631"><ele>125.0</ele><time>2026-04-04T14:24:18.72Z</time></trkpt><trkpt lat="43.5415035" lon="10.8236842"><ele>125.0</ele><time>2026-04-04T14:24:19.709Z</time></trkpt><trkpt lat="43.541559" lon="10.8235062"><ele>125.0</ele><time>2026-04-04T14:24:20.714Z</time></trkpt><trkpt lat="43.5416092" lon="10.8233404"><ele>125.0</ele><time>2026-04-04T14:24:21.713Z</time></trkpt><trkpt lat="43.5416543" lon="10.8231812"><ele>125.0</ele><time>2026-04-04T14:24:22.721Z</time></trkpt><trkpt lat="43.541699" lon="10.8230279"><ele>125.0</ele><time>2026-04-04T14:24:23.707Z</time></trkpt><trkpt lat="43.5417411" lon="10.8228814"><ele>125.0</ele><time>2026-04-04T14:24:24.713Z</time></trkpt><trkpt lat="43.54177" lon="10.8227334"><ele>124.4</ele><time>2026-04-04T14:24:25.708Z</time></trkpt><trkpt lat="43.5417948" lon="10.8225918"><ele>123.8</ele><time>2026-04-04T14:24:26.696Z</time></trkpt><trkpt lat="43.5418025" lon="10.8224426"><ele>123.19999999999999</ele><time>2026-04-04T14:24:27.695Z</time></trkpt><trkpt lat="43.5418019" lon="10.8222834"><ele>122.6</ele><time>2026-04-04T14:24:28.694Z</time></trkpt><trkpt lat="43.5418036" lon="10.8221228"><ele>122.0</ele><time>2026-04-04T14:24:29.696Z</time></trkpt><trkpt lat="43.5418135" lon="10.8219659"><ele>122.0</ele><time>2026-04-04T14:24:30.702Z</time></trkpt><trkpt lat="43.5418397" lon="10.8218208"><ele>121.99999999999999</ele><time>2026-04-04T14:24:31.702Z</time></trkpt><trkpt lat="43.5418771" lon="10.8216773"><ele>121.99999999999999</ele><time>2026-04-04T14:24:32.701Z</time></trkpt><trkpt lat="43.5419291" lon="10.8215407"><ele>122.0</ele><time>2026-04-04T14:24:33.687Z</time></trkpt><trkpt lat="43.5419959" lon="10.8214142"><ele>122.0</ele><time>2026-04-04T14:24:34.685Z</time></trkpt><trkpt lat="43.5420696" lon="10.8212925"><ele>117.5</ele><time>2026-04-04T14:24:35.694Z</time></trkpt><trkpt lat="43.5421381" lon="10.8211683"><ele>113.0</ele><time>2026-04-04T14:24:36.704Z</time></trkpt><trkpt lat="43.5422087" lon="10.8210384"><ele>108.5</ele><time>2026-04-04T14:24:37.699Z</time></trkpt><trkpt lat="43.5422723" lon="10.8209032"><ele>104.0</ele><time>2026-04-04T14:24:38.696Z</time></trkpt><trkpt lat="43.5423222" lon="10.8207504"><ele>104.0</ele><time>2026-04-04T14:24:39.691Z</time></trkpt><trkpt lat="43.5423671" lon="10.8205791"><ele>104.0</ele><time>2026-04-04T14:24:40.689Z</time></trkpt><trkpt lat="43.5424135" lon="10.8204007"><ele>104.0</ele><time>2026-04-04T14:24:41.691Z</time></trkpt><trkpt lat="43.5424529" lon="10.8202262"><ele>104.0</ele><time>2026-04-04T14:24:42.701Z</time></trkpt><trkpt lat="43.5424898" lon="10.8200583"><ele>103.25</ele><time>2026-04-04T14:24:43.703Z</time></trkpt><trkpt lat="43.5425216" lon="10.8198897"><ele>102.5</ele><time>2026-04-04T14:24:44.704Z</time></trkpt><trkpt lat="43.5425395" lon="10.8197169"><ele>101.75</ele><time>2026-04-04T14:24:45.704Z</time></trkpt><trkpt lat="43.54256" lon="10.8195264"><ele>101.0</ele><time>2026-04-04T14:24:46.705Z</time></trkpt><trkpt lat="43.5425787" lon="10.8193307"><ele>100.0</ele><time>2026-04-04T14:24:47.697Z</time></trkpt><trkpt lat="43.5425975" lon="10.8191349"><ele>99.0</ele><time>2026-04-04T14:24:48.706Z</time></trkpt><trkpt lat="43.542614" lon="10.8189375"><ele>98.0</ele><time>2026-04-04T14:24:49.704Z</time></trkpt><trkpt lat="43.5426276" lon="10.8187471"><ele>97.0</ele><time>2026-04-04T14:24:50.712Z</time></trkpt><trkpt lat="43.5426422" lon="10.8185655"><ele>95.75</ele><time>2026-04-04T14:24:51.713Z</time></trkpt><trkpt lat="43.5426522" lon="10.8183875"><ele>94.5</ele><time>2026-04-04T14:24:52.72Z</time></trkpt><trkpt lat="43.542659" lon="10.8182157"><ele>93.25</ele><time>2026-04-04T14:24:53.712Z</time></trkpt><trkpt lat="43.5426659" lon="10.8180458"><ele>92.0</ele><time>2026-04-04T14:24:54.714Z</time></trkpt><trkpt lat="43.5426723" lon="10.8178875"><ele>92.0</ele><time>2026-04-04T14:24:55.702Z</time></trkpt><trkpt lat="43.5426749" lon="10.8177418"><ele>92.0</ele><time>2026-04-04T14:24:56.707Z</time></trkpt><trkpt lat="43.5426938" lon="10.8176184"><ele>92.0</ele><time>2026-04-04T14:24:57.706Z</time></trkpt><trkpt lat="43.5427239" lon="10.8175048"><ele>92.0</ele><time>2026-04-04T14:24:58.692Z</time></trkpt><trkpt lat="43.5427685" lon="10.8173929"><ele>92.0</ele><time>2026-04-04T14:24:59.693Z</time></trkpt><trkpt lat="43.5428307" lon="10.8172987"><ele>89.0</ele><time>2026-04-04T14:25:00.687Z</time></trkpt><trkpt lat="43.542912" lon="10.817215"><ele>86.0</ele><time>2026-04-04T14:25:01.69Z</time></trkpt><trkpt lat="43.5430155" lon="10.8171473"><ele>83.0</ele><time>2026-04-04T14:25:02.705Z</time></trkpt><trkpt lat="43.5431439" lon="10.8170878"><ele>80.0</ele><time>2026-04-04T14:25:03.694Z</time></trkpt><trkpt lat="43.5432962" lon="10.8170224"><ele>80.0</ele><time>2026-04-04T14:25:04.703Z</time></trkpt><trkpt lat="43.5434619" lon="10.8169511"><ele>80.0</ele><time>2026-04-04T14:25:05.693Z</time></trkpt><trkpt lat="43.5436128" lon="10.8168858"><ele>80.0</ele><time>2026-04-04T14:25:06.694Z</time></trkpt><trkpt lat="43.5437337" lon="10.8168333"><ele>81.0</ele><time>2026-04-04T14:25:07.693Z</time></trkpt><trkpt lat="43.543841" lon="10.8167897"><ele>82.0</ele><time>2026-04-04T14:25:08.7Z</time></trkpt><trkpt lat="43.5439435" lon="10.8167624"><ele>83.0</ele><time>2026-04-04T14:25:09.697Z</time></trkpt><trkpt lat="43.5440422" lon="10.816751"><ele>84.0</ele><time>2026-04-04T14:25:10.686Z</time></trkpt><trkpt lat="43.5441273" lon="10.8167668"><ele>85.0</ele><time>2026-04-04T14:25:11.681Z</time></trkpt><trkpt lat="43.5442001" lon="10.8168099"><ele>84.6</ele><time>2026-04-04T14:25:12.691Z</time></trkpt><trkpt lat="43.5442628" lon="10.8168843"><ele>84.2</ele><time>2026-04-04T14:25:13.68Z</time></trkpt><trkpt lat="43.5443224" lon="10.8169871"><ele>83.80000000000001</ele><time>2026-04-04T14:25:14.692Z</time></trkpt><trkpt lat="43.5443755" lon="10.8171172"><ele>83.4</ele><time>2026-04-04T14:25:15.695Z</time></trkpt><trkpt lat="43.544412" lon="10.817262"><ele>83.0</ele><time>2026-04-04T14:25:16.684Z</time></trkpt><trkpt lat="43.5444384" lon="10.81743"><ele>83.0</ele><time>2026-04-04T14:25:17.68Z</time></trkpt><trkpt lat="43.5444666" lon="10.8176308"><ele>83.0</ele><time>2026-04-04T14:25:18.687Z</time></trkpt><trkpt lat="43.5444931" lon="10.8178582"><ele>83.0</ele><time>2026-04-04T14:25:19.679Z</time></trkpt><trkpt lat="43.5445273" lon="10.8181126"><ele>87.33333333333334</ele><time>2026-04-04T14:25:20.703Z</time></trkpt><trkpt lat="43.5445668" lon="10.818399"><ele>91.66666666666667</ele><time>2026-04-04T14:25:21.694Z</time></trkpt><trkpt lat="43.5446022" lon="10.8186643"><ele>96.0</ele><time>2026-04-04T14:25:22.71Z</time></trkpt><trkpt lat="43.5446324" lon="10.8189086"><ele>96.25</ele><time>2026-04-04T14:25:23.697Z</time></trkpt><trkpt lat="43.5446589" lon="10.819114"><ele>96.5</ele><time>2026-04-04T14:25:24.696Z</time></trkpt><trkpt lat="43.5446834" lon="10.8192961"><ele>96.75</ele><time>2026-04-04T14:25:25.69Z</time></trkpt><trkpt lat="43.5447143" lon="10.819447"><ele>97.0</ele><time>2026-04-04T14:25:26.703Z</time></trkpt><trkpt lat="43.5447566" lon="10.8195957"><ele>97.0</ele><time>2026-04-04T14:25:27.703Z</time></trkpt><trkpt lat="43.5448123" lon="10.8197329"><ele>97.0</ele><time>2026-04-04T14:25:28.693Z</time></trkpt><trkpt lat="43.5448862" lon="10.8198675"><ele>97.0</ele><time>2026-04-04T14:25:29.691Z</time></trkpt><trkpt lat="43.5449767" lon="10.8199804"><ele>97.0</ele><time>2026-04-04T14:25:30.679Z</time></trkpt><trkpt lat="43.5450899" lon="10.8201037"><ele>96.5</ele><time>2026-04-04T14:25:31.683Z</time></trkpt><trkpt lat="43.5452" lon="10.8202234"><ele>96.0</ele><time>2026-04-04T14:25:32.706Z</time></trkpt><trkpt lat="43.5452853" lon="10.8203331"><ele>95.5</ele><time>2026-04-04T14:25:33.689Z</time></trkpt><trkpt lat="43.5453481" lon="10.820456"><ele>95.0</ele><time>2026-04-04T14:25:34.688Z</time></trkpt><trkpt lat="43.5453943" lon="10.82061"><ele>99.66666666666667</ele><time>2026-04-04T14:25:35.687Z</time></trkpt><trkpt lat="43.5454458" lon="10.8208141"><ele>104.33333333333334</ele><time>2026-04-04T14:25:36.685Z</time></trkpt><trkpt lat="43.5454953" lon="10.8210314"><ele>109.0</ele><time>2026-04-04T14:25:37.686Z</time></trkpt><trkpt lat="43.5455353" lon="10.8212439"><ele>109.25</ele><time>2026-04-04T14:25:38.689Z</time></trkpt><trkpt lat="43.5455736" lon="10.8214448"><ele>109.5</ele><time>2026-04-04T14:25:39.698Z</time></trkpt><trkpt lat="43.545608" lon="10.8216271"><ele>109.75</ele><time>2026-04-04T14:25:40.698Z</time></trkpt><trkpt lat="43.545651" lon="10.8218235"><ele>110.0</ele><time>2026-04-04T14:25:41.702Z</time></trkpt><trkpt lat="43.5457035" lon="10.8220253"><ele>110.0</ele><time>2026-04-04T14:25:42.716Z</time></trkpt><trkpt lat="43.5457659" lon="10.8221968"><ele>110.0</ele><time>2026-04-04T14:25:43.703Z</time></trkpt><trkpt lat="43.545836" lon="10.8223576"><ele>110.0</ele><time>2026-04-04T14:25:44.714Z</time></trkpt><trkpt lat="43.5459043" lon="10.822507"><ele>110.0</ele><time>2026-04-04T14:25:45.706Z</time></trkpt><trkpt lat="43.545963" lon="10.8226383"><ele>109.49999999999999</ele><time>2026-04-04T14:25:46.706Z</time></trkpt><trkpt lat="43.5460198" lon="10.8227457"><ele>109.0</ele><time>2026-04-04T14:25:47.696Z</time></trkpt><trkpt lat="43.5460771" lon="10.8228136"><ele>108.5</ele><time>2026-04-04T14:25:48.704Z</time></trkpt><trkpt lat="43.5461434" lon="10.8228553"><ele>108.0</ele><time>2026-04-04T14:25:49.686Z</time></trkpt><trkpt lat="43.546217" lon="10.8228678"><ele>107.49999999999999</ele><time>2026-04-04T14:25:50.692Z</time></trkpt><trkpt lat="43.5462934" lon="10.822841"><ele>107.0</ele><time>2026-04-04T14:25:51.681Z</time></trkpt><trkpt lat="43.5463465" lon="10.8227854"><ele>109.49999999999999</ele><time>2026-04-04T14:25:52.696Z</time></trkpt><trkpt lat="43.5463894" lon="10.822692"><ele>112.0</ele><time>2026-04-04T14:25:53.703Z</time></trkpt><trkpt lat="43.5464229" lon="10.8225823"><ele>114.5</ele><time>2026-04-04T14:25:54.699Z</time></trkpt><trkpt lat="43.54645" lon="10.8224892"><ele>117.0</ele><time>2026-04-04T14:25:55.706Z</time></trkpt><trkpt lat="43.5464655" lon="10.8223925"><ele>119.49999999999999</ele><time>2026-04-04T14:25:56.701Z</time></trkpt><trkpt lat="43.5464882" lon="10.8222726"><ele>122.0</ele><time>2026-04-04T14:25:57.693Z</time></trkpt><trkpt lat="43.5465248" lon="10.8221261"><ele>122.5</ele><time>2026-04-04T14:25:58.698Z</time></trkpt><trkpt lat="43.5465648" lon="10.8219554"><ele>123.0</ele><time>2026-04-04T14:25:59.696Z</time></trkpt><trkpt lat="43.5466116" lon="10.8217574"><ele>123.5</ele><time>2026-04-04T14:26:00.702Z</time></trkpt><trkpt lat="43.5466639" lon="10.821541"><ele>124.0</ele><time>2026-04-04T14:26:01.707Z</time></trkpt><trkpt lat="43.5467156" lon="10.8213093"><ele>125.0</ele><time>2026-04-04T14:26:02.707Z</time></trkpt><trkpt lat="43.5467583" lon="10.8211008"><ele>126.0</ele><time>2026-04-04T14:26:03.713Z</time></trkpt><trkpt lat="43.546802" lon="10.8208921"><ele>127.0</ele><time>2026-04-04T14:26:04.705Z</time></trkpt><trkpt lat="43.5468375" lon="10.8207086"><ele>127.33333333333334</ele><time>2026-04-04T14:26:05.693Z</time></trkpt><trkpt lat="43.5468695" lon="10.8205698"><ele>127.66666666666667</ele><time>2026-04-04T14:26:06.697Z</time></trkpt><trkpt lat="43.5469111" lon="10.8204611"><ele>128.0</ele><time>2026-04-04T14:26:07.697Z</time></trkpt><trkpt lat="43.5469543" lon="10.8203861"><ele>128.33333333333334</ele><time>2026-04-04T14:26:08.681Z</time></trkpt><trkpt lat="43.5470139" lon="10.8203536"><ele>128.66666666666666</ele><time>2026-04-04T14:26:09.69Z</time></trkpt><trkpt lat="43.5470779" lon="10.8203471"><ele>129.0</ele><time>2026-04-04T14:26:10.676Z</time></trkpt><trkpt lat="43.5472013" lon="10.8204154"><ele>132.0</ele><time>2026-04-04T14:26:12.687Z</time></trkpt><trkpt lat="43.5472561" lon="10.8204843"><ele>135.0</ele><time>2026-04-04T14:26:13.686Z</time></trkpt><trkpt lat="43.547307" lon="10.8205632"><ele>138.0</ele><time>2026-04-04T14:26:14.679Z</time></trkpt><trkpt lat="43.5473757" lon="10.8206637"><ele>141.0</ele><time>2026-04-04T14:26:15.673Z</time></trkpt><trkpt lat="43.5474631" lon="10.8207905"><ele>144.0</ele><time>2026-04-04T14:26:16.681Z</time></trkpt><trkpt lat="43.547564" lon="10.8209362"><ele>143.75</ele><time>2026-04-04T14:26:17.68Z</time></trkpt><trkpt lat="43.5476613" lon="10.8210717"><ele>143.5</ele><time>2026-04-04T14:26:18.701Z</time></trkpt><trkpt lat="43.5477569" lon="10.8212052"><ele>143.25</ele><time>2026-04-04T14:26:19.712Z</time></trkpt><trkpt lat="43.5478497" lon="10.8213289"><ele>143.0</ele><time>2026-04-04T14:26:20.708Z</time></trkpt><trkpt lat="43.547948" lon="10.8214606"><ele>144.0</ele><time>2026-04-04T14:26:21.701Z</time></trkpt><trkpt lat="43.5480463" lon="10.8216041"><ele>145.0</ele><time>2026-04-04T14:26:22.71Z</time></trkpt><trkpt lat="43.5481418" lon="10.8217527"><ele>146.0</ele><time>2026-04-04T14:26:23.704Z</time></trkpt><trkpt lat="43.5482337" lon="10.8218896"><ele>147.0</ele><time>2026-04-04T14:26:24.708Z</time></trkpt><trkpt lat="43.5483224" lon="10.822009"><ele>146.5</ele><time>2026-04-04T14:26:25.708Z</time></trkpt><trkpt lat="43.5484193" lon="10.8221115"><ele>146.0</ele><time>2026-04-04T14:26:26.71Z</time></trkpt><trkpt lat="43.5485185" lon="10.8221993"><ele>145.5</ele><time>2026-04-04T14:26:27.709Z</time></trkpt><trkpt lat="43.5486257" lon="10.8222778"><ele>145.0</ele><time>2026-04-04T14:26:28.695Z</time></trkpt><trkpt lat="43.5487386" lon="10.8223513"><ele>145.0</ele><time>2026-04-04T14:26:29.707Z</time></trkpt><trkpt lat="43.5488597" lon="10.8224075"><ele>145.0</ele><time>2026-04-04T14:26:30.691Z</time></trkpt><trkpt lat="43.5489952" lon="10.8224528"><ele>145.0</ele><time>2026-04-04T14:26:31.693Z</time></trkpt><trkpt lat="43.5491567" lon="10.8224978"><ele>145.0</ele><time>2026-04-04T14:26:32.711Z</time></trkpt><trkpt lat="43.5493465" lon="10.8225441"><ele>143.33333333333334</ele><time>2026-04-04T14:26:33.715Z</time></trkpt><trkpt lat="43.5495461" lon="10.8225936"><ele>141.66666666666666</ele><time>2026-04-04T14:26:34.711Z</time></trkpt><trkpt lat="43.5497527" lon="10.8226471"><ele>140.0</ele><time>2026-04-04T14:26:35.714Z</time></trkpt><trkpt lat="43.5499581" lon="10.8226947"><ele>142.33333333333331</ele><time>2026-04-04T14:26:36.709Z</time></trkpt><trkpt lat="43.5501569" lon="10.8227413"><ele>144.66666666666666</ele><time>2026-04-04T14:26:37.72Z</time></trkpt><trkpt lat="43.5503431" lon="10.8227881"><ele>147.0</ele><time>2026-04-04T14:26:38.708Z</time></trkpt><trkpt lat="43.5505122" lon="10.8228414"><ele>147.0</ele><time>2026-04-04T14:26:39.725Z</time></trkpt><trkpt lat="43.5506634" lon="10.8228933"><ele>147.0</ele><time>2026-04-04T14:26:40.708Z</time></trkpt><trkpt lat="43.550796" lon="10.8229342"><ele>147.0</ele><time>2026-04-04T14:26:41.712Z</time></trkpt><trkpt lat="43.5509107" lon="10.8229569"><ele>147.0</ele><time>2026-04-04T14:26:42.71Z</time></trkpt><trkpt lat="43.5510356" lon="10.8229652"><ele>147.0</ele><time>2026-04-04T14:26:43.687Z</time></trkpt><trkpt lat="43.5511607" lon="10.822961"><ele>147.0</ele><time>2026-04-04T14:26:44.698Z</time></trkpt><trkpt lat="43.5512678" lon="10.8229537"><ele>147.0</ele><time>2026-04-04T14:26:45.694Z</time></trkpt><trkpt lat="43.5513603" lon="10.8229413"><ele>147.0</ele><time>2026-04-04T14:26:46.698Z</time></trkpt><trkpt lat="43.5514483" lon="10.8229051"><ele>147.0</ele><time>2026-04-04T14:26:47.704Z</time></trkpt><trkpt lat="43.5515215" lon="10.8228431"><ele>147.0</ele><time>2026-04-04T14:26:48.706Z</time></trkpt><trkpt lat="43.5515854" lon="10.8227571"><ele>147.0</ele><time>2026-04-04T14:26:49.708Z</time></trkpt><trkpt lat="43.5516604" lon="10.8226303"><ele>147.0</ele><time>2026-04-04T14:26:50.694Z</time></trkpt><trkpt lat="43.5517397" lon="10.8224894"><ele>147.0</ele><time>2026-04-04T14:26:51.695Z</time></trkpt><trkpt lat="43.5518378" lon="10.822312"><ele>144.33333333333334</ele><time>2026-04-04T14:26:52.696Z</time></trkpt><trkpt lat="43.5519619" lon="10.822082"><ele>141.66666666666669</ele><time>2026-04-04T14:26:53.717Z</time></trkpt><trkpt lat="43.5520762" lon="10.8218574"><ele>139.0</ele><time>2026-04-04T14:26:54.716Z</time></trkpt><trkpt lat="43.5521893" lon="10.8216404"><ele>136.33333333333334</ele><time>2026-04-04T14:26:55.713Z</time></trkpt><trkpt lat="43.5522998" lon="10.8214342"><ele>133.66666666666666</ele><time>2026-04-04T14:26:56.719Z</time></trkpt><trkpt lat="43.5524134" lon="10.821227"><ele>131.0</ele><time>2026-04-04T14:26:57.714Z</time></trkpt><trkpt lat="43.5525248" lon="10.8210282"><ele>129.33333333333331</ele><time>2026-04-04T14:26:58.72Z</time></trkpt><trkpt lat="43.5526332" lon="10.8208342"><ele>127.66666666666666</ele><time>2026-04-04T14:26:59.731Z</time></trkpt><trkpt lat="43.5527356" lon="10.8206455"><ele>126.0</ele><time>2026-04-04T14:27:00.717Z</time></trkpt><trkpt lat="43.5528348" lon="10.8204622"><ele>126.66666666666666</ele><time>2026-04-04T14:27:01.712Z</time></trkpt><trkpt lat="43.552936" lon="10.8202832"><ele>127.33333333333333</ele><time>2026-04-04T14:27:02.715Z</time></trkpt><trkpt lat="43.5530467" lon="10.8200918"><ele>128.0</ele><time>2026-04-04T14:27:03.71Z</time></trkpt><trkpt lat="43.5531537" lon="10.8199026"><ele>126.0</ele><time>2026-04-04T14:27:04.711Z</time></trkpt><trkpt lat="43.5532591" lon="10.8197182"><ele>124.0</ele><time>2026-04-04T14:27:05.714Z</time></trkpt><trkpt lat="43.5533682" lon="10.8195275"><ele>122.0</ele><time>2026-04-04T14:27:06.712Z</time></trkpt><trkpt lat="43.5534739" lon="10.819334"><ele>120.0</ele><time>2026-04-04T14:27:07.711Z</time></trkpt><trkpt lat="43.5535782" lon="10.8191476"><ele>118.0</ele><time>2026-04-04T14:27:08.716Z</time></trkpt><trkpt lat="43.5536841" lon="10.8189614"><ele>116.0</ele><time>2026-04-04T14:27:09.712Z</time></trkpt><trkpt lat="43.5537882" lon="10.8187768"><ele>115.0</ele><time>2026-04-04T14:27:10.733Z</time></trkpt><trkpt lat="43.5538915" lon="10.8185887"><ele>114.0</ele><time>2026-04-04T14:27:11.717Z</time></trkpt><trkpt lat="43.5539942" lon="10.8183988"><ele>113.0</ele><time>2026-04-04T14:27:12.714Z</time></trkpt><trkpt lat="43.5540964" lon="10.8182055"><ele>111.66666666666666</ele><time>2026-04-04T14:27:13.717Z</time></trkpt><trkpt lat="43.5541981" lon="10.8180184"><ele>110.33333333333334</ele><time>2026-04-04T14:27:14.718Z</time></trkpt><trkpt lat="43.5542975" lon="10.817836"><ele>109.0</ele><time>2026-04-04T14:27:15.728Z</time></trkpt><trkpt lat="43.5543984" lon="10.817653"><ele>107.0</ele><time>2026-04-04T14:27:16.714Z</time></trkpt><trkpt lat="43.5544978" lon="10.8174653"><ele>105.0</ele><time>2026-04-04T14:27:17.708Z</time></trkpt><trkpt lat="43.5545978" lon="10.8172777"><ele>103.0</ele><time>2026-04-04T14:27:18.721Z</time></trkpt><trkpt lat="43.5546983" lon="10.8170924"><ele>102.33333333333334</ele><time>2026-04-04T14:27:19.717Z</time></trkpt><trkpt lat="43.5547967" lon="10.8169148"><ele>101.66666666666666</ele><time>2026-04-04T14:27:20.726Z</time></trkpt><trkpt lat="43.5548911" lon="10.816748"><ele>101.0</ele><time>2026-04-04T14:27:21.721Z</time></trkpt><trkpt lat="43.5549816" lon="10.8165907"><ele>100.0</ele><time>2026-04-04T14:27:22.724Z</time></trkpt><trkpt lat="43.555065" lon="10.816442"><ele>99.0</ele><time>2026-04-04T14:27:23.715Z</time></trkpt><trkpt lat="43.5551426" lon="10.816298"><ele>98.0</ele><time>2026-04-04T14:27:24.714Z</time></trkpt><trkpt lat="43.5552163" lon="10.8161634"><ele>97.0</ele><time>2026-04-04T14:27:25.716Z</time></trkpt><trkpt lat="43.5552881" lon="10.8160302"><ele>95.8</ele><time>2026-04-04T14:27:26.715Z</time></trkpt><trkpt lat="43.5553609" lon="10.815905"><ele>94.6</ele><time>2026-04-04T14:27:27.716Z</time></trkpt><trkpt lat="43.5554338" lon="10.8157891"><ele>93.39999999999999</ele><time>2026-04-04T14:27:28.711Z</time></trkpt><trkpt lat="43.5555188" lon="10.8156941"><ele>92.19999999999999</ele><time>2026-04-04T14:27:29.695Z</time></trkpt><trkpt lat="43.5556131" lon="10.8156217"><ele>91.0</ele><time>2026-04-04T14:27:30.705Z</time></trkpt><trkpt lat="43.5557236" lon="10.8155618"><ele>90.33333333333333</ele><time>2026-04-04T14:27:31.688Z</time></trkpt><trkpt lat="43.5558525" lon="10.8155151"><ele>89.66666666666667</ele><time>2026-04-04T14:27:32.693Z</time></trkpt><trkpt lat="43.556006" lon="10.8154619"><ele>89.0</ele><time>2026-04-04T14:27:33.707Z</time></trkpt><trkpt lat="43.5561645" lon="10.8154101"><ele>86.33333333333334</ele><time>2026-04-04T14:27:34.711Z</time></trkpt><trkpt lat="43.5563209" lon="10.815361"><ele>83.66666666666667</ele><time>2026-04-04T14:27:35.713Z</time></trkpt><trkpt lat="43.5564728" lon="10.8153124"><ele>81.0</ele><time>2026-04-04T14:27:36.709Z</time></trkpt><trkpt lat="43.5566196" lon="10.8152628"><ele>81.0</ele><time>2026-04-04T14:27:37.714Z</time></trkpt><trkpt lat="43.5567613" lon="10.8152178"><ele>81.0</ele><time>2026-04-04T14:27:38.71Z</time></trkpt><trkpt lat="43.5569019" lon="10.815182"><ele>81.0</ele><time>2026-04-04T14:27:39.716Z</time></trkpt><trkpt lat="43.5570364" lon="10.8151708"><ele>81.0</ele><time>2026-04-04T14:27:40.717Z</time></trkpt><trkpt lat="43.5571723" lon="10.8151818"><ele>79.66666666666667</ele><time>2026-04-04T14:27:41.697Z</time></trkpt><trkpt lat="43.5573161" lon="10.8152062"><ele>78.33333333333334</ele><time>2026-04-04T14:27:42.699Z</time></trkpt><trkpt lat="43.5574728" lon="10.8152426"><ele>77.0</ele><time>2026-04-04T14:27:43.701Z</time></trkpt><trkpt lat="43.5576341" lon="10.8152811"><ele>77.0</ele><time>2026-04-04T14:27:44.705Z</time></trkpt><trkpt lat="43.5578049" lon="10.8153224"><ele>77.0</ele><time>2026-04-04T14:27:45.717Z</time></trkpt><trkpt lat="43.5579851" lon="10.8153726"><ele>77.0</ele><time>2026-04-04T14:27:46.717Z</time></trkpt><trkpt lat="43.5581796" lon="10.8154225"><ele>78.0</ele><time>2026-04-04T14:27:47.723Z</time></trkpt><trkpt lat="43.5583688" lon="10.8154657"><ele>79.0</ele><time>2026-04-04T14:27:48.719Z</time></trkpt><trkpt lat="43.5585599" lon="10.8155106"><ele>80.0</ele><time>2026-04-04T14:27:49.718Z</time></trkpt><trkpt lat="43.5587404" lon="10.8155529"><ele>80.33333333333334</ele><time>2026-04-04T14:27:50.729Z</time></trkpt><trkpt lat="43.5589198" lon="10.8155942"><ele>80.66666666666667</ele><time>2026-04-04T14:27:51.718Z</time></trkpt><trkpt lat="43.5590897" lon="10.8156342"><ele>81.0</ele><time>2026-04-04T14:27:52.721Z</time></trkpt><trkpt lat="43.5592479" lon="10.8156724"><ele>81.0</ele><time>2026-04-04T14:27:53.71Z</time></trkpt><trkpt lat="43.5593915" lon="10.8157074"><ele>81.0</ele><time>2026-04-04T14:27:54.707Z</time></trkpt><trkpt lat="43.559526" lon="10.8157512"><ele>81.0</ele><time>2026-04-04T14:27:55.707Z</time></trkpt><trkpt lat="43.5596382" lon="10.8158138"><ele>81.0</ele><time>2026-04-04T14:27:56.701Z</time></trkpt><trkpt lat="43.5597526" lon="10.8158966"><ele>83.33333333333333</ele><time>2026-04-04T14:27:57.693Z</time></trkpt><trkpt lat="43.5598771" lon="10.816009"><ele>85.66666666666666</ele><time>2026-04-04T14:27:58.694Z</time></trkpt><trkpt lat="43.560008" lon="10.816137"><ele>88.0</ele><time>2026-04-04T14:27:59.695Z</time></trkpt><trkpt lat="43.5601588" lon="10.816285"><ele>88.0</ele><time>2026-04-04T14:28:00.71Z</time></trkpt><trkpt lat="43.5603121" lon="10.81643"><ele>88.0</ele><time>2026-04-04T14:28:01.711Z</time></trkpt><trkpt lat="43.5604541" lon="10.8165726"><ele>88.0</ele><time>2026-04-04T14:28:02.713Z</time></trkpt><trkpt lat="43.5605872" lon="10.8167072"><ele>87.0</ele><time>2026-04-04T14:28:03.705Z</time></trkpt><trkpt lat="43.5607092" lon="10.8168345"><ele>86.0</ele><time>2026-04-04T14:28:04.702Z</time></trkpt><trkpt lat="43.560826" lon="10.8169715"><ele>85.0</ele><time>2026-04-04T14:28:05.7Z</time></trkpt><trkpt lat="43.5609391" lon="10.8171276"><ele>85.0</ele><time>2026-04-04T14:28:06.685Z</time></trkpt><trkpt lat="43.5610531" lon="10.8173158"><ele>85.0</ele><time>2026-04-04T14:28:07.687Z</time></trkpt><trkpt lat="43.5611697" lon="10.8175217"><ele>85.0</ele><time>2026-04-04T14:28:08.694Z</time></trkpt><trkpt lat="43.5612977" lon="10.8177409"><ele>84.0</ele><time>2026-04-04T14:28:09.694Z</time></trkpt><trkpt lat="43.5614411" lon="10.8179807"><ele>83.0</ele><time>2026-04-04T14:28:10.733Z</time></trkpt><trkpt lat="43.5615716" lon="10.8182092"><ele>82.0</ele><time>2026-04-04T14:28:11.707Z</time></trkpt><trkpt lat="43.5616807" lon="10.8183994"><ele>82.5</ele><time>2026-04-04T14:28:12.716Z</time></trkpt><trkpt lat="43.5617805" lon="10.8185731"><ele>83.0</ele><time>2026-04-04T14:28:13.704Z</time></trkpt><trkpt lat="43.5618742" lon="10.8187335"><ele>83.5</ele><time>2026-04-04T14:28:14.705Z</time></trkpt><trkpt lat="43.5619607" lon="10.8188801"><ele>84.0</ele><time>2026-04-04T14:28:15.71Z</time></trkpt><trkpt lat="43.5620362" lon="10.819008"><ele>84.0</ele><time>2026-04-04T14:28:16.706Z</time></trkpt><trkpt lat="43.5621082" lon="10.8191009"><ele>84.0</ele><time>2026-04-04T14:28:17.703Z</time></trkpt><trkpt lat="43.5621818" lon="10.8191675"><ele>84.0</ele><time>2026-04-04T14:28:18.692Z</time></trkpt><trkpt lat="43.5622637" lon="10.819203"><ele>84.0</ele><time>2026-04-04T14:28:19.694Z</time></trkpt><trkpt lat="43.5623433" lon="10.8192124"><ele>84.0</ele><time>2026-04-04T14:28:20.706Z</time></trkpt><trkpt lat="43.5624393" lon="10.8192132"><ele>84.0</ele><time>2026-04-04T14:28:21.692Z</time></trkpt><trkpt lat="43.5625219" lon="10.8191738"><ele>84.0</ele><time>2026-04-04T14:28:22.707Z</time></trkpt><trkpt lat="43.5626123" lon="10.8191174"><ele>84.0</ele><time>2026-04-04T14:28:23.706Z</time></trkpt><trkpt lat="43.5627128" lon="10.8190516"><ele>84.0</ele><time>2026-04-04T14:28:24.687Z</time></trkpt><trkpt lat="43.5628183" lon="10.8189775"><ele>84.0</ele><time>2026-04-04T14:28:25.69Z</time></trkpt><trkpt lat="43.5629619" lon="10.8188858"><ele>82.75</ele><time>2026-04-04T14:28:26.69Z</time></trkpt><trkpt lat="43.5630926" lon="10.8187964"><ele>81.5</ele><time>2026-04-04T14:28:27.692Z</time></trkpt><trkpt lat="43.5632152" lon="10.8187184"><ele>80.25</ele><time>2026-04-04T14:28:28.703Z</time></trkpt><trkpt lat="43.5633307" lon="10.818647"><ele>79.0</ele><time>2026-04-04T14:28:29.707Z</time></trkpt><trkpt lat="43.5634447" lon="10.8185902"><ele>79.0</ele><time>2026-04-04T14:28:30.712Z</time></trkpt><trkpt lat="43.5635437" lon="10.8185595"><ele>79.0</ele><time>2026-04-04T14:28:31.697Z</time></trkpt><trkpt lat="43.563641" lon="10.8185584"><ele>79.0</ele><time>2026-04-04T14:28:32.691Z</time></trkpt><trkpt lat="43.563733" lon="10.818587"><ele>79.0</ele><time>2026-04-04T14:28:33.687Z</time></trkpt><trkpt lat="43.5638123" lon="10.8186376"><ele>79.0</ele><time>2026-04-04T14:28:34.686Z</time></trkpt><trkpt lat="43.5638832" lon="10.8187154"><ele>81.0</ele><time>2026-04-04T14:28:35.692Z</time></trkpt><trkpt lat="43.5639462" lon="10.8188033"><ele>83.0</ele><time>2026-04-04T14:28:36.698Z</time></trkpt><trkpt lat="43.5640036" lon="10.8189274"><ele>85.0</ele><time>2026-04-04T14:28:37.709Z</time></trkpt><trkpt lat="43.5640601" lon="10.819086"><ele>87.0</ele><time>2026-04-04T14:28:38.684Z</time></trkpt><trkpt lat="43.5641333" lon="10.8192718"><ele>86.33333333333333</ele><time>2026-04-04T14:28:39.695Z</time></trkpt><trkpt lat="43.5642165" lon="10.8194745"><ele>85.66666666666666</ele><time>2026-04-04T14:28:40.69Z</time></trkpt><trkpt lat="43.5643116" lon="10.8196821"><ele>85.0</ele><time>2026-04-04T14:28:41.686Z</time></trkpt><trkpt lat="43.5644272" lon="10.8198893"><ele>89.66666666666666</ele><time>2026-04-04T14:28:42.7Z</time></trkpt><trkpt lat="43.5645612" lon="10.820083"><ele>94.33333333333333</ele><time>2026-04-04T14:28:43.709Z</time></trkpt><trkpt lat="43.5647148" lon="10.8202698"><ele>99.0</ele><time>2026-04-04T14:28:44.696Z</time></trkpt><trkpt lat="43.5648764" lon="10.8204577"><ele>99.0</ele><time>2026-04-04T14:28:45.702Z</time></trkpt><trkpt lat="43.5650247" lon="10.820631"><ele>99.0</ele><time>2026-04-04T14:28:46.69Z</time></trkpt><trkpt lat="43.5651665" lon="10.8207967"><ele>99.0</ele><time>2026-04-04T14:28:47.69Z</time></trkpt><trkpt lat="43.5653026" lon="10.8209513"><ele>99.0</ele><time>2026-04-04T14:28:48.705Z</time></trkpt><trkpt lat="43.5654359" lon="10.8210755"><ele>99.0</ele><time>2026-04-04T14:28:49.69Z</time></trkpt><trkpt lat="43.5655624" lon="10.8211807"><ele>99.0</ele><time>2026-04-04T14:28:50.696Z</time></trkpt><trkpt lat="43.5656924" lon="10.8212505"><ele>99.0</ele><time>2026-04-04T14:28:51.686Z</time></trkpt><trkpt lat="43.565835" lon="10.8212826"><ele>99.0</ele><time>2026-04-04T14:28:52.694Z</time></trkpt><trkpt lat="43.56599" lon="10.8213127"><ele>99.0</ele><time>2026-04-04T14:28:53.689Z</time></trkpt><trkpt lat="43.5661528" lon="10.821346"><ele>99.0</ele><time>2026-04-04T14:28:54.695Z</time></trkpt><trkpt lat="43.5663149" lon="10.8213811"><ele>102.66666666666666</ele><time>2026-04-04T14:28:55.711Z</time></trkpt><trkpt lat="43.5664763" lon="10.8214243"><ele>106.33333333333333</ele><time>2026-04-04T14:28:56.712Z</time></trkpt><trkpt lat="43.5666398" lon="10.8214708"><ele>110.0</ele><time>2026-04-04T14:28:57.707Z</time></trkpt><trkpt lat="43.5668024" lon="10.8215133"><ele>110.0</ele><time>2026-04-04T14:28:58.703Z</time></trkpt><trkpt lat="43.5669711" lon="10.8215664"><ele>110.0</ele><time>2026-04-04T14:28:59.702Z</time></trkpt><trkpt lat="43.5671391" lon="10.8216242"><ele>110.0</ele><time>2026-04-04T14:29:00.697Z</time></trkpt><trkpt lat="43.5673204" lon="10.8216778"><ele>109.66666666666666</ele><time>2026-04-04T14:29:01.699Z</time></trkpt><trkpt lat="43.56749" lon="10.8217297"><ele>109.33333333333334</ele><time>2026-04-04T14:29:02.702Z</time></trkpt><trkpt lat="43.5676581" lon="10.8217747"><ele>109.0</ele><time>2026-04-04T14:29:03.697Z</time></trkpt><trkpt lat="43.5678246" lon="10.821816"><ele>114.25</ele><time>2026-04-04T14:29:04.689Z</time></trkpt><trkpt lat="43.567969" lon="10.8218642"><ele>119.5</ele><time>2026-04-04T14:29:05.687Z</time></trkpt><trkpt lat="43.5680848" lon="10.8219225"><ele>124.75</ele><time>2026-04-04T14:29:06.685Z</time></trkpt><trkpt lat="43.568179" lon="10.8220051"><ele>130.0</ele><time>2026-04-04T14:29:07.681Z</time></trkpt><trkpt lat="43.568256" lon="10.8221234"><ele>130.0</ele><time>2026-04-04T14:29:08.673Z</time></trkpt><trkpt lat="43.5683002" lon="10.8222579"><ele>130.0</ele><time>2026-04-04T14:29:09.679Z</time></trkpt><trkpt lat="43.5683339" lon="10.82242"><ele>130.0</ele><time>2026-04-04T14:29:10.68Z</time></trkpt><trkpt lat="43.5683545" lon="10.8225943"><ele>130.0</ele><time>2026-04-04T14:29:11.687Z</time></trkpt><trkpt lat="43.5683646" lon="10.8227779"><ele>129.75</ele><time>2026-04-04T14:29:12.691Z</time></trkpt><trkpt lat="43.5683761" lon="10.8229732"><ele>129.5</ele><time>2026-04-04T14:29:13.693Z</time></trkpt><trkpt lat="43.568389" lon="10.8231737"><ele>129.25</ele><time>2026-04-04T14:29:14.696Z</time></trkpt><trkpt lat="43.5684018" lon="10.8233718"><ele>129.0</ele><time>2026-04-04T14:29:15.702Z</time></trkpt><trkpt lat="43.5684123" lon="10.8235648"><ele>129.5</ele><time>2026-04-04T14:29:16.696Z</time></trkpt><trkpt lat="43.5684245" lon="10.8237597"><ele>130.0</ele><time>2026-04-04T14:29:17.699Z</time></trkpt><trkpt lat="43.5684461" lon="10.8239482"><ele>130.5</ele><time>2026-04-04T14:29:18.699Z</time></trkpt><trkpt lat="43.5684754" lon="10.8241432"><ele>131.0</ele><time>2026-04-04T14:29:19.7Z</time></trkpt><trkpt lat="43.5684997" lon="10.8243356"><ele>132.25</ele><time>2026-04-04T14:29:20.695Z</time></trkpt><trkpt lat="43.5685159" lon="10.824516"><ele>133.5</ele><time>2026-04-04T14:29:21.694Z</time></trkpt><trkpt lat="43.5685257" lon="10.8246896"><ele>134.75</ele><time>2026-04-04T14:29:22.696Z</time></trkpt><trkpt lat="43.5685379" lon="10.8248417"><ele>136.0</ele><time>2026-04-04T14:29:23.697Z</time></trkpt><trkpt lat="43.5685526" lon="10.8249571"><ele>136.0</ele><time>2026-04-04T14:29:24.7Z</time></trkpt><trkpt lat="43.5685758" lon="10.8250554"><ele>136.0</ele><time>2026-04-04T14:29:25.687Z</time></trkpt><trkpt lat="43.5686306" lon="10.825141"><ele>136.0</ele><time>2026-04-04T14:29:27.689Z</time></trkpt><trkpt lat="43.5687053" lon="10.8250903"><ele>136.0</ele><time>2026-04-04T14:29:30.708Z</time></trkpt><trkpt lat="43.5687353" lon="10.8250035"><ele>136.0</ele><time>2026-04-04T14:29:32.725Z</time></trkpt><trkpt lat="43.5687656" lon="10.8249269"><ele>136.0</ele><time>2026-04-04T14:29:36.718Z</time></trkpt><trkpt lat="43.5688283" lon="10.8248567"><ele>136.2</ele><time>2026-04-04T14:30:50.7Z</time></trkpt><trkpt lat="43.5689168" lon="10.8248109"><ele>136.39999999999998</ele><time>2026-04-04T14:30:52.701Z</time></trkpt><trkpt lat="43.5689892" lon="10.8247368"><ele>136.6</ele><time>2026-04-04T14:30:53.704Z</time></trkpt><trkpt lat="43.5690601" lon="10.8246491"><ele>136.79999999999998</ele><time>2026-04-04T14:30:54.71Z</time></trkpt><trkpt lat="43.5691288" lon="10.8245413"><ele>137.0</ele><time>2026-04-04T14:30:55.71Z</time></trkpt><trkpt lat="43.5692041" lon="10.8244223"><ele>138.0</ele><time>2026-04-04T14:30:56.729Z</time></trkpt><trkpt lat="43.5692772" lon="10.824303"><ele>139.0</ele><time>2026-04-04T14:30:57.718Z</time></trkpt><trkpt lat="43.5693502" lon="10.8241852"><ele>140.0</ele><time>2026-04-04T14:30:58.71Z</time></trkpt><trkpt lat="43.5694221" lon="10.8240583"><ele>141.0</ele><time>2026-04-04T14:30:59.717Z</time></trkpt><trkpt lat="43.5695019" lon="10.8239194"><ele>139.0</ele><time>2026-04-04T14:31:00.71Z</time></trkpt><trkpt lat="43.5695843" lon="10.8237602"><ele>137.0</ele><time>2026-04-04T14:31:01.707Z</time></trkpt><trkpt lat="43.5696633" lon="10.8235816"><ele>135.0</ele><time>2026-04-04T14:31:02.713Z</time></trkpt><trkpt lat="43.5697406" lon="10.8233772"><ele>135.0</ele><time>2026-04-04T14:31:03.689Z</time></trkpt><trkpt lat="43.5698118" lon="10.823153"><ele>135.0</ele><time>2026-04-04T14:31:04.69Z</time></trkpt><trkpt lat="43.5698724" lon="10.8229188"><ele>135.0</ele><time>2026-04-04T14:31:05.696Z</time></trkpt><trkpt lat="43.5699219" lon="10.822673"><ele>135.33333333333334</ele><time>2026-04-04T14:31:06.688Z</time></trkpt><trkpt lat="43.5699608" lon="10.8224248"><ele>135.66666666666669</ele><time>2026-04-04T14:31:07.709Z</time></trkpt><trkpt lat="43.5699921" lon="10.8221837"><ele>136.0</ele><time>2026-04-04T14:31:08.705Z</time></trkpt><trkpt lat="43.5700319" lon="10.8219522"><ele>136.33333333333334</ele><time>2026-04-04T14:31:09.707Z</time></trkpt><trkpt lat="43.5700776" lon="10.821728"><ele>136.66666666666666</ele><time>2026-04-04T14:31:10.708Z</time></trkpt><trkpt lat="43.5701266" lon="10.8215122"><ele>137.0</ele><time>2026-04-04T14:31:11.704Z</time></trkpt><trkpt lat="43.5701823" lon="10.821305"><ele>137.0</ele><time>2026-04-04T14:31:12.687Z</time></trkpt><trkpt lat="43.5702457" lon="10.8211087"><ele>137.0</ele><time>2026-04-04T14:31:13.698Z</time></trkpt><trkpt lat="43.5703179" lon="10.8209281"><ele>137.0</ele><time>2026-04-04T14:31:14.699Z</time></trkpt><trkpt lat="43.5703999" lon="10.8207637"><ele>133.75</ele><time>2026-04-04T14:31:15.689Z</time></trkpt><trkpt lat="43.5704962" lon="10.8206098"><ele>130.5</ele><time>2026-04-04T14:31:16.682Z</time></trkpt><trkpt lat="43.570597" lon="10.8204746"><ele>127.25</ele><time>2026-04-04T14:31:17.687Z</time></trkpt><trkpt lat="43.5707063" lon="10.8203633"><ele>124.0</ele><time>2026-04-04T14:31:18.683Z</time></trkpt><trkpt lat="43.5708335" lon="10.8202943"><ele>124.0</ele><time>2026-04-04T14:31:19.68Z</time></trkpt><trkpt lat="43.5709798" lon="10.8202602"><ele>124.0</ele><time>2026-04-04T14:31:20.691Z</time></trkpt><trkpt lat="43.5711376" lon="10.8202448"><ele>124.0</ele><time>2026-04-04T14:31:21.681Z</time></trkpt><trkpt lat="43.5713007" lon="10.8202327"><ele>120.0</ele><time>2026-04-04T14:31:22.682Z</time></trkpt><trkpt lat="43.5714677" lon="10.8202186"><ele>116.0</ele><time>2026-04-04T14:31:23.68Z</time></trkpt><trkpt lat="43.5716333" lon="10.8202064"><ele>112.0</ele><time>2026-04-04T14:31:24.69Z</time></trkpt><trkpt lat="43.571794" lon="10.8201976"><ele>112.0</ele><time>2026-04-04T14:31:25.703Z</time></trkpt><trkpt lat="43.571946" lon="10.8201908"><ele>112.0</ele><time>2026-04-04T14:31:26.706Z</time></trkpt><trkpt lat="43.5720942" lon="10.8201826"><ele>112.0</ele><time>2026-04-04T14:31:27.708Z</time></trkpt><trkpt lat="43.5722359" lon="10.8201687"><ele>112.0</ele><time>2026-04-04T14:31:28.7Z</time></trkpt><trkpt lat="43.5723709" lon="10.8201481"><ele>113.5</ele><time>2026-04-04T14:31:29.698Z</time></trkpt><trkpt lat="43.5724973" lon="10.8201049"><ele>115.0</ele><time>2026-04-04T14:31:30.695Z</time></trkpt><trkpt lat="43.5726109" lon="10.8200269"><ele>116.5</ele><time>2026-04-04T14:31:31.685Z</time></trkpt><trkpt lat="43.572713" lon="10.8199152"><ele>118.0</ele><time>2026-04-04T14:31:32.682Z</time></trkpt><trkpt lat="43.57279" lon="10.8197695"><ele>118.0</ele><time>2026-04-04T14:31:33.681Z</time></trkpt><trkpt lat="43.5728545" lon="10.8195995"><ele>118.0</ele><time>2026-04-04T14:31:34.682Z</time></trkpt><trkpt lat="43.5729024" lon="10.8194088"><ele>118.0</ele><time>2026-04-04T14:31:35.702Z</time></trkpt><trkpt lat="43.5729442" lon="10.819204"><ele>118.0</ele><time>2026-04-04T14:31:36.705Z</time></trkpt><trkpt lat="43.572992" lon="10.8189737"><ele>115.0</ele><time>2026-04-04T14:31:37.688Z</time></trkpt><trkpt lat="43.5730371" lon="10.8187469"><ele>112.0</ele><time>2026-04-04T14:31:38.703Z</time></trkpt><trkpt lat="43.5730862" lon="10.8184951"><ele>109.0</ele><time>2026-04-04T14:31:39.701Z</time></trkpt><trkpt lat="43.573138" lon="10.8182587"><ele>107.66666666666667</ele><time>2026-04-04T14:31:40.699Z</time></trkpt><trkpt lat="43.5731891" lon="10.8180286"><ele>106.33333333333334</ele><time>2026-04-04T14:31:41.697Z</time></trkpt><trkpt lat="43.5732399" lon="10.8177978"><ele>105.0</ele><time>2026-04-04T14:31:42.698Z</time></trkpt><trkpt lat="43.5732912" lon="10.8175667"><ele>103.33333333333334</ele><time>2026-04-04T14:31:43.696Z</time></trkpt><trkpt lat="43.5733361" lon="10.8173346"><ele>101.66666666666667</ele><time>2026-04-04T14:31:44.7Z</time></trkpt><trkpt lat="43.5733824" lon="10.817092"><ele>100.0</ele><time>2026-04-04T14:31:45.703Z</time></trkpt><trkpt lat="43.5734227" lon="10.8168383"><ele>99.0</ele><time>2026-04-04T14:31:46.694Z</time></trkpt><trkpt lat="43.5734626" lon="10.8165816"><ele>98.0</ele><time>2026-04-04T14:31:47.69Z</time></trkpt><trkpt lat="43.5735105" lon="10.8163251"><ele>97.0</ele><time>2026-04-04T14:31:48.698Z</time></trkpt><trkpt lat="43.5735839" lon="10.8160844"><ele>98.0</ele><time>2026-04-04T14:31:49.692Z</time></trkpt><trkpt lat="43.5736688" lon="10.8158488"><ele>99.0</ele><time>2026-04-04T14:31:50.684Z</time></trkpt><trkpt lat="43.5737635" lon="10.8156356"><ele>100.0</ele><time>2026-04-04T14:31:51.686Z</time></trkpt><trkpt lat="43.5738629" lon="10.8154479"><ele>97.0</ele><time>2026-04-04T14:31:52.692Z</time></trkpt><trkpt lat="43.5739543" lon="10.8152682"><ele>94.0</ele><time>2026-04-04T14:31:53.691Z</time></trkpt><trkpt lat="43.5740377" lon="10.8150907"><ele>91.0</ele><time>2026-04-04T14:31:54.694Z</time></trkpt><trkpt lat="43.5741263" lon="10.8149129"><ele>90.5</ele><time>2026-04-04T14:31:55.7Z</time></trkpt><trkpt lat="43.5742076" lon="10.8147533"><ele>90.0</ele><time>2026-04-04T14:31:56.695Z</time></trkpt><trkpt lat="43.5742772" lon="10.8146142"><ele>89.5</ele><time>2026-04-04T14:31:57.694Z</time></trkpt><trkpt lat="43.5743402" lon="10.8144902"><ele>89.0</ele><time>2026-04-04T14:31:58.688Z</time></trkpt><trkpt lat="43.5745199" lon="10.8144231"><ele>87.66666666666667</ele><time>2026-04-04T14:31:59.607Z</time></trkpt><trkpt lat="43.5745926" lon="10.8143947"><ele>86.33333333333334</ele><time>2026-04-04T14:32:00.59Z</time></trkpt><trkpt lat="43.5746753" lon="10.8143827"><ele>85.0</ele><time>2026-04-04T14:32:01.61Z</time></trkpt><trkpt lat="43.5747596" lon="10.8143964"><ele>83.66666666666667</ele><time>2026-04-04T14:32:02.607Z</time></trkpt><trkpt lat="43.5748252" lon="10.8144602"><ele>82.33333333333333</ele><time>2026-04-04T14:32:03.604Z</time></trkpt><trkpt lat="43.5748708" lon="10.8145509"><ele>81.0</ele><time>2026-04-04T14:32:04.602Z</time></trkpt><trkpt lat="43.5749086" lon="10.8146682"><ele>81.0</ele><time>2026-04-04T14:32:05.611Z</time></trkpt><trkpt lat="43.5749311" lon="10.8148051"><ele>81.0</ele><time>2026-04-04T14:32:06.604Z</time></trkpt><trkpt lat="43.5749472" lon="10.8149735"><ele>81.0</ele><time>2026-04-04T14:32:07.607Z</time></trkpt><trkpt lat="43.5749355" lon="10.8151718"><ele>81.0</ele><time>2026-04-04T14:32:08.608Z</time></trkpt><trkpt lat="43.5749026" lon="10.815382"><ele>81.0</ele><time>2026-04-04T14:32:09.596Z</time></trkpt><trkpt lat="43.5748515" lon="10.8156064"><ele>81.0</ele><time>2026-04-04T14:32:10.605Z</time></trkpt><trkpt lat="43.5748252" lon="10.8158251"><ele>81.0</ele><time>2026-04-04T14:32:11.602Z</time></trkpt><trkpt lat="43.5747842" lon="10.8160407"><ele>81.25</ele><time>2026-04-04T14:32:12.603Z</time></trkpt><trkpt lat="43.5747533" lon="10.8162647"><ele>81.5</ele><time>2026-04-04T14:32:13.605Z</time></trkpt><trkpt lat="43.5747151" lon="10.8164555"><ele>81.75</ele><time>2026-04-04T14:32:14.603Z</time></trkpt><trkpt lat="43.5747005" lon="10.8166419"><ele>82.0</ele><time>2026-04-04T14:32:15.607Z</time></trkpt><trkpt lat="43.574696" lon="10.8168442"><ele>81.25</ele><time>2026-04-04T14:32:16.601Z</time></trkpt><trkpt lat="43.5747043" lon="10.8170378"><ele>80.5</ele><time>2026-04-04T14:32:17.602Z</time></trkpt><trkpt lat="43.5747002" lon="10.8172256"><ele>79.75</ele><time>2026-04-04T14:32:18.6Z</time></trkpt><trkpt lat="43.5747127" lon="10.8174375"><ele>79.0</ele><time>2026-04-04T14:32:19.606Z</time></trkpt><trkpt lat="43.5747472" lon="10.8176191"><ele>79.25</ele><time>2026-04-04T14:32:20.599Z</time></trkpt><trkpt lat="43.5747902" lon="10.8177646"><ele>79.5</ele><time>2026-04-04T14:32:21.598Z</time></trkpt><trkpt lat="43.574887" lon="10.8179127"><ele>79.75</ele><time>2026-04-04T14:32:22.613Z</time></trkpt><trkpt lat="43.574989" lon="10.8180404"><ele>80.0</ele><time>2026-04-04T14:32:23.62Z</time></trkpt><trkpt lat="43.5750685" lon="10.8181695"><ele>80.0</ele><time>2026-04-04T14:32:24.612Z</time></trkpt><trkpt lat="43.5751619" lon="10.8183055"><ele>80.0</ele><time>2026-04-04T14:32:25.612Z</time></trkpt><trkpt lat="43.5752653" lon="10.8184418"><ele>80.0</ele><time>2026-04-04T14:32:26.615Z</time></trkpt><trkpt lat="43.5753733" lon="10.8185652"><ele>80.0</ele><time>2026-04-04T14:32:27.617Z</time></trkpt><trkpt lat="43.5754533" lon="10.8186785"><ele>80.75</ele><time>2026-04-04T14:32:28.616Z</time></trkpt><trkpt lat="43.5755314" lon="10.8187883"><ele>81.5</ele><time>2026-04-04T14:32:29.618Z</time></trkpt><trkpt lat="43.5756089" lon="10.8188947"><ele>82.25</ele><time>2026-04-04T14:32:30.617Z</time></trkpt><trkpt lat="43.5756983" lon="10.8190066"><ele>83.0</ele><time>2026-04-04T14:32:31.619Z</time></trkpt><trkpt lat="43.5757731" lon="10.8191261"><ele>83.0</ele><time>2026-04-04T14:32:32.619Z</time></trkpt><trkpt lat="43.5758475" lon="10.8192369"><ele>83.0</ele><time>2026-04-04T14:32:33.618Z</time></trkpt><trkpt lat="43.5759329" lon="10.8193522"><ele>83.0</ele><time>2026-04-04T14:32:34.612Z</time></trkpt><trkpt lat="43.5759879" lon="10.8194859"><ele>83.0</ele><time>2026-04-04T14:32:35.618Z</time></trkpt><trkpt lat="43.5760314" lon="10.819628"><ele>83.0</ele><time>2026-04-04T14:32:36.617Z</time></trkpt><trkpt lat="43.5760631" lon="10.8197641"><ele>83.0</ele><time>2026-04-04T14:32:37.613Z</time></trkpt><trkpt lat="43.5760776" lon="10.8198941"><ele>83.0</ele><time>2026-04-04T14:32:38.614Z</time></trkpt><trkpt lat="43.576083" lon="10.8200184"><ele>83.0</ele><time>2026-04-04T14:32:39.613Z</time></trkpt><trkpt lat="43.5760804" lon="10.8201417"><ele>83.0</ele><time>2026-04-04T14:32:40.617Z</time></trkpt><trkpt lat="43.5760707" lon="10.8202797"><ele>83.0</ele><time>2026-04-04T14:32:41.607Z</time></trkpt><trkpt lat="43.576052" lon="10.820413"><ele>83.0</ele><time>2026-04-04T14:32:42.617Z</time></trkpt><trkpt lat="43.5760316" lon="10.8205678"><ele>83.0</ele><time>2026-04-04T14:32:43.609Z</time></trkpt><trkpt lat="43.5760132" lon="10.8207138"><ele>83.0</ele><time>2026-04-04T14:32:44.605Z</time></trkpt><trkpt lat="43.5759901" lon="10.8208509"><ele>83.0</ele><time>2026-04-04T14:32:45.603Z</time></trkpt><trkpt lat="43.5759687" lon="10.8209615"><ele>82.80000000000001</ele><time>2026-04-04T14:32:46.608Z</time></trkpt><trkpt lat="43.5759349" lon="10.8211193"><ele>82.6</ele><time>2026-04-04T14:32:48.607Z</time></trkpt><trkpt lat="43.5759046" lon="10.8212359"><ele>82.4</ele><time>2026-04-04T14:32:50.606Z</time></trkpt><trkpt lat="43.5758616" lon="10.8213434"><ele>82.19999999999999</ele><time>2026-04-04T14:32:53.611Z</time></trkpt><trkpt lat="43.57589" lon="10.8214314"><ele>82.0</ele><time>2026-04-04T14:33:14.621Z</time></trkpt><trkpt lat="43.5759316" lon="10.8215327"><ele>82.0</ele><time>2026-04-04T14:34:21.641Z</time></trkpt><trkpt lat="43.5759519" lon="10.8216593"><ele>82.0</ele><time>2026-04-04T14:34:23.634Z</time></trkpt><trkpt lat="43.5759378" lon="10.8218452"><ele>82.0</ele><time>2026-04-04T14:34:25.608Z</time></trkpt><trkpt lat="43.5759103" lon="10.8219378"><ele>82.0</ele><time>2026-04-04T14:34:26.612Z</time></trkpt><trkpt lat="43.5758755" lon="10.822019"><ele>82.0</ele><time>2026-04-04T14:34:27.621Z</time></trkpt><trkpt lat="43.5758366" lon="10.8220925"><ele>82.0</ele><time>2026-04-04T14:34:28.61Z</time></trkpt><trkpt lat="43.5758005" lon="10.8221649"><ele>81.8</ele><time>2026-04-04T14:34:29.617Z</time></trkpt><trkpt lat="43.5757584" lon="10.8222597"><ele>81.6</ele><time>2026-04-04T14:34:30.615Z</time></trkpt><trkpt lat="43.5757054" lon="10.8223577"><ele>81.39999999999999</ele><time>2026-04-04T14:34:31.605Z</time></trkpt><trkpt lat="43.5756499" lon="10.8224562"><ele>81.19999999999999</ele><time>2026-04-04T14:34:32.6Z</time></trkpt><trkpt lat="43.5755826" lon="10.8225627"><ele>81.0</ele><time>2026-04-04T14:34:33.599Z</time></trkpt><trkpt lat="43.5755121" lon="10.8226792"><ele>81.4</ele><time>2026-04-04T14:34:34.602Z</time></trkpt><trkpt lat="43.5754415" lon="10.8227764"><ele>81.8</ele><time>2026-04-04T14:34:35.602Z</time></trkpt><trkpt lat="43.5753733" lon="10.8228631"><ele>82.2</ele><time>2026-04-04T14:34:36.599Z</time></trkpt><trkpt lat="43.5753171" lon="10.822945"><ele>82.60000000000001</ele><time>2026-04-04T14:34:37.598Z</time></trkpt><trkpt lat="43.5752661" lon="10.8230093"><ele>83.0</ele><time>2026-04-04T14:34:38.612Z</time></trkpt><trkpt lat="43.5751915" lon="10.8231401"><ele>83.33333333333334</ele><time>2026-04-04T14:34:40.606Z</time></trkpt><trkpt lat="43.5751414" lon="10.823288"><ele>83.66666666666667</ele><time>2026-04-04T14:34:42.615Z</time></trkpt><trkpt lat="43.5750961" lon="10.823442"><ele>84.0</ele><time>2026-04-04T14:34:44.624Z</time></trkpt><trkpt lat="43.5750828" lon="10.8235276"><ele>84.33333333333333</ele><time>2026-04-04T14:34:45.627Z</time></trkpt><trkpt lat="43.5750694" lon="10.8236186"><ele>84.66666666666666</ele><time>2026-04-04T14:34:46.623Z</time></trkpt><trkpt lat="43.5750668" lon="10.8237194"><ele>85.0</ele><time>2026-04-04T14:34:47.625Z</time></trkpt><trkpt lat="43.5750815" lon="10.8238317"><ele>86.83333333333333</ele><time>2026-04-04T14:34:48.621Z</time></trkpt><trkpt lat="43.5751055" lon="10.8239209"><ele>88.66666666666666</ele><time>2026-04-04T14:34:49.616Z</time></trkpt><trkpt lat="43.5751662" lon="10.8240677"><ele>90.5</ele><time>2026-04-04T14:34:51.623Z</time></trkpt><trkpt lat="43.5751965" lon="10.8241736"><ele>92.33333333333333</ele><time>2026-04-04T14:34:52.63Z</time></trkpt><trkpt lat="43.5752196" lon="10.8242821"><ele>94.16666666666667</ele><time>2026-04-04T14:34:53.625Z</time></trkpt><trkpt lat="43.5752351" lon="10.8243912"><ele>96.0</ele><time>2026-04-04T14:34:54.628Z</time></trkpt><trkpt lat="43.5752435" lon="10.8245133"><ele>98.19999999999999</ele><time>2026-04-04T14:34:55.621Z</time></trkpt><trkpt lat="43.5752384" lon="10.8246504"><ele>100.39999999999999</ele><time>2026-04-04T14:34:56.618Z</time></trkpt><trkpt lat="43.5752175" lon="10.8247823"><ele>102.6</ele><time>2026-04-04T14:34:57.624Z</time></trkpt><trkpt lat="43.5751825" lon="10.8249083"><ele>104.8</ele><time>2026-04-04T14:34:58.616Z</time></trkpt><trkpt lat="43.5751405" lon="10.8250122"><ele>107.0</ele><time>2026-04-04T14:34:59.627Z</time></trkpt><trkpt lat="43.575095" lon="10.8251292"><ele>108.39999999999999</ele><time>2026-04-04T14:35:00.62Z</time></trkpt><trkpt lat="43.5750452" lon="10.8252467"><ele>109.79999999999998</ele><time>2026-04-04T14:35:01.623Z</time></trkpt><trkpt lat="43.574995" lon="10.8253657"><ele>111.2</ele><time>2026-04-04T14:35:02.634Z</time></trkpt><trkpt lat="43.5749607" lon="10.8254832"><ele>112.6</ele><time>2026-04-04T14:35:03.63Z</time></trkpt><trkpt lat="43.5749472" lon="10.8256156"><ele>114.0</ele><time>2026-04-04T14:35:04.619Z</time></trkpt><trkpt lat="43.5749535" lon="10.8257441"><ele>114.0</ele><time>2026-04-04T14:35:05.625Z</time></trkpt><trkpt lat="43.574961" lon="10.8258808"><ele>114.0</ele><time>2026-04-04T14:35:06.622Z</time></trkpt><trkpt lat="43.5749513" lon="10.8260226"><ele>114.0</ele><time>2026-04-04T14:35:07.624Z</time></trkpt><trkpt lat="43.5749462" lon="10.826167"><ele>114.0</ele><time>2026-04-04T14:35:08.624Z</time></trkpt><trkpt lat="43.5749451" lon="10.8263186"><ele>114.0</ele><time>2026-04-04T14:35:09.644Z</time></trkpt><trkpt lat="43.5749404" lon="10.826463"><ele>115.33333333333333</ele><time>2026-04-04T14:35:11.711Z</time></trkpt><trkpt lat="43.574938" lon="10.8265974"><ele>116.66666666666666</ele><time>2026-04-04T14:35:12.704Z</time></trkpt><trkpt lat="43.5749278" lon="10.8267087"><ele>118.0</ele><time>2026-04-04T14:35:13.706Z</time></trkpt><trkpt lat="43.5749064" lon="10.8268127"><ele>119.33333333333333</ele><time>2026-04-04T14:35:14.693Z</time></trkpt><trkpt lat="43.57487" lon="10.8269249"><ele>120.66666666666666</ele><time>2026-04-04T14:35:15.693Z</time></trkpt><trkpt lat="43.5748377" lon="10.8270588"><ele>122.0</ele><time>2026-04-04T14:35:16.698Z</time></trkpt><trkpt lat="43.5747903" lon="10.8272435"><ele>123.83333333333333</ele><time>2026-04-04T14:35:17.606Z</time></trkpt><trkpt lat="43.5747928" lon="10.8273501"><ele>125.66666666666666</ele><time>2026-04-04T14:35:18.625Z</time></trkpt><trkpt lat="43.5748061" lon="10.8274416"><ele>127.5</ele><time>2026-04-04T14:35:19.625Z</time></trkpt><trkpt lat="43.5748315" lon="10.8275224"><ele>129.33333333333334</ele><time>2026-04-04T14:35:20.631Z</time></trkpt><trkpt lat="43.5748605" lon="10.8276103"><ele>131.16666666666669</ele><time>2026-04-04T14:35:21.629Z</time></trkpt><trkpt lat="43.5749021" lon="10.8277073"><ele>133.0</ele><time>2026-04-04T14:35:22.634Z</time></trkpt><trkpt lat="43.5749449" lon="10.8278183"><ele>136.0</ele><time>2026-04-04T14:35:23.629Z</time></trkpt><trkpt lat="43.574995" lon="10.8279286"><ele>139.0</ele><time>2026-04-04T14:35:24.636Z</time></trkpt><trkpt lat="43.5750434" lon="10.8280443"><ele>142.0</ele><time>2026-04-04T14:35:25.626Z</time></trkpt><trkpt lat="43.5756006" lon="10.8307688"><ele>144.0</ele><time>2026-04-04T14:35:45.639Z</time></trkpt><trkpt lat="43.576178" lon="10.8335307"><ele>171.0</ele><time>2026-04-04T14:36:10.634Z</time></trkpt><trkpt lat="43.5784162" lon="10.8357735"><ele>164.0</ele><time>2026-04-04T14:36:34.634Z</time></trkpt><trkpt lat="43.5804508" lon="10.8357359"><ele>159.0</ele><time>2026-04-04T14:37:05.638Z</time></trkpt><trkpt lat="43.5817946" lon="10.8355205"><ele>158.0</ele><time>2026-04-04T14:37:35.643Z</time></trkpt><trkpt lat="43.582669" lon="10.8369798"><ele>173.0</ele><time>2026-04-04T14:38:20.638Z</time></trkpt><trkpt lat="43.5839858" lon="10.8375152"><ele>168.0</ele><time>2026-04-04T14:38:51.643Z</time></trkpt><trkpt lat="43.5850926" lon="10.8387112"><ele>195.0</ele><time>2026-04-04T14:39:16.643Z</time></trkpt><trkpt lat="43.586657" lon="10.8404808"><ele>184.0</ele><time>2026-04-04T14:42:56.626Z</time></trkpt><trkpt lat="43.5875471" lon="10.8419388"><ele>185.0</ele><time>2026-04-04T14:43:19.635Z</time></trkpt><trkpt lat="43.5891187" lon="10.8438002"><ele>209.0</ele><time>2026-04-04T14:43:48.634Z</time></trkpt><trkpt lat="43.5904218" lon="10.8443242"><ele>220.0</ele><time>2026-04-04T14:44:39.657Z</time></trkpt><trkpt lat="43.5915404" lon="10.8454229"><ele>229.0</ele><time>2026-04-04T14:45:07.616Z</time></trkpt><trkpt lat="43.5929467" lon="10.8456333"><ele>220.0</ele><time>2026-04-04T14:45:24.623Z</time></trkpt><trkpt lat="43.5949067" lon="10.8465337"><ele>218.0</ele><time>2026-04-04T14:45:50.631Z</time></trkpt><trkpt lat="43.5952848" lon="10.8483461"><ele>189.0</ele><time>2026-04-04T14:46:50.61Z</time></trkpt><trkpt lat="43.595272" lon="10.8512031"><ele>203.0</ele><time>2026-04-04T14:47:13.615Z</time></trkpt><trkpt lat="43.5972887" lon="10.8517446"><ele>202.0</ele><time>2026-04-04T14:47:36.621Z</time></trkpt><trkpt lat="43.5992962" lon="10.8524253"><ele>184.0</ele><time>2026-04-04T14:47:56.617Z</time></trkpt><trkpt lat="43.6013313" lon="10.8529546"><ele>172.0</ele><time>2026-04-04T14:48:18.605Z</time></trkpt><trkpt lat="43.602949" lon="10.8547454"><ele>179.0</ele><time>2026-04-04T14:48:35.692Z</time></trkpt><trkpt lat="43.604847" lon="10.8575563"><ele>170.0</ele><time>2026-04-04T14:48:58.693Z</time></trkpt><trkpt lat="43.6055645" lon="10.8612474"><ele>141.0</ele><time>2026-04-04T14:49:23.672Z</time></trkpt><trkpt lat="43.6078325" lon="10.863274"><ele>133.0</ele><time>2026-04-04T14:49:58.607Z</time></trkpt><trkpt lat="43.6099311" lon="10.8634466"><ele>110.0</ele><time>2026-04-04T14:50:17.591Z</time></trkpt><trkpt lat="43.6116503" lon="10.8663263"><ele>91.0</ele><time>2026-04-04T14:50:46.586Z</time></trkpt><trkpt lat="43.6129729" lon="10.8684939"><ele>64.0</ele><time>2026-04-04T14:51:09.596Z</time></trkpt><trkpt lat="43.6134051" lon="10.8712473"><ele>57.0</ele><time>2026-04-04T14:51:51.613Z</time></trkpt><trkpt lat="43.6146616" lon="10.8702943"><ele>57.0</ele><time>2026-04-04T14:52:05.612Z</time></trkpt><trkpt lat="43.6170017" lon="10.8684058"><ele>59.0</ele><time>2026-04-04T14:52:25.605Z</time></trkpt><trkpt lat="43.617284" lon="10.8656248"><ele>60.0</ele><time>2026-04-04T14:52:54.607Z</time></trkpt><trkpt lat="43.6181053" lon="10.8630076"><ele>60.0</ele><time>2026-04-04T14:53:13.607Z</time></trkpt><trkpt lat="43.6199729" lon="10.8602177"><ele>54.0</ele><time>2026-04-04T14:53:37.593Z</time></trkpt><trkpt lat="43.6219376" lon="10.8576659"><ele>50.0</ele><time>2026-04-04T14:53:56.61Z</time></trkpt><trkpt lat="43.6241356" lon="10.8554812"><ele>53.0</ele><time>2026-04-04T14:54:18.607Z</time></trkpt><trkpt lat="43.6247503" lon="10.8517645"><ele>49.0</ele><time>2026-04-04T14:54:41.621Z</time></trkpt><trkpt lat="43.6272496" lon="10.8501817"><ele>53.0</ele><time>2026-04-04T14:55:16.607Z</time></trkpt><trkpt lat="43.628797" lon="10.8482194"><ele>47.0</ele><time>2026-04-04T14:55:35.617Z</time></trkpt><trkpt lat="43.6314008" lon="10.8496578"><ele>48.0</ele><time>2026-04-04T14:56:17.626Z</time></trkpt><trkpt lat="43.6308301" lon="10.8534449"><ele>52.0</ele><time>2026-04-04T14:56:49.613Z</time></trkpt><trkpt lat="43.628308" lon="10.8567482"><ele>51.0</ele><time>2026-04-04T14:57:08.619Z</time></trkpt><trkpt lat="43.6253575" lon="10.8590714"><ele>52.0</ele><time>2026-04-04T14:57:36.618Z</time></trkpt><trkpt lat="43.6241946" lon="10.8615404"><ele>59.0</ele><time>2026-04-04T14:57:52.622Z</time></trkpt><trkpt lat="43.6256555" lon="10.8647252"><ele>76.0</ele><time>2026-04-04T14:58:28.721Z</time></trkpt><trkpt lat="43.6271541" lon="10.8616145"><ele>107.0</ele><time>2026-04-04T14:59:07.605Z</time></trkpt><trkpt lat="43.6291992" lon="10.8616917"><ele>112.0</ele><time>2026-04-04T14:59:42.584Z</time></trkpt><trkpt lat="43.6292528" lon="10.8646215"><ele>129.0</ele><time>2026-04-04T15:00:21.597Z</time></trkpt><trkpt lat="43.6292387" lon="10.8674584"><ele>148.0</ele><time>2026-04-04T15:00:43.601Z</time></trkpt><trkpt lat="43.6300325" lon="10.8711073"><ele>166.0</ele><time>2026-04-04T15:01:10.607Z</time></trkpt><trkpt lat="43.629322" lon="10.873837"><ele>171.0</ele><time>2026-04-04T15:01:32.615Z</time></trkpt><trkpt lat="43.6301891" lon="10.8763614"><ele>172.0</ele><time>2026-04-04T15:02:06.619Z</time></trkpt><trkpt lat="43.6310937" lon="10.8779099"><ele>199.0</ele><time>2026-04-04T15:02:21.703Z</time></trkpt><trkpt lat="43.6326778" lon="10.8797048"><ele>194.0</ele><time>2026-04-04T15:02:54.608Z</time></trkpt><trkpt lat="43.6346679" lon="10.8802377"><ele>176.0</ele><time>2026-04-04T15:03:23.611Z</time></trkpt><trkpt lat="43.6357584" lon="10.8827329"><ele>163.0</ele><time>2026-04-04T15:03:50.607Z</time></trkpt><trkpt lat="43.6352049" lon="10.8854612"><ele>164.0</ele><time>2026-04-04T15:04:16.59Z</time></trkpt><trkpt lat="43.6350397" lon="10.8883416"><ele>168.0</ele><time>2026-04-04T15:04:36.606Z</time></trkpt><trkpt lat="43.6343452" lon="10.8919492"><ele>147.0</ele><time>2026-04-04T15:04:59.618Z</time></trkpt><trkpt lat="43.6334216" lon="10.8944771"><ele>145.0</ele><time>2026-04-04T15:05:25.606Z</time></trkpt><trkpt lat="43.6321741" lon="10.8978423"><ele>148.0</ele><time>2026-04-04T15:05:47.606Z</time></trkpt><trkpt lat="43.6315021" lon="10.9014825"><ele>150.0</ele><time>2026-04-04T15:06:18.623Z</time></trkpt><trkpt lat="43.6339754" lon="10.903001"><ele>155.0</ele><time>2026-04-04T15:06:50.672Z</time></trkpt><trkpt lat="43.6360111" lon="10.9022938"><ele>168.0</ele><time>2026-04-04T15:07:06.695Z</time></trkpt><trkpt lat="43.6387653" lon="10.9029348"><ele>137.0</ele><time>2026-04-04T15:07:32.699Z</time></trkpt><trkpt lat="43.6394858" lon="10.9055716"><ele>124.0</ele><time>2026-04-04T15:08:05.601Z</time></trkpt><trkpt lat="43.6399725" lon="10.9083789"><ele>127.0</ele><time>2026-04-04T15:08:21.607Z</time></trkpt><trkpt lat="43.6401331" lon="10.9121172"><ele>113.0</ele><time>2026-04-04T15:08:43.611Z</time></trkpt><trkpt lat="43.6403558" lon="10.9159349"><ele>122.0</ele><time>2026-04-04T15:09:14.595Z</time></trkpt><trkpt lat="43.6400988" lon="10.9187766"><ele>113.0</ele><time>2026-04-04T15:09:31.593Z</time></trkpt><trkpt lat="43.6416722" lon="10.9218867"><ele>103.0</ele><time>2026-04-04T15:09:58.614Z</time></trkpt><trkpt lat="43.6435499" lon="10.9230391"><ele>105.0</ele><time>2026-04-04T15:10:19.616Z</time></trkpt><trkpt lat="43.6451895" lon="10.9247551"><ele>102.0</ele><time>2026-04-04T15:10:35.603Z</time></trkpt><trkpt lat="43.6464562" lon="10.9269461"><ele>74.0</ele><time>2026-04-04T15:11:03.606Z</time></trkpt><trkpt lat="43.6485526" lon="10.9271028"><ele>40.0</ele><time>2026-04-04T15:11:35.613Z</time></trkpt><trkpt lat="43.6512685" lon="10.9269341"><ele>46.0</ele><time>2026-04-04T15:12:02.615Z</time></trkpt><trkpt lat="43.6528445" lon="10.9237883"><ele>44.0</ele><time>2026-04-04T15:12:29.622Z</time></trkpt><trkpt lat="43.6552268" lon="10.9218158"><ele>37.0</ele><time>2026-04-04T15:12:45.608Z</time></trkpt><trkpt lat="43.6579698" lon="10.9190741"><ele>36.0</ele><time>2026-04-04T15:13:08.6Z</time></trkpt><trkpt lat="43.6612115" lon="10.917337"><ele>34.0</ele><time>2026-04-04T15:13:29.613Z</time></trkpt><trkpt lat="43.6647335" lon="10.9171679"><ele>34.0</ele><time>2026-04-04T15:14:36.62Z</time></trkpt><trkpt lat="43.6672861" lon="10.9216809"><ele>34.0</ele><time>2026-04-04T15:15:01.623Z</time></trkpt><trkpt lat="43.6706085" lon="10.9202622"><ele>34.0</ele><time>2026-04-04T15:15:27.614Z</time></trkpt><trkpt lat="43.674419" lon="10.9177005"><ele>35.0</ele><time>2026-04-04T15:15:46.613Z</time></trkpt><trkpt lat="43.6784366" lon="10.9167572"><ele>34.0</ele><time>2026-04-04T15:16:20.618Z</time></trkpt><trkpt lat="43.6800334" lon="10.9147015"><ele>30.0</ele><time>2026-04-04T15:16:34.621Z</time></trkpt><trkpt lat="43.6840268" lon="10.9128244"><ele>31.0</ele><time>2026-04-04T15:16:57.706Z</time></trkpt><trkpt lat="43.6873785" lon="10.911874"><ele>42.0</ele><time>2026-04-04T15:17:14.701Z</time></trkpt><trkpt lat="43.6901676" lon="10.910774"><ele>32.0</ele><time>2026-04-04T15:42:26.603Z</time></trkpt><trkpt lat="43.694344" lon="10.9108889"><ele>39.0</ele><time>2026-04-04T15:42:46.606Z</time></trkpt><trkpt lat="43.6972259" lon="10.9114343"><ele>24.0</ele><time>2026-04-04T15:43:05.612Z</time></trkpt><trkpt lat="43.703562" lon="10.9121507"><ele>25.0</ele><time>2026-04-04T15:43:34.581Z</time></trkpt><trkpt lat="43.7072792" lon="10.9147068"><ele>22.0</ele><time>2026-04-04T15:43:53.623Z</time></trkpt><trkpt lat="43.7101038" lon="10.9177414"><ele>23.0</ele><time>2026-04-04T15:44:32.614Z</time></trkpt><trkpt lat="43.7123862" lon="10.9212952"><ele>24.0</ele><time>2026-04-04T15:44:53.628Z</time></trkpt><trkpt lat="43.7151249" lon="10.9211249"><ele>24.0</ele><time>2026-04-04T15:45:22.613Z</time></trkpt><trkpt lat="43.7169053" lon="10.9227402"><ele>23.0</ele><time>2026-04-04T15:45:51.612Z</time></trkpt><trkpt lat="43.7189621" lon="10.9233944"><ele>24.0</ele><time>2026-04-04T15:46:09.609Z</time></trkpt><trkpt lat="43.7222448" lon="10.9251124"><ele>17.0</ele><time>2026-04-04T15:46:37.614Z</time></trkpt><trkpt lat="43.7268474" lon="10.9268923"><ele>27.0</ele><time>2026-04-04T15:47:02.635Z</time></trkpt><trkpt lat="43.7292926" lon="10.9286751"><ele>25.0</ele><time>2026-04-04T15:47:22.697Z</time></trkpt><trkpt lat="43.7306344" lon="10.9253151"><ele>30.0</ele><time>2026-04-04T15:47:47.617Z</time></trkpt><trkpt lat="43.7313947" lon="10.9206455"><ele>28.0</ele><time>2026-04-04T15:48:21.619Z</time></trkpt><trkpt lat="43.7314887" lon="10.9177706"><ele>23.0</ele><time>2026-04-04T15:48:44.617Z</time></trkpt><trkpt lat="43.7316183" lon="10.9149044"><ele>22.0</ele><time>2026-04-04T15:49:04.62Z</time></trkpt><trkpt lat="43.7322511" lon="10.9111923"><ele>24.0</ele><time>2026-04-04T15:49:26.614Z</time></trkpt><trkpt lat="43.7333758" lon="10.9077573"><ele>26.0</ele><time>2026-04-04T15:49:50.616Z</time></trkpt><trkpt lat="43.7345671" lon="10.9054331"><ele>25.0</ele><time>2026-04-04T15:50:09.705Z</time></trkpt><trkpt lat="43.7365441" lon="10.9026291"><ele>30.0</ele><time>2026-04-04T15:50:36.605Z</time></trkpt><trkpt lat="43.7392407" lon="10.9023448"><ele>29.0</ele><time>2026-04-04T15:50:52.617Z</time></trkpt><trkpt lat="43.7419852" lon="10.9015049"><ele>28.0</ele><time>2026-04-04T15:51:11.618Z</time></trkpt><trkpt lat="43.7447242" lon="10.9013336"><ele>28.0</ele><time>2026-04-04T15:51:52.602Z</time></trkpt><trkpt lat="43.7474102" lon="10.9018307"><ele>29.0</ele><time>2026-04-04T15:52:09.625Z</time></trkpt><trkpt lat="43.7500975" lon="10.9030218"><ele>28.0</ele><time>2026-04-04T15:52:26.617Z</time></trkpt><trkpt lat="43.7536093" lon="10.9030148"><ele>30.0</ele><time>2026-04-04T15:52:55.619Z</time></trkpt><trkpt lat="43.7569086" lon="10.9043502"><ele>42.0</ele><time>2026-04-04T15:53:20.62Z</time></trkpt><trkpt lat="43.7586612" lon="10.9029214"><ele>30.0</ele><time>2026-04-04T15:53:49.618Z</time></trkpt><trkpt lat="43.7582808" lon="10.9047438"><ele>29.0</ele><time>2026-04-04T15:56:45.621Z</time></trkpt><trkpt lat="43.7597239" lon="10.904615"><ele>34.0</ele><time>2026-04-04T15:57:03.618Z</time></trkpt><trkpt lat="43.7622575" lon="10.9030079"><ele>32.0</ele><time>2026-04-04T15:57:29.623Z</time></trkpt><trkpt lat="43.764193" lon="10.901963"><ele>55.0</ele><time>2026-04-04T15:57:50.623Z</time></trkpt><trkpt lat="43.7660469" lon="10.9006763"><ele>73.0</ele><time>2026-04-04T15:58:19.62Z</time></trkpt><trkpt lat="43.768006" lon="10.8998867"><ele>73.0</ele><time>2026-04-04T15:58:44.629Z</time></trkpt></trkseg></trk></gpx>